# Wetter Temperatur Luftdruck Luftfeuchtigkeit Sichtweite Windgeschwindigkeit Windrichtung Zeit
1 Haze 22 1011 56 11265 3.1 200 20:57 17.10.2019
2 Haze 22 1010 56 16093 2.1 0 20:38 17.10.2019
3 Haze 21 1010 56 16093 1.5 0 20:19 17.10.2019
4 Haze 21 1011 64 16093 2.6 140 19:56 17.10.2019
5 Haze 21 1011 64 11265 4.1 90 19:38 17.10.2019
6 Haze 20 1010 64 11265 1.5 0 19:19 17.10.2019
7 Haze 19 1010 68 11265 3.1 120 18:43 17.10.2019
8 Haze 19 1010 68 11265 1.82 70.154 18:21 17.10.2019
9 Haze 18 1010 68 11265 1.82 70.154 17:58 17.10.2019
10 Clouds 17 1010 72 14484 3.1 100 17:40 17.10.2019
11 Haze 17 1010 82 9656 3.6 110 17:22 17.10.2019
12 Clear 16 1009 77 11265 3.6 130 16:56 17.10.2019
13 Haze 16 1009 88 9656 2.1 80 16:37 17.10.2019
14 Haze 16 1009 88 9656 2.1 80 16:37 17.10.2019
15 Haze 16 1009 88 9656 2.1 80 16:37 17.10.2019
16 Haze 16 1009 88 9656 2.1 80 16:18 17.10.2019
17 Rain 16 1009 77 16093 1.5 130 15:55 17.10.2019
18 Rain 16 1009 77 16093 1.5 130 15:55 17.10.2019
19 Rain 16 1010 51 16093 1.181 167 15:37 17.10.2019
20 Rain 15 1009 82 14484 2.6 80 15:19 17.10.2019
21 Clouds 16 1009 77 12874 1.856 193 14:42 17.10.2019
22 Rain 16 1009 82 12874 1.856 193 14:23 17.10.2019
23 Rain 16 1009 72 16093 1.856 193 13:56 17.10.2019
24 Rain 16 1008 82 12874 1.856 193 13:38 17.10.2019
25 Rain 16 1009 77 11265 1.856 193 13:18 17.10.2019
26 Mist 16 1009 100 1207 1.856 193 12:41 17.10.2019
27 Mist 16 1009 100 1207 1.636 161 12:21 17.10.2019
28 Rain 16 1009 77 16093 2.1 80 11:59 17.10.2019
29 Rain 16 1009 82 12874 1.5 110 11:59 17.10.2019
30 Rain 16 1009 82 12874 1.5 110 11:40 17.10.2019
31 Rain 17 1009 82 12874 1.5 110 11:19 17.10.2019
32 Rain 17 1009 82 12874 1.5 110 11:19 17.10.2019
33 Rain 17 1011 39 16093 2.1 330 10:56 17.10.2019
34 Rain 17 1011 39 16093 2.1 330 10:38 17.10.2019
35 Rain 17 1009 68 16093 1.636 161 10:18 17.10.2019
36 Rain 17 1010 63 16093 1.636 161 09:54 17.10.2019
37 Rain 17 1009 64 16093 1.439 198 09:36 17.10.2019
38 Rain 17 1010 63 16093 1.461 187 09:18 17.10.2019
39 Rain 18 1010 64 16093 1.461 187 08:42 17.10.2019
40 Rain 18 1010 64 16093 1.461 187 08:24 17.10.2019
41 Clear 18 1010 59 16093 1.461 187 07:56 17.10.2019
42 Clear 18 1010 56 16093 1.461 187 07:37 17.10.2019
43 Clear 18 1010 56 16093 1.461 187 07:18 17.10.2019
44 Clear 18 1010 56 16093 1.461 187 07:18 17.10.2019
45 Clear 19 1009 56 16093 1.461 187 06:40 17.10.2019
46 Clear 20 1009 56 16093 1.74 180 06:21 17.10.2019
47 Clear 20 1009 53 16093 3.6 110 05:57 17.10.2019
48 Clear 20 1009 64 16093 1.74 180 05:32 17.10.2019
49 Clear 21 1009 60 16093 1.5 320 04:56 17.10.2019
50 Clear 22 1010 29 16093 3.6 280 03:55 17.10.2019
51 Clear 25 1011 17 16093 2.1 200 02:53 17.10.2019
52 Clear 26 1011 16 16093 5.1 270 01:39 17.10.2019
53 Clear 27 1011 15 16093 6.2 260 00:40 17.10.2019
54 Clear 29 1010 32 16093 2.6 260 00:19 17.10.2019
55 Clear 30 1010 27 16093 2.41 247 23:42 16.10.2019
56 Clear 30 1010 27 16093 2.41 247 23:21 16.10.2019
57 Clear 30 1011 15 16093 4.1 190 22:56 16.10.2019
58 Clear 30 1011 17 16093 2.41 247 22:38 16.10.2019
59 Clear 30 1011 17 16093 2.41 247 22:19 16.10.2019
60 Clear 30 1011 17 16093 2.41 247 22:19 16.10.2019
61 Clear 31 1012 15 16093 2.41 247 21:58 16.10.2019
62 Clear 31 1012 16 16093 1.718 264 21:38 16.10.2019
63 Clear 31 1012 16 16093 1.718 264 21:38 16.10.2019
64 Clear 30 1012 16 16093 0.451 334 21:20 16.10.2019
65 Clear 29 1012 16 16093 0.451 334 20:58 16.10.2019
66 Clear 29 1015 14 16093 0.451 334 20:40 16.10.2019
67 Clear 28 1013 18 16093 1.5 0 20:21 16.10.2019
68 Clear 27 1013 18 16093 1.5 0 19:59 16.10.2019
69 Clear 27 1015 18 16093 0.451 334 19:39 16.10.2019
70 Clear 27 1015 18 16093 0.451 334 19:39 16.10.2019
71 Clear 26 1013 26 16093 0.451 334 19:21 16.10.2019
72 Clear 24 1016 21 16093 0.451 334 18:56 16.10.2019
73 Clear 24 1016 21 16093 0.451 334 18:56 16.10.2019
74 Clear 23 1016 21 16093 0.451 334 18:37 16.10.2019
75 Clear 22 1014 35 16093 0.772 56 18:18 16.10.2019
76 Clear 20 1015 30 16093 1.5 220 17:54 16.10.2019
77 Clear 20 1015 30 16093 1.5 220 17:54 16.10.2019
78 Haze 18 1014 82 4828 0.772 56 17:36 16.10.2019
79 Clear 18 1014 48 16093 0.772 56 17:18 16.10.2019
80 Clear 16 1014 55 16093 1.5 350 16:43 16.10.2019
81 Mist 15 1014 82 6437 1.5 320 16:22 16.10.2019
82 Clear 15 1014 59 16093 0.772 56 15:59 16.10.2019
83 Clear 15 1015 32 16093 3.1 30 15:39 16.10.2019
84 Rain 15 1014 72 16093 0.549 99 15:19 16.10.2019
85 Rain 15 1013 82 12874 0.549 99 14:58 16.10.2019
86 Rain 15 1013 82 12874 0.849 112 14:39 16.10.2019
87 Rain 16 1013 82 12874 0.849 112 14:20 16.10.2019
88 Rain 16 1013 44 16093 0.849 112 13:57 16.10.2019
89 Rain 16 1013 72 16093 0.849 112 13:39 16.10.2019
90 Rain 16 1013 72 16093 0.849 112 13:21 16.10.2019
91 Rain 16 1014 63 16093 0.849 112 12:42 16.10.2019
92 Rain 16 1014 63 16093 0.611 147 12:20 16.10.2019
93 Rain 17 1014 77 16093 0.611 147 11:55 16.10.2019
94 Rain 17 1015 32 16093 2.6 50 11:37 16.10.2019
95 Rain 17 1014 59 16093 0.611 147 11:18 16.10.2019
96 Rain 17 1015 32 16093 3.6 50 10:36 16.10.2019
97 Rain 17 1014 68 16093 0.611 147 10:18 16.10.2019
98 Rain 18 1014 68 16093 0.611 147 09:40 16.10.2019
99 Rain 18 1014 68 16093 0.78 150 09:22 16.10.2019
100 Rain 18 1014 68 16093 0.78 150 08:57 16.10.2019
101 Rain 18 1014 64 16093 0.78 150 08:39 16.10.2019
102 -273 0 0 0 0 0 08:39 16.10.2019
103 Rain 18 1014 64 16093 0.78 150 08:20 16.10.2019
104 Clear 19 1016 35 16093 0.78 150 07:43 16.10.2019
105 Clear 19 1014 64 16093 0.78 150 07:24 16.10.2019
106 Clear 19 1014 30 16093 3.1 300 06:55 16.10.2019
107 Clear 20 1013 64 16093 0.78 150 06:31 16.10.2019
108 Clear 20 1013 64 16093 1.73 183 05:23 16.10.2019
109 Clear 25 1013 17 16093 1.5 240 02:57 16.10.2019
110 Clear 28 1014 12 16093 4.6 260 01:39 16.10.2019
111 Clear 28 1013 42 16093 2.6 280 01:18 16.10.2019
112 Clear 28 1014 19 16093 3.1 0 00:45 16.10.2019
113 Clear 28 1013 39 16093 1.5 0 00:25 16.10.2019
114 Clear 29 1015 21 16093 2.6 0 23:39 15.10.2019
115 Clear 28 1014 37 16093 2.1 270 23:21 15.10.2019
116 Clear 28 1016 16 16093 3.198 268 22:56 15.10.2019
117 Clear 28 1016 16 16093 3.198 268 22:37 15.10.2019
118 Clear 27 1015 41 16093 1.5 0 22:19 15.10.2019
119 Clear 26 1016 26 16093 1.5 0 21:56 15.10.2019
120 Clear 26 1017 19 14484 3.026 266 21:38 15.10.2019
121 Clear 25 1016 47 11265 1.77 263 21:19 15.10.2019
122 Clear 24 1016 33 16093 1.77 263 20:57 15.10.2019
123 Clear 24 1017 25 16093 1.77 263 20:39 15.10.2019
124 Clear 24 1016 44 11265 1.5 270 20:20 15.10.2019
125 Clear 23 1017 40 16093 2.1 170 19:57 15.10.2019
126 Clear 22 1017 38 14484 1.77 263 19:39 15.10.2019
127 Clear 21 1017 49 11265 1.77 263 19:19 15.10.2019
128 Clear 21 1017 49 11265 1.77 263 19:19 15.10.2019
129 Clear 19 1018 60 16093 1.77 263 18:47 15.10.2019
130 Clear 19 1016 59 12874 1.77 263 18:28 15.10.2019
131 Clear 17 1016 59 12874 0.279 251 17:58 15.10.2019
132 Clear 16 1017 55 16093 0.279 251 17:39 15.10.2019
133 Clear 15 1016 67 12874 1.5 20 17:20 15.10.2019
134 Clear 13 1017 66 16093 0.279 251 16:55 15.10.2019
135 Clear 13 1016 72 11265 0.279 251 16:37 15.10.2019
136 Clear 12 1016 72 11265 0.279 251 16:19 15.10.2019
137 Mist 13 1016 100 4828 0.279 251 15:42 15.10.2019
138 Clear 13 1015 77 14484 1.162 220 15:20 15.10.2019
139 Clear 13 1015 77 14484 1.162 220 14:58 15.10.2019
140 Rain 13 1016 71 16093 2.1 40 14:38 15.10.2019
141 Rain 13 1016 71 16093 2.1 40 14:38 15.10.2019
142 Rain 13 1016 71 16093 2.1 40 14:38 15.10.2019
143 Rain 13 1015 77 11265 0.636 229 14:20 15.10.2019
144 -273 0 0 0 0 0 13:56 15.10.2019
145 Rain 13 1015 76 16093 0.636 229 13:37 15.10.2019
146 Rain 13 1015 82 11265 0.636 229 13:19 15.10.2019
147 Rain 13 1015 71 16093 2.1 40 12:42 15.10.2019
148 Rain 13 1015 82 11265 0.894 234 12:21 15.10.2019
149 Rain 13 1015 67 16093 1.5 300 11:57 15.10.2019
150 Rain 13 1015 62 16093 0.894 234 11:38 15.10.2019
151 Rain 14 1015 77 14484 0.894 234 11:19 15.10.2019
152 Rain 14 1016 67 16093 1.5 70 10:45 15.10.2019
153 Rain 14 1015 82 16093 0.85 258.954 10:22 15.10.2019
154 Rain 14 1015 82 16093 0.85 258.954 09:58 15.10.2019
155 Rain 15 1015 77 16093 1.5 150 09:38 15.10.2019
156 Rain 14 1015 77 16093 1.5 150 09:20 15.10.2019
157 Rain 15 1015 77 16093 0.9 155.198 08:56 15.10.2019
158 Rain 15 1015 77 16093 0.9 155.198 08:37 15.10.2019
159 Rain 15 1015 77 16093 0.9 155.198 08:18 15.10.2019
160 Rain 16 1015 77 16093 0.9 155.198 07:42 15.10.2019
161 Rain 16 1015 77 16093 0.9 155.198 07:21 15.10.2019
162 Rain 16 1014 77 16093 0.9 155.198 06:47 15.10.2019
163 Rain 16 1014 77 16093 0.9 155.198 06:29 15.10.2019
164 Rain 17 1014 72 16093 2.1 140 05:54 15.10.2019
165 Rain 17 1014 72 16093 2.28 241.972 05:35 15.10.2019
166 Rain 18 1013 68 16093 2.1 260 04:39 15.10.2019
167 Rain 18 1013 68 16093 3.1 180 03:58 15.10.2019
168 Rain 19 1013 60 16093 2.6 250 03:30 15.10.2019
169 Rain 21 1012 56 16093 2.1 0 01:51 15.10.2019
170 Rain 22 1012 56 16093 2.1 0 01:24 15.10.2019
171 Rain 22 1012 49 16093 4.1 180 00:58 15.10.2019
172 Rain 22 1013 56 16093 4.6 270 00:24 15.10.2019
173 Rain 22 1012 46 16093 5.1 150 23:57 14.10.2019
174 Rain 22 1013 53 16093 4.16 213.938 23:37 14.10.2019
175 Rain 22 1013 53 16093 4.16 213.938 23:18 14.10.2019
176 Rain 22 1013 47 16093 4.16 213.938 22:39 14.10.2019
177 Rain 22 1013 47 16093 4.16 213.938 22:20 14.10.2019
178 Rain 22 1014 40 16093 2.6 250 21:57 14.10.2019
179 Rain 22 1014 49 16093 4.16 213.938 21:39 14.10.2019
180 Rain 21 1014 49 16093 1.24 206.194 21:20 14.10.2019
181 Haze 21 1014 53 2012 2.12 173.481 20:57 14.10.2019
182 Rain 21 1014 53 16093 2.12 173.481 20:38 14.10.2019
183 Rain 20 1014 53 16093 2.12 173.481 20:19 14.10.2019
184 Clear 20 1015 59 14484 1.774 214 19:44 14.10.2019
185 Rain 19 1015 56 16093 1.774 214 19:25 14.10.2019
186 Rain 18 1015 56 16093 2.12 173.481 18:59 14.10.2019
187 Rain 18 1015 63 16093 2.12 173.481 18:40 14.10.2019
188 Rain 17 1015 68 16093 1.54 155.519 18:21 14.10.2019
189 Rain 17 1014 63 16093 1.5 260 17:59 14.10.2019
190 Rain 16 1014 68 16093 1.54 155.519 17:41 14.10.2019
191 Rain 16 1014 68 16093 1.54 155.519 17:22 14.10.2019
192 Rain 14 1014 87 8047 1.54 155.519 16:46 14.10.2019
193 Rain 14 1013 68 16093 1.54 155.519 16:23 14.10.2019
194 Rain 14 1014 76 16093 1.54 155.519 15:59 14.10.2019
195 Rain 14 1013 68 16093 1.54 155.519 15:40 14.10.2019
196 Rain 15 1013 68 16093 1.28 153.375 15:21 14.10.2019
197 Rain 15 1013 82 16093 1.28 153.375 14:44 14.10.2019
198 Rain 15 1013 68 16093 1.28 153.375 14:25 14.10.2019
199 Rain 15 1013 76 16093 2.1 330 13:57 14.10.2019
200 Rain 15 1013 77 16093 1.75 128.952 13:39 14.10.2019
201 Rain 15 1012 72 14484 1.75 128.952 13:20 14.10.2019
202 Rain 14 1013 72 16093 1.75 128.952 12:41 14.10.2019
203 Rain 14 1013 72 16093 1.05 161.479 12:20 14.10.2019
204 Rain 14 1013 71 16093 1.5 330 11:55 14.10.2019
205 Rain 14 1013 77 12874 1.05 161.479 11:36 14.10.2019
206 Rain 14 1013 77 12874 1.05 161.479 11:18 14.10.2019
207 Clouds 14 1013 82 16093 1.05 161.479 10:43 14.10.2019
208 Clouds 14 1013 82 16093 1.05 161.479 10:43 14.10.2019
209 Rain 14 1012 82 14484 1.05 161.479 10:21 14.10.2019
210 Rain 14 1013 82 16093 1.5 110 09:59 14.10.2019
211 Rain 15 1013 77 16093 1.5 320 09:38 14.10.2019
212 Rain 14 1013 77 16093 1.5 320 09:20 14.10.2019
213 Rain 14 1012 77 16093 1.41 158.274 08:48 14.10.2019
214 Rain 15 1012 77 16093 1.41 158.274 08:23 14.10.2019
215 Rain 15 1012 77 16093 1.41 158.274 07:44 14.10.2019
216 -273 0 0 0 0 0 07:22 14.10.2019
217 Rain 16 1012 77 16093 2.1 240 06:56 14.10.2019
218 Rain 16 1012 77 16093 2.1 240 06:56 14.10.2019
219 Rain 16 1012 77 16093 1.41 158.274 06:28 14.10.2019
220 Rain 16 1011 77 16093 3.1 250 05:53 14.10.2019
221 Rain 17 1011 72 16093 2.6 160 04:53 14.10.2019
222 Smoke 18 1010 56 16093 2.1 260 03:49 14.10.2019
223 Rain 19 1010 56 16093 2.1 260 03:22 14.10.2019
224 Rain 21 1011 33 16093 4.6 140 01:56 14.10.2019
225 Rain 22 1010 53 16093 3.1 260 01:18 14.10.2019
226 Clear 22 1010 50 16093 2.1 260 00:41 14.10.2019
227 Smoke 23 1010 50 16093 2.1 260 00:18 14.10.2019
228 Smoke 23 1010 50 16093 1.5 0 23:40 13.10.2019
229 Smoke 24 1010 50 16093 1.5 0 23:19 13.10.2019
230 Smoke 23 1011 50 16093 1.5 0 22:56 13.10.2019
231 Smoke 23 1011 50 16093 1.5 0 22:38 13.10.2019
232 Smoke 23 1011 50 16093 1.5 0 22:19 13.10.2019
233 Smoke 23 1011 49 16093 3.6 170 21:57 13.10.2019
234 Smoke 23 1011 41 14484 3.6 216.409 21:36 13.10.2019
235 Smoke 23 1011 41 14484 2.43 200.17 21:18 13.10.2019
236 Smoke 22 1012 47 16093 2.43 204.327 20:56 13.10.2019
237 Smoke 22 1012 47 16093 2.43 204.327 20:37 13.10.2019
238 Smoke 22 1012 47 16093 2.43 204.327 20:37 13.10.2019
239 Smoke 22 1012 47 16093 2.43 204.327 20:18 13.10.2019
240 Smoke 21 1012 53 16093 2.1 0 19:55 13.10.2019
241 Smoke 21 1012 60 16093 1.5 250 19:36 13.10.2019
242 Smoke 21 1012 60 16093 1.5 250 19:36 13.10.2019
243 Smoke 20 1012 60 16093 1.5 250 19:18 13.10.2019
244 Smoke 19 1012 52 14484 2.43 204.327 18:41 13.10.2019
245 Smoke 18 1012 52 14484 0.56 201.235 18:21 13.10.2019
246 Smoke 18 1012 52 14484 0.56 201.235 18:21 13.10.2019
247 Clear 17 1012 36 16093 1.5 160 17:59 13.10.2019
248 Rain 16 1011 59 16093 0.56 201.235 17:41 13.10.2019
249 Rain 16 1011 59 16093 0.56 201.235 17:41 13.10.2019
250 Rain 16 1011 59 16093 0.56 201.235 17:41 13.10.2019
251 Rain 15 1011 59 16093 0.56 201.235 17:23 13.10.2019
252 Rain 13 1010 67 16093 0.56 201.235 16:44 13.10.2019
253 Rain 12 1010 67 16093 0.56 201.235 16:20 13.10.2019
254 Rain 12 1010 67 16093 0.56 201.235 16:20 13.10.2019
255 Rain 12 1010 37 16093 0.56 201.235 15:58 13.10.2019
256 Rain 12 1010 37 16093 0.56 201.235 15:58 13.10.2019
257 Rain 13 1010 67 16093 0.56 201.235 15:39 13.10.2019
258 Clear 13 1010 67 16093 1.21 240.526 15:21 13.10.2019
259 Clear 13 1010 35 16093 1.5 240 14:59 13.10.2019
260 Clear 13 1010 71 14484 1.21 240.526 14:40 13.10.2019
261 Clear 13 1010 71 14484 1.21 240.526 14:21 13.10.2019
262 Clear 13 1011 40 16093 1.21 240.526 13:58 13.10.2019
263 Clear 14 1011 72 14484 1.21 240.526 13:38 13.10.2019
264 Clear 14 1011 72 14484 1.17 238.584 13:20 13.10.2019
265 Clear 14 1011 77 14484 1.17 238.584 12:56 13.10.2019
266 Clear 14 1011 77 14484 1.17 238.584 12:38 13.10.2019
267 Clear 14 1011 77 14484 1.22 263.981 12:19 13.10.2019
268 Clear 14 1011 72 16093 1.22 263.981 11:56 13.10.2019
269 Clear 15 1011 72 16093 1.22 263.981 11:38 13.10.2019
270 Clear 14 1011 72 16093 1.22 263.981 11:18 13.10.2019
271 Clear 15 1011 77 16093 1.22 263.981 10:42 13.10.2019
272 Clear 15 1011 77 16093 1.22 263.981 10:23 13.10.2019
273 Clear 15 1011 31 16093 1.22 263.981 09:56 13.10.2019
274 Clear 15 1011 72 16093 1.22 263.981 09:37 13.10.2019
275 Clear 15 1011 72 16093 1.66 171.495 09:19 13.10.2019
276 Clear 15 1011 72 16093 1.74 170.597 08:43 13.10.2019
277 Clear 16 1011 72 16093 1.74 170.597 08:21 13.10.2019
278 Clear 16 1011 68 16093 1.74 170.597 07:46 13.10.2019
279 Clear 17 1011 68 16093 1.74 170.597 07:23 13.10.2019
280 Clear 17 1011 59 16093 1.74 170.597 06:46 13.10.2019
281 Clear 18 1011 49 16093 1.57 210.689 05:50 13.10.2019
282 Clear 19 1010 43 16093 1.57 210.689 04:52 13.10.2019
283 Clear 19 1010 43 16093 1.57 210.689 04:33 13.10.2019
284 Smoke 23 1010 31 16093 2.1 0 02:47 13.10.2019
285 Smoke 24 1010 31 16093 2.1 0 02:18 13.10.2019
286 Smoke 25 1010 36 16093 2.6 280 01:31 13.10.2019
287 Smoke 25 1010 36 16093 2.6 280 01:31 13.10.2019
288 Smoke 25 1010 36 16093 3.6 270 00:52 13.10.2019
289 Smoke 27 1010 36 16093 3.6 270 00:22 13.10.2019
290 Smoke 27 1010 11 16093 1.5 0 23:58 12.10.2019
291 Smoke 27 1010 26 16093 3.1 260 23:39 12.10.2019
292 Smoke 27 1010 26 16093 3.1 260 23:21 12.10.2019
293 Smoke 27 1011 6 16093 2.6 0 22:58 12.10.2019
294 Smoke 28 1011 21 16093 1.5 0 22:39 12.10.2019
295 Smoke 28 1011 21 16093 1.5 0 22:21 12.10.2019
296 Haze 27 1011 23 16093 2.6 180 21:55 12.10.2019
297 Haze 27 1011 8 16093 3.72 222.851 21:37 12.10.2019
298 Haze 26 1011 8 16093 0.57 199.845 21:19 12.10.2019
299 Haze 26 1011 9 16093 0.38 183.188 20:44 12.10.2019
300 Smoke 25 1011 9 16093 0.38 183.188 20:26 12.10.2019
301 Smoke 24 1012 10 16093 0.38 183.188 19:42 12.10.2019
302 Smoke 23 1012 10 16093 0.38 183.188 19:23 12.10.2019
303 Smoke 22 1012 10 16093 0.38 183.188 18:59 12.10.2019
304 Smoke 21 1012 14 16093 0.38 183.188 18:41 12.10.2019
305 Smoke 20 1012 14 16093 1.84 356.787 18:23 12.10.2019
306 Smoke 18 1011 17 16093 1.84 356.787 17:45 12.10.2019
307 Smoke 17 1011 17 16093 1.84 356.787 17:21 12.10.2019
308 Smoke 14 1011 17 16093 1.84 356.787 16:57 12.10.2019
309 Smoke 14 1011 17 16093 1.84 356.787 16:57 12.10.2019
310 Smoke 14 1011 17 16093 1.84 356.787 16:38 12.10.2019
311 Smoke 14 1011 17 16093 1.84 356.787 16:19 12.10.2019
312 Smoke 14 1011 17 16093 1.5 10 15:45 12.10.2019
313 Smoke 14 1011 17 16093 1.5 10 15:26 12.10.2019
314 Smoke 14 1011 17 16093 1.5 10 14:59 12.10.2019
315 Haze 15 1011 20 8047 1.43 14.192 14:38 12.10.2019
316 Haze 15 1011 20 8047 1.43 14.192 14:20 12.10.2019
317 Smoke 15 1011 39 16093 1.43 14.192 13:49 12.10.2019
318 Smoke 15 1011 39 16093 2.29 10.859 13:31 12.10.2019
319 Smoke 15 1012 48 16093 2.29 10.859 12:55 12.10.2019
320 Smoke 15 1012 48 16093 2.29 10.859 12:37 12.10.2019
321 Smoke 15 1012 48 16093 3.11 11.823 12:18 12.10.2019
322 Smoke 16 1013 63 16093 1.5 0 11:41 12.10.2019
323 Smoke 16 1013 63 16093 1.5 0 11:22 12.10.2019
324 Smoke 16 1013 19 16093 3.11 11.823 10:57 12.10.2019
325 Smoke 17 1012 68 16093 2.1 0 10:38 12.10.2019
326 Smoke 17 1012 45 16093 1.5 80 10:19 12.10.2019
327 Smoke 17 1013 16 16093 3.11 11.823 09:56 12.10.2019
328 Smoke 17 1013 16 16093 3.11 11.823 09:56 12.10.2019
329 Smoke 18 1012 16 16093 3.11 11.823 09:37 12.10.2019
330 Smoke 18 1012 16 16093 3.22 16.381 09:19 12.10.2019
331 Smoke 19 1012 13 16093 1.69 23.949 08:43 12.10.2019
332 Smoke 19 1012 13 16093 1.69 23.949 08:23 12.10.2019
333 Smoke 20 1012 12 16093 1.5 30 07:49 12.10.2019
334 Smoke 20 1012 12 16093 1.5 30 07:30 12.10.2019
335 -273 0 0 0 0 0 05:54 12.10.2019
336 Smoke 22 1011 20 16093 2.34 299.626 05:26 12.10.2019
337 Smoke 23 1011 22 16093 3.1 270 04:34 12.10.2019
338 Smoke 24 1011 17 16093 3.1 270 03:53 12.10.2019
339 Smoke 27 1011 9 16093 1.5 260 02:37 12.10.2019
340 Smoke 28 1011 6 16093 1.97 258.822 01:32 12.10.2019
341 Smoke 29 1012 4 16093 1.5 0 00:55 12.10.2019
342 Smoke 29 1012 4 16093 1.5 0 00:37 12.10.2019
343 Smoke 29 1013 4 16093 2.6 300 23:55 11.10.2019
344 Smoke 29 1012 5 16093 1.5 0 23:36 11.10.2019
345 Smoke 28 1012 5 16093 1.5 0 23:18 11.10.2019
346 Smoke 29 1013 4 16093 1.5 0 22:37 11.10.2019
347 Smoke 29 1013 4 16093 1.5 0 22:19 11.10.2019
348 Smoke 29 1014 4 16093 2.6 40 21:42 11.10.2019
349 Smoke 27 1014 4 16093 2.6 40 21:21 11.10.2019
350 Smoke 27 1014 4 16093 2.6 40 21:21 11.10.2019
351 Smoke 27 1014 7 16093 2.1 0 20:57 11.10.2019
352 Smoke 26 1014 7 16093 2.1 0 20:39 11.10.2019
353 Smoke 26 1014 7 16093 2.1 0 20:20 11.10.2019
354 Smoke 26 1014 7 16093 2.1 0 20:20 11.10.2019
355 Smoke 26 1017 4 16093 7.7 360 19:55 11.10.2019
356 Smoke 25 1015 7 16093 2.6 0 19:37 11.10.2019
357 Smoke 25 1015 7 16093 2.6 0 19:18 11.10.2019
358 Smoke 25 1015 7 16093 2.6 0 19:18 11.10.2019
359 Smoke 25 1015 7 16093 2.6 0 19:18 11.10.2019
360 Smoke 25 1015 7 16093 2.6 0 19:18 11.10.2019
361 Smoke 25 1015 7 16093 2.6 0 19:18 11.10.2019
362 Smoke 23 1015 11 16093 2.03 31.235 18:56 11.10.2019
363 Smoke 23 1015 32 16093 2.03 31.235 18:37 11.10.2019
364 Smoke 21 1015 32 16093 3.55 359.143 18:18 11.10.2019
365 Smoke 20 1015 12 16093 3.55 359.143 17:55 11.10.2019
366 Smoke 19 1015 48 16093 3.55 359.143 17:36 11.10.2019
367 Smoke 19 1015 48 16093 3.55 359.143 17:18 11.10.2019
368 Smoke 17 1014 54 16093 3.55 359.143 16:41 11.10.2019
369 Smoke 17 1014 54 16093 3.55 359.143 16:21 11.10.2019
370 Smoke 17 1014 16 16093 3.55 359.143 15:59 11.10.2019
371 Smoke 17 1014 16 16093 3.55 359.143 15:59 11.10.2019
372 Smoke 17 1014 62 16093 3.55 359.143 15:39 11.10.2019
373 Smoke 17 1014 62 16093 1.77 3.829 15:19 11.10.2019
374 Smoke 17 1013 58 16093 1.77 3.829 14:48 11.10.2019
375 Smoke 17 1013 58 16093 1.77 3.829 14:29 11.10.2019
376 Smoke 18 1013 15 16093 1.77 3.829 13:57 11.10.2019
377 Smoke 18 1013 55 16093 2.68 359.68 13:38 11.10.2019
378 Smoke 18 1013 55 16093 2.68 359.68 13:19 11.10.2019
379 Smoke 18 1013 48 16093 1.5 320 12:56 11.10.2019
380 Smoke 18 1013 72 16093 2.68 359.68 12:38 11.10.2019
381 Smoke 18 1013 72 16093 1.71 42.161 12:19 11.10.2019
382 Smoke 18 1013 68 16093 1.71 42.161 11:41 11.10.2019
383 Smoke 18 1013 68 16093 1.71 42.161 11:41 11.10.2019
384 Smoke 18 1013 68 16093 1.71 42.161 11:41 11.10.2019
385 Smoke 18 1013 68 16093 1.71 42.161 11:22 11.10.2019
386 Smoke 18 1013 68 16093 1.71 42.161 11:22 11.10.2019
387 Smoke 18 1013 68 16093 1.71 42.161 10:59 11.10.2019
388 Smoke 18 1013 72 16093 1.71 42.161 10:41 11.10.2019
389 Clear 19 1013 72 16093 1.71 42.161 10:23 11.10.2019
390 Clear 19 1013 12 16093 2.1 0 09:56 11.10.2019
391 Clear 19 1013 72 16093 1.81 23.257 09:37 11.10.2019
392 Clear 20 1013 72 16093 1.85 15.29 09:19 11.10.2019
393 Clear 20 1014 11 16093 1.85 15.29 08:55 11.10.2019
394 Clear 20 1013 68 16093 1.85 15.29 08:37 11.10.2019
395 Clear 20 1013 68 16093 1.85 15.29 08:19 11.10.2019
396 Clear 20 1013 60 16093 1.85 15.29 07:44 11.10.2019
397 Clear 20 1013 60 16093 1.85 15.29 07:25 11.10.2019
398 Clear 20 1012 64 16093 1.85 15.29 06:49 11.10.2019
399 Clear 20 1012 64 16093 4.28 2.038 06:24 11.10.2019
400 Clear 20 1011 64 16093 4.28 2.038 05:41 11.10.2019
401 Clear 20 1012 64 16093 4.28 2.038 04:59 11.10.2019
402 Clear 21 1011 60 16093 4.28 2.038 04:25 11.10.2019
403 Clear 24 1011 44 16093 1.5 260 02:41 11.10.2019
404 Clear 25 1013 3 16093 9.8 320 00:51 11.10.2019
405 Clear 25 1011 39 16093 1.5 0 00:29 11.10.2019
406 Clear 25 1012 32 16093 2 312.916 23:46 10.10.2019
407 Clear 25 1012 32 16093 2 312.916 23:23 10.10.2019
408 Clear 25 1012 32 16093 2 312.916 22:58 10.10.2019
409 Clear 25 1014 5 16093 8.7 350 22:39 10.10.2019
410 Clear 25 1014 5 16093 8.7 350 22:21 10.10.2019
411 Clear 24 1014 27 16093 1.5 140 21:58 10.10.2019
412 Clear 24 1013 41 16093 2 312.916 21:40 10.10.2019
413 Clear 23 1013 41 16093 1.41 188.799 21:21 10.10.2019
414 Clear 23 1014 46 16093 2.1 360 20:57 10.10.2019
415 Clear 23 1014 46 16093 2.1 360 20:57 10.10.2019
416 Clear 22 1013 49 16093 0.43 184.152 20:38 10.10.2019
417 Clear 22 1013 49 16093 0.43 184.152 20:18 10.10.2019
418 Clear 22 1013 49 16093 0.43 184.152 20:18 10.10.2019
419 Clear 21 1014 40 16093 0.43 184.152 19:54 10.10.2019
420 Clear 21 1013 52 16093 0.43 184.152 19:36 10.10.2019
421 Clear 20 1013 52 16093 0.43 184.152 19:18 10.10.2019
422 Clear 20 1013 56 16093 0.43 184.152 18:41 10.10.2019
423 Clear 19 1013 56 16093 1.42 186.037 18:20 10.10.2019
424 Haze 18 1013 52 16093 2.1 60 17:56 10.10.2019
425 Haze 17 1013 63 16093 1.5 0 17:37 10.10.2019
426 Haze 17 1013 63 16093 1.42 186.037 17:18 10.10.2019
427 Clouds 16 1012 63 16093 1.42 186.037 16:47 10.10.2019
428 Clouds 16 1012 63 16093 1.42 186.037 16:26 10.10.2019
429 Clouds 16 1012 77 16093 1.5 310 15:58 10.10.2019
430 Clouds 16 1012 59 16093 1.42 186.037 15:38 10.10.2019
431 Clouds 16 1011 63 16093 1.28 135.953 15:20 10.10.2019
432 Clouds 16 1012 72 16093 1.5 240 14:55 10.10.2019
433 Clouds 16 1012 82 14484 1.28 135.953 14:36 10.10.2019
434 Clouds 16 1011 63 16093 1.28 135.953 14:18 10.10.2019
435 Clouds 17 1011 77 16093 1.28 135.953 13:46 10.10.2019
436 Clouds 17 1011 63 16093 1.1 102.427 13:27 10.10.2019
437 Clouds 17 1011 63 16093 1.1 102.427 12:59 10.10.2019
438 Clouds 17 1011 63 16093 1.1 102.427 12:40 10.10.2019
439 Clouds 17 1011 63 16093 2.27 108.938 12:20 10.10.2019
440 Clouds 17 1011 72 16093 2.1 150 11:58 10.10.2019
441 Clouds 17 1011 63 16093 2.1 0 11:39 10.10.2019
442 Clouds 17 1011 63 16093 2.1 0 11:19 10.10.2019
443 Clouds 17 1011 63 16093 2.1 90 10:45 10.10.2019
444 Clouds 17 1011 63 16093 2.1 90 10:27 10.10.2019
445 Clouds 17 1011 63 0 2.6 110 09:58 10.10.2019
446 Clouds 17 1011 63 0 2.6 110 09:39 10.10.2019
447 Clouds 17 1011 72 16093 2.1 230 09:21 10.10.2019
448 Clouds 17 1011 77 16093 3.1 130 08:58 10.10.2019
449 Clouds 17 1011 77 12874 1.5 150 08:38 10.10.2019
450 Clouds 17 1011 68 16093 2.61 134.55 08:19 10.10.2019
451 Clouds 17 1011 82 12874 2.61 134.55 07:45 10.10.2019
452 Clouds 17 1011 72 16093 2.61 134.55 07:23 10.10.2019
453 Clouds 17 1011 82 14484 2.1 160 06:49 10.10.2019
454 Clouds 17 1010 72 16093 1.27 185.976 06:29 10.10.2019
455 Clouds 17 1010 72 16093 1.5 280 05:28 10.10.2019
456 Clear 17 1011 77 16093 1.27 185.976 04:55 10.10.2019
457 Clouds 17 1010 72 16093 4.1 280 04:33 10.10.2019
458 Clear 20 1009 60 16093 2.6 260 02:19 10.10.2019
459 Clear 21 1009 56 16093 2.6 0 01:36 10.10.2019
460 Clear 22 1009 56 16093 2.6 0 01:18 10.10.2019
461 Clear 22 1009 56 16093 3.91 198.68 00:25 10.10.2019
462 Clear 23 1009 56 16093 3.91 198.68 23:41 09.10.2019
463 Clear 23 1009 56 16093 3.91 198.68 23:23 09.10.2019
464 Rain 23 1009 49 16093 4.1 190 22:59 09.10.2019
465 Rain 23 1010 50 16093 2.1 0 22:41 09.10.2019
466 Rain 23 1010 50 16093 2.1 0 22:22 09.10.2019
467 Haze 22 1010 49 16093 4.1 160 21:56 09.10.2019
468 Haze 22 1011 50 16093 3.91 198.68 21:38 09.10.2019
469 Haze 22 1011 50 16093 2.4 167.753 21:18 09.10.2019
470 Haze 21 1012 60 16093 2.1 0 20:54 09.10.2019
471 Haze 21 1012 56 14484 2.17 153.801 20:36 09.10.2019
472 Haze 20 1012 60 12874 2.17 153.801 20:18 09.10.2019
473 Haze 20 1012 68 14484 2.1 0 19:43 09.10.2019
474 Haze 19 1012 64 11265 2.17 153.801 19:22 09.10.2019
475 Haze 19 1012 72 8047 2.1 150 18:39 09.10.2019
476 Haze 18 1012 72 11265 2.6 140 18:21 09.10.2019
477 Haze 17 1012 77 6437 1.5 170 17:58 09.10.2019
478 Haze 17 1011 68 9656 1.61 107.547 17:40 09.10.2019
479 Haze 17 1011 68 9656 1.61 107.547 17:22 09.10.2019
480 Haze 16 1012 82 6437 1.61 107.547 16:57 09.10.2019
481 Haze 16 1011 72 11265 1.61 107.547 16:39 09.10.2019
482 Haze 16 1011 72 11265 1.61 107.547 16:20 09.10.2019
483 Haze 16 1011 72 11265 1.61 107.547 16:20 09.10.2019
484 Haze 16 1011 72 11265 2.6 100 15:56 09.10.2019
485 Haze 16 1011 72 9656 1.61 107.547 15:37 09.10.2019
486 Haze 16 1011 72 9656 1.61 107.547 15:37 09.10.2019
487 Haze 16 1011 72 9656 1.63 135.744 15:18 09.10.2019
488 Haze 16 1011 72 9656 1.63 135.744 14:45 09.10.2019
489 Haze 16 1011 72 11265 1.5 140 14:19 09.10.2019
490 Haze 16 1011 72 9656 1.63 135.744 14:00 09.10.2019
491 Mist 16 1011 82 8047 2.6 150 13:38 09.10.2019
492 Mist 16 1011 82 8047 2.6 150 13:38 09.10.2019
493 Mist 16 1011 72 0 1.5 100 13:18 09.10.2019
494 Clouds 16 1011 82 14484 1.5 100 12:44 09.10.2019
495 Clouds 16 1011 82 14484 0.92 195.511 12:23 09.10.2019
496 Clouds 16 1011 82 14484 0.92 195.511 12:23 09.10.2019
497 Mist 16 1012 82 16093 0.92 195.511 11:58 09.10.2019
498 Mist 16 1011 82 14484 0.92 195.511 11:40 09.10.2019
499 Mist 16 1011 77 16093 0.92 195.511 11:20 09.10.2019
500 Mist 16 1011 87 9656 0.92 195.511 10:59 09.10.2019
501 Mist 16 1011 77 9656 1.5 130 10:40 09.10.2019
502 Mist 16 1011 82 16093 0.92 195.511 10:19 09.10.2019
503 Mist 16 1011 82 16093 0.92 195.511 10:19 09.10.2019
504 Haze 16 1011 77 9656 0.92 195.511 09:43 09.10.2019
505 Clear 16 1011 82 12874 1.04 172.739 09:21 09.10.2019
506 Clear 16 1011 77 16093 1.5 90 08:58 09.10.2019
507 Clear 16 1011 82 14484 1.1 204.903 08:39 09.10.2019
508 Clear 17 1011 82 14484 1.1 204.903 08:20 09.10.2019
509 Clouds 17 1012 77 16093 1.5 290 07:47 09.10.2019
510 Clouds 17 1011 77 16093 3.6 260 07:25 09.10.2019
511 Clear 17 1011 82 16093 2.1 170 06:58 09.10.2019
512 Clear 17 1011 77 14484 1.5 0 06:40 09.10.2019
513 Clouds 18 1011 77 16093 3.1 240 05:53 09.10.2019
514 Clear 18 1010 77 16093 1.04 192.457 05:18 09.10.2019
515 Clear 20 1011 35 16093 1.04 192.457 03:48 09.10.2019
516 Clear 20 1011 35 16093 1.04 192.457 03:48 09.10.2019
517 Clear 23 1010 64 16093 4.6 280 02:34 09.10.2019
518 Clear 24 1009 50 16093 2.1 0 01:39 09.10.2019
519 Clear 24 1009 50 16093 2.1 0 01:39 09.10.2019
520 Clear 24 1009 50 16093 2.1 0 01:18 09.10.2019
521 Clear 25 1011 24 16093 4.6 110 00:55 09.10.2019
522 Clear 25 1011 24 16093 4.6 110 00:55 09.10.2019
523 Clear 25 1010 44 16093 1.98 202.78 00:36 09.10.2019
524 Clear 26 1010 44 16093 3.73 209.945 00:18 09.10.2019
525 Clear 26 1010 44 16093 3.73 209.945 23:38 08.10.2019
526 Clear 26 1010 44 16093 3.73 209.945 23:18 08.10.2019
527 Clear 26 1011 47 16093 1.5 0 22:55 08.10.2019
528 Clear 27 1011 47 16093 1.5 0 22:37 08.10.2019
529 Clear 26 1011 47 16093 1.5 0 22:18 08.10.2019
530 Clear 25 1013 21 16093 3.73 209.945 21:56 08.10.2019
531 Clear 25 1012 44 16093 3.73 209.945 21:36 08.10.2019
532 Clear 25 1012 44 16093 2.09 172.705 21:18 08.10.2019
533 Haze 24 1012 29 16093 2.6 0 20:55 08.10.2019
534 Haze 24 1012 47 12874 1.5 240 20:37 08.10.2019
535 Haze 24 1012 47 12874 1.5 240 20:18 08.10.2019
536 Haze 23 1014 25 16093 2.1 90 19:55 08.10.2019
537 Haze 23 1012 53 11265 2.3 177.513 19:36 08.10.2019
538 Haze 23 1012 53 11265 2.3 177.513 19:36 08.10.2019
539 Haze 22 1012 53 11265 2.3 177.513 19:18 08.10.2019
540 Haze 20 1012 64 11265 2.3 177.513 18:42 08.10.2019
541 Haze 19 1012 64 11265 0.77 111.565 18:24 08.10.2019
542 Haze 18 1012 82 3219 0.77 111.565 17:57 08.10.2019
543 Haze 17 1012 87 0 0.77 111.565 17:39 08.10.2019
544 Haze 17 1012 87 0 0.77 111.565 17:20 08.10.2019
545 Haze 15 1012 87 402 0.77 111.565 16:56 08.10.2019
546 Haze 15 1012 87 402 0.77 111.565 16:56 08.10.2019
547 -273 0 0 0 0 0 16:56 08.10.2019
548 Fog 15 1011 77 16093 0.77 111.565 16:37 08.10.2019
549 Fog 15 1011 77 16093 0.77 111.565 16:18 08.10.2019
550 Fog 14 1011 77 16093 0.77 111.565 15:39 08.10.2019
551 Fog 14 1011 77 16093 0.77 111.565 15:39 08.10.2019
552 Fog 14 1011 77 16093 0.48 174.065 15:20 08.10.2019
553 Fog 15 1011 100 805 0.48 174.065 14:56 08.10.2019
554 Fog 15 1011 82 16093 0.48 174.065 14:38 08.10.2019
555 Fog 15 1011 82 16093 0.48 174.065 14:19 08.10.2019
556 Fog 15 1011 100 603 0.48 174.065 13:55 08.10.2019
557 Clear 15 1011 77 16093 0.48 174.065 13:37 08.10.2019
558 Clear 15 1011 77 16093 0.69 139.119 13:18 08.10.2019
559 Mist 15 1011 77 16093 0.69 139.119 12:41 08.10.2019
560 Mist 15 1011 77 16093 1.04 82.073 12:20 08.10.2019
561 Mist 15 1011 77 16093 1.04 82.073 12:20 08.10.2019
562 Clear 15 1012 55 16093 1.04 82.073 11:58 08.10.2019
563 Clear 16 1012 77 16093 1.04 82.073 11:39 08.10.2019
564 Clear 16 1012 77 16093 1.04 82.073 11:21 08.10.2019
565 Clear 16 1012 77 16093 1.04 82.073 11:21 08.10.2019
566 Mist 16 1012 77 16093 1.04 82.073 10:54 08.10.2019
567 -273 0 0 0 0 0 10:54 08.10.2019
568 Mist 16 1012 77 16093 1.04 82.073 10:36 08.10.2019
569 Mist 16 1012 77 16093 1.04 82.073 10:18 08.10.2019
570 Mist 17 1012 72 16093 1.04 82.073 09:40 08.10.2019
571 Mist 17 1012 72 16093 1.13 105.046 09:22 08.10.2019
572 Clear 17 1012 77 16093 1.21 132.096 08:45 08.10.2019
573 Clear 18 1012 77 16093 1.21 132.096 08:25 08.10.2019
574 Clear 18 1013 72 16093 2.1 100 07:58 08.10.2019
575 Clear 18 1012 77 16093 1.21 132.096 07:40 08.10.2019
576 Clear 18 1012 77 16093 1.21 132.096 07:19 08.10.2019
577 Clear 19 1012 68 16093 1.21 132.096 06:46 08.10.2019
578 Clear 19 1012 68 16093 1.32 239.521 06:23 08.10.2019
579 Clear 20 1012 68 16093 1.32 239.521 05:43 08.10.2019
580 Clear 20 1012 68 16093 1.32 239.521 05:21 08.10.2019
581 Clear 23 1011 50 16093 2.1 260 03:32 08.10.2019
582 Clear 26 1011 34 16093 2.1 260 02:44 08.10.2019
583 Clear 27 1011 34 16093 2.1 260 02:25 08.10.2019
584 Clear 27 1012 42 16093 2.6 260 01:42 08.10.2019
585 Clear 28 1012 15 16093 4.1 170 00:57 08.10.2019
586 Clear 28 1012 20 16093 2.1 0 00:36 08.10.2019
587 Clear 30 1012 20 16093 2.1 0 00:18 08.10.2019
588 Clear 29 1014 17 16093 3.1 130 23:38 07.10.2019
589 Clouds 29 1017 65 1200 5.7 350 23:19 07.10.2019
590 Clear 29 1013 42 16093 4.31 230.383 22:55 07.10.2019
591 Clear 28 1013 42 16093 4.31 230.383 22:37 07.10.2019
592 Clear 28 1013 42 16093 4.31 230.383 22:19 07.10.2019
593 Clear 28 1014 39 16093 4.31 230.383 21:55 07.10.2019
594 Clear 28 1014 39 16093 4.31 230.383 21:37 07.10.2019
595 Clear 27 1014 39 16093 2.51 221.392 21:18 07.10.2019
596 Clear 27 1014 32 16093 2.62 219.539 20:56 07.10.2019
597 Clear 27 1014 32 16093 2.62 219.539 20:38 07.10.2019
598 Clear 27 1014 32 16093 2.62 219.539 20:19 07.10.2019
599 Clear 26 1015 17 16093 2.1 160 19:54 07.10.2019
600 Clear 26 1015 39 16093 2.62 219.539 19:36 07.10.2019
601 Clear 25 1015 39 16093 2.62 219.539 19:18 07.10.2019
602 Clear 22 1015 52 14484 2.62 219.539 18:43 07.10.2019
603 Haze 21 1015 52 14484 0.9 244.597 18:20 07.10.2019
604 Haze 19 1015 32 16093 1.5 200 17:59 07.10.2019
605 Haze 19 1015 63 16093 0.9 244.597 17:41 07.10.2019
606 Haze 18 1015 63 16093 0.9 244.597 17:19 07.10.2019
607 Haze 15 1015 77 16093 0.9 244.597 16:55 07.10.2019
608 Haze 15 1015 77 16093 0.9 244.597 16:55 07.10.2019
609 Haze 15 1015 77 16093 0.9 244.597 16:37 07.10.2019
610 Clear 15 1015 77 16093 0.9 244.597 16:18 07.10.2019
611 Clear 14 1015 77 16093 0.9 244.597 15:41 07.10.2019
612 Clear 14 1015 77 16093 0.9 244.597 15:41 07.10.2019
613 Clear 15 1015 77 16093 1.48 244.77 15:22 07.10.2019
614 Haze 15 1014 77 16093 1.48 244.77 14:42 07.10.2019
615 Haze 15 1014 77 16093 1.48 244.77 14:23 07.10.2019
616 Clear 16 1015 41 16093 1.48 244.77 13:59 07.10.2019
617 Clear 16 1014 77 16093 1.48 244.77 13:40 07.10.2019
618 Clear 15 1014 77 16093 1.15 266.1 13:18 07.10.2019
619 Clear 16 1015 77 16093 1.15 266.1 12:54 07.10.2019
620 Clear 16 1015 77 16093 1.15 266.1 12:36 07.10.2019
621 Clear 16 1015 77 16093 1.15 266.1 12:36 07.10.2019
622 Clear 16 1015 77 16093 0.36 265.746 12:18 07.10.2019
623 Clear 16 1015 33 16093 0.36 265.746 11:56 07.10.2019
624 Clear 16 1015 77 16093 0.36 265.746 11:36 07.10.2019
625 Mist 17 1015 77 16093 0.36 265.746 11:18 07.10.2019
626 Mist 16 1015 82 14484 0.36 265.746 10:40 07.10.2019
627 Mist 17 1015 82 14484 0.36 265.746 10:20 07.10.2019
628 Clear 17 1015 82 16093 0.36 265.746 09:42 07.10.2019
629 Clear 17 1015 82 16093 1.64 183.075 09:23 07.10.2019
630 Clear 17 1016 52 16093 1.64 183.075 08:56 07.10.2019
631 Clear 18 1015 82 16093 1.82 193.685 08:37 07.10.2019
632 Clear 18 1015 82 16093 1.82 193.685 08:18 07.10.2019
633 Clear 18 1015 72 16093 1.82 193.685 07:41 07.10.2019
634 Clear 19 1015 72 16093 1.82 193.685 07:21 07.10.2019
635 Clear 19 1015 64 16093 1.82 193.685 06:48 07.10.2019
636 Clear 19 1015 64 16093 1.09 261.922 06:27 07.10.2019
637 Clear 20 1014 56 16093 1.09 261.922 05:42 07.10.2019
638 Clear 20 1014 56 16093 1.09 261.922 05:21 07.10.2019
639 Clear 22 1014 43 16093 1.5 270 04:24 07.10.2019
640 Clear 23 1013 36 16093 1.09 261.922 03:44 07.10.2019
641 Clear 23 1013 36 16093 1.09 261.922 03:44 07.10.2019
642 Clear 26 1013 36 16093 3.34 236.823 03:20 07.10.2019
643 Rain 28 1014 39 16093 2.6 260 02:21 07.10.2019
644 Clear 28 1014 42 16093 1.5 0 01:50 07.10.2019
645 Clear 28 1014 42 16093 1.5 0 01:21 07.10.2019
646 Clear 28 1014 9 16093 4.6 190 00:39 07.10.2019
647 Clear 29 1014 39 16093 2.6 270 00:20 07.10.2019
648 Clear 28 1015 35 16093 1.5 250 23:42 06.10.2019
649 Clear 29 1015 35 16093 1.5 250 23:22 06.10.2019
650 Clear 30 1015 48 16093 2.1 240 22:59 06.10.2019
651 Clear 31 1015 20 16093 2.93 227.766 22:41 06.10.2019
652 Clear 30 1015 20 16093 2.93 227.766 22:22 06.10.2019
653 Clear 30 1015 20 16093 2.93 227.766 21:58 06.10.2019
654 Clear 30 1016 25 16093 2.93 227.766 21:38 06.10.2019
655 Clear 28 1016 25 16093 1.86 199.457 21:19 06.10.2019
656 Clear 27 1017 20 16093 2.1 0 20:58 06.10.2019
657 Clear 27 1017 30 16093 1.92 211.384 20:40 06.10.2019
658 Clear 27 1017 30 16093 1.92 211.384 20:40 06.10.2019
659 Clear 26 1017 30 16093 1.92 211.384 20:21 06.10.2019
660 Clear 25 1017 22 16093 1.92 211.384 19:57 06.10.2019
661 Clear 24 1017 36 16093 1.92 211.384 19:37 06.10.2019
662 Clear 23 1017 36 16093 1.92 211.384 19:19 06.10.2019
663 Clear 22 1017 30 16093 1.92 211.384 18:57 06.10.2019
664 Clear 20 1017 49 16093 1.92 211.384 18:39 06.10.2019
665 Clear 20 1017 49 16093 0.13 348.158 18:19 06.10.2019
666 Clear 19 1017 49 16093 0.13 348.158 17:58 06.10.2019
667 Clear 17 1016 63 16093 0.13 348.158 17:39 06.10.2019
668 Clear 16 1016 63 16093 0.13 348.158 17:19 06.10.2019
669 Clear 14 1016 77 16093 0.13 348.158 16:42 06.10.2019
670 Clear 13 1016 77 16093 0.13 348.158 16:24 06.10.2019
671 Clear 13 1017 58 16093 1.5 340 15:58 06.10.2019
672 Clouds 13 1016 67 16093 0.13 348.158 15:39 06.10.2019
673 Clear 13 1016 67 16093 1.17 261.134 15:18 06.10.2019
674 Clear 14 1015 72 16093 1.17 261.134 14:43 06.10.2019
675 Clear 14 1015 72 16093 1.17 261.134 14:24 06.10.2019
676 Clear 14 1015 77 16093 1.17 261.134 13:58 06.10.2019
677 Clear 14 1015 77 16093 1.17 261.134 13:39 06.10.2019
678 Clear 14 1015 77 16093 1.17 261.134 13:39 06.10.2019
679 Clear 14 1015 77 16093 1.52 263.926 13:21 06.10.2019
680 Clear 14 1015 77 16093 1.52 263.926 13:21 06.10.2019
681 Clear 14 1015 54 16093 1.52 263.926 12:57 06.10.2019
682 Clear 14 1015 77 16093 1.52 263.926 12:39 06.10.2019
683 Clear 14 1015 77 16093 0.57 209.695 12:20 06.10.2019
684 Clear 14 1015 77 16093 0.57 209.695 12:20 06.10.2019
685 Clear 15 1016 55 16093 1.5 220 11:57 06.10.2019
686 Clear 15 1015 77 16093 0.57 209.695 11:38 06.10.2019
687 Clear 15 1015 77 16093 0.57 209.695 11:20 06.10.2019
688 Clear 15 1015 77 16093 0.57 209.695 10:44 06.10.2019
689 Clear 15 1015 77 16093 0.57 209.695 10:26 06.10.2019
690 Clear 16 1015 51 16093 1.5 240 09:58 06.10.2019
691 Clear 16 1015 77 16093 0.57 209.695 09:40 06.10.2019
692 Clear 16 1015 77 16093 1.49 209.125 09:19 06.10.2019
693 Clear 16 1015 72 16093 1.49 209.125 08:43 06.10.2019
694 Clear 17 1015 72 16093 0.97 189.899 08:21 06.10.2019
695 Clear 17 1016 59 16093 0.97 189.899 07:56 06.10.2019
696 Clear 17 1015 72 16093 0.97 189.899 07:35 06.10.2019
697 Clear 18 1015 64 16093 1.91 233.725 06:23 06.10.2019
698 Clear 19 1015 56 16093 1.91 233.725 05:35 06.10.2019
699 Clear 20 1014 49 16093 1.5 260 04:26 06.10.2019
700 Clear 25 1014 39 16093 2.1 260 02:47 06.10.2019
701 Clear 25 1014 39 16093 2.1 260 02:27 06.10.2019
702 Clear 25 1016 21 16093 3.6 130 01:46 06.10.2019
703 Clear 25 1015 36 16093 2.1 250 01:27 06.10.2019
704 Clear 26 1015 24 16093 4.6 180 00:57 06.10.2019
705 Clear 27 1015 34 16093 3.3 212.232 00:29 06.10.2019
706 Clear 27 1015 42 16093 3.3 212.232 23:46 05.10.2019
707 Clear 27 1015 42 16093 3.3 212.232 23:23 05.10.2019
708 Clear 27 1016 24 16093 2.6 0 22:59 05.10.2019
709 Clear 27 1016 34 16093 3.3 212.232 22:40 05.10.2019
710 Clear 27 1016 34 16093 3.3 212.232 22:21 05.10.2019
711 Clear 26 1016 34 16093 3.3 212.232 21:59 05.10.2019
712 Clear 26 1017 30 16093 3.3 212.232 21:40 05.10.2019
713 Clear 25 1017 30 16093 1.75 195.14 21:21 05.10.2019
714 Clear 25 1017 29 16093 2.6 190 20:56 05.10.2019
715 Clear 25 1017 34 16093 1.82 205.565 20:38 05.10.2019
716 Clear 24 1017 34 16093 1.82 205.565 20:19 05.10.2019
717 Clear 23 1017 40 16093 1.82 205.565 19:40 05.10.2019
718 Clear 22 1017 40 16093 1.82 205.565 19:22 05.10.2019
719 Clear 21 1018 35 16093 1.82 205.565 18:57 05.10.2019
720 Clear 20 1017 52 16093 1.82 205.565 18:39 05.10.2019
721 Clear 19 1017 52 16093 1.07 317.719 18:21 05.10.2019
722 Clear 18 1018 48 16093 1.07 317.719 17:56 05.10.2019
723 Clear 17 1017 59 16093 1.07 317.719 17:37 05.10.2019
724 Clear 16 1017 59 16093 1.07 317.719 17:19 05.10.2019
725 Clear 14 1016 63 16093 1.07 317.719 16:42 05.10.2019
726 Clear 13 1016 63 16093 1.07 317.719 16:22 05.10.2019
727 Clear 13 1017 66 16093 1.07 317.719 15:58 05.10.2019
728 Clear 13 1016 72 16093 1.07 317.719 15:40 05.10.2019
729 Clear 13 1016 72 16093 0.64 279.992 15:21 05.10.2019
730 Clear 14 1016 72 16093 0.64 279.992 14:59 05.10.2019
731 Clear 14 1016 82 16093 0.64 279.992 14:41 05.10.2019
732 Clear 14 1016 82 16093 0.64 279.992 14:20 05.10.2019
733 Clear 14 1015 82 16093 0.64 279.992 13:43 05.10.2019
734 Clear 14 1015 82 16093 0.65 308.701 13:23 05.10.2019
735 Clear 14 1016 58 16093 1.5 0 12:57 05.10.2019
736 Clear 14 1016 58 16093 1.5 0 12:39 05.10.2019
737 Clear 14 1016 58 16093 1.5 0 12:39 05.10.2019
738 Clear 14 1016 82 16093 0.17 47.793 12:18 05.10.2019
739 -273 0 0 0 0 0 11:39 05.10.2019
740 Clear 15 1016 82 16093 0.17 47.793 11:19 05.10.2019
741 Clear 15 1016 77 16093 0.17 47.793 10:54 05.10.2019
742 Clear 15 1016 63 16093 0.17 47.793 10:36 05.10.2019
743 Clear 15 1016 77 16093 0.17 47.793 10:18 05.10.2019
744 -273 0 0 0 0 0 09:39 05.10.2019
745 Clear 15 1016 55 16093 1.02 210.281 09:21 05.10.2019
746 Clear 16 1016 59 16093 0.81 215.431 08:41 05.10.2019
747 Clear 16 1016 59 16093 0.81 215.431 08:22 05.10.2019
748 Clear 16 1016 77 16093 0.81 215.431 07:59 05.10.2019
749 Clear 17 1016 77 16093 0.81 215.431 07:38 05.10.2019
750 Clear 17 1016 77 16093 0.81 215.431 07:19 05.10.2019
751 Clear 17 1016 72 16093 0.81 215.431 06:50 05.10.2019
752 Clear 18 1016 72 16093 1.97 246.801 06:18 05.10.2019
753 Clear 19 1015 56 16093 1.97 246.801 04:44 05.10.2019
754 Clear 21 1015 49 16093 2.6 270 03:30 05.10.2019
755 Clear 23 1015 38 16093 4.1 190 01:59 05.10.2019
756 Clear 23 1015 44 16093 2.6 0 01:24 05.10.2019
757 Clear 24 1015 44 16093 3.1 260 00:46 05.10.2019
758 Clear 24 1015 44 16093 3.1 260 00:27 05.10.2019
759 Clear 24 1015 31 16093 5.7 180 23:55 04.10.2019
760 Clear 24 1015 44 16093 3.1 260 23:37 04.10.2019
761 Clear 24 1015 44 16093 3.1 260 23:18 04.10.2019
762 Clear 24 1015 44 16093 3.87 213.657 22:41 04.10.2019
763 Clear 24 1015 44 16093 3.87 213.657 22:23 04.10.2019
764 Clear 23 1015 36 16093 3.6 180 21:58 04.10.2019
765 Clear 23 1016 36 16093 3.87 213.657 21:40 04.10.2019
766 Clear 23 1016 36 16093 2.76 198.671 21:21 04.10.2019
767 Clear 22 1016 40 16093 2.63 196.747 20:58 04.10.2019
768 Clear 22 1016 40 16093 2.63 196.747 20:39 04.10.2019
769 Clear 22 1016 40 16093 2.63 196.747 20:21 04.10.2019
770 Clear 21 1017 37 16093 2.6 150 19:55 04.10.2019
771 Clear 21 1016 46 16093 1.5 130 19:37 04.10.2019
772 Clear 20 1016 46 16093 1.5 130 19:18 04.10.2019
773 Clear 19 1016 59 16093 2.63 196.747 18:40 04.10.2019
774 Clear 18 1016 59 16093 0.3 179.429 18:20 04.10.2019
775 Clear 17 1016 63 16093 0.3 179.429 17:59 04.10.2019
776 Clear 16 1016 67 16093 0.3 179.429 17:39 04.10.2019
777 Clear 15 1016 67 16093 0.3 179.429 17:21 04.10.2019
778 Smoke 14 1016 58 16093 0.3 179.429 16:57 04.10.2019
779 Smoke 13 1016 93 16093 2.6 40 16:39 04.10.2019
780 Smoke 13 1016 93 16093 2.6 40 16:39 04.10.2019
781 Smoke 12 1016 66 16093 0.3 179.429 16:18 04.10.2019
782 Smoke 12 1016 66 16093 0.3 179.429 15:56 04.10.2019
783 Smoke 12 1015 93 16093 2.1 60 15:37 04.10.2019
784 Smoke 12 1015 62 16093 1.03 140.922 15:19 04.10.2019
785 Smoke 12 1015 93 16093 2.6 70 14:55 04.10.2019
786 Smoke 12 1015 93 16093 2.6 70 14:55 04.10.2019
787 Clear 12 1015 77 16093 1.03 140.922 14:36 04.10.2019
788 Clear 13 1015 77 16093 1.03 140.922 14:18 04.10.2019
789 Clouds 13 1015 87 16093 1.5 0 13:43 04.10.2019
790 Clouds 13 1015 87 16093 1.5 0 13:21 04.10.2019
791 Clear 13 1015 77 16093 0.24 153.965 12:47 04.10.2019
792 Clouds 13 1015 87 16093 1.5 0 12:29 04.10.2019
793 Clear 13 1015 77 16093 0.66 155.462 11:59 04.10.2019
794 Clouds 13 1015 87 16093 1.5 50 11:41 04.10.2019
795 Clouds 13 1015 87 16093 1.5 50 11:41 04.10.2019
796 Clouds 13 1015 87 16093 1.5 50 11:41 04.10.2019
797 Clouds 14 1015 87 16093 1.5 50 11:21 04.10.2019
798 Clouds 14 1015 87 16093 1.5 50 11:21 04.10.2019
799 Clouds 14 1016 66 1200 2.1 220 10:41 04.10.2019
800 Clouds 14 1016 66 1200 2.1 220 10:41 04.10.2019
801 Clouds 14 1016 66 1200 2.1 220 10:21 04.10.2019
802 Clouds 14 1016 66 1200 2.1 220 10:21 04.10.2019
803 Clouds 15 1015 82 16093 0.66 155.462 09:50 04.10.2019
804 Clouds 14 1015 82 16093 0.87 175.313 09:31 04.10.2019
805 Clear 15 1015 63 16093 1.5 80 08:57 04.10.2019
806 Clear 15 1014 72 16093 1.51 194.45 08:38 04.10.2019
807 Clear 15 1014 72 16093 1.51 194.45 08:38 04.10.2019
808 Clear 15 1014 72 16093 1.51 194.45 08:20 04.10.2019
809 Clear 16 1014 63 16093 1.51 194.45 07:46 04.10.2019
810 Clear 16 1014 63 16093 1.51 194.45 07:23 04.10.2019
811 Clear 17 1014 63 16093 1.51 194.45 06:48 04.10.2019
812 Clear 17 1014 63 16093 1.44 212.919 06:27 04.10.2019
813 Clear 17 1014 63 16093 1.44 212.919 06:27 04.10.2019
814 Clear 18 1014 55 16093 3.1 300 05:52 04.10.2019
815 Clear 18 1013 56 16093 1.5 0 05:19 04.10.2019
816 Clear 19 1013 46 16093 1.44 212.919 04:25 04.10.2019
817 Clear 22 1013 44 16093 1.5 0 02:56 04.10.2019
818 Clear 22 1013 44 16093 1.5 0 02:37 04.10.2019
819 Clear 23 1013 44 16093 2.6 270 01:43 04.10.2019
820 Clear 24 1013 44 16093 2.6 270 01:24 04.10.2019
821 -273 0 0 0 0 0 00:24 04.10.2019
822 Clear 24 1013 47 16093 3.37 195.34 23:38 03.10.2019
823 Clear 24 1013 47 16093 3.37 195.34 23:19 03.10.2019
824 Clear 24 1014 31 16093 3.1 130 22:57 03.10.2019
825 Clear 24 1013 47 16093 3.37 195.34 22:39 03.10.2019
826 Clear 24 1013 47 16093 3.37 195.34 22:21 03.10.2019
827 Clear 24 1014 36 16093 4.6 190 21:56 03.10.2019
828 Clear 24 1014 39 16093 3.37 195.34 21:38 03.10.2019
829 Clear 23 1014 39 16093 2.4 186.739 21:19 03.10.2019
830 Clear 23 1014 47 16093 2.51 196.463 20:57 03.10.2019
831 Clear 23 1014 47 16093 2.51 196.463 20:37 03.10.2019
832 Clear 23 1014 47 16093 2.51 196.463 20:37 03.10.2019
833 Clear 22 1014 47 16093 2.51 196.463 20:19 03.10.2019
834 Clear 22 1017 35 16093 2.51 196.463 19:55 03.10.2019
835 Clear 21 1014 56 16093 2.51 196.463 19:37 03.10.2019
836 Clear 21 1014 56 16093 2.51 196.463 19:19 03.10.2019
837 Clear 20 1016 37 16093 2.51 196.463 18:54 03.10.2019
838 Clear 20 1015 59 16093 2.51 196.463 18:36 03.10.2019
839 Clear 19 1015 59 16093 1.07 213.141 18:18 03.10.2019
840 Clear 17 1014 67 16093 1.07 213.141 17:42 03.10.2019
841 Clear 16 1014 67 16093 1.07 213.141 17:21 03.10.2019
842 -273 0 0 0 0 0 16:55 03.10.2019
843 Clouds 13 1014 87 16093 1.07 213.141 16:37 03.10.2019
844 Clear 13 1014 62 16093 1.5 340 16:19 03.10.2019
845 Clear 13 1013 72 16093 1.07 213.141 15:43 03.10.2019
846 Clear 13 1013 72 16093 1.07 213.141 15:43 03.10.2019
847 Clear 13 1013 72 16093 0.7 218.903 15:23 03.10.2019
848 Clear 13 1013 54 16093 0.7 218.903 14:58 03.10.2019
849 Clear 13 1013 87 16093 0.7 218.903 14:36 03.10.2019
850 Clear 13 1013 87 16093 0.7 218.903 14:36 03.10.2019
851 Clear 13 1013 87 16093 0.7 218.903 14:36 03.10.2019
852 Clear 13 1013 50 16093 0.7 218.903 14:18 03.10.2019
853 Clear 14 1013 72 16093 0.7 218.903 13:44 03.10.2019
854 Clear 14 1013 72 16093 0.69 208.854 13:25 03.10.2019
855 Clear 14 1013 72 16093 0.69 208.854 13:25 03.10.2019
856 Clear 14 1013 72 16093 0.69 208.854 12:58 03.10.2019
857 Clear 14 1013 72 16093 0.69 208.854 12:39 03.10.2019
858 Clear 14 1013 72 16093 0.69 208.854 12:39 03.10.2019
859 Clear 14 1013 72 16093 0.31 165.559 12:20 03.10.2019
860 Clear 14 1014 82 16093 1.5 350 11:58 03.10.2019
861 Clear 14 1014 82 16093 1.5 350 11:40 03.10.2019
862 Clear 14 1013 72 16093 0.31 165.559 11:21 03.10.2019
863 Clear 15 1014 54 16093 0.31 165.559 10:57 03.10.2019
864 Clear 15 1013 72 16093 0.31 165.559 10:38 03.10.2019
865 Clear 15 1013 72 16093 0.31 165.559 10:18 03.10.2019
866 Clear 15 1014 63 16093 1.5 350 09:56 03.10.2019
867 Clear 15 1013 68 16093 0.31 165.559 09:37 03.10.2019
868 Clear 15 1013 68 16093 1.44 139.925 09:19 03.10.2019
869 Clear 16 1014 59 16093 2.1 100 08:43 03.10.2019
870 Clear 16 1013 63 16093 1.14 160.437 08:24 03.10.2019
871 Clear 16 1013 63 16093 1.14 160.437 08:24 03.10.2019
872 Clear 16 1013 63 16093 1.14 160.437 08:24 03.10.2019
873 Clear 17 1013 63 16093 1.14 160.437 07:45 03.10.2019
874 Clear 17 1013 63 16093 1.14 160.437 07:20 03.10.2019
875 Clear 18 1012 63 16093 1.14 160.437 06:56 03.10.2019
876 Clear 18 1012 63 16093 1.14 160.437 06:27 03.10.2019
877 Clear 18 1012 56 16093 3 262.643 05:49 03.10.2019
878 Clear 19 1012 56 16093 3 262.643 05:29 03.10.2019
879 Clear 20 1012 52 16093 2.6 270 04:47 03.10.2019
880 Clear 20 1012 52 16093 2.6 270 04:18 03.10.2019
881 Clear 22 1012 46 16093 2.6 270 03:19 03.10.2019
882 Clear 24 1011 44 16093 2.1 250 02:27 03.10.2019
883 Clear 24 1012 41 16093 2.1 260 01:41 03.10.2019
884 Clear 25 1012 34 16093 3.1 250 00:53 03.10.2019
885 Clear 26 1012 34 16093 3.1 250 00:32 03.10.2019
886 Clear 26 1012 34 16093 3.1 250 00:32 03.10.2019
887 Clear 25 1012 41 16093 3.1 180 23:58 02.10.2019
888 Clear 25 1013 31 16093 2.1 0 23:38 02.10.2019
889 Clear 25 1013 31 16093 2.1 0 23:38 02.10.2019
890 Clear 25 1013 31 16093 2.1 0 23:19 02.10.2019
891 Clear 26 1013 30 16093 4.01 223.504 22:42 02.10.2019
892 Clear 26 1013 30 16093 4.01 223.504 22:20 02.10.2019
893 Clear 25 1014 38 16093 5.1 280 21:55 02.10.2019
894 Clear 25 1014 34 16093 4.01 223.504 21:37 02.10.2019
895 Clear 24 1014 34 16093 1.67 207.393 21:18 02.10.2019
896 Clear 23 1014 36 16093 1.7 222.192 20:55 02.10.2019
897 Clear 23 1014 36 16093 1.7 222.192 20:55 02.10.2019
898 Clear 24 1015 27 16093 1.7 222.192 20:55 02.10.2019
899 Clear 23 1014 36 16093 1.7 222.192 20:37 02.10.2019
900 Clear 23 1014 36 16093 1.7 222.192 20:19 02.10.2019
901 Haze 22 1015 43 16093 1.7 222.192 19:45 02.10.2019
902 Haze 22 1015 43 16093 1.7 222.192 19:45 02.10.2019
903 Haze 21 1015 43 16093 1.7 222.192 19:23 02.10.2019
904 Clear 20 1015 39 16093 1.7 222.192 18:59 02.10.2019
905 Clear 20 1014 49 16093 1.5 110 18:40 02.10.2019
906 Clear 19 1014 49 16093 1.5 110 18:21 02.10.2019
907 Clear 18 1015 34 16093 2.1 130 17:58 02.10.2019
908 Clear 17 1014 55 16093 1.97 334.36 17:40 02.10.2019
909 Clear 15 1014 55 16093 1.97 334.36 17:21 02.10.2019
910 Clear 14 1014 59 16093 1.97 334.36 16:57 02.10.2019
911 Clear 13 1014 62 16093 2.1 20 16:38 02.10.2019
912 Clear 12 1014 62 16093 2.1 20 16:20 02.10.2019
913 Clear 12 1014 71 16093 2.1 40 15:55 02.10.2019
914 Clear 12 1014 71 16093 2.1 40 15:37 02.10.2019
915 Clear 12 1014 71 16093 2.1 40 15:18 02.10.2019
916 Clear 13 1013 67 16093 1.33 327.797 14:43 02.10.2019
917 Clear 13 1013 67 16093 1.33 327.797 14:23 02.10.2019
918 Clear 13 1013 71 16093 1.5 70 13:57 02.10.2019
919 Clear 13 1013 71 16093 1.5 70 13:38 02.10.2019
920 Clear 13 1013 71 16093 1.5 70 13:20 02.10.2019
921 Clear 13 1013 63 16093 1.24 337.007 12:40 02.10.2019
922 Clear 13 1013 63 16093 0.93 12.082 12:22 02.10.2019
923 Clear 13 1013 63 16093 0.93 12.082 11:58 02.10.2019
924 Clear 13 1013 63 16093 0.93 12.082 11:40 02.10.2019
925 Clear 14 1013 63 16093 0.93 12.082 11:18 02.10.2019
926 Clear 14 1013 67 16093 0.93 12.082 10:38 02.10.2019
927 Clear 14 1013 67 16093 0.93 12.082 10:19 02.10.2019
928 Clear 15 1013 63 16093 0.93 12.082 09:41 02.10.2019
929 Clear 15 1013 63 16093 0.78 273.526 09:20 02.10.2019
930 Clear 15 1012 63 16093 0.78 229.694 08:56 02.10.2019
931 Clear 15 1012 63 16093 0.78 229.694 08:38 02.10.2019
932 Clear 15 1012 63 16093 0.78 229.694 08:19 02.10.2019
933 Clear 16 1012 55 16093 0.78 229.694 07:41 02.10.2019
934 Clear 16 1012 55 16093 0.78 229.694 07:22 02.10.2019
935 Clear 16 1012 59 16093 0.78 229.694 06:57 02.10.2019
936 Clear 17 1012 59 16093 2.84 272.018 06:27 02.10.2019
937 Clear 17 1012 63 16093 2.1 260 05:49 02.10.2019
938 Clear 18 1012 59 16093 1.5 290 05:20 02.10.2019
939 Clear 19 1011 49 16093 3.1 0 03:53 02.10.2019
940 Clear 20 1011 49 16093 3.1 0 03:31 02.10.2019
941 Clear 21 1011 49 16093 2.6 0 02:27 02.10.2019
942 Clear 22 1011 40 16093 3.1 230 01:59 02.10.2019
943 Clouds 22 1011 47 16093 2.1 260 00:52 02.10.2019
944 Clouds 23 1011 47 16093 2.1 260 00:29 02.10.2019
945 Clear 23 1011 44 16093 4.53 207.317 23:56 01.10.2019
946 Clear 23 1011 44 16093 4.53 207.317 23:37 01.10.2019
947 Clear 23 1011 44 16093 4.53 207.317 23:19 01.10.2019
948 Clouds 23 1012 36 16093 1.5 0 22:58 01.10.2019
949 Clouds 23 1012 36 16093 1.5 0 22:37 01.10.2019
950 Clouds 22 1012 36 16093 1.5 0 22:18 01.10.2019
951 Clouds 22 1012 40 16093 1.5 0 21:43 01.10.2019
952 Clouds 22 1012 40 16093 1.5 0 21:23 01.10.2019
953 Clouds 22 1012 40 16093 1.5 0 21:23 01.10.2019
954 Clouds 21 1012 46 16093 2.1 0 20:59 01.10.2019
955 Clouds 21 1012 46 16093 2.1 0 20:39 01.10.2019
956 Clouds 21 1012 46 16093 2.1 0 20:20 01.10.2019
957 Clouds 20 1012 52 16093 1.5 80 19:58 01.10.2019
958 Clouds 20 1012 52 16093 1.5 80 19:40 01.10.2019
959 Clouds 20 1012 52 16093 1.5 80 19:21 01.10.2019
960 Clouds 19 1012 48 16093 1.5 0 18:56 01.10.2019
961 Clouds 18 1012 48 16093 1.5 0 18:38 01.10.2019
962 Clouds 18 1012 48 16093 1.5 0 18:19 01.10.2019
963 Clear 15 1011 51 16093 1.16 33.608 17:43 01.10.2019
964 Clear 15 1011 51 16093 1.16 33.608 17:21 01.10.2019
965 Clouds 14 1012 66 16093 1.16 33.608 16:59 01.10.2019
966 Clouds 13 1012 66 16093 1.16 33.608 16:41 01.10.2019
967 Clear 12 1011 55 16093 1.16 33.608 16:22 01.10.2019
968 Clouds 12 1011 62 16093 1.16 33.608 15:49 01.10.2019
969 Clear 12 1011 59 16093 1.16 33.608 15:25 01.10.2019
970 Clouds 12 1010 62 16093 2.6 90 14:58 01.10.2019
971 Clouds 12 1010 62 16093 2.6 90 14:40 01.10.2019
972 Clear 12 1010 62 16093 0.95 141.312 14:20 01.10.2019
973 Clear 12 1010 59 16093 0.95 141.312 13:56 01.10.2019
974 Clear 12 1010 59 16093 0.95 141.312 13:37 01.10.2019
975 Clear 13 1010 59 16093 0.72 104.328 13:18 01.10.2019
976 Clear 13 1010 63 16093 0.72 104.328 12:55 01.10.2019
977 Clear 13 1010 55 16093 0.72 104.328 12:37 01.10.2019
978 Clear 12 1010 63 16093 1 357.356 12:18 01.10.2019
979 Clear 13 1010 63 16093 1.5 80 11:56 01.10.2019
980 Clear 13 1010 63 16093 1.5 80 11:56 01.10.2019
981 Clear 13 1010 63 16093 1.5 80 11:36 01.10.2019
982 Clear 13 1010 63 16093 1.5 80 11:18 01.10.2019
983 Clear 14 1010 55 16093 1 357.356 10:47 01.10.2019
984 Clear 14 1010 55 16093 1 357.356 10:28 01.10.2019
985 Clear 14 1009 59 16093 1 357.356 09:46 01.10.2019
986 Clear 14 1009 59 16093 2.21 300.95 09:26 01.10.2019
987 Clear 15 1009 63 16093 1.91 282.802 08:46 01.10.2019
988 Clear 15 1009 63 16093 1.91 282.802 08:27 01.10.2019
989 Clear 15 1009 68 16093 1.91 282.802 07:58 01.10.2019
990 Clear 16 1009 68 16093 1.91 282.802 07:40 01.10.2019
991 Clear 16 1009 68 16093 1.91 282.802 07:20 01.10.2019
992 Clear 17 1009 63 16093 1.91 282.802 06:42 01.10.2019
993 Clear 16 1009 63 16093 4.47 278.262 06:18 01.10.2019
994 Clear 17 1009 59 16093 4.47 278.262 05:44 01.10.2019
995 Clear 17 1009 59 16093 4.47 278.262 05:44 01.10.2019
996 Clear 18 1009 49 16093 4.47 278.262 04:46 01.10.2019
997 Clear 19 1010 46 16093 4.1 290 03:49 01.10.2019
998 Clear 20 1010 40 16093 2.6 250 02:20 01.10.2019
999 Clear 21 1011 43 16093 3.1 250 01:57 01.10.2019
1000 Clear 21 1011 43 16093 3.1 270 00:53 01.10.2019
1001 Clear 22 1011 43 16093 3.1 270 00:26 01.10.2019
1002 Clear 22 1011 43 16093 2.6 270 23:55 30.09.2019
1003 Clear 22 1011 43 16093 2.6 270 23:37 30.09.2019
1004 Clear 22 1011 43 16093 2.6 270 23:18 30.09.2019
1005 Clear 22 1012 38 16093 1.5 0 22:42 30.09.2019
1006 Clear 22 1012 38 16093 1.5 0 22:23 30.09.2019
1007 Clear 22 1012 24 16093 5.51 228.15 21:56 30.09.2019
1008 Clear 21 1012 24 16093 5.51 228.15 21:37 30.09.2019
1009 Clear 21 1012 24 16093 3.05 219.606 21:19 30.09.2019
1010 Clear 21 1013 37 16093 3.05 219.606 20:55 30.09.2019
1011 -273 0 0 0 0 0 20:55 30.09.2019
1012 Clear 20 1013 37 16093 2.68 215.436 20:37 30.09.2019
1013 Clear 20 1013 37 16093 2.68 215.436 20:19 30.09.2019
1014 Clear 20 1013 43 16093 2.68 215.436 19:56 30.09.2019
1015 Clear 20 1013 43 16093 2.68 215.436 19:56 30.09.2019
1016 Clear 20 1013 43 16093 2.68 215.436 19:38 30.09.2019
1017 Clear 19 1013 43 16093 2.68 215.436 19:18 30.09.2019
1018 Clear 18 1013 52 16093 2.68 215.436 18:54 30.09.2019
1019 Clear 18 1013 52 16093 2.68 215.436 18:36 30.09.2019
1020 Clear 17 1013 55 14484 1.1 8.544 18:18 30.09.2019
1021 Clear 16 1012 55 16093 2.1 10 17:40 30.09.2019
1022 Clear 15 1012 55 16093 2.1 10 17:22 30.09.2019
1023 Clear 13 1012 67 16093 1.1 8.544 16:56 30.09.2019
1024 Clear 12 1012 67 16093 1.1 8.544 16:38 30.09.2019
1025 Clear 12 1012 67 16093 1.1 8.544 16:19 30.09.2019
1026 Clear 12 1012 67 16093 1.1 8.544 16:19 30.09.2019
1027 Clear 11 1012 71 16093 1.1 8.544 15:56 30.09.2019
1028 Clear 12 1012 71 16093 1.1 8.544 15:37 30.09.2019
1029 Clear 11 1012 71 16093 0.76 344.003 15:19 30.09.2019
1030 Clear 12 1012 71 16093 0.76 344.003 14:57 30.09.2019
1031 Clear 12 1012 71 16093 0.76 344.003 14:37 30.09.2019
1032 Clear 12 1012 71 16093 0.76 344.003 14:18 30.09.2019
1033 Clear 12 1012 71 16093 0.76 344.003 13:56 30.09.2019
1034 Clear 12 1012 71 16093 0.76 344.003 13:37 30.09.2019
1035 Clear 12 1012 67 16093 0.91 50.331 13:19 30.09.2019
1036 Clear 13 1012 63 16093 0.91 50.331 12:41 30.09.2019
1037 Clear 12 1012 67 16093 0.49 81.539 12:21 30.09.2019
1038 Clear 12 1012 63 16093 0.49 81.539 11:56 30.09.2019
1039 Clear 12 1012 63 16093 0.49 81.539 11:37 30.09.2019
1040 Clear 13 1012 63 16093 0.49 81.539 11:18 30.09.2019
1041 Clear 13 1012 63 16093 0.49 81.539 10:41 30.09.2019
1042 Clear 13 1012 63 16093 0.49 81.539 10:19 30.09.2019
1043 Clear 13 1012 63 16093 0.49 81.539 10:19 30.09.2019
1044 Clear 13 1012 59 16093 0.49 81.539 09:59 30.09.2019
1045 Clear 14 1012 59 16093 0.49 81.539 09:39 30.09.2019
1046 Clear 14 1012 59 16093 0.61 251.535 09:20 30.09.2019
1047 Clear 14 1011 63 16093 0.61 251.535 08:47 30.09.2019
1048 Clear 14 1011 63 16093 1.48 268.602 08:29 30.09.2019
1049 Clear 15 1011 55 16093 1.48 268.602 07:46 30.09.2019
1050 Clear 16 1011 55 16093 1.48 268.602 07:28 30.09.2019
1051 -273 0 0 0 0 0 06:56 30.09.2019
1052 Clear 16 1011 52 16093 1.48 268.602 06:56 30.09.2019
1053 Clear 16 1011 52 16093 1.48 268.602 06:34 30.09.2019
1054 Clear 16 1011 52 16093 1.48 268.602 06:34 30.09.2019
1055 Clear 17 1011 52 16093 2.83 250.9 05:48 30.09.2019
1056 Clear 17 1011 52 16093 2.83 250.9 05:48 30.09.2019
1057 Clear 18 1010 49 16093 2.1 250 04:53 30.09.2019
1058 Clear 20 1010 46 16093 3.1 250 02:48 30.09.2019
1059 Clear 21 1010 46 16093 2.1 0 01:39 30.09.2019
1060 Clear 22 1010 46 16093 4.11 230.341 00:44 30.09.2019
1061 Clear 22 1010 46 16093 5.58 214.402 00:24 30.09.2019
1062 Clear 22 1011 53 16093 5.1 260 23:57 29.09.2019
1063 Clear 22 1011 53 16093 5.1 260 23:39 29.09.2019
1064 Clouds 22 1010 49 16093 5.58 214.402 23:19 29.09.2019
1065 Rain 22 1011 40 16093 5.58 214.402 22:43 29.09.2019
1066 Rain 22 1011 40 16093 5.58 214.402 22:25 29.09.2019
1067 Clouds 22 1011 40 16093 5.58 214.402 21:58 29.09.2019
1068 Clouds 21 1011 40 16093 5.58 214.402 21:38 29.09.2019
1069 Clouds 21 1011 40 16093 2.33 111.929 21:19 29.09.2019
1070 Clouds 21 1011 46 16093 2.6 0 20:58 29.09.2019
1071 Clouds 21 1011 46 16093 2.6 0 20:40 29.09.2019
1072 Clear 20 1011 49 16093 2.1 130 20:19 29.09.2019
1073 Clear 20 1013 48 16093 4.1 280 19:55 29.09.2019
1074 Clear 20 1012 52 16093 2.48 114.096 19:36 29.09.2019
1075 Clear 20 1012 52 16093 2.48 114.096 19:18 29.09.2019
1076 Clear 19 1012 59 16093 2.48 114.096 18:55 29.09.2019
1077 Clear 19 1012 59 16093 2.48 114.096 18:36 29.09.2019
1078 Clear 18 1012 59 16093 2.04 65.903 18:18 29.09.2019
1079 Clear 17 1012 63 16093 2.04 65.903 17:55 29.09.2019
1080 Clear 17 1012 63 16093 2.04 65.903 17:36 29.09.2019
1081 Clear 16 1012 63 16093 2.04 65.903 17:18 29.09.2019
1082 Clear 14 1012 82 16093 2.04 65.903 16:54 29.09.2019
1083 Clear 14 1011 72 16093 2.04 65.903 16:36 29.09.2019
1084 Clear 13 1011 72 16093 2.04 65.903 16:18 29.09.2019
1085 Clear 13 1010 72 16093 2.04 65.903 15:39 29.09.2019
1086 Clear 14 1010 67 16093 2.11 85.135 15:19 29.09.2019
1087 Clouds 14 1010 67 16093 2.11 85.135 14:59 29.09.2019
1088 Clouds 14 1010 67 16093 2.11 85.135 14:38 29.09.2019
1089 Clouds 14 1010 67 16093 2.11 85.135 14:20 29.09.2019
1090 Clouds 15 1010 67 16093 1.5 140 13:57 29.09.2019
1091 Clouds 15 1009 67 16093 2.11 85.135 13:38 29.09.2019
1092 Clouds 15 1009 67 16093 2.89 72.525 13:18 29.09.2019
1093 Clouds 15 1009 67 16093 2.89 72.525 13:18 29.09.2019
1094 Clouds 15 1009 67 16093 2.89 72.525 12:57 29.09.2019
1095 Clear 15 1009 67 16093 2.89 72.525 12:38 29.09.2019
1096 Clouds 16 1009 72 16093 1.21 196.786 12:20 29.09.2019
1097 Clouds 16 1009 72 16093 2.6 120 11:55 29.09.2019
1098 Clouds 16 1009 72 16093 2.1 120 11:36 29.09.2019
1099 Clouds 16 1009 72 16093 2.1 120 11:18 29.09.2019
1100 Clouds 16 1009 63 16093 1.21 196.786 10:55 29.09.2019
1101 Clouds 17 1009 63 16093 1.21 196.786 10:36 29.09.2019
1102 Clouds 17 1009 63 16093 1.21 196.786 10:18 29.09.2019
1103 Clouds 17 1009 63 16093 1.21 196.786 10:18 29.09.2019
1104 Clouds 17 1009 59 16093 4.6 290 09:42 29.09.2019
1105 Clouds 17 1009 68 16093 3.32 242.78 09:20 29.09.2019
1106 Clouds 17 1009 60 16093 2.6 310 08:55 29.09.2019
1107 Clouds 17 1009 77 16093 3.1 120 08:37 29.09.2019
1108 Clouds 17 1009 77 16093 3.1 120 08:18 29.09.2019
1109 Clouds 18 1008 77 16093 2.6 150 07:41 29.09.2019
1110 Clouds 18 1009 63 16093 2.6 270 07:22 29.09.2019
1111 Clouds 18 1008 68 16093 3.1 242.029 06:41 29.09.2019
1112 Clouds 18 1009 82 16093 2.1 140 04:56 29.09.2019
1113 Clouds 19 1007 68 16093 3.62 254.074 04:25 29.09.2019
1114 Clouds 19 1007 64 16093 3.62 254.074 03:49 29.09.2019
1115 Clouds 20 1007 64 16093 3.9 225.581 02:40 29.09.2019
1116 Clouds 20 1008 68 16093 4.6 260 01:51 29.09.2019
1117 Clouds 20 1007 68 16093 4.35 222.204 01:30 29.09.2019
1118 Rain 21 1007 60 16093 4.6 180 00:42 29.09.2019
1119 Rain 20 1008 77 14484 5.67 225.107 00:19 29.09.2019
1120 Rain 20 1008 82 16093 5.1 220 23:42 28.09.2019
1121 Rain 20 1008 82 2816 2.6 250 23:22 28.09.2019
1122 Rain 20 1009 77 9656 5.67 225.107 22:56 28.09.2019
1123 Rain 20 1009 73 16093 5.67 225.107 22:38 28.09.2019
1124 Rain 20 1009 73 16093 5.67 225.107 22:19 28.09.2019
1125 Clouds 20 1009 68 16093 5.67 225.107 21:56 28.09.2019
1126 Clouds 20 1009 68 16093 5.67 225.107 21:37 28.09.2019
1127 Clouds 20 1009 68 16093 2.32 229.825 21:19 28.09.2019
1128 Clouds 20 1009 68 16093 2.32 229.825 21:19 28.09.2019
1129 Rain 20 1010 68 16093 2.32 229.825 20:57 28.09.2019
1130 Rain 20 1010 68 16093 3.77 235.247 20:37 28.09.2019
1131 Rain 20 1010 68 16093 3.77 235.247 20:18 28.09.2019
1132 Rain 20 1010 77 16093 3.77 235.247 19:55 28.09.2019
1133 Rain 20 1010 68 16093 2.6 250 19:36 28.09.2019
1134 Rain 20 1010 68 16093 2.6 250 19:18 28.09.2019
1135 Rain 19 1010 88 12874 5.1 160 18:41 28.09.2019
1136 Rain 19 1010 88 6437 3.6 200 18:22 28.09.2019
1137 Rain 19 1010 88 6437 3.6 200 18:22 28.09.2019
1138 Rain 19 1010 82 16093 2.6 230 17:59 28.09.2019
1139 Rain 19 1010 82 16093 2.6 230 17:40 28.09.2019
1140 Rain 19 1009 77 8047 2.37 247.129 17:21 28.09.2019
1141 Rain 18 1009 77 16093 3.6 140 16:55 28.09.2019
1142 Rain 18 1009 77 16093 3.6 140 16:37 28.09.2019
1143 Rain 18 1009 77 16093 3.6 140 16:18 28.09.2019
1144 Clouds 18 1009 77 16093 2.6 200 15:40 28.09.2019
1145 Clouds 18 1009 93 16093 2.1 250 15:21 28.09.2019
1146 Clouds 18 1009 88 16093 2.1 170 14:55 28.09.2019
1147 Clouds 18 1009 77 16093 1.5 200 14:37 28.09.2019
1148 Clouds 18 1009 77 16093 1.5 200 14:18 28.09.2019
1149 Clouds 19 1009 88 16093 1.5 200 13:43 28.09.2019
1150 Clouds 19 1009 72 16093 1.93 250.853 13:20 28.09.2019
1151 Clouds 19 1009 82 16093 1.93 250.853 12:57 28.09.2019
1152 Clouds 19 1009 82 16093 1.93 250.853 12:39 28.09.2019
1153 Clouds 19 1009 68 16093 1.47 216.142 12:18 28.09.2019
1154 Clouds 19 1009 73 16093 1.5 0 11:41 28.09.2019
1155 Clouds 19 1009 73 16093 1.5 0 11:20 28.09.2019
1156 Clouds 19 1010 72 16093 1.47 216.142 10:59 28.09.2019
1157 Clouds 19 1010 72 16093 1.47 216.142 10:39 28.09.2019
1158 Clouds 19 1010 73 16093 1.47 216.142 10:19 28.09.2019
1159 Clouds 19 1010 73 16093 1.5 220 09:41 28.09.2019
1160 Clouds 19 1010 73 16093 1.96 242.336 09:22 28.09.2019
1161 Clouds 19 1010 68 16093 2.6 200 08:48 28.09.2019
1162 Clouds 19 1010 68 16093 2.61 249.719 08:30 28.09.2019
1163 Clouds 19 1011 77 16093 1.5 230 07:59 28.09.2019
1164 Clouds 19 1011 77 16093 1.5 230 07:41 28.09.2019
1165 Clouds 19 1011 77 16093 1.5 230 07:19 28.09.2019
1166 Clouds 19 1011 72 16093 2.1 190 06:45 28.09.2019
1167 Clear 19 1011 72 16093 2.6 250 06:25 28.09.2019
1168 Clouds 19 1010 68 16093 1.5 260 05:41 28.09.2019
1169 Clouds 19 1010 68 16093 1.5 260 05:19 28.09.2019
1170 Clear 20 1011 64 16093 3.1 250 04:37 28.09.2019
1171 Clear 20 1011 60 16093 4.6 260 03:48 28.09.2019
1172 Clouds 21 1010 60 16093 2.1 260 03:20 28.09.2019
1173 Clouds 21 1010 64 16093 2.1 250 02:43 28.09.2019
1174 Clouds 22 1010 64 16093 2.1 250 02:25 28.09.2019
1175 Clouds 22 1012 64 16093 3.44 249.428 01:46 28.09.2019
1176 Clouds 22 1011 60 16093 4.16 245.545 01:24 28.09.2019
1177 Clouds 22 1012 60 16093 3.1 0 00:49 28.09.2019
1178 Clouds 22 1012 60 16093 3.1 0 00:30 28.09.2019
1179 Clouds 22 1012 60 16093 4.85 237.053 23:55 27.09.2019
1180 Clouds 22 1012 60 16093 4.85 237.053 23:36 27.09.2019
1181 Clouds 22 1012 60 16093 4.85 237.053 23:18 27.09.2019
1182 Clouds 23 1013 60 16093 4.85 237.053 22:41 27.09.2019
1183 Clouds 22 1013 60 16093 4.85 237.053 22:19 27.09.2019
1184 Clouds 22 1013 60 16093 4.85 237.053 22:19 27.09.2019
1185 Haze 22 1014 56 16093 3.6 210 21:55 27.09.2019
1186 Haze 22 1014 56 16093 3.6 210 21:37 27.09.2019
1187 Haze 22 1014 56 16093 3.6 210 21:18 27.09.2019
1188 Haze 22 1014 57 16093 2.6 280 20:55 27.09.2019
1189 Haze 21 1014 60 16093 3.11 226.069 20:36 27.09.2019
1190 Haze 21 1014 60 16093 3.11 226.069 20:18 27.09.2019
1191 Haze 21 1014 68 16093 3.1 270 19:42 27.09.2019
1192 Haze 21 1014 68 16093 3.1 270 19:23 27.09.2019
1193 Haze 20 1014 77 16093 2.6 270 18:58 27.09.2019
1194 Haze 20 1014 77 16093 2.6 270 18:39 27.09.2019
1195 Haze 20 1014 73 16093 1.5 0 18:20 27.09.2019
1196 Haze 20 1014 73 16093 1.5 0 18:20 27.09.2019
1197 Clouds 20 1014 73 16093 2.1 0 17:54 27.09.2019
1198 Clouds 19 1014 73 16093 2.6 260 17:36 27.09.2019
1199 Clouds 19 1014 73 16093 2.6 260 17:18 27.09.2019
1200 Clouds 19 1014 73 16093 3.6 270 16:54 27.09.2019
1201 Clouds 19 1014 73 16093 3.6 270 16:36 27.09.2019
1202 Clouds 19 1014 73 16093 3.6 270 16:18 27.09.2019
1203 Clouds 19 1014 73 16093 2.1 270 15:42 27.09.2019
1204 Clouds 19 1014 73 16093 2.1 270 15:20 27.09.2019
1205 Clouds 19 1014 77 16093 2.6 270 14:56 27.09.2019
1206 Clouds 19 1014 77 16093 1.5 260 14:38 27.09.2019
1207 Clouds 19 1014 77 16093 1.5 260 14:38 27.09.2019
1208 Clouds 19 1014 77 16093 1.5 260 14:18 27.09.2019
1209 Clouds 19 1014 77 16093 1.5 0 13:56 27.09.2019
1210 Clouds 19 1014 77 16093 2.21 252.695 13:38 27.09.2019
1211 Clouds 19 1014 77 16093 1.77 239.292 13:19 27.09.2019
1212 Clouds 20 1014 77 16093 1.77 239.292 12:43 27.09.2019
1213 Clouds 20 1014 77 16093 1.87 235.841 12:22 27.09.2019
1214 Clouds 20 1014 77 16093 1.87 235.841 11:55 27.09.2019
1215 Clouds 20 1014 77 16093 1.87 235.841 11:37 27.09.2019
1216 Clouds 20 1014 77 16093 1.87 235.841 11:19 27.09.2019
1217 Clouds 20 1015 77 16093 1.87 235.841 10:41 27.09.2019
1218 Clouds 20 1015 77 16093 1.87 235.841 10:21 27.09.2019
1219 Clouds 20 1014 77 16093 1.87 235.841 09:44 27.09.2019
1220 Clouds 20 1015 73 16093 2.1 260 09:23 27.09.2019
1221 Clear 20 1015 77 16093 2.1 236.635 08:59 27.09.2019
1222 Clouds 20 1015 73 16093 2.6 310 08:40 27.09.2019
1223 Clouds 20 1015 73 16093 2.6 310 08:20 27.09.2019
1224 Clouds 20 1015 73 16093 2.6 310 07:49 27.09.2019
1225 Clouds 20 1015 68 16093 2.1 190 07:24 27.09.2019
1226 Clear 20 1015 73 16093 1.94 230.975 06:46 27.09.2019
1227 Clear 20 1015 73 16093 1.85 215.927 06:27 27.09.2019
1228 Clouds 21 1015 68 16093 1.5 190 05:52 27.09.2019
1229 Clouds 21 1015 73 16093 2.6 190 05:33 27.09.2019
1230 Clouds 21 1014 69 16093 1.85 215.927 03:59 27.09.2019
1231 Clouds 22 1014 69 16093 1.85 215.927 03:38 27.09.2019
1232 Clouds 23 1014 64 16093 3.1 270 01:53 27.09.2019
1233 Clouds 23 1014 64 16093 3.6 180 01:29 27.09.2019
1234 Clouds 23 1014 64 16093 2.6 260 00:34 27.09.2019
1235 Rain 23 1015 69 16093 3.1 230 23:57 26.09.2019
1236 Clouds 23 1015 60 16093 2.6 130 23:39 26.09.2019
1237 Clouds 23 1015 60 16093 2.6 130 23:19 26.09.2019
1238 Rain 23 1015 57 11265 4.6 180 22:58 26.09.2019
1239 Rain 24 1015 57 11265 4.6 180 22:39 26.09.2019
1240 Rain 23 1015 61 16093 4.1 188.831 22:18 26.09.2019
1241 Clouds 24 1016 65 16093 4.1 188.831 21:58 26.09.2019
1242 Clouds 23 1016 65 16093 2.6 0 21:38 26.09.2019
1243 Clouds 23 1016 69 16093 4.1 190 21:19 26.09.2019
1244 Clouds 23 1016 69 16093 4.1 190 21:19 26.09.2019
1245 Haze 23 1016 69 9656 2.1 180 20:58 26.09.2019
1246 Haze 22 1016 69 9656 2.1 180 20:39 26.09.2019
1247 Haze 22 1016 60 16093 4.1 150 20:21 26.09.2019
1248 Rain 22 1016 73 16093 2.1 150 19:58 26.09.2019
1249 Rain 22 1016 69 16093 2.1 140 19:39 26.09.2019
1250 Rain 22 1016 69 16093 2.1 140 19:18 26.09.2019
1251 Haze 22 1016 68 16093 4.45 148.57 18:45 26.09.2019
1252 Haze 21 1016 73 16093 1.5 140 18:22 26.09.2019
1253 Haze 21 1015 73 16093 2.1 0 17:59 26.09.2019
1254 Haze 21 1015 69 16093 4.23 128.753 17:38 26.09.2019
1255 Haze 21 1015 69 16093 4.23 128.753 17:19 26.09.2019
1256 Haze 21 1015 69 16093 4.23 128.753 17:19 26.09.2019
1257 Haze 20 1016 73 16093 4.6 140 16:56 26.09.2019
1258 Haze 20 1015 73 16093 2.6 130 16:37 26.09.2019
1259 Haze 20 1015 73 16093 2.6 130 16:19 26.09.2019
1260 Clouds 20 1015 73 16093 2.6 90 15:56 26.09.2019
1261 Clouds 20 1014 73 16093 2.1 80 15:36 26.09.2019
1262 Clouds 20 1014 73 16093 2.1 80 15:18 26.09.2019
1263 Clouds 20 1014 82 16093 1.5 90 14:41 26.09.2019
1264 Clouds 20 1014 82 16093 1.5 90 14:22 26.09.2019
1265 Clouds 20 1014 82 16093 2.6 140 13:58 26.09.2019
1266 Clouds 20 1013 68 16093 3.14 131.668 13:40 26.09.2019
1267 Clouds 20 1013 68 16093 2.96 127.157 13:19 26.09.2019
1268 Clouds 20 1013 68 16093 2.96 127.157 13:19 26.09.2019
1269 Clouds 20 1013 88 16093 2.96 127.157 12:56 26.09.2019
1270 Clouds 20 1013 88 16093 2.96 127.157 12:38 26.09.2019
1271 Clear 20 1013 73 16093 2.37 142.225 12:19 26.09.2019
1272 Clear 20 1013 73 16093 2.37 142.225 11:42 26.09.2019
1273 Clear 20 1013 73 16093 2.37 142.225 11:21 26.09.2019
1274 Clouds 20 1013 73 16093 4.1 90 10:55 26.09.2019
1275 Clear 20 1013 82 16093 1.5 170 10:37 26.09.2019
1276 Clear 20 1013 82 16093 1.5 170 10:19 26.09.2019
1277 Clouds 20 1013 73 16093 2.6 110 09:43 26.09.2019
1278 Clouds 20 1013 77 16093 3.1 120 09:25 26.09.2019
1279 Clouds 20 1013 77 16093 4.6 140 08:54 26.09.2019
1280 Clouds 20 1013 68 16093 2.1 120 08:33 26.09.2019
1281 Haze 20 1012 77 16093 5.7 130 07:59 26.09.2019
1282 Haze 21 1012 68 16093 2.1 0 07:41 26.09.2019
1283 Haze 21 1012 73 16093 3.6 160 07:20 26.09.2019
1284 Clouds 21 1012 73 16093 4.1 130 06:43 26.09.2019
1285 Clouds 21 1012 77 16093 4.1 130 06:43 26.09.2019
1286 Clouds 21 1012 77 16093 4.1 130 06:24 26.09.2019
1287 Haze 21 1012 77 8047 4.1 120 05:44 26.09.2019
1288 Clouds 21 1011 73 16093 5.1 140 05:24 26.09.2019
1289 Clear 25 1008 51 16093 2.1 0 02:50 26.09.2019
1290 Clear 27 1008 48 16093 2.23 203.246 01:53 26.09.2019
1291 Clear 27 1008 48 16093 2.57 208.397 01:28 26.09.2019
1292 Clear 27 1008 42 16093 1.5 0 00:55 26.09.2019
1293 Clear 27 1008 42 16093 1.5 0 00:37 26.09.2019
1294 Clear 28 1009 51 16093 3.61 184.497 23:47 25.09.2019
1295 Clear 28 1009 51 16093 3.61 184.497 23:28 25.09.2019
1296 Clear 28 1009 48 16093 2.1 0 22:58 25.09.2019
1297 Clear 28 1009 48 16093 2.1 0 22:40 25.09.2019
1298 Clear 28 1009 48 16093 2.1 0 22:20 25.09.2019
1299 Clear 27 1010 48 16093 1.5 0 21:57 25.09.2019
1300 Clear 27 1010 48 16093 1.5 0 21:38 25.09.2019
1301 Clear 27 1010 57 16093 3.6 130 21:19 25.09.2019
1302 Haze 26 1010 57 16093 2.81 153.828 20:58 25.09.2019
1303 Haze 26 1010 57 16093 2.88 152.624 20:39 25.09.2019
1304 Haze 26 1010 57 16093 2.88 152.624 20:21 25.09.2019
1305 Haze 25 1011 60 9656 2.6 0 19:54 25.09.2019
1306 Haze 24 1011 69 9656 2.88 152.624 19:36 25.09.2019
1307 Haze 24 1011 69 14484 2.6 100 19:18 25.09.2019
1308 Haze 23 1011 69 14484 4.1 100 18:55 25.09.2019
1309 Haze 22 1010 73 9656 2.88 152.624 18:36 25.09.2019
1310 Haze 22 1011 83 9656 4.1 110 18:18 25.09.2019
1311 Haze 21 1010 77 11265 2.6 80 17:38 25.09.2019
1312 Haze 20 1010 77 11265 2.6 80 17:19 25.09.2019
1313 Haze 19 1009 82 4023 2.1 100 16:55 25.09.2019
1314 Haze 19 1009 83 8047 2 105.064 16:36 25.09.2019
1315 Haze 19 1009 83 8047 2 105.064 16:18 25.09.2019
1316 Mist 19 1008 83 11265 1.5 0 15:41 25.09.2019
1317 Mist 19 1009 82 14484 2 105.064 15:41 25.09.2019
1318 Mist 19 1009 82 14484 2 105.064 15:41 25.09.2019
1319 Mist 19 1008 83 11265 1.5 0 15:23 25.09.2019
1320 Mist 19 1008 93 16093 2.1 130 14:57 25.09.2019
1321 Mist 19 1008 83 12874 1.83 93.985 14:39 25.09.2019
1322 Mist 19 1008 83 12874 1.83 93.985 14:39 25.09.2019
1323 Mist 19 1008 83 12874 1.83 93.985 14:21 25.09.2019
1324 Mist 19 1008 93 11265 1.5 50 13:56 25.09.2019
1325 Mist 19 1008 83 12874 2.18 110.63 13:37 25.09.2019
1326 Mist 19 1008 88 16093 1.5 90 13:19 25.09.2019
1327 Clear 19 1008 83 12874 1.5 80 12:41 25.09.2019
1328 Clear 19 1008 83 12874 1.5 80 12:23 25.09.2019
1329 Clear 19 1009 83 12874 1.5 110 11:58 25.09.2019
1330 Clear 19 1009 83 12874 1.5 110 11:40 25.09.2019
1331 Clear 19 1009 83 12874 1.5 110 11:19 25.09.2019
1332 Clouds 19 1009 77 16093 1.23 106.111 10:45 25.09.2019
1333 Clouds 20 1009 83 16093 1.5 120 10:26 25.09.2019
1334 Clouds 20 1009 88 16093 1.23 106.111 09:58 25.09.2019
1335 Clear 20 1009 73 16093 1.23 106.111 09:38 25.09.2019
1336 Clear 20 1009 73 16093 2.64 111.29 09:20 25.09.2019
1337 Clouds 20 1009 83 16093 2.6 150 08:45 25.09.2019
1338 Clear 21 1009 69 16093 2.74 93.416 08:22 25.09.2019
1339 Clouds 21 1009 77 16093 2.6 150 07:59 25.09.2019
1340 Clear 21 1008 73 16093 2.74 93.416 07:40 25.09.2019
1341 Clear 21 1008 73 16093 2.74 93.416 07:40 25.09.2019
1342 Clear 21 1008 73 16093 2.74 93.416 07:21 25.09.2019
1343 Clear 21 1009 64 16093 2.74 93.416 06:45 25.09.2019
1344 Clear 22 1009 64 16093 4.51 307.995 06:23 25.09.2019
1345 Clear 23 1009 69 16093 4.51 307.995 05:37 25.09.2019
1346 Clear 24 1008 64 16093 4.51 307.995 04:55 25.09.2019
1347 Clear 28 1008 48 16093 5.3 249.12 02:31 25.09.2019
1348 Clear 28 1008 47 16093 3.1 270 01:19 25.09.2019
1349 Clear 29 1009 44 16093 5.1 260 00:37 25.09.2019
1350 Clear 30 1009 44 16093 5.1 260 00:18 25.09.2019
1351 Clear 30 1010 45 16093 1.5 240 23:41 24.09.2019
1352 Clear 30 1010 45 16093 1.5 240 23:21 24.09.2019
1353 Clear 30 1011 48 16093 3.48 229.031 22:56 24.09.2019
1354 Clear 29 1011 48 16093 3.48 229.031 22:36 24.09.2019
1355 Clear 29 1011 48 16093 3.48 229.031 22:18 24.09.2019
1356 Clear 29 1011 48 16093 3.48 229.031 22:18 24.09.2019
1357 Haze 29 1012 48 16093 1.5 0 21:54 24.09.2019
1358 Clear 29 1012 48 16093 1.5 0 21:36 24.09.2019
1359 Haze 28 1013 73 16093 3.6 240 21:18 24.09.2019
1360 Haze 28 1013 73 16093 3.6 240 21:18 24.09.2019
1361 Haze 28 1013 54 12874 2.92 220.118 20:55 24.09.2019
1362 Haze 27 1013 54 12874 2.92 220.118 20:55 24.09.2019
1363 Haze 27 1013 54 12874 2.92 220.118 20:37 24.09.2019
1364 Haze 27 1013 54 12874 2.92 220.118 20:18 24.09.2019
1365 Haze 25 1014 64 8047 2.92 220.118 19:41 24.09.2019
1366 Haze 24 1014 64 8047 2.92 220.118 19:19 24.09.2019
1367 Haze 23 1014 82 14484 2.92 220.118 18:57 24.09.2019
1368 Haze 21 1014 82 14484 2.92 220.118 18:39 24.09.2019
1369 Haze 21 1014 77 6437 2.1 270 18:20 24.09.2019
1370 Haze 20 1014 77 4828 1.79 256.034 17:56 24.09.2019
1371 Haze 19 1014 88 4828 1.79 256.034 17:37 24.09.2019
1372 Haze 18 1014 88 4828 1.79 256.034 17:19 24.09.2019
1373 Rain 17 1014 82 16093 1.79 256.034 16:42 24.09.2019
1374 Rain 17 1014 88 8047 1.79 256.034 16:20 24.09.2019
1375 Mist 17 1013 82 11265 1.79 256.034 15:58 24.09.2019
1376 Mist 17 1013 82 11265 1.79 256.034 15:39 24.09.2019
1377 Clouds 16 1013 88 11265 1.44 208.553 15:21 24.09.2019
1378 Haze 16 1013 88 9656 1.44 208.553 14:39 24.09.2019
1379 Haze 17 1013 88 9656 1.44 208.553 14:18 24.09.2019
1380 Clouds 17 1013 82 16093 1.5 310 13:45 24.09.2019
1381 Clouds 17 1013 82 16093 1.5 310 13:45 24.09.2019
1382 Clear 17 1013 88 12874 1.8 217.674 13:22 24.09.2019
1383 Clouds 17 1013 88 16093 1.8 217.674 12:57 24.09.2019
1384 Clear 17 1014 82 16093 1.8 217.674 12:39 24.09.2019
1385 Clear 17 1014 82 16093 0.72 213.536 12:18 24.09.2019
1386 Clouds 17 1013 88 16093 2.1 300 11:41 24.09.2019
1387 Clouds 17 1013 88 11265 0.72 213.536 11:21 24.09.2019
1388 Clouds 17 1014 88 14484 0.72 213.536 10:55 24.09.2019
1389 Clear 17 1014 82 16093 0.72 213.536 10:36 24.09.2019
1390 Clear 17 1014 82 16093 0.72 213.536 10:18 24.09.2019
1391 Clear 17 1014 82 16093 0.72 213.536 10:18 24.09.2019
1392 Clouds 18 1014 88 16093 0.72 213.536 09:43 24.09.2019
1393 Clear 18 1014 88 16093 0.65 165.494 09:21 24.09.2019
1394 Clouds 18 1014 88 16093 0.65 165.494 08:57 24.09.2019
1395 Clouds 18 1014 88 16093 0.77 160.346 08:38 24.09.2019
1396 Clouds 18 1014 88 16093 0.77 160.346 08:19 24.09.2019
1397 Clouds 18 1014 88 16093 0.77 160.346 08:19 24.09.2019
1398 Clear 19 1014 77 16093 0.77 160.346 07:47 24.09.2019
1399 Clear 19 1014 77 16093 0.77 160.346 07:25 24.09.2019
1400 Clear 19 1013 77 16093 1.5 270 06:56 24.09.2019
1401 Clear 19 1013 77 16093 1.5 270 06:32 24.09.2019
1402 Clouds 20 1013 93 16093 1.88 208.406 05:51 24.09.2019
1403 Clouds 20 1013 93 16093 1.88 208.406 05:20 24.09.2019
1404 Clear 21 1012 64 16093 1.88 208.406 03:45 24.09.2019
1405 Clear 23 1013 68 16093 3.6 270 02:57 24.09.2019
1406 Clear 24 1012 61 16093 2.1 250 02:38 24.09.2019
1407 Haze 25 1013 60 2414 3.6 280 01:22 24.09.2019
1408 Clear 25 1012 54 16093 2.6 260 00:37 24.09.2019
1409 Clear 26 1012 54 16093 2.6 260 00:18 24.09.2019
1410 Clear 26 1013 60 16093 5.1 250 23:40 23.09.2019
1411 Clear 26 1013 54 16093 3.78 209.264 23:21 23.09.2019
1412 Clear 26 1013 61 16093 4.6 280 22:40 23.09.2019
1413 Clear 26 1013 48 16093 3.78 209.264 22:21 23.09.2019
1414 Clear 26 1013 48 16093 3.78 209.264 22:21 23.09.2019
1415 Clear 26 1013 54 16093 1.5 0 21:58 23.09.2019
1416 Clear 26 1013 54 16093 1.5 0 21:40 23.09.2019
1417 Clear 26 1013 54 16093 1.5 0 21:20 23.09.2019
1418 Clear 26 1013 54 16093 1.5 0 21:20 23.09.2019
1419 Haze 25 1014 57 16093 2.87 158.762 20:56 23.09.2019
1420 Haze 25 1014 57 16093 2.84 160.131 20:37 23.09.2019
1421 Haze 24 1014 57 16093 2.84 160.131 20:18 23.09.2019
1422 Haze 23 1015 69 16093 2.84 160.131 19:40 23.09.2019
1423 Haze 22 1015 69 16093 2.84 160.131 19:21 23.09.2019
1424 Haze 22 1015 69 16093 1.5 0 18:58 23.09.2019
1425 Haze 21 1015 78 9656 2.84 160.131 18:40 23.09.2019
1426 Haze 21 1015 78 9656 2.84 160.131 18:40 23.09.2019
1427 Haze 20 1015 77 12874 0.76 183.548 18:18 23.09.2019
1428 Haze 20 1014 73 9656 2.1 180 17:56 23.09.2019
1429 Haze 20 1013 83 12874 0.76 183.548 17:38 23.09.2019
1430 Haze 19 1013 83 12874 0.76 183.548 17:19 23.09.2019
1431 Haze 19 1014 82 9656 2.6 230 16:54 23.09.2019
1432 Haze 18 1014 88 12874 2.1 250 16:36 23.09.2019
1433 Haze 18 1014 88 12874 2.1 250 16:36 23.09.2019
1434 Haze 18 1014 88 12874 2.1 250 16:18 23.09.2019
1435 Mist 18 1013 88 16093 0.76 183.548 15:55 23.09.2019
1436 Mist 18 1013 88 4828 2.1 250 15:37 23.09.2019
1437 Mist 18 1013 88 4828 2.1 250 15:18 23.09.2019
1438 Clear 18 1012 82 16093 1.01 197.371 14:40 23.09.2019
1439 Clear 18 1012 82 16093 1.01 197.371 14:20 23.09.2019
1440 Clouds 18 1012 77 16093 1.01 197.371 13:58 23.09.2019
1441 Clouds 18 1012 77 16093 1.01 197.371 13:38 23.09.2019
1442 Clouds 18 1012 77 16093 1.12 183.797 13:18 23.09.2019
1443 Clear 18 1012 82 16093 1.12 183.797 12:43 23.09.2019
1444 Clear 18 1012 82 16093 0.49 215.021 12:23 23.09.2019
1445 Clear 18 1012 93 16093 1.5 10 11:58 23.09.2019
1446 Clear 18 1012 93 16093 1.5 10 11:39 23.09.2019
1447 Clear 18 1012 93 16093 1.5 10 11:20 23.09.2019
1448 Clear 19 1012 83 16093 0.49 215.021 10:49 23.09.2019
1449 Clear 19 1012 83 16093 0.49 215.021 10:22 23.09.2019
1450 Clear 19 1012 78 16093 0.49 215.021 09:58 23.09.2019
1451 Clear 20 1012 78 16093 0.49 215.021 09:37 23.09.2019
1452 Clear 20 1012 78 16093 1.74 165.5 09:19 23.09.2019
1453 Clouds 20 1013 94 14484 2.1 240 08:45 23.09.2019
1454 Clouds 20 1013 94 14484 2.1 240 08:26 23.09.2019
1455 Clear 21 1012 69 16093 1.26 179.225 07:56 23.09.2019
1456 Clear 21 1012 69 16093 1.26 179.225 07:28 23.09.2019
1457 Clear 22 1012 64 16093 1.26 179.225 06:31 23.09.2019
1458 Clear 22 1012 64 16093 1.93 223.994 05:51 23.09.2019
1459 Clear 22 1012 64 16093 1.93 223.994 05:21 23.09.2019
1460 Clear 23 1011 57 16093 1.93 223.994 04:54 23.09.2019
1461 Clear 28 1010 40 16093 1.5 0 02:42 23.09.2019
1462 Clear 31 1011 31 16093 1.5 0 00:46 23.09.2019
1463 Clear 32 1011 31 16093 1.5 0 00:22 23.09.2019
1464 Clear 31 1011 26 16093 3.18 179.64 23:52 22.09.2019
1465 Clear 31 1011 26 16093 3.18 179.64 23:32 22.09.2019
1466 Clear 31 1011 27 16093 3.18 179.64 22:58 22.09.2019
1467 Clear 31 1011 27 16093 3.18 179.64 22:40 22.09.2019
1468 Clear 31 1011 27 16093 3.18 179.64 22:22 22.09.2019
1469 Clear 31 1012 38 16093 3.18 179.64 21:43 22.09.2019
1470 Clear 31 1012 38 16093 3.18 179.64 21:43 22.09.2019
1471 Clear 30 1012 38 16093 2.36 136.58 21:22 22.09.2019
1472 Clear 28 1013 45 16093 2.36 136.58 20:58 22.09.2019
1473 Clear 28 1013 45 16093 2.18 171.164 20:40 22.09.2019
1474 Clear 28 1013 45 16093 2.36 136.58 20:40 22.09.2019
1475 Clear 28 1013 45 16093 2.18 171.164 20:22 22.09.2019
1476 Clear 26 1013 47 16093 2.18 171.164 19:42 22.09.2019
1477 Clear 25 1013 47 16093 2.18 171.164 19:24 22.09.2019
1478 Clear 25 1013 47 16093 2.18 171.164 19:24 22.09.2019
1479 Clear 24 1012 47 16093 1.5 140 18:59 22.09.2019
1480 Clear 23 1012 47 16093 1.5 140 18:41 22.09.2019
1481 Clear 23 1012 47 16093 1.5 140 18:20 22.09.2019
1482 Clear 22 1011 64 16093 0.82 241.054 17:59 22.09.2019
1483 Clear 21 1011 64 16093 0.82 241.054 17:41 22.09.2019
1484 Clear 20 1011 64 16093 0.82 241.054 17:20 22.09.2019
1485 Clouds 19 1011 82 12874 3.1 80 16:46 22.09.2019
1486 Clear 18 1011 68 16093 0.82 241.054 16:27 22.09.2019
1487 Clear 18 1010 60 16093 0.82 241.054 15:58 22.09.2019
1488 Clear 18 1010 60 16093 0.82 241.054 15:40 22.09.2019
1489 Clear 18 1010 60 16093 0.61 291.784 15:21 22.09.2019
1490 Clear 18 1010 64 16093 0.61 291.784 14:45 22.09.2019
1491 Clear 18 1010 64 16093 0.61 291.784 14:26 22.09.2019
1492 Clear 18 1010 77 16093 0.61 291.784 13:59 22.09.2019
1493 Clear 19 1010 77 16093 0.61 291.784 13:41 22.09.2019
1494 Clear 19 1010 77 16093 0.48 253.774 13:22 22.09.2019
1495 Clear 19 1010 73 16093 0.48 253.774 12:56 22.09.2019
1496 Clear 19 1010 73 16093 0.48 253.774 12:37 22.09.2019
1497 Clear 19 1011 68 16093 1.44 65.253 12:18 22.09.2019
1498 Clear 19 1011 73 16093 1.44 65.253 11:42 22.09.2019
1499 Clear 19 1011 73 16093 1.44 65.253 11:24 22.09.2019
1500 Clear 19 1011 73 16093 1.44 65.253 10:55 22.09.2019
1501 Clear 19 1011 73 16093 1.44 65.253 10:37 22.09.2019
1502 Clear 19 1011 73 16093 1.44 65.253 10:18 22.09.2019
1503 Clear 20 1011 82 16093 1.5 30 09:42 22.09.2019
1504 Clear 20 1011 82 16093 1.5 30 09:42 22.09.2019
1505 Clear 20 1011 68 16093 2.44 89.224 09:21 22.09.2019
1506 Clear 20 1011 68 16093 2.6 100 08:48 22.09.2019
1507 Clear 20 1011 68 16093 2.6 100 08:26 22.09.2019
1508 Clear 21 1011 69 16093 1.5 0 07:58 22.09.2019
1509 Clear 21 1011 69 16093 1.5 0 07:39 22.09.2019
1510 Clear 21 1011 69 16093 1.5 0 07:21 22.09.2019
1511 Clear 22 1010 73 16093 1.92 82.026 06:56 22.09.2019
1512 Clear 22 1009 73 16093 2.47 314.885 05:37 22.09.2019
1513 Clear 25 1009 44 16093 1.5 0 03:53 22.09.2019
1514 Clear 28 1009 42 16093 3.1 260 02:43 22.09.2019
1515 Clear 28 1009 42 16093 3.1 260 02:23 22.09.2019
1516 Clear 29 1009 39 16093 3.6 260 01:34 22.09.2019
1517 Clear 28 1009 42 16093 4.6 242.221 00:40 22.09.2019
1518 Clear 29 1009 42 16093 4.07 218.378 00:21 22.09.2019
1519 Clear 29 1010 45 16093 2.1 270 23:45 21.09.2019
1520 Clear 29 1010 45 16093 2.1 270 23:27 21.09.2019
1521 Clear 29 1011 42 16093 4.07 218.378 22:40 21.09.2019
1522 Clear 29 1011 57 16093 3.6 250 22:21 21.09.2019
1523 Clear 28 1012 42 16093 4.07 218.378 21:57 21.09.2019
1524 Clear 28 1012 42 16093 4.07 218.378 21:38 21.09.2019
1525 Clear 27 1012 42 16093 1.74 206.3 21:18 21.09.2019
1526 Clear 27 1012 42 16093 1.74 206.3 21:18 21.09.2019
1527 Clear 26 1012 47 16093 2.13 219.619 20:41 21.09.2019
1528 Clear 26 1012 47 16093 2.13 219.619 20:22 21.09.2019
1529 Clear 25 1013 57 16093 2.13 219.619 19:57 21.09.2019
1530 Clear 24 1013 57 16093 2.13 219.619 19:39 21.09.2019
1531 Clear 24 1013 64 16093 1.5 0 19:18 21.09.2019
1532 Haze 22 1013 64 16093 2.13 219.619 18:39 21.09.2019
1533 Haze 22 1013 64 16093 0.91 202.552 18:20 21.09.2019
1534 Haze 21 1013 73 14484 1.5 110 18:20 21.09.2019
1535 Haze 20 1013 68 16093 0.91 202.552 17:42 21.09.2019
1536 Haze 19 1013 68 16093 0.91 202.552 17:23 21.09.2019
1537 Clear 17 1012 77 16093 0.91 202.552 16:56 21.09.2019
1538 Clear 17 1012 82 16093 1.5 100 16:37 21.09.2019
1539 Clear 16 1012 82 16093 1.5 100 16:18 21.09.2019
1540 Clear 16 1012 82 16093 0.91 202.552 15:42 21.09.2019
1541 Clear 16 1012 82 16093 0.38 209.932 15:20 21.09.2019
1542 Clear 16 1011 77 16093 0.38 209.932 14:47 21.09.2019
1543 Clear 16 1011 77 16093 0.38 209.932 14:28 21.09.2019
1544 Clear 16 1012 77 16093 0.38 209.932 13:46 21.09.2019
1545 Clear 16 1012 77 16093 0.44 179.605 13:26 21.09.2019
1546 Clear 16 1012 82 16093 0.44 179.605 12:59 21.09.2019
1547 Clear 17 1012 82 16093 0.44 179.605 12:41 21.09.2019
1548 Clear 17 1012 77 16093 1 137.56 12:21 21.09.2019
1549 Clear 17 1012 77 16093 1 137.56 11:59 21.09.2019
1550 Clear 17 1012 77 16093 1 137.56 11:41 21.09.2019
1551 Clear 17 1012 77 16093 1 137.56 11:21 21.09.2019
1552 Clear 17 1012 77 16093 1 137.56 10:41 21.09.2019
1553 Clear 18 1012 77 16093 1 137.56 10:23 21.09.2019
1554 Clear 18 1012 82 16093 1.5 90 09:57 21.09.2019
1555 Clear 18 1012 82 16093 1.5 90 09:38 21.09.2019
1556 Clear 18 1012 82 16093 1.5 90 09:20 21.09.2019
1557 Clear 18 1012 82 16093 3.1 130 08:51 21.09.2019
1558 Clear 19 1012 73 16093 1.23 111.741 08:26 21.09.2019
1559 Clear 19 1011 73 16093 1.5 0 07:41 21.09.2019
1560 Clear 20 1011 68 16093 1.23 111.741 07:22 21.09.2019
1561 Clear 20 1011 68 16093 1.23 111.741 06:49 21.09.2019
1562 Clear 20 1011 68 16093 1.23 111.741 06:30 21.09.2019
1563 Clear 21 1010 64 16093 1.93 262.437 04:50 21.09.2019
1564 Clear 21 1010 64 16093 1.93 262.437 04:50 21.09.2019
1565 Clear 21 1010 64 16093 1.93 262.437 04:32 21.09.2019
1566 Clear 24 1011 60 16093 2.6 250 02:31 21.09.2019
1567 Clear 25 1011 60 16093 2.6 250 01:54 21.09.2019
1568 Clear 25 1010 50 16093 3.6 260 01:36 21.09.2019
1569 Clear 25 1011 54 16093 2.1 0 00:40 21.09.2019
1570 Clear 25 1011 54 16093 2.1 0 00:18 21.09.2019
1571 Clear 26 1011 54 16093 3.1 270 23:42 20.09.2019
1572 Clear 25 1011 54 16093 3.1 270 23:23 20.09.2019
1573 Clear 25 1011 44 16093 4.97 223.729 22:41 20.09.2019
1574 Clear 25 1012 47 16093 3.1 190 22:23 20.09.2019
1575 Clear 25 1012 44 16093 4.97 223.729 21:57 20.09.2019
1576 Clear 25 1012 44 16093 4.97 223.729 21:57 20.09.2019
1577 Clear 24 1012 44 16093 4.97 223.729 21:37 20.09.2019
1578 Clear 24 1012 57 16093 4.1 200 21:19 20.09.2019
1579 Clear 24 1012 53 16093 1.5 0 20:55 20.09.2019
1580 Clear 23 1012 53 16093 1.5 0 20:37 20.09.2019
1581 Clouds 23 1013 60 16093 2.17 219.315 20:18 20.09.2019
1582 Clouds 22 1013 64 14484 2.1 260 19:45 20.09.2019
1583 Clouds 22 1013 64 14484 2.1 260 19:25 20.09.2019
1584 Clouds 21 1013 68 14484 2.17 219.315 18:58 20.09.2019
1585 Clouds 21 1013 73 16093 1.5 260 18:38 20.09.2019
1586 Clouds 21 1013 73 16093 1.5 260 18:38 20.09.2019
1587 Clouds 20 1013 73 16093 1.5 260 18:18 20.09.2019
1588 Clouds 19 1013 72 16093 0.58 211.659 17:45 20.09.2019
1589 Clouds 19 1013 72 16093 0.58 211.659 17:45 20.09.2019
1590 Clouds 19 1013 72 16093 0.58 211.659 17:45 20.09.2019
1591 Clouds 19 1012 73 16093 0.58 211.659 17:26 20.09.2019
1592 Clouds 17 1012 72 16093 0.58 211.659 16:44 20.09.2019
1593 Clouds 17 1012 72 16093 0.58 211.659 16:23 20.09.2019
1594 Clouds 17 1012 77 16093 0.58 211.659 15:59 20.09.2019
1595 Clouds 17 1012 82 16093 0.58 211.659 15:41 20.09.2019
1596 Clouds 17 1012 77 16093 1.07 152.55 15:22 20.09.2019
1597 Clouds 17 1012 82 16093 1.07 152.55 14:44 20.09.2019
1598 Clouds 17 1011 68 16093 1.5 70 14:20 20.09.2019
1599 Clouds 17 1011 68 16093 1.5 70 13:59 20.09.2019
1600 Clouds 17 1011 82 16093 1.07 152.55 13:40 20.09.2019
1601 Clear 17 1011 77 16093 0.97 181.002 13:21 20.09.2019
1602 Clouds 17 1011 77 16093 0.97 181.002 12:40 20.09.2019
1603 Clouds 17 1011 68 16093 2.06 157.438 12:22 20.09.2019
1604 Clear 17 1011 68 16093 2.06 157.438 11:51 20.09.2019
1605 Clear 17 1011 68 16093 2.06 157.438 11:25 20.09.2019
1606 Clouds 17 1011 77 16093 2.1 130 10:58 20.09.2019
1607 Clouds 17 1011 77 16093 2.1 130 10:40 20.09.2019
1608 Clear 18 1011 72 16093 1.5 130 10:22 20.09.2019
1609 Clear 18 1011 72 16093 1.5 130 10:22 20.09.2019
1610 Clouds 18 1011 77 16093 2.06 157.438 09:38 20.09.2019
1611 Clear 18 1010 68 16093 1.84 201.129 09:19 20.09.2019
1612 Clear 19 1010 64 16093 1.84 201.129 08:48 20.09.2019
1613 Clear 19 1010 64 16093 1.84 201.129 08:28 20.09.2019
1614 Clear 19 1010 68 16093 1.84 201.129 07:59 20.09.2019
1615 Clear 19 1010 68 16093 2.16 174.834 07:40 20.09.2019
1616 Clear 19 1010 68 16093 2.16 174.834 07:40 20.09.2019
1617 Clear 19 1010 64 16093 2.1 250 07:20 20.09.2019
1618 Clear 19 1010 68 16093 2.1 230 06:42 20.09.2019
1619 Clear 19 1010 68 16093 2.1 230 06:42 20.09.2019
1620 Clear 19 1010 68 16093 2.1 230 06:18 20.09.2019
1621 Clear 21 1009 64 16093 1.5 260 04:32 20.09.2019
1622 Clear 22 1009 60 16093 3.1 260 03:27 20.09.2019
1623 Clouds 23 1009 60 16093 2.6 260 02:22 20.09.2019
1624 Clouds 23 1010 64 16093 6.2 260 01:43 20.09.2019
1625 Clouds 24 1011 53 16093 4.12 233.495 00:42 20.09.2019
1626 Clouds 24 1011 57 16093 1.5 260 23:50 19.09.2019
1627 Clouds 24 1011 57 16093 1.5 260 23:50 19.09.2019
1628 Clouds 24 1011 57 16093 1.5 260 23:50 19.09.2019
1629 Clouds 25 1010 54 16093 1.5 0 23:29 19.09.2019
1630 Clouds 25 1011 51 16093 3.69 208.356 22:59 19.09.2019
1631 Clouds 25 1011 51 16093 3.69 208.356 22:40 19.09.2019
1632 Clouds 25 1011 51 16093 3.69 208.356 22:22 19.09.2019
1633 Clouds 24 1012 53 11265 6.2 210 21:57 19.09.2019
1634 Clouds 24 1012 53 11265 6.2 210 21:39 19.09.2019
1635 Clouds 24 1012 53 11265 6.2 210 21:39 19.09.2019
1636 Haze 23 1012 53 16093 4.1 200 21:19 19.09.2019
1637 Haze 23 1012 69 16093 3.1 210 20:57 19.09.2019
1638 Haze 23 1012 69 16093 3.1 210 20:39 19.09.2019
1639 Haze 23 1012 56 16093 1.5 110 20:19 19.09.2019
1640 Haze 22 1012 56 16093 2.99 159.083 19:54 19.09.2019
1641 Haze 22 1013 60 16093 2.99 159.083 19:36 19.09.2019
1642 Haze 22 1013 60 16093 2.99 159.083 19:18 19.09.2019
1643 Haze 21 1012 68 16093 2.6 140 18:41 19.09.2019
1644 Haze 20 1012 68 16093 2.6 140 18:22 19.09.2019
1645 Haze 20 1013 77 16093 2.6 120 17:43 19.09.2019
1646 Haze 19 1013 77 16093 2.6 120 17:24 19.09.2019
1647 Haze 19 1013 77 16093 2.1 120 16:59 19.09.2019
1648 Haze 18 1013 77 16093 2.1 120 16:40 19.09.2019
1649 Haze 18 1012 88 16093 2.27 133.306 16:20 19.09.2019
1650 Haze 18 1012 72 16093 2.6 110 15:41 19.09.2019
1651 Clouds 18 1012 77 16093 2.6 100 15:22 19.09.2019
1652 Clouds 18 1012 93 16093 1.26 131.057 14:58 19.09.2019
1653 Clouds 18 1012 93 16093 1.26 131.057 14:39 19.09.2019
1654 Clouds 18 1012 77 16093 1.26 131.057 14:20 19.09.2019
1655 Smoke 18 1012 82 16093 1.26 131.057 13:55 19.09.2019
1656 Smoke 18 1012 82 16093 2.1 70 13:36 19.09.2019
1657 Smoke 18 1012 82 16093 2.1 70 13:18 19.09.2019
1658 Clouds 18 1012 77 16093 1.5 149.724 12:37 19.09.2019
1659 Clouds 18 1012 77 16093 1.48 164.476 12:18 19.09.2019
1660 Clouds 18 1012 93 16093 1.48 164.476 11:41 19.09.2019
1661 Clear 18 1012 77 16093 1.48 164.476 11:22 19.09.2019
1662 Clouds 18 1012 82 16093 2.1 110 10:59 19.09.2019
1663 Clouds 18 1012 82 16093 2.1 110 10:39 19.09.2019
1664 Clear 18 1012 77 16093 1.48 164.476 10:21 19.09.2019
1665 Clear 18 1012 77 16093 1.48 164.476 10:21 19.09.2019
1666 Clear 18 1012 82 16093 2.6 110 09:58 19.09.2019
1667 Clear 18 1012 82 16093 2.6 110 09:40 19.09.2019
1668 Clear 18 1012 82 16093 2.6 110 09:40 19.09.2019
1669 Clear 18 1012 82 16093 2.6 110 09:19 19.09.2019
1670 Clear 18 1012 77 16093 2.27 160.038 08:51 19.09.2019
1671 Clear 19 1012 77 16093 2.27 160.038 08:24 19.09.2019
1672 Clear 19 1012 77 16093 2.27 160.038 07:45 19.09.2019
1673 Clear 19 1012 77 16093 2.27 160.038 07:23 19.09.2019
1674 Clear 19 1012 77 16093 2.1 230 06:58 19.09.2019
1675 Clear 19 1012 77 16093 2.1 230 06:38 19.09.2019
1676 Clear 20 1012 73 16093 2.9 243.903 06:20 19.09.2019
1677 Clear 20 1012 77 16093 3.6 250 05:48 19.09.2019
1678 Clear 22 1011 53 16093 2.9 243.903 04:20 19.09.2019
1679 Clear 23 1011 47 16093 3.6 270 03:20 19.09.2019
1680 Clear 25 1011 51 16093 2.1 250 01:40 19.09.2019
1681 Clear 25 1011 51 16093 2.1 250 01:19 19.09.2019
1682 Clear 25 1012 54 16093 3.74 232.426 00:43 19.09.2019
1683 Clear 26 1012 54 16093 4.37 210.892 00:19 19.09.2019
1684 Clear 26 1012 42 16093 3.1 240 23:38 18.09.2019
1685 Clear 26 1012 54 16093 4.37 210.892 23:19 18.09.2019
1686 Clear 26 1013 54 16093 2.1 260 22:41 18.09.2019
1687 Clear 26 1013 54 16093 2.1 260 22:19 18.09.2019
1688 Clear 25 1013 47 16093 4.37 210.892 21:57 18.09.2019
1689 Clear 25 1013 47 16093 4.37 210.892 21:39 18.09.2019
1690 Clear 25 1014 50 16093 2.77 175.803 21:18 18.09.2019
1691 Clear 25 1014 50 16093 2.77 175.803 21:18 18.09.2019
1692 Clouds 24 1014 73 16093 3.6 220 20:57 18.09.2019
1693 Clouds 24 1014 73 16093 3.6 220 20:39 18.09.2019
1694 Clouds 24 1014 73 16093 3.6 220 20:21 18.09.2019
1695 Clouds 24 1014 60 12874 1.5 160 19:57 18.09.2019
1696 Haze 23 1014 64 16093 2.79 182.547 19:38 18.09.2019
1697 Haze 23 1014 64 16093 2.6 90 19:19 18.09.2019
1698 Haze 22 1014 64 16093 1.5 90 19:19 18.09.2019
1699 Haze 22 1014 64 16093 1.5 90 18:55 18.09.2019
1700 Haze 21 1014 73 14484 1.5 0 18:37 18.09.2019
1701 Haze 21 1014 73 14484 1.5 0 18:37 18.09.2019
1702 Haze 21 1014 73 14484 1.5 0 18:18 18.09.2019
1703 Haze 21 1014 73 14484 1.5 0 18:18 18.09.2019
1704 Haze 20 1014 77 16093 2.1 80 17:56 18.09.2019
1705 Haze 20 1014 77 16093 2.1 80 17:56 18.09.2019
1706 Haze 20 1014 77 16093 2.1 80 17:38 18.09.2019
1707 Haze 20 1014 77 16093 2.1 80 17:38 18.09.2019
1708 Haze 19 1014 88 16093 1.5 70 17:18 18.09.2019
1709 -273 0 0 0 0 0 16:55 18.09.2019
1710 Clear 18 1013 77 16093 1.15 131.6 16:36 18.09.2019
1711 Mist 17 1013 82 16093 2.6 90 16:18 18.09.2019
1712 Clear 17 1013 77 16093 1.5 100 15:54 18.09.2019
1713 Clear 17 1013 77 16093 1.5 100 15:36 18.09.2019
1714 Clear 17 1013 77 16093 1.5 100 15:18 18.09.2019
1715 Clouds 17 1012 82 16093 2.6 80 14:55 18.09.2019
1716 Clear 17 1012 77 16093 0.91 130.663 14:36 18.09.2019
1717 Clear 17 1012 77 16093 0.91 130.663 14:18 18.09.2019
1718 Clear 17 1012 82 16093 0.91 130.663 13:40 18.09.2019
1719 Clear 17 1012 77 16093 0.91 172.742 13:19 18.09.2019
1720 Clouds 17 1013 77 16093 1.5 100 12:53 18.09.2019
1721 Clouds 17 1013 77 16093 1.5 100 12:31 18.09.2019
1722 Clear 17 1013 77 16093 1.5 90 11:59 18.09.2019
1723 Clear 17 1013 77 16093 1.5 90 11:39 18.09.2019
1724 Clear 17 1013 77 16093 1.5 90 11:19 18.09.2019
1725 Clear 18 1013 72 16093 3.1 100 10:40 18.09.2019
1726 Clear 18 1013 72 16093 3.1 100 10:40 18.09.2019
1727 Clear 18 1013 72 16093 3.1 100 10:21 18.09.2019
1728 Clear 18 1013 88 16093 1.5 50 09:58 18.09.2019
1729 Clear 18 1013 88 16093 1.5 50 09:58 18.09.2019
1730 Clear 19 1012 77 16093 1.79 187.681 09:39 18.09.2019
1731 Clear 19 1012 77 16093 1.71 195.27 09:21 18.09.2019
1732 Clear 19 1013 73 16093 1.82 182.899 08:46 18.09.2019
1733 Haze 19 1013 73 16093 1.82 182.899 08:26 18.09.2019
1734 Haze 19 1013 73 16093 2.1 240 07:59 18.09.2019
1735 Haze 20 1013 64 16093 1.82 182.899 07:41 18.09.2019
1736 Clear 20 1013 64 16093 1.82 182.899 07:22 18.09.2019
1737 Clear 20 1012 60 16093 1.82 182.899 06:41 18.09.2019
1738 Clear 21 1012 60 16093 2.58 243.792 05:54 18.09.2019
1739 Clear 21 1012 60 16093 2.58 243.792 05:22 18.09.2019
1740 Clear 24 1012 69 16093 4.1 270 03:25 18.09.2019
1741 Clear 25 1012 57 16093 2.6 250 02:40 18.09.2019
1742 Clear 25 1012 57 16093 3.99 239.014 01:35 18.09.2019
1743 Clear 26 1013 57 16093 1.5 0 00:51 18.09.2019
1744 Clear 26 1013 57 16093 1.5 0 00:28 18.09.2019
1745 Clear 26 1014 51 16093 1.5 0 23:47 17.09.2019
1746 Clear 26 1014 51 16093 1.5 0 23:23 17.09.2019
1747 Clear 26 1014 51 16093 1.5 0 23:23 17.09.2019
1748 Clear 26 1014 48 16093 3.89 217.981 22:55 17.09.2019
1749 Clear 26 1014 48 16093 3.89 217.981 22:36 17.09.2019
1750 Clear 26 1014 48 16093 3.89 217.981 22:18 17.09.2019
1751 Clear 26 1014 42 16093 1.5 0 21:54 17.09.2019
1752 Clear 25 1014 42 16093 1.5 0 21:36 17.09.2019
1753 Clear 25 1014 42 16093 1.5 0 21:18 17.09.2019
1754 Clear 25 1016 31 16093 3.6 110 20:54 17.09.2019
1755 Clear 25 1015 50 16093 2.39 173.342 20:36 17.09.2019
1756 Clear 24 1015 50 16093 2.39 173.342 20:18 17.09.2019
1757 Clear 24 1015 57 16093 2.39 173.342 19:39 17.09.2019
1758 Clear 24 1015 57 16093 2.39 173.342 19:39 17.09.2019
1759 Clear 23 1015 68 14484 2.39 173.342 19:20 17.09.2019
1760 Clear 22 1015 68 14484 1.5 0 18:59 17.09.2019
1761 Clear 22 1015 68 14484 1.5 0 18:41 17.09.2019
1762 Clear 21 1015 68 14484 1.5 0 18:22 17.09.2019
1763 Clear 20 1015 77 14484 2.1 0 17:47 17.09.2019
1764 Clear 19 1015 77 14484 2.1 0 17:21 17.09.2019
1765 Clouds 18 1015 82 14484 2.1 110 16:59 17.09.2019
1766 Clouds 18 1015 82 14484 2.1 110 16:41 17.09.2019
1767 Clouds 17 1014 82 14484 2.1 90 16:22 17.09.2019
1768 Rain 17 1014 82 16093 2.6 110 15:55 17.09.2019
1769 Rain 17 1014 82 16093 2.6 110 15:55 17.09.2019
1770 Rain 17 1014 88 16093 3.1 90 15:37 17.09.2019
1771 Rain 17 1014 88 16093 3.1 90 15:18 17.09.2019
1772 Clouds 17 1014 82 16093 1.5 80 14:55 17.09.2019
1773 Clouds 17 1014 82 16093 1.5 80 14:55 17.09.2019
1774 Clouds 17 1013 77 16093 0.65 120.781 14:37 17.09.2019
1775 Clouds 17 1013 77 16093 0.65 120.781 14:37 17.09.2019
1776 Clouds 17 1013 77 16093 0.65 120.781 14:18 17.09.2019
1777 Clear 17 1013 82 16093 0.65 120.781 13:41 17.09.2019
1778 Clear 17 1013 82 16093 0.24 202.51 13:23 17.09.2019
1779 Clouds 17 1013 93 16093 0.24 202.51 12:55 17.09.2019
1780 Clouds 17 1013 93 16093 0.24 202.51 12:37 17.09.2019
1781 Clouds 17 1013 88 16093 0.89 197.684 12:18 17.09.2019
1782 Clouds 18 1014 93 16093 0.89 197.684 11:41 17.09.2019
1783 Clouds 18 1013 82 16093 0.89 197.684 11:22 17.09.2019
1784 Clouds 18 1013 77 16093 3.1 240 10:43 17.09.2019
1785 Clear 18 1013 82 16093 2.1 170 10:24 17.09.2019
1786 Clear 18 1012 77 16093 0.89 197.684 09:59 17.09.2019
1787 Clear 18 1013 82 16093 3.1 100 09:41 17.09.2019
1788 Clear 18 1012 77 16093 1.51 152.789 09:21 17.09.2019
1789 Clear 19 1012 77 16093 1.51 152.789 08:49 17.09.2019
1790 Clear 19 1013 82 16093 3.6 130 08:30 17.09.2019
1791 Clear 19 1012 77 16093 1.53 195.966 07:59 17.09.2019
1792 Clear 19 1012 77 16093 1.53 195.966 07:39 17.09.2019
1793 Clear 19 1012 77 16093 1.53 195.966 07:39 17.09.2019
1794 Clear 19 1012 77 16093 1.53 195.966 07:39 17.09.2019
1795 Clear 20 1012 77 16093 1.53 195.966 07:19 17.09.2019
1796 Clouds 20 1012 88 16093 1.53 195.966 06:45 17.09.2019
1797 Clear 20 1012 73 16093 1.5 250 06:20 17.09.2019
1798 Clear 20 1012 73 16093 1.5 0 05:47 17.09.2019
1799 Clouds 21 1011 69 16093 2.1 0 04:29 17.09.2019
1800 Clouds 21 1011 69 16093 2.1 0 04:29 17.09.2019
1801 Clear 24 1011 57 16093 2.1 250 02:57 17.09.2019
1802 Clear 25 1011 57 16093 2.1 250 02:38 17.09.2019
1803 Clear 25 1011 57 16093 2.1 250 02:38 17.09.2019
1804 Clouds 26 1011 54 16093 3.69 224.571 01:24 17.09.2019
1805 Clear 27 1012 54 16093 3.69 224.571 00:40 17.09.2019
1806 Clear 27 1012 51 16093 3.07 210.913 23:40 16.09.2019
1807 Clear 27 1012 51 16093 3.07 210.913 23:19 16.09.2019
1808 Clear 27 1013 54 12874 3.07 210.913 22:56 16.09.2019
1809 Clear 27 1013 54 12874 3.07 210.913 22:37 16.09.2019
1810 Clear 27 1013 54 12874 3.07 210.913 22:19 16.09.2019
1811 Haze 26 1013 51 16093 1.5 0 21:55 16.09.2019
1812 Haze 26 1013 51 16093 1.5 0 21:36 16.09.2019
1813 Haze 26 1013 51 16093 1.5 0 21:18 16.09.2019
1814 Haze 25 1014 64 12874 1.5 130 20:40 16.09.2019
1815 -273 0 0 0 0 0 20:21 16.09.2019
1816 Haze 24 1014 69 11265 2.42 208.868 19:57 16.09.2019
1817 Haze 23 1014 69 11265 2.42 208.868 19:39 16.09.2019
1818 Haze 23 1014 73 12874 2.42 208.868 19:19 16.09.2019
1819 Haze 22 1016 53 16093 2.6 110 18:47 16.09.2019
1820 Haze 22 1013 73 9656 1.5 0 18:29 16.09.2019
1821 Haze 21 1015 64 16093 1.06 210.573 17:58 16.09.2019
1822 Haze 20 1013 77 6437 1.06 210.573 17:39 16.09.2019
1823 Haze 20 1013 77 6437 1.06 210.573 17:39 16.09.2019
1824 Haze 20 1013 77 6437 1.06 210.573 17:21 16.09.2019
1825 Haze 19 1015 59 16093 1.06 210.573 16:55 16.09.2019
1826 Haze 19 1013 82 6437 1.06 210.573 16:37 16.09.2019
1827 Haze 19 1013 82 6437 1.06 210.573 16:18 16.09.2019
1828 Haze 19 1013 82 9656 1.5 80 15:55 16.09.2019
1829 Haze 18 1012 82 6437 1.06 210.573 15:37 16.09.2019
1830 Haze 18 1012 82 6437 1.06 210.573 15:37 16.09.2019
1831 Haze 18 1012 82 6437 0.9 88.663 15:18 16.09.2019
1832 Mist 18 1012 82 9656 0.9 88.663 14:43 16.09.2019
1833 Mist 18 1012 88 8047 0.9 88.663 14:23 16.09.2019
1834 Mist 18 1012 88 8047 0.9 88.663 13:57 16.09.2019
1835 Mist 18 1012 88 16093 0.9 88.663 13:38 16.09.2019
1836 Mist 18 1012 88 8047 0.61 132.736 13:20 16.09.2019
1837 Haze 18 1012 82 8047 0.61 132.736 12:43 16.09.2019
1838 Haze 18 1012 82 8047 1.77 196.3 12:24 16.09.2019
1839 Mist 18 1012 82 9656 2.1 160 11:55 16.09.2019
1840 -273 0 0 0 0 0 11:55 16.09.2019
1841 Mist 18 1012 88 9656 1.77 196.3 11:37 16.09.2019
1842 Mist 18 1012 88 9656 1.77 196.3 11:37 16.09.2019
1843 Mist 18 1012 88 9656 1.77 196.3 11:19 16.09.2019
1844 Mist 19 1012 88 8047 1.77 196.3 10:38 16.09.2019
1845 Mist 19 1012 88 8047 1.77 196.3 10:19 16.09.2019
1846 Haze 19 1012 83 6437 1.77 196.3 09:57 16.09.2019
1847 Haze 19 1012 83 6437 1.77 196.3 09:38 16.09.2019
1848 Haze 19 1012 83 6437 1.5 171.416 09:19 16.09.2019
1849 Haze 19 1012 82 11265 1.33 152.724 08:44 16.09.2019
1850 Haze 20 1012 82 11265 1.33 152.724 08:25 16.09.2019
1851 Haze 20 1012 93 11265 2.1 220 07:56 16.09.2019
1852 Haze 20 1012 93 11265 2.1 220 07:56 16.09.2019
1853 Haze 20 1012 93 11265 2.1 220 07:37 16.09.2019
1854 Haze 20 1011 77 9656 1.33 152.724 07:18 16.09.2019
1855 Haze 21 1012 83 9656 3.6 250 06:44 16.09.2019
1856 Haze 21 1012 83 9656 3.6 250 06:26 16.09.2019
1857 Clear 21 1011 73 16093 2.1 280 05:46 16.09.2019
1858 Clear 22 1011 73 16093 2.1 280 05:26 16.09.2019
1859 Clear 22 1011 69 16093 2.6 260 04:33 16.09.2019
1860 Clear 22 1011 69 16093 2.6 260 04:33 16.09.2019
1861 Clear 27 1010 61 16093 2.1 250 02:32 16.09.2019
1862 Clear 28 1011 54 16093 2.95 220.109 00:44 16.09.2019
1863 Clear 28 1011 54 16093 3.34 215.069 00:25 16.09.2019
1864 Haze 29 1011 58 11265 1.5 0 23:42 15.09.2019
1865 Haze 28 1011 58 11265 1.5 0 23:21 15.09.2019
1866 Haze 29 1012 45 16093 1.5 0 22:56 15.09.2019
1867 Haze 29 1012 45 16093 1.5 0 22:36 15.09.2019
1868 Haze 29 1012 61 9656 3.1 260 22:18 15.09.2019
1869 Haze 30 1014 20 16093 2.6 120 21:55 15.09.2019
1870 Haze 30 1014 20 16093 2.6 120 21:55 15.09.2019
1871 Haze 29 1012 45 16093 1.5 0 21:36 15.09.2019
1872 Haze 29 1012 45 16093 1.5 0 21:36 15.09.2019
1873 Haze 29 1012 45 16093 1.5 0 21:18 15.09.2019
1874 Haze 28 1012 61 8047 2.04 184.156 20:42 15.09.2019
1875 Haze 27 1012 61 8047 2.04 184.156 20:24 15.09.2019
1876 Haze 23 1013 78 9656 2.04 184.156 19:47 15.09.2019
1877 Haze 23 1013 78 9656 2.04 184.156 19:26 15.09.2019
1878 Haze 21 1013 78 4828 2.6 110 18:55 15.09.2019
1879 Haze 21 1013 88 6437 2.04 184.156 18:36 15.09.2019
1880 Haze 21 1013 83 4023 1.42 102.279 18:18 15.09.2019
1881 Mist 20 1012 88 4828 1.42 102.279 17:41 15.09.2019
1882 Mist 20 1012 88 4828 1.42 102.279 17:21 15.09.2019
1883 Mist 19 1012 93 2816 1.42 102.279 16:56 15.09.2019
1884 Mist 19 1012 88 6437 1.42 102.279 16:38 15.09.2019
1885 Mist 19 1012 88 6437 1.42 102.279 16:20 15.09.2019
1886 Fog 19 1012 100 3219 1.42 102.279 15:41 15.09.2019
1887 Mist 19 1012 94 2816 0.7 178.028 15:21 15.09.2019
1888 Mist 19 1012 94 1609 1.5 300 14:59 15.09.2019
1889 Mist 19 1012 94 1609 1.5 300 14:41 15.09.2019
1890 Mist 19 1011 83 2012 0.7 178.028 14:23 15.09.2019
1891 Fog 20 1011 100 4828 2.1 250 13:48 15.09.2019
1892 Mist 20 1011 88 805 2.6 260 13:26 15.09.2019
1893 Mist 20 1011 88 805 2.1 240 13:00 15.09.2019
1894 Mist 20 1011 93 12874 0.21 136.35 12:40 15.09.2019
1895 Mist 20 1011 93 12874 0.21 136.35 12:40 15.09.2019
1896 Mist 20 1011 88 805 2.1 260 12:22 15.09.2019
1897 Mist 20 1012 94 8047 1.5 230 11:54 15.09.2019
1898 Clear 21 1012 78 12874 0.58 140.424 11:36 15.09.2019
1899 Clear 21 1012 78 12874 0.58 140.424 11:18 15.09.2019
1900 Clear 21 1012 78 14484 0.58 140.424 10:41 15.09.2019
1901 Clear 21 1012 78 14484 0.58 140.424 10:22 15.09.2019
1902 Clear 21 1012 78 16093 0.58 140.424 09:57 15.09.2019
1903 Clear 22 1012 78 16093 0.58 140.424 09:36 15.09.2019
1904 Clear 22 1012 78 16093 1.09 133.33 09:18 15.09.2019
1905 Clear 22 1012 73 16093 0.88 112.665 08:41 15.09.2019
1906 Clear 22 1012 73 16093 0.88 112.665 08:20 15.09.2019
1907 Clear 23 1012 73 16093 0.88 112.665 07:48 15.09.2019
1908 Clouds 23 1012 94 16093 1.5 230 06:59 15.09.2019
1909 Clouds 23 1012 94 16093 1.5 230 06:59 15.09.2019
1910 Clouds 24 1012 94 16093 1.5 230 06:31 15.09.2019
1911 Clear 31 1010 48 16093 2.1 270 03:24 15.09.2019
1912 Clear 32 1010 35 16093 2.1 0 02:30 15.09.2019
1913 Clear 33 1010 24 16093 3.1 260 01:38 15.09.2019
1914 Clear 33 1010 24 16093 3.1 260 01:38 15.09.2019
1915 Clear 33 1011 31 16093 3.17 228.738 00:58 15.09.2019
1916 Clear 34 1011 31 16093 3.17 228.738 00:39 15.09.2019
1917 Clear 34 1011 31 16093 3.2 207.477 00:19 15.09.2019
1918 Haze 34 1012 40 2012 4.6 260 23:57 14.09.2019
1919 Haze 34 1012 40 2012 4.6 260 23:39 14.09.2019
1920 Haze 34 1012 40 2012 4.6 260 23:39 14.09.2019
1921 Clear 34 1012 46 16093 3.2 207.477 23:19 14.09.2019
1922 Clear 34 1012 41 16093 1.5 0 22:58 14.09.2019
1923 Clear 34 1012 41 16093 1.5 0 22:39 14.09.2019
1924 Clear 34 1012 41 16093 1.5 0 22:19 14.09.2019
1925 Clear 33 1013 37 16093 3.1 200 21:40 14.09.2019
1926 Clear 32 1013 34 16093 2.1 170 21:21 14.09.2019
1927 Clear 32 1013 38 16093 1.87 181.413 20:59 14.09.2019
1928 Clear 32 1013 38 16093 1.87 181.413 20:59 14.09.2019
1929 Clear 32 1013 38 16093 1.74 173.427 20:40 14.09.2019
1930 Clear 31 1013 38 16093 1.74 173.427 20:22 14.09.2019
1931 Haze 29 1016 15 16093 1.74 173.427 19:51 14.09.2019
1932 Haze 28 1013 51 16093 1.74 173.427 19:23 14.09.2019
1933 Haze 27 1014 73 4828 1.74 173.427 18:59 14.09.2019
1934 Haze 26 1013 65 14484 1.74 173.427 18:40 14.09.2019
1935 Haze 26 1013 65 14484 1.53 101.163 18:21 14.09.2019
1936 Haze 24 1014 83 4828 1.53 101.163 17:58 14.09.2019
1937 Fog 23 1013 69 16093 1.53 101.163 17:39 14.09.2019
1938 Fog 23 1013 69 16093 1.53 101.163 17:21 14.09.2019
1939 Fog 20 1013 73 16093 1.53 101.163 16:43 14.09.2019
1940 Fog 20 1013 83 16093 1.53 101.163 16:21 14.09.2019
1941 Mist 20 1013 88 402 1.53 101.163 15:55 14.09.2019
1942 Mist 19 1013 88 4828 1.5 110 15:36 14.09.2019
1943 Mist 19 1013 88 4828 1.5 110 15:18 14.09.2019
1944 Mist 19 1013 93 9656 1.6 80.808 14:42 14.09.2019
1945 Mist 19 1013 77 16093 1.6 80.808 14:19 14.09.2019
1946 Mist 19 1012 73 16093 1.6 80.808 14:19 14.09.2019
1947 Clear 20 1012 68 16093 1.6 80.808 13:47 14.09.2019
1948 Clear 20 1012 68 16093 1.75 74.378 13:22 14.09.2019
1949 Clear 20 1012 68 16093 1.75 74.378 12:48 14.09.2019
1950 Clear 20 1012 68 16093 1.75 74.378 12:27 14.09.2019
1951 Clear 20 1013 64 16093 1.72 81.502 11:44 14.09.2019
1952 Clear 21 1013 64 16093 1.72 81.502 11:22 14.09.2019
1953 Clear 21 1013 64 16093 1.72 81.502 10:59 14.09.2019
1954 Clear 22 1013 64 16093 1.72 81.502 10:37 14.09.2019
1955 Clear 22 1013 60 16093 1.72 81.502 10:19 14.09.2019
1956 Clear 22 1013 60 16093 1.72 81.502 09:56 14.09.2019
1957 Clear 22 1013 60 16093 1.72 81.502 09:38 14.09.2019
1958 Clear 22 1013 60 16093 1.72 81.502 09:38 14.09.2019
1959 Clear 22 1013 60 16093 0.26 139.277 09:19 14.09.2019
1960 Clear 23 1012 64 16093 1.42 122.883 08:45 14.09.2019
1961 Clear 23 1012 64 16093 1.42 122.883 08:23 14.09.2019
1962 Clear 23 1012 64 16093 1.42 122.883 07:46 14.09.2019
1963 Clear 24 1012 64 16093 1.42 122.883 07:28 14.09.2019
1964 Clear 24 1012 69 16093 1.42 122.883 06:44 14.09.2019
1965 Clear 24 1012 69 16093 2.06 316.71 06:25 14.09.2019
1966 Clear 25 1011 65 16093 2.06 316.71 05:26 14.09.2019
1967 Clear 28 1011 42 16093 3.1 0 03:46 14.09.2019
1968 Clear 32 1011 38 16093 4.74 244.175 02:54 14.09.2019
1969 Clear 32 1011 38 16093 4.74 244.175 02:54 14.09.2019
1970 Clear 33 1011 10 16093 4.6 320 01:52 14.09.2019
1971 Clear 32 1011 33 16093 3.1 260 01:23 14.09.2019
1972 Clear 34 1012 31 16093 2.6 0 00:59 14.09.2019
1973 Clear 34 1012 31 16093 2.6 0 00:39 14.09.2019
1974 Clear 34 1012 31 16093 2.6 0 00:20 14.09.2019
1975 Clear 33 1012 29 16093 2.6 0 23:38 13.09.2019
1976 Clear 34 1012 29 16093 2.6 0 23:19 13.09.2019
1977 Clear 34 1013 38 16093 2.1 260 22:59 13.09.2019
1978 Clear 35 1013 38 16093 2.1 260 22:38 13.09.2019
1979 Clear 34 1013 38 16093 2.1 260 22:20 13.09.2019
1980 Clear 34 1014 43 16093 1.5 0 21:54 13.09.2019
1981 Clear 33 1014 43 16093 1.5 0 21:36 13.09.2019
1982 Clear 32 1014 57 16093 4.1 260 21:18 13.09.2019
1983 Clear 32 1014 38 16093 2.31 220.795 20:55 13.09.2019
1984 Clear 32 1014 38 16093 2.33 230.185 20:36 13.09.2019
1985 Clear 31 1014 57 16093 3.6 260 20:18 13.09.2019
1986 Clear 29 1014 48 16093 2.33 230.185 19:42 13.09.2019
1987 Clear 29 1014 48 16093 2.33 230.185 19:21 13.09.2019
1988 Clear 27 1014 61 16093 2.33 230.185 18:57 13.09.2019
1989 Clear 26 1014 61 16093 2.33 230.185 18:37 13.09.2019
1990 Clear 25 1014 61 16093 0.81 246.245 18:19 13.09.2019
1991 Clear 23 1014 73 16093 0.81 246.245 17:43 13.09.2019
1992 Clear 22 1014 73 16093 0.81 246.245 17:20 13.09.2019
1993 Fog 20 1014 82 14484 0.81 246.245 16:55 13.09.2019
1994 Fog 19 1014 82 14484 0.81 246.245 16:37 13.09.2019
1995 Fog 19 1014 82 14484 0.81 246.245 16:18 13.09.2019
1996 Fog 19 1014 88 16093 0.81 246.245 15:40 13.09.2019
1997 Fog 19 1014 88 16093 0.82 315.741 15:21 13.09.2019
1998 Fog 19 1014 88 16093 0.82 315.741 15:21 13.09.2019
1999 Fog 19 1013 82 16093 0.82 315.741 14:44 13.09.2019
2000 Fog 19 1013 82 16093 0.82 315.741 14:44 13.09.2019
2001 Fog 19 1013 82 16093 0.82 315.741 14:23 13.09.2019
2002 Fog 19 1013 77 16093 0.82 315.741 13:58 13.09.2019
2003 Fog 19 1013 77 16093 1 305.564 13:39 13.09.2019
2004 Fog 19 1013 77 16093 1 305.564 13:21 13.09.2019
2005 Clear 19 1014 77 16093 1 305.564 12:44 13.09.2019
2006 Clear 19 1014 77 16093 0.74 231.546 12:24 13.09.2019
2007 Clear 19 1014 77 16093 0.74 231.546 11:57 13.09.2019
2008 Clear 19 1014 77 16093 0.74 231.546 11:20 13.09.2019
2009 Clear 20 1014 83 16093 0.74 231.546 10:41 13.09.2019
2010 Clear 20 1014 83 16093 0.74 231.546 10:21 13.09.2019
2011 Clear 20 1014 83 16093 0.74 231.546 10:21 13.09.2019
2012 Clear 20 1014 83 16093 0.74 231.546 10:21 13.09.2019
2013 Clear 20 1014 77 16093 0.74 231.546 09:56 13.09.2019
2014 Clear 20 1014 77 16093 0.74 231.546 09:37 13.09.2019
2015 Clear 20 1014 77 16093 2.4 175.177 09:19 13.09.2019
2016 Clear 20 1014 73 16093 2.22 159.544 08:41 13.09.2019
2017 Clear 20 1014 73 16093 2.22 159.544 08:21 13.09.2019
2018 Clear 20 1014 73 16093 2.22 159.544 07:59 13.09.2019
2019 Clear 21 1014 73 16093 2.22 159.544 07:40 13.09.2019
2020 Clear 21 1014 73 16093 2.22 159.544 06:54 13.09.2019
2021 Clear 22 1014 73 16093 2.22 159.544 06:34 13.09.2019
2022 Clear 23 1014 69 16093 1.5 0 05:30 13.09.2019
2023 Clear 25 1013 57 16093 2.6 270 03:48 13.09.2019
2024 Clear 27 1013 57 16093 2.6 270 03:24 13.09.2019
2025 Clear 29 1013 54 16093 2.6 260 02:19 13.09.2019
2026 Clear 29 1013 51 16093 1.5 260 01:35 13.09.2019
2027 Clear 29 1013 51 16093 1.5 260 01:35 13.09.2019
2028 Clear 29 1014 45 16093 3.1 270 00:59 13.09.2019
2029 Clear 29 1014 45 16093 3.1 270 00:34 13.09.2019
2030 Clear 30 1014 48 16093 2.1 0 23:47 12.09.2019
2031 Clear 30 1014 48 16093 2.1 0 23:24 12.09.2019
2032 Clear 31 1016 21 16093 2.6 110 22:57 12.09.2019
2033 Clear 30 1015 48 0 4.06 223.783 22:39 12.09.2019
2034 Clear 30 1015 48 0 4.06 223.783 22:21 12.09.2019
2035 Clear 29 1015 51 16093 1.5 280 21:55 12.09.2019
2036 Clear 28 1015 51 16093 1.5 280 21:36 12.09.2019
2037 Clear 28 1015 51 16093 1.5 280 21:18 12.09.2019
2038 Clear 27 1016 51 12874 1.5 0 20:44 12.09.2019
2039 Clear 26 1016 65 16093 3.6 280 20:22 12.09.2019
2040 Clear 26 1018 34 16093 3.05 216.836 19:57 12.09.2019
2041 Clear 25 1016 57 11265 3.05 216.836 19:39 12.09.2019
2042 Clear 25 1016 69 16093 1.5 0 19:19 12.09.2019
2043 Clear 23 1015 64 11265 3.05 216.836 18:56 12.09.2019
2044 Clear 23 1015 64 11265 3.05 216.836 18:36 12.09.2019
2045 Clear 23 1015 64 11265 1.4 234.69 18:18 12.09.2019
2046 Clear 21 1015 73 12874 1.4 234.69 17:40 12.09.2019
2047 Clear 20 1015 73 12874 1.4 234.69 17:20 12.09.2019
2048 Clear 20 1015 73 16093 1.4 234.69 17:20 12.09.2019
2049 Clear 19 1015 77 16093 1.4 234.69 16:56 12.09.2019
2050 Clear 18 1015 77 16093 1.4 234.69 16:37 12.09.2019
2051 Clear 17 1015 82 16093 1.4 234.69 16:19 12.09.2019
2052 Clear 17 1015 67 16093 2.1 270 15:41 12.09.2019
2053 Clear 17 1015 77 16093 0.87 211.258 15:23 12.09.2019
2054 Clear 17 1015 77 16093 0.87 211.258 15:23 12.09.2019
2055 Clear 17 1014 82 16093 0.87 211.258 14:46 12.09.2019
2056 Clear 17 1014 82 16093 0.87 211.258 14:22 12.09.2019
2057 Clear 17 1014 82 16093 0.87 211.258 13:58 12.09.2019
2058 Clear 17 1014 82 16093 0.87 211.258 13:38 12.09.2019
2059 Clear 17 1014 82 16093 0.56 210.611 13:19 12.09.2019
2060 Clear 18 1014 77 16093 0.56 210.611 12:45 12.09.2019
2061 Clear 18 1014 82 16093 1.55 211.891 12:19 12.09.2019
2062 Clear 18 1014 82 16093 1.55 211.891 12:19 12.09.2019
2063 Clear 18 1014 77 16093 1.55 211.891 11:57 12.09.2019
2064 Clear 18 1014 77 16093 1.55 211.891 11:39 12.09.2019
2065 Clear 18 1014 77 16093 1.55 211.891 11:19 12.09.2019
2066 Clear 18 1015 82 16093 1.55 211.891 10:45 12.09.2019
2067 Clear 18 1015 82 16093 1.55 211.891 10:26 12.09.2019
2068 Clear 19 1015 82 16093 1.5 150 09:56 12.09.2019
2069 Clear 19 1015 82 16093 1.5 150 09:36 12.09.2019
2070 Clear 19 1014 73 16093 0.94 189.322 09:18 12.09.2019
2071 Smoke 19 1014 73 16093 0.85 166.112 08:41 12.09.2019
2072 Smoke 19 1014 73 16093 0.85 166.112 08:22 12.09.2019
2073 Clear 20 1014 73 16093 0.85 166.112 07:45 12.09.2019
2074 Clear 20 1014 73 16093 0.85 166.112 07:20 12.09.2019
2075 Clear 20 1014 73 16093 0.85 166.112 06:51 12.09.2019
2076 Clear 20 1014 73 16093 2.53 235.6 06:29 12.09.2019
2077 Clear 21 1013 68 16093 1.5 260 05:52 12.09.2019
2078 Clear 21 1013 68 16093 1.5 260 05:34 12.09.2019
2079 Clear 22 1015 60 16093 2.1 140 04:41 12.09.2019
2080 Clear 24 1013 53 16093 6.2 270 03:18 12.09.2019
2081 Clear 25 1013 54 16093 4.1 270 01:38 12.09.2019
2082 Clear 25 1013 54 16093 4.1 270 01:19 12.09.2019
2083 Clear 26 1014 57 16093 3.1 0 00:45 12.09.2019
2084 Clear 26 1014 57 16093 3.1 0 00:25 12.09.2019
2085 Clear 26 1014 54 16093 2.6 290 23:43 11.09.2019
2086 Clear 26 1014 54 16093 2.6 290 23:24 11.09.2019
2087 Clear 26 1016 41 16093 2.1 150 22:57 11.09.2019
2088 Clear 25 1015 47 16093 2.1 0 22:38 11.09.2019
2089 Clear 25 1015 47 16093 2.1 0 22:19 11.09.2019
2090 Clear 25 1015 44 16093 4.51 213.394 21:57 11.09.2019
2091 Clouds 25 1016 38 11265 4.1 210 21:38 11.09.2019
2092 Clouds 25 1016 57 16093 2.1 0 21:38 11.09.2019
2093 Clouds 24 1016 53 16093 2.46 191.863 21:19 11.09.2019
2094 Clouds 24 1016 53 16093 1.5 0 20:54 11.09.2019
2095 Clouds 24 1016 53 16093 1.5 0 20:36 11.09.2019
2096 Clouds 23 1016 53 16093 1.5 0 20:18 11.09.2019
2097 Clouds 23 1016 64 16093 2.6 0 19:55 11.09.2019
2098 Clouds 23 1016 56 14484 2.67 183.823 19:37 11.09.2019
2099 Clouds 22 1016 56 14484 2.67 183.823 19:18 11.09.2019
2100 Clouds 22 1016 60 16093 2.67 183.823 18:42 11.09.2019
2101 Clouds 21 1016 60 16093 1.64 149.563 18:22 11.09.2019
2102 Haze 20 1018 72 16093 2.1 120 17:58 11.09.2019
2103 Haze 20 1016 77 14484 1.64 149.563 17:39 11.09.2019
2104 Haze 19 1016 82 16093 1.5 180 17:20 11.09.2019
2105 Haze 18 1017 72 16093 1.64 149.563 16:54 11.09.2019
2106 Haze 18 1015 68 16093 1.64 149.563 16:36 11.09.2019
2107 Haze 18 1015 68 16093 1.64 149.563 16:36 11.09.2019
2108 Haze 18 1015 68 16093 1.64 149.563 16:18 11.09.2019
2109 Haze 18 1015 88 16093 1.64 149.563 15:45 11.09.2019
2110 Clouds 17 1014 93 16093 1.4 170.464 15:22 11.09.2019
2111 Clouds 17 1014 82 16093 1.4 170.464 14:57 11.09.2019
2112 Clouds 17 1014 72 16093 2.1 90 14:38 11.09.2019
2113 Clouds 17 1014 72 16093 2.1 90 14:19 11.09.2019
2114 Clouds 17 1014 82 16093 1.4 170.464 13:54 11.09.2019
2115 Clouds 17 1014 88 16093 1.4 170.464 13:36 11.09.2019
2116 Clouds 17 1014 88 16093 1.24 173.972 13:18 11.09.2019
2117 Clouds 17 1013 77 16093 1.24 173.972 12:40 11.09.2019
2118 Clouds 17 1013 82 16093 1.45 175.835 12:21 11.09.2019
2119 -273 0 0 0 0 0 11:55 11.09.2019
2120 Clouds 17 1013 77 16093 2.1 100 11:36 11.09.2019
2121 Clouds 17 1013 77 16093 2.1 100 11:36 11.09.2019
2122 Clouds 17 1013 77 16093 2.1 100 11:18 11.09.2019
2123 Clear 18 1013 73 16093 1.45 175.835 10:40 11.09.2019
2124 Clear 18 1013 73 16093 1.45 175.835 10:21 11.09.2019
2125 Clear 18 1013 77 14484 1.45 175.835 09:40 11.09.2019
2126 Clear 18 1013 77 14484 1.7 179.865 09:20 11.09.2019
2127 Clear 18 1013 77 16093 1.7 179.865 08:59 11.09.2019
2128 Clear 18 1013 77 16093 1.27 170.582 08:39 11.09.2019
2129 Clear 19 1013 77 16093 1.27 170.582 08:21 11.09.2019
2130 Haze 19 1013 73 16093 1.5 230 07:45 11.09.2019
2131 Haze 19 1012 68 16093 1.27 170.582 07:23 11.09.2019
2132 Haze 20 1012 68 16093 1.27 170.582 06:54 11.09.2019
2133 Haze 20 1012 68 16093 1.27 170.582 06:35 11.09.2019
2134 Haze 20 1012 68 9656 2.1 310 05:49 11.09.2019
2135 Haze 20 1012 68 16093 2.6 270 05:29 11.09.2019
2136 Clouds 20 1013 64 16093 2.42 229.201 04:51 11.09.2019
2137 Clouds 21 1011 64 16093 3.1 270 03:37 11.09.2019
2138 Clouds 22 1011 60 16093 1.5 0 02:58 11.09.2019
2139 Clouds 23 1011 60 16093 4.6 260 02:28 11.09.2019
2140 Clouds 24 1011 57 16093 3.6 280 00:57 11.09.2019
2141 Clear 24 1011 54 16093 3.67 228.656 00:31 11.09.2019
2142 Clouds 24 1012 54 16093 4.1 260 23:58 10.09.2019
2143 Clouds 24 1012 54 16093 4.1 260 23:39 10.09.2019
2144 Clouds 24 1012 57 16093 7.2 260 23:20 10.09.2019
2145 Clouds 24 1012 47 16093 4.32 190.985 22:41 10.09.2019
2146 Clouds 24 1012 47 16093 4.32 190.985 22:20 10.09.2019
2147 Clouds 24 1013 69 16093 3.6 220 21:57 10.09.2019
2148 Clouds 24 1013 69 16093 3.6 220 21:38 10.09.2019
2149 Clouds 24 1013 69 16093 3.6 220 21:38 10.09.2019
2150 Clouds 23 1012 53 16093 2.7 161.659 21:20 10.09.2019
2151 Clouds 23 1012 53 16093 2.7 161.659 21:20 10.09.2019
2152 Clouds 23 1013 69 16093 3.6 210 20:59 10.09.2019
2153 Clouds 23 1013 69 16093 3.6 210 20:40 10.09.2019
2154 Clouds 22 1013 56 16093 4.6 150 20:22 10.09.2019
2155 Rain 22 1014 64 16093 2.6 150 19:58 10.09.2019
2156 Rain 22 1013 60 16093 2.1 140 19:39 10.09.2019
2157 Rain 21 1013 60 16093 3.6 140 19:20 10.09.2019
2158 Clouds 21 1013 68 16093 3.1 180 18:58 10.09.2019
2159 Clouds 21 1013 64 12874 2.71 155.052 18:40 10.09.2019
2160 Clouds 20 1013 64 12874 2.64 139.088 18:21 10.09.2019
2161 Haze 20 1013 73 16093 2.1 120 17:55 10.09.2019
2162 Haze 20 1012 64 16093 2.1 0 17:37 10.09.2019
2163 Haze 20 1012 64 16093 2.1 0 17:19 10.09.2019
2164 Haze 20 1011 64 16093 2.1 140 16:56 10.09.2019
2165 Haze 19 1011 64 16093 2.1 140 16:37 10.09.2019
2166 Haze 19 1011 64 16093 2.1 140 16:37 10.09.2019
2167 Haze 20 1012 64 16093 2.6 130 16:19 10.09.2019
2168 Haze 19 1012 64 9656 2.6 110 15:43 10.09.2019
2169 Haze 19 1011 68 16093 1.5 90 15:22 10.09.2019
2170 Haze 19 1011 68 16093 1.5 90 15:22 10.09.2019
2171 Clouds 19 1011 68 16093 2.1 80 14:57 10.09.2019
2172 Clouds 19 1011 68 16093 2.1 80 14:38 10.09.2019
2173 Clouds 19 1011 68 16093 3.1 100 14:19 10.09.2019
2174 Clouds 19 1011 64 16093 2.1 80 13:44 10.09.2019
2175 Clouds 19 1011 68 16093 3.1 100 13:23 10.09.2019
2176 Clouds 19 1011 68 16093 2.1 70 12:53 10.09.2019
2177 Clouds 19 1011 68 16093 2.1 70 12:28 10.09.2019
2178 Clouds 19 1011 72 16093 1.5 70 11:59 10.09.2019
2179 Clouds 19 1011 73 16093 2.6 90 11:40 10.09.2019
2180 Clouds 19 1011 73 16093 2.6 90 11:22 10.09.2019
2181 Clouds 19 1011 77 16093 1.5 0 10:54 10.09.2019
2182 Clouds 19 1011 77 16093 1.5 0 10:36 10.09.2019
2183 Clouds 19 1011 77 16093 1.5 0 10:18 10.09.2019
2184 Clear 19 1010 77 16093 2.6 130 09:43 10.09.2019
2185 Clear 19 1010 77 16093 2.6 130 09:20 10.09.2019
2186 Clouds 19 1010 73 16093 2.6 140 08:48 10.09.2019
2187 Clear 19 1010 77 14484 2.31 148.461 08:29 10.09.2019
2188 Clear 19 1010 77 14484 2.31 148.461 08:29 10.09.2019
2189 Haze 19 1010 77 14484 2.31 148.461 07:59 10.09.2019
2190 Haze 19 1010 77 14484 2.31 148.461 07:41 10.09.2019
2191 Haze 19 1010 77 14484 2.31 148.461 07:23 10.09.2019
2192 Haze 20 1010 77 16093 1.5 0 06:46 10.09.2019
2193 Haze 20 1010 77 16093 1.5 0 06:28 10.09.2019
2194 Haze 22 1009 69 11265 2.6 260 04:25 10.09.2019
2195 Clear 24 1015 46 1200 7.7 320 02:41 10.09.2019
2196 Clear 25 1011 50 16093 4.1 120 02:21 10.09.2019
2197 Clear 25 1011 50 16093 4.1 120 02:21 10.09.2019
2198 Clear 25 1011 50 16093 4.1 120 01:50 10.09.2019
2199 Clear 25 1010 57 16093 3.1 0 01:23 10.09.2019
2200 Clear 25 1011 57 16093 3.6 270 00:43 10.09.2019
2201 Clear 26 1011 57 16093 3.6 270 00:23 10.09.2019
2202 Clear 26 1011 54 16093 4.76 212.212 23:41 09.09.2019
2203 Clear 26 1011 57 16093 4.6 240 23:19 09.09.2019
2204 Clear 26 1012 53 16093 4.1 130 22:55 09.09.2019
2205 Clouds 26 1011 51 16093 4.76 212.212 22:37 09.09.2019
2206 Clear 26 1012 73 16093 4.6 230 22:19 09.09.2019
2207 Clear 25 1013 47 16093 3.6 160 21:55 09.09.2019
2208 Clouds 25 1012 57 16093 2.6 0 21:37 09.09.2019
2209 Clouds 25 1012 57 16093 2.6 0 21:19 09.09.2019
2210 Clear 25 1014 44 16093 2.6 120 20:55 09.09.2019
2211 Haze 24 1012 54 16093 2.95 205.844 20:36 09.09.2019
2212 Haze 24 1013 64 14484 5.1 250 20:18 09.09.2019
2213 Haze 23 1012 57 16093 1.5 0 19:56 09.09.2019
2214 Haze 23 1012 57 16093 1.5 0 19:37 09.09.2019
2215 Haze 23 1014 53 16093 2.1 160 19:19 09.09.2019
2216 Haze 23 1014 53 16093 2.1 160 19:19 09.09.2019
2217 Haze 22 1014 53 16093 2.1 160 18:56 09.09.2019
2218 Haze 22 1012 69 16093 2.95 205.844 18:37 09.09.2019
2219 Haze 21 1012 73 14484 1.5 140 18:19 09.09.2019
2220 Haze 21 1014 49 16093 1.33 207.143 17:56 09.09.2019
2221 Haze 20 1012 60 16093 1.33 207.143 17:38 09.09.2019
2222 Haze 20 1012 60 16093 1.33 207.143 17:20 09.09.2019
2223 Haze 20 1012 60 16093 1.33 207.143 17:20 09.09.2019
2224 Mist 19 1012 68 12874 1.33 207.143 16:54 09.09.2019
2225 Mist 18 1011 72 16093 1.33 207.143 16:36 09.09.2019
2226 Mist 17 1011 72 16093 1.33 207.143 16:18 09.09.2019
2227 Clouds 17 1011 72 16093 1.33 207.143 15:42 09.09.2019
2228 Clouds 17 1011 72 16093 0.62 235.113 15:24 09.09.2019
2229 Clouds 17 1011 72 16093 0.62 235.113 14:58 09.09.2019
2230 Clouds 17 1011 72 16093 0.62 235.113 14:40 09.09.2019
2231 Clouds 17 1011 72 16093 0.62 235.113 14:40 09.09.2019
2232 Clouds 17 1011 72 16093 0.62 235.113 14:21 09.09.2019
2233 Clear 17 1011 72 16093 0.62 235.113 13:55 09.09.2019
2234 Clear 17 1011 72 16093 0.62 235.113 13:37 09.09.2019
2235 Clear 17 1011 72 16093 0.86 204.279 13:18 09.09.2019
2236 Clear 17 1010 68 16093 0.86 204.279 12:54 09.09.2019
2237 Clear 17 1010 68 16093 0.86 204.279 12:36 09.09.2019
2238 Clouds 17 1010 68 16093 2.1 60 12:18 09.09.2019
2239 Clear 18 1011 68 16093 1.34 176.566 11:43 09.09.2019
2240 Clear 17 1011 68 16093 1.34 176.566 11:20 09.09.2019
2241 Clear 18 1011 64 16093 1.34 176.566 10:54 09.09.2019
2242 Clear 18 1011 64 16093 1.34 176.566 10:36 09.09.2019
2243 Clear 18 1011 64 16093 1.34 176.566 10:18 09.09.2019
2244 Clear 18 1011 64 16093 2.1 80 09:46 09.09.2019
2245 Clear 18 1011 73 16093 1.34 176.566 09:27 09.09.2019
2246 Clear 19 1011 68 16093 0.78 168.604 08:56 09.09.2019
2247 Clear 19 1011 68 16093 0.65 158.626 08:38 09.09.2019
2248 Clear 19 1011 64 16093 0.65 158.626 08:19 09.09.2019
2249 Clear 20 1011 64 16093 0.65 158.626 07:41 09.09.2019
2250 Clear 20 1011 60 16093 0.65 158.626 07:20 09.09.2019
2251 Clear 20 1010 64 16093 0.65 158.626 06:53 09.09.2019
2252 Clear 20 1010 64 16093 1.48 191.667 06:27 09.09.2019
2253 Clear 24 1010 44 16093 2.1 0 03:21 09.09.2019
2254 Clear 25 1010 41 16093 2.1 250 02:42 09.09.2019
2255 Clear 25 1011 39 16093 3.1 0 01:25 09.09.2019
2256 Clear 26 1011 44 16093 4.44 222.587 00:24 09.09.2019
2257 Clouds 26 1012 60 16093 6.7 270 23:56 08.09.2019
2258 Clouds 26 1012 60 16093 6.7 270 23:56 08.09.2019
2259 Clouds 25 1012 60 16093 6.7 270 23:38 08.09.2019
2260 Clear 26 1012 53 16093 4.1 230 23:19 08.09.2019
2261 Clouds 25 1013 64 16093 6.7 280 22:41 08.09.2019
2262 Clear 25 1012 47 16093 4.44 222.587 22:23 08.09.2019
2263 Clear 25 1014 53 16093 3.6 120 21:59 08.09.2019
2264 Clouds 25 1013 64 16093 3.6 280 21:40 08.09.2019
2265 Clear 24 1012 51 16093 3.69 203.302 21:22 08.09.2019
2266 Clouds 24 1013 64 16093 3.1 270 20:56 08.09.2019
2267 Clear 24 1013 50 16093 3.26 197.691 20:37 08.09.2019
2268 Clear 24 1013 50 16093 3.26 197.691 20:37 08.09.2019
2269 Clear 24 1013 50 16093 3.26 197.691 20:19 08.09.2019
2270 Clear 23 1014 41 16093 3.6 110 19:56 08.09.2019
2271 Clear 23 1013 57 16093 3.26 197.691 19:36 08.09.2019
2272 Clouds 23 1013 64 16093 2.6 240 19:18 08.09.2019
2273 Clouds 22 1013 64 16093 3.26 197.691 18:55 08.09.2019
2274 Clouds 22 1014 68 16093 3.26 197.691 18:37 08.09.2019
2275 Clouds 21 1014 68 16093 2.32 200.302 18:18 08.09.2019
2276 Haze 20 1013 64 16093 2.32 200.302 17:38 08.09.2019
2277 Haze 20 1013 64 16093 2.32 200.302 17:19 08.09.2019
2278 Clear 19 1015 48 16093 2.32 200.302 16:58 08.09.2019
2279 Clouds 18 1013 72 16093 2.32 200.302 16:40 08.09.2019
2280 Clouds 17 1013 72 16093 2.32 200.302 16:20 08.09.2019
2281 Clouds 17 1013 77 16093 2.32 200.302 16:20 08.09.2019
2282 Clouds 17 1013 72 16093 2.1 350 15:57 08.09.2019
2283 Clouds 17 1013 77 16093 2.32 200.302 15:39 08.09.2019
2284 Clouds 16 1013 77 16093 2.3 93.665 15:20 08.09.2019
2285 Clear 16 1012 77 16093 2.3 93.665 14:41 08.09.2019
2286 Clear 17 1012 77 16093 2.3 93.665 14:22 08.09.2019
2287 Clear 17 1012 77 16093 2.3 93.665 14:22 08.09.2019
2288 Clear 17 1012 72 16093 2.3 93.665 13:58 08.09.2019
2289 Clear 17 1012 72 16093 2.3 93.665 13:40 08.09.2019
2290 Clear 17 1012 77 16093 2.42 89.409 13:22 08.09.2019
2291 Clouds 17 1012 72 16093 1.5 350 12:59 08.09.2019
2292 Clear 17 1012 72 16093 2.42 89.409 12:41 08.09.2019
2293 Clear 17 1013 72 16093 3.36 90.647 12:22 08.09.2019
2294 Clear 17 1013 72 16093 3.36 90.647 12:22 08.09.2019
2295 Clear 17 1013 72 16093 3.36 90.647 11:58 08.09.2019
2296 Clear 18 1012 68 16093 3.36 90.647 11:38 08.09.2019
2297 Clear 18 1013 72 16093 3.36 90.647 11:19 08.09.2019
2298 Clear 18 1013 72 14484 3.36 90.647 10:55 08.09.2019
2299 Clear 18 1013 72 14484 3.36 90.647 10:36 08.09.2019
2300 Clear 19 1013 72 16093 2.1 0 10:18 08.09.2019
2301 Clear 19 1012 72 16093 3.36 90.647 09:38 08.09.2019
2302 Clear 19 1013 82 16093 2.14 230.758 09:19 08.09.2019
2303 Clear 19 1013 72 16093 4.1 280 08:56 08.09.2019
2304 Clear 19 1013 72 16093 4.1 280 08:36 08.09.2019
2305 Clear 20 1013 72 16093 4.1 280 08:18 08.09.2019
2306 Clear 20 1012 64 16093 1.42 225.114 07:38 08.09.2019
2307 Clear 20 1012 72 16093 4.6 270 07:20 08.09.2019
2308 Clear 21 1012 64 16093 1.42 225.114 06:47 08.09.2019
2309 Clear 22 1012 64 16093 3.76 239.099 05:57 08.09.2019
2310 Clear 22 1011 47 16093 3.76 239.099 05:35 08.09.2019
2311 Clear 26 1011 42 16093 3.76 239.099 03:53 08.09.2019
2312 Clear 28 1013 17 16093 4.1 250 02:54 08.09.2019
2313 Clear 29 1013 17 16093 4.1 250 02:26 08.09.2019
2314 Clear 29 1012 32 16093 3.6 260 01:39 08.09.2019
2315 Clear 29 1012 32 16093 3.6 260 01:18 08.09.2019
2316 Clear 29 1012 27 16093 5.7 280 00:42 08.09.2019
2317 Clear 30 1012 27 16093 5.7 280 00:23 08.09.2019
2318 Clear 30 1013 45 16093 2.6 0 23:38 07.09.2019
2319 Clear 30 1014 45 16093 6.7 260 23:20 07.09.2019
2320 Clear 30 1013 38 16093 3.74 222.277 22:57 07.09.2019
2321 Clear 30 1013 38 16093 3.74 222.277 22:39 07.09.2019
2322 Clear 30 1013 38 16093 3.74 222.277 22:20 07.09.2019
2323 Clear 30 1013 38 16093 3.74 222.277 22:20 07.09.2019
2324 Clear 30 1014 45 16093 3.74 222.277 21:42 07.09.2019
2325 Clear 29 1014 54 16093 2.6 240 21:24 07.09.2019
2326 Haze 29 1016 35 16093 3.07 218.587 20:57 07.09.2019
2327 Haze 28 1014 42 16093 2.44 199.214 20:38 07.09.2019
2328 Haze 28 1014 42 16093 2.44 199.214 20:19 07.09.2019
2329 Haze 28 1017 39 16093 2.1 90 19:55 07.09.2019
2330 Haze 28 1017 39 16093 2.1 90 19:55 07.09.2019
2331 Haze 28 1015 45 16093 2.44 199.214 19:37 07.09.2019
2332 Haze 27 1015 54 16093 2.44 199.214 19:18 07.09.2019
2333 Haze 26 1017 39 16093 2.44 199.214 18:55 07.09.2019
2334 Haze 26 1015 54 16093 2.44 199.214 18:36 07.09.2019
2335 Clear 25 1015 54 16093 1.11 156.158 18:18 07.09.2019
2336 Haze 25 1015 54 16093 1.11 156.158 18:18 07.09.2019
2337 Clear 24 1015 54 16093 1.11 156.158 17:55 07.09.2019
2338 Clear 24 1015 60 16093 1.11 156.158 17:36 07.09.2019
2339 Mist 23 1015 78 16093 1.11 156.158 17:18 07.09.2019
2340 Clouds 22 1015 78 16093 1.11 156.158 16:42 07.09.2019
2341 Clouds 21 1015 78 16093 1.11 156.158 16:21 07.09.2019
2342 Mist 20 1014 93 8047 1.11 156.158 15:49 07.09.2019
2343 Mist 20 1014 68 16093 1.11 156.158 15:27 07.09.2019
2344 Clear 20 1014 68 16093 0.78 135.207 14:58 07.09.2019
2345 Clear 20 1014 68 16093 0.78 135.207 14:38 07.09.2019
2346 Clear 20 1014 68 16093 0.78 135.207 14:20 07.09.2019
2347 Clear 20 1014 68 16093 0.78 135.207 14:20 07.09.2019
2348 Clear 20 1014 68 16093 0.78 135.207 13:59 07.09.2019
2349 Clear 20 1014 68 16093 0.78 135.207 13:41 07.09.2019
2350 Clear 20 1014 68 16093 0.9 140.383 13:23 07.09.2019
2351 Clear 21 1014 64 16093 0.9 140.383 12:45 07.09.2019
2352 Clear 21 1014 64 16093 0.87 175.5 12:26 07.09.2019
2353 Clear 21 1014 64 16093 0.87 175.5 11:59 07.09.2019
2354 Clear 21 1014 64 16093 0.87 175.5 11:40 07.09.2019
2355 Clear 21 1015 68 16093 1.5 180 11:20 07.09.2019
2356 Clear 22 1014 60 16093 0.87 175.5 10:41 07.09.2019
2357 Clear 22 1014 60 16093 0.87 175.5 10:22 07.09.2019
2358 Clear 22 1014 53 16093 0.87 175.5 09:57 07.09.2019
2359 Clear 22 1014 53 16093 0.87 175.5 09:39 07.09.2019
2360 Clear 22 1015 64 16093 1.36 217.368 09:20 07.09.2019
2361 Clear 23 1015 56 16093 1.18 221.209 08:44 07.09.2019
2362 Clear 23 1015 56 16093 1.18 221.209 08:26 07.09.2019
2363 Clear 23 1015 50 16093 1.18 221.209 07:48 07.09.2019
2364 Clear 23 1015 50 16093 1.18 221.209 07:28 07.09.2019
2365 Clear 24 1015 47 16093 1.5 0 06:53 07.09.2019
2366 Clear 24 1015 47 16093 1.5 0 06:29 07.09.2019
2367 Clear 25 1015 54 16093 1.5 0 05:32 07.09.2019
2368 Clear 26 1014 57 16093 2.6 280 04:25 07.09.2019
2369 Clear 29 1015 45 16093 4.1 270 02:57 07.09.2019
2370 Clear 30 1015 45 16093 4.1 270 02:21 07.09.2019
2371 Clear 30 1015 42 16093 2.1 0 01:27 07.09.2019
2372 Clear 31 1015 40 16093 2.6 0 00:48 07.09.2019
2373 Clear 31 1015 40 16093 2.6 0 00:21 07.09.2019
2374 Clear 32 1016 40 16093 4 224.189 23:55 06.09.2019
2375 Clear 32 1016 40 16093 4 224.189 23:37 06.09.2019
2376 Clear 32 1016 40 16093 4 224.189 23:18 06.09.2019
2377 Clear 32 1017 28 16093 2.6 130 22:55 06.09.2019
2378 Clear 32 1016 43 16093 2.1 260 22:36 06.09.2019
2379 Clear 32 1017 54 16093 5.1 260 22:18 06.09.2019
2380 Clear 31 1016 43 16093 2.1 260 21:41 06.09.2019
2381 Clear 31 1016 43 16093 2.1 260 21:41 06.09.2019
2382 Clear 30 1016 43 16093 2.1 260 21:23 06.09.2019
2383 Clear 30 1019 24 16093 3.1 90 20:59 06.09.2019
2384 Clear 30 1017 38 16093 1.5 0 20:40 06.09.2019
2385 Clear 30 1017 51 16093 4.1 250 20:21 06.09.2019
2386 Clear 29 1019 30 16093 3.19 214.327 19:58 06.09.2019
2387 Clear 30 1017 45 16093 3.19 214.327 19:40 06.09.2019
2388 Clear 29 1017 57 16093 1.5 200 19:21 06.09.2019
2389 Clear 28 1016 51 16093 3.19 214.327 18:50 06.09.2019
2390 Clear 27 1016 51 16093 3.19 214.327 18:32 06.09.2019
2391 Clear 25 1016 65 16093 1.28 229.038 17:59 06.09.2019
2392 Clear 24 1016 65 16093 1.28 229.038 17:39 06.09.2019
2393 Clear 24 1016 65 16093 1.28 229.038 17:20 06.09.2019
2394 Mist 23 1016 64 16093 1.28 229.038 16:42 06.09.2019
2395 Mist 21 1016 69 16093 1.28 229.038 16:20 06.09.2019
2396 Mist 21 1015 60 16093 1.28 229.038 15:59 06.09.2019
2397 Mist 21 1015 60 16093 1.28 229.038 15:41 06.09.2019
2398 Mist 21 1016 77 16093 0.5 223.535 15:22 06.09.2019
2399 Clouds 21 1016 64 16093 1.5 60 14:46 06.09.2019
2400 Clouds 21 1016 64 16093 1.5 60 14:19 06.09.2019
2401 Clear 21 1016 77 16093 0.5 223.535 13:44 06.09.2019
2402 Clouds 21 1016 83 14484 0.52 288.226 13:23 06.09.2019
2403 Clear 21 1016 60 16093 0.52 288.226 12:57 06.09.2019
2404 Clear 21 1016 60 16093 0.52 288.226 12:37 06.09.2019
2405 Clear 21 1016 60 16093 1.27 196.617 12:18 06.09.2019
2406 Mist 21 1016 64 16093 1.27 196.617 11:41 06.09.2019
2407 Mist 22 1016 64 16093 1.27 196.617 11:23 06.09.2019
2408 Haze 22 1016 94 16093 1.27 196.617 10:57 06.09.2019
2409 Haze 22 1016 60 16093 1.27 196.617 10:39 06.09.2019
2410 Haze 22 1016 83 9656 2.6 150 10:18 06.09.2019
2411 Clear 22 1016 56 16093 1.04 214.744 09:40 06.09.2019
2412 Clear 22 1016 56 16093 1.45 178.812 09:20 06.09.2019
2413 Clear 23 1016 53 16093 1.45 178.812 08:56 06.09.2019
2414 Clear 23 1016 53 16093 1.45 178.812 08:37 06.09.2019
2415 Clear 23 1016 53 16093 1.45 178.812 08:19 06.09.2019
2416 Clear 23 1015 57 16093 1.45 178.812 07:44 06.09.2019
2417 Clear 23 1015 57 16093 1.45 178.812 07:26 06.09.2019
2418 Clear 23 1015 57 16093 2.1 280 06:54 06.09.2019
2419 Clear 25 1014 57 16093 2.76 238.965 05:58 06.09.2019
2420 Clear 25 1014 57 16093 2.76 238.965 05:19 06.09.2019
2421 Clear 26 1014 48 16093 1.5 270 04:41 06.09.2019
2422 Clear 28 1013 33 16093 2.76 238.965 03:42 06.09.2019
2423 Clear 31 1013 31 16093 3.1 260 01:51 06.09.2019
2424 Clear 31 1013 35 16093 4.01 229.255 00:38 06.09.2019
2425 Clear 32 1014 31 16093 1.5 0 23:44 05.09.2019
2426 Clear 32 1014 31 16093 1.5 0 23:25 05.09.2019
2427 Clear 32 1016 24 16093 3.6 120 22:56 05.09.2019
2428 Clear 32 1014 33 16093 2.1 0 22:37 05.09.2019
2429 Clear 32 1014 33 16093 2.1 0 22:19 05.09.2019
2430 Clear 32 1016 32 16093 3.6 160 21:56 05.09.2019
2431 Clear 32 1014 32 16093 3.16 226.514 21:37 05.09.2019
2432 Clear 32 1014 40 16093 3.1 260 21:19 05.09.2019
2433 Clear 31 1014 36 16093 1.97 184.882 20:55 05.09.2019
2434 Clear 32 1014 36 16093 1.97 184.882 20:36 05.09.2019
2435 Clear 31 1014 42 16093 1.5 310 20:18 05.09.2019
2436 Clouds 30 1014 40 16093 1.97 184.882 19:42 05.09.2019
2437 Clouds 29 1014 40 16093 1.97 184.882 19:23 05.09.2019
2438 Clouds 28 1014 40 16093 1.97 184.882 18:57 05.09.2019
2439 Clear 28 1014 54 16093 1.97 184.882 18:39 05.09.2019
2440 Clear 26 1014 54 16093 0.58 249.653 18:19 05.09.2019
2441 Clear 25 1013 69 16093 0.58 249.653 17:43 05.09.2019
2442 Clear 24 1013 69 16093 0.58 249.653 17:24 05.09.2019
2443 Clear 23 1012 69 16093 0.58 249.653 16:58 05.09.2019
2444 Clear 23 1012 69 16093 0.58 249.653 16:58 05.09.2019
2445 Clear 22 1012 69 16093 0.58 249.653 16:40 05.09.2019
2446 Clear 22 1012 69 16093 0.58 249.653 16:20 05.09.2019
2447 Clear 22 1012 69 16093 0.58 249.653 15:58 05.09.2019
2448 Clear 22 1012 69 16093 0.58 249.653 15:38 05.09.2019
2449 Clear 22 1012 78 16093 0.52 214.514 15:18 05.09.2019
2450 Clear 22 1012 78 16093 0.52 214.514 15:18 05.09.2019
2451 Clear 22 1011 69 16093 0.52 214.514 14:43 05.09.2019
2452 -273 0 0 0 0 0 14:22 05.09.2019
2453 Clear 22 1011 69 16093 0.52 214.514 13:44 05.09.2019
2454 Clear 22 1011 69 16093 3.55 189.95 13:23 05.09.2019
2455 Clear 22 1011 69 16093 3.55 189.95 12:59 05.09.2019
2456 Clear 22 1011 69 16093 3.55 189.95 12:41 05.09.2019
2457 Clear 22 1011 69 16093 3.55 189.95 12:41 05.09.2019
2458 Clear 22 1012 78 16093 1.5 330 12:22 05.09.2019
2459 Clear 22 1012 60 16093 2.95 278.04 11:44 05.09.2019
2460 Clear 22 1012 60 16093 2.95 278.04 11:20 05.09.2019
2461 Clear 23 1011 64 16093 2.95 278.04 10:57 05.09.2019
2462 Clear 23 1011 64 16093 2.95 278.04 10:37 05.09.2019
2463 Clear 23 1011 64 16093 2.95 278.04 10:37 05.09.2019
2464 Clear 23 1011 64 16093 2.1 230 10:18 05.09.2019
2465 Clear 23 1011 60 16093 1.67 252.357 09:41 05.09.2019
2466 Clear 23 1011 69 16093 1.49 108.606 09:21 05.09.2019
2467 Clear 23 1012 61 16093 1.5 260 08:56 05.09.2019
2468 Clear 23 1012 61 16093 1.5 260 08:38 05.09.2019
2469 Clear 24 1012 69 16093 1.49 108.606 08:19 05.09.2019
2470 Clear 24 1011 65 16093 1.5 290 07:44 05.09.2019
2471 Clear 24 1011 65 16093 1.5 290 07:24 05.09.2019
2472 Clear 25 1011 57 16093 1.49 108.606 06:46 05.09.2019
2473 Clear 25 1011 57 16093 2.55 211.872 06:26 05.09.2019
2474 Clear 26 1010 54 16093 1.5 270 05:46 05.09.2019
2475 Clear 26 1010 69 16093 2.1 300 05:27 05.09.2019
2476 Clear 26 1010 48 16093 1.5 290 04:30 05.09.2019
2477 Clear 27 1010 45 16093 2.55 211.872 03:52 05.09.2019
2478 Clear 29 1009 40 16093 2.1 0 02:58 05.09.2019
2479 Clear 30 1009 40 16093 2.1 0 02:30 05.09.2019
2480 Clear 33 1011 25 16093 4.42 230.772 01:57 05.09.2019
2481 Clear 34 1009 33 16093 3.1 260 00:58 05.09.2019
2482 Clear 34 1009 33 16093 3.1 260 00:39 05.09.2019
2483 Clear 34 1009 33 16093 3.1 260 00:19 05.09.2019
2484 Clear 34 1010 43 16093 5.1 270 23:41 04.09.2019
2485 Clear 34 1010 43 16093 5.1 270 23:41 04.09.2019
2486 Clear 34 1010 43 16093 5.1 270 23:22 04.09.2019
2487 Clear 34 1010 36 16093 1.5 0 22:49 04.09.2019
2488 Clear 34 1011 40 16093 4.1 270 22:21 04.09.2019
2489 Haze 34 1011 40 1609 3.6 240 21:58 04.09.2019
2490 Clear 34 1011 30 16093 2.6 260 21:38 04.09.2019
2491 Clear 33 1011 38 16093 3.1 270 21:19 04.09.2019
2492 Clear 33 1013 24 16093 3 217.198 20:55 04.09.2019
2493 Clear 32 1011 31 16093 3 217.198 20:37 04.09.2019
2494 Clear 32 1012 45 16093 2.6 270 20:18 04.09.2019
2495 Clear 31 1011 35 16093 3 217.198 19:43 04.09.2019
2496 Clear 30 1011 35 16093 3 217.198 19:23 04.09.2019
2497 Clear 29 1014 30 16093 2.1 120 18:55 04.09.2019
2498 Clear 28 1011 51 16093 3 217.198 18:36 04.09.2019
2499 Clear 27 1011 51 16093 1.07 273.47 18:18 04.09.2019
2500 Clear 25 1011 61 16093 1.07 273.47 17:41 04.09.2019
2501 Clear 24 1011 61 16093 1.07 273.47 17:22 04.09.2019
2502 Clear 23 1013 44 0 1.07 273.47 16:56 04.09.2019
2503 Clear 22 1010 69 16093 1.07 273.47 16:38 04.09.2019
2504 Clear 22 1010 73 16093 1.07 273.47 16:19 04.09.2019
2505 Clear 21 1010 73 16093 1.07 273.47 15:41 04.09.2019
2506 Clear 21 1010 73 16093 0.58 247.334 15:22 04.09.2019
2507 Clear 21 1010 78 16093 0.58 247.334 14:59 04.09.2019
2508 Clear 21 1010 78 16093 0.58 247.334 14:39 04.09.2019
2509 Clear 21 1010 73 16093 0.58 247.334 14:21 04.09.2019
2510 Clouds 21 1010 73 16093 1.5 340 14:00 04.09.2019
2511 Clear 22 1010 69 16093 0.58 247.334 13:39 04.09.2019
2512 Clear 22 1010 69 16093 0.48 298.333 13:21 04.09.2019
2513 Clear 22 1010 78 16093 0.48 298.333 12:45 04.09.2019
2514 Clear 22 1010 78 16093 1.47 185.548 12:26 04.09.2019
2515 Clear 22 1011 69 16093 1.47 185.548 11:58 04.09.2019
2516 Clear 22 1011 69 16093 1.47 185.548 11:39 04.09.2019
2517 Clear 22 1011 69 16093 1.47 185.548 11:21 04.09.2019
2518 Clear 22 1011 78 16093 1.47 185.548 10:57 04.09.2019
2519 Clear 22 1011 78 16093 1.47 185.548 10:38 04.09.2019
2520 Clear 22 1011 78 16093 1.47 185.548 10:20 04.09.2019
2521 Clear 23 1011 69 16093 0.96 188.434 09:45 04.09.2019
2522 Clear 23 1011 69 16093 1.01 183.961 09:21 04.09.2019
2523 Clear 23 1011 64 16093 1.01 183.961 08:43 04.09.2019
2524 Clear 23 1012 64 16093 1.5 290 08:24 04.09.2019
2525 Clear 23 1011 64 16093 1.01 183.961 08:00 04.09.2019
2526 Clear 23 1011 64 16093 1.01 183.961 07:40 04.09.2019
2527 Clear 23 1011 64 16093 1.01 183.961 07:22 04.09.2019
2528 Clear 24 1011 69 16093 1.01 183.961 06:39 04.09.2019
2529 Clear 26 1013 23 16093 2.3 233.936 04:56 04.09.2019
2530 Clear 27 1011 51 16093 1.5 270 04:24 04.09.2019
2531 Clear 30 1011 45 16093 3.59 229.933 03:21 04.09.2019
2532 Clear 32 1020 29 1200 4.6 160 01:21 04.09.2019
2533 Clear 32 1011 33 16093 3.6 270 00:45 04.09.2019
2534 Clear 33 1011 33 16093 3.6 270 00:27 04.09.2019
2535 Clear 32 1011 33 16093 3.6 270 23:53 03.09.2019
2536 Clear 33 1012 38 16093 1.5 0 23:27 03.09.2019
2537 Clear 33 1014 33 16093 2.1 110 22:57 03.09.2019
2538 Clear 32 1012 43 16093 2.6 260 22:38 03.09.2019
2539 Clear 32 1013 51 16093 5.1 260 22:20 03.09.2019
2540 Clear 32 1015 36 16093 3.1 120 21:55 03.09.2019
2541 Clear 32 1013 46 16093 4.17 228.163 21:36 03.09.2019
2542 Clear 31 1014 54 16093 4.1 260 21:18 03.09.2019
2543 Clear 31 1014 58 16093 4.1 250 20:41 03.09.2019
2544 Clear 30 1014 58 16093 4.1 250 20:21 03.09.2019
2545 Clear 30 1016 40 16093 2.1 100 19:55 03.09.2019
2546 Clear 29 1013 48 16093 3.18 217.739 19:37 03.09.2019
2547 Clear 29 1013 48 16093 3.18 217.739 19:18 03.09.2019
2548 Clear 28 1013 54 16093 3.18 217.739 18:44 03.09.2019
2549 Clear 28 1013 54 16093 3.18 217.739 18:44 03.09.2019
2550 Clear 27 1013 54 16093 3.18 217.739 18:25 03.09.2019
2551 Haze 26 1013 54 16093 1.24 236.631 17:58 03.09.2019
2552 Haze 25 1013 65 14484 1.24 236.631 17:39 03.09.2019
2553 Haze 24 1014 73 12874 1.24 236.631 17:19 03.09.2019
2554 Haze 24 1013 65 14484 1.24 236.631 17:19 03.09.2019
2555 Haze 23 1014 73 16093 1.24 236.631 16:55 03.09.2019
2556 Clouds 23 1014 78 12874 1.24 236.631 16:36 03.09.2019
2557 Fog 22 1013 78 14484 1.24 236.631 16:18 03.09.2019
2558 Fog 21 1013 78 16093 1.24 236.631 15:40 03.09.2019
2559 Fog 21 1013 78 14484 0.51 249.141 15:21 03.09.2019
2560 Fog 21 1013 83 4828 0.51 249.141 14:58 03.09.2019
2561 Fog 21 1013 83 4828 0.51 249.141 14:40 03.09.2019
2562 Fog 22 1013 83 4828 0.51 249.141 14:20 03.09.2019
2563 Fog 22 1013 88 2012 0.51 249.141 13:56 03.09.2019
2564 Fog 22 1013 88 2012 0.51 249.141 13:56 03.09.2019
2565 Fog 22 1013 78 16093 0.51 249.141 13:37 03.09.2019
2566 Fog 22 1013 78 16093 1.26 232.912 13:19 03.09.2019
2567 Fog 22 1013 78 16093 1.26 232.912 13:19 03.09.2019
2568 Fog 22 1013 88 805 1.5 270 12:49 03.09.2019
2569 Fog 22 1013 83 11265 0.79 227.561 12:30 03.09.2019
2570 Fog 22 1013 100 11265 1.5 230 11:59 03.09.2019
2571 Fog 22 1013 100 8047 0.79 227.561 11:39 03.09.2019
2572 Fog 22 1013 100 8047 0.79 227.561 11:20 03.09.2019
2573 -273 0 0 0 0 0 10:55 03.09.2019
2574 Fog 22 1014 83 12874 1.5 290 10:37 03.09.2019
2575 Fog 22 1014 83 12874 1.5 290 10:18 03.09.2019
2576 Fog 22 1014 73 14484 1.31 188.446 09:42 03.09.2019
2577 Fog 22 1014 73 14484 0.82 193.917 09:24 03.09.2019
2578 Fog 23 1014 73 14484 0.82 193.917 08:41 03.09.2019
2579 Fog 23 1014 73 14484 0.82 193.917 08:23 03.09.2019
2580 Fog 23 1014 78 11265 0.82 193.917 07:58 03.09.2019
2581 Fog 23 1014 78 12874 0.82 193.917 07:37 03.09.2019
2582 Fog 23 1014 78 12874 0.82 193.917 07:37 03.09.2019
2583 Fog 23 1014 78 12874 0.82 193.917 07:19 03.09.2019
2584 Fog 23 1014 78 11265 1.5 290 06:43 03.09.2019
2585 Fog 24 1014 78 16093 3.1 260 05:36 03.09.2019
2586 Clear 27 1012 54 16093 1.5 250 03:34 03.09.2019
2587 Clear 29 1012 48 16093 1.5 0 02:43 03.09.2019
2588 Clear 30 1012 48 16093 1.5 0 02:23 03.09.2019
2589 Haze 30 1012 45 16093 1.5 0 01:47 03.09.2019
2590 Haze 31 1012 45 16093 1.5 0 01:27 03.09.2019
2591 Haze 31 1012 22 16093 2.6 260 00:40 03.09.2019
2592 Clear 33 1015 30 2996 4.6 100 23:59 02.09.2019
2593 Clear 33 1013 25 16093 3.17 215.227 23:39 02.09.2019
2594 Clear 33 1013 25 16093 3.17 215.227 23:39 02.09.2019
2595 Clear 34 1013 25 16093 3.17 215.227 23:20 02.09.2019
2596 Haze 34 1013 30 16093 3.17 215.227 22:56 02.09.2019
2597 Haze 34 1013 30 16093 3.17 215.227 22:56 02.09.2019
2598 Haze 33 1013 30 16093 3.17 215.227 22:37 02.09.2019
2599 Haze 33 1014 29 16093 2.1 160 22:19 02.09.2019
2600 Clear 33 1016 30 16093 4.6 140 21:56 02.09.2019
2601 Clear 33 1014 34 16093 2.6 0 21:38 02.09.2019
2602 Clear 32 1014 34 16093 2.6 0 21:19 02.09.2019
2603 Clear 31 1014 43 16093 1.88 168.881 20:54 02.09.2019
2604 Clear 31 1014 43 16093 1.88 168.881 20:54 02.09.2019
2605 Clear 31 1014 43 16093 1.88 168.881 20:36 02.09.2019
2606 Clear 30 1014 43 16093 1.88 168.881 20:18 02.09.2019
2607 Clear 30 1014 43 16093 1.88 168.881 19:54 02.09.2019
2608 Clear 29 1015 61 14484 1.88 168.881 19:36 02.09.2019
2609 Clear 28 1014 54 16093 1.88 168.881 19:18 02.09.2019
2610 Clear 26 1014 61 14484 1.88 168.881 18:37 02.09.2019
2611 Clear 26 1014 61 14484 1.88 168.881 18:37 02.09.2019
2612 Haze 25 1014 61 14484 0.96 149.444 18:19 02.09.2019
2613 Haze 24 1016 54 16093 2.1 120 17:56 02.09.2019
2614 Haze 24 1013 73 12874 0.96 149.444 17:37 02.09.2019
2615 Haze 23 1013 73 12874 0.96 149.444 17:19 02.09.2019
2616 Haze 21 1013 78 11265 0.96 149.444 16:41 02.09.2019
2617 Haze 21 1013 83 9656 0.96 149.444 16:21 02.09.2019
2618 Haze 21 1013 83 9656 0.96 149.444 16:21 02.09.2019
2619 Clear 21 1013 78 12874 0.96 149.444 15:55 02.09.2019
2620 Clear 20 1013 78 12874 0.96 149.444 15:37 02.09.2019
2621 Clear 20 1013 83 11265 1.21 80.639 15:18 02.09.2019
2622 Clear 20 1013 78 12874 1.21 80.639 14:55 02.09.2019
2623 Clear 20 1013 78 12874 1.21 80.639 14:36 02.09.2019
2624 Clear 20 1013 83 12874 1.21 80.639 14:18 02.09.2019
2625 Clear 20 1013 78 14484 1.21 80.639 13:42 02.09.2019
2626 Clear 20 1013 78 14484 0.88 95.937 13:24 02.09.2019
2627 Clouds 20 1013 94 14484 1.5 90 12:47 02.09.2019
2628 Clouds 20 1013 94 14484 1.5 90 12:27 02.09.2019
2629 Clear 20 1013 78 14484 1.96 126.7 12:00 02.09.2019
2630 Clear 20 1013 78 14484 1.96 126.7 11:41 02.09.2019
2631 Clear 20 1013 78 14484 1.96 126.7 11:22 02.09.2019
2632 Clouds 20 1013 83 16093 2.1 130 10:59 02.09.2019
2633 Clouds 20 1013 83 16093 2.1 130 10:41 02.09.2019
2634 Clouds 20 1013 83 16093 2.1 130 10:22 02.09.2019
2635 Clear 21 1013 78 16093 1.96 126.7 09:58 02.09.2019
2636 Clear 21 1013 78 16093 1.46 116.548 09:38 02.09.2019
2637 Clear 21 1013 78 16093 2.03 135.918 09:20 02.09.2019
2638 Clear 21 1012 73 12874 2.03 135.918 08:42 02.09.2019
2639 Clear 21 1012 73 12874 2.03 135.918 08:42 02.09.2019
2640 Clear 21 1012 73 12874 2.03 135.918 08:21 02.09.2019
2641 Clear 21 1012 73 16093 2.03 135.918 07:56 02.09.2019
2642 Clear 21 1012 73 16093 2.03 135.918 07:37 02.09.2019
2643 Clear 21 1012 73 16093 2.03 135.918 07:18 02.09.2019
2644 Clear 21 1012 73 16093 2.03 135.918 06:41 02.09.2019
2645 Clear 22 1012 73 16093 2.3 171.193 05:53 02.09.2019
2646 Clear 22 1011 73 16093 2.3 171.193 05:24 02.09.2019
2647 Clear 22 1013 61 16093 2.6 120 04:48 02.09.2019
2648 Clear 28 1011 57 16093 2.6 0 01:59 02.09.2019
2649 Clear 28 1011 57 16093 2.6 0 01:29 02.09.2019
2650 Fog 29 1011 73 14484 5.1 250 00:39 02.09.2019
2651 Fog 29 1011 73 14484 5.1 250 00:19 02.09.2019
2652 Clear 29 1012 54 16093 3.76 217.276 23:39 01.09.2019
2653 Haze 30 1012 61 12874 3.6 270 23:19 01.09.2019
2654 Haze 30 1013 33 16093 2.6 120 22:56 01.09.2019
2655 Haze 29 1013 33 16093 2.6 120 22:56 01.09.2019
2656 Haze 30 1012 54 12874 1.5 0 22:38 01.09.2019
2657 Haze 29 1014 33 16093 2.6 120 22:18 01.09.2019
2658 Haze 28 1013 78 9656 4.1 240 21:42 01.09.2019
2659 Haze 28 1012 54 12874 1.5 240 21:23 01.09.2019
2660 Haze 28 1012 54 12874 1.5 240 21:23 01.09.2019
2661 Haze 27 1014 35 16093 2.1 120 20:58 01.09.2019
2662 Haze 27 1012 51 16093 2.67 193.036 20:39 01.09.2019
2663 Haze 27 1012 51 16093 2.67 193.036 20:19 01.09.2019
2664 Haze 26 1012 51 16093 2.67 193.036 19:59 01.09.2019
2665 Haze 25 1013 57 16093 2.67 193.036 19:40 01.09.2019
2666 Haze 25 1013 57 16093 2.67 193.036 19:21 01.09.2019
2667 Haze 23 1013 73 9656 2.67 193.036 18:48 01.09.2019
2668 Haze 23 1012 65 16093 2.67 193.036 18:30 01.09.2019
2669 Haze 22 1012 65 16093 1.18 306.5 17:59 01.09.2019
2670 Haze 21 1012 78 8047 1.5 190 17:39 01.09.2019
2671 Mist 21 1012 78 8047 1.5 190 17:21 01.09.2019
2672 Haze 20 1011 78 8047 2.6 300 16:56 01.09.2019
2673 Haze 20 1012 83 11265 1.18 306.5 16:37 01.09.2019
2674 Haze 20 1012 83 9656 1.18 306.5 16:18 01.09.2019
2675 Mist 19 1012 83 16093 1.18 306.5 15:42 01.09.2019
2676 Mist 19 1012 83 16093 1.18 306.5 15:42 01.09.2019
2677 Mist 19 1012 83 16093 0.76 174.874 15:23 01.09.2019
2678 Mist 19 1011 83 9656 0.76 174.874 14:44 01.09.2019
2679 Mist 19 1011 83 11265 0.76 174.874 14:26 01.09.2019
2680 Mist 19 1012 88 1207 2.1 160 13:59 01.09.2019
2681 Mist 19 1012 100 12874 0.76 174.874 13:41 01.09.2019
2682 Mist 19 1012 83 16093 0.5 190.028 13:23 01.09.2019
2683 Clouds 20 1012 83 16093 0.5 190.028 12:45 01.09.2019
2684 Clouds 20 1012 83 16093 0.73 174.016 12:26 01.09.2019
2685 Clear 20 1011 73 16093 0.73 174.016 11:58 01.09.2019
2686 Clear 20 1011 73 16093 0.73 174.016 11:38 01.09.2019
2687 Clouds 20 1012 94 16093 1.5 260 11:19 01.09.2019
2688 Clear 21 1011 73 16093 0.73 174.016 10:45 01.09.2019
2689 Clear 21 1012 83 16093 0.73 174.016 10:23 01.09.2019
2690 Clear 21 1012 73 16093 1.5 270 09:56 01.09.2019
2691 Clear 21 1012 73 16093 1.5 270 09:38 01.09.2019
2692 Clear 21 1012 77 16093 1.5 250 09:19 01.09.2019
2693 Clear 21 1012 73 16093 1.73 168.325 08:42 01.09.2019
2694 Clear 21 1012 73 16093 1.73 168.325 08:21 01.09.2019
2695 Clear 21 1012 73 16093 1.73 168.325 07:46 01.09.2019
2696 Clear 21 1012 73 16093 1.73 168.325 07:22 01.09.2019
2697 Clear 22 1011 73 16093 1.73 168.325 06:39 01.09.2019
2698 Clear 23 1011 69 16093 1.5 0 05:59 01.09.2019
2699 Clear 23 1011 69 16093 1.5 0 05:59 01.09.2019
2700 Clear 23 1011 69 16093 1.5 0 05:27 01.09.2019
2701 Clear 24 1011 73 16093 4.6 250 04:19 01.09.2019
2702 Clear 27 1009 54 16093 2.6 280 03:37 01.09.2019
2703 Clear 29 1012 38 16093 4.1 120 02:52 01.09.2019
2704 -273 0 0 0 0 0 02:25 01.09.2019
2705 Clear 30 1010 54 16093 4.37 223.033 01:40 01.09.2019
2706 Clear 30 1010 54 16093 4.37 223.033 01:21 01.09.2019
2707 Clear 30 1011 51 16093 4.37 223.033 00:42 01.09.2019
2708 Clear 32 1011 51 16093 4.14 224.697 00:21 01.09.2019
2709 Clear 31 1012 57 16093 4.6 270 23:47 31.08.2019
2710 Clear 31 1012 57 16093 4.6 270 23:21 31.08.2019
2711 Clear 31 1012 57 16093 4.6 270 23:21 31.08.2019
2712 Clear 31 1012 48 16093 2.1 0 22:56 31.08.2019
2713 Clear 31 1012 48 16093 2.1 0 22:56 31.08.2019
2714 Clear 31 1012 48 16093 2.1 0 22:38 31.08.2019
2715 Clear 31 1012 57 16093 3.6 300 22:20 31.08.2019
2716 Haze 30 1014 31 16093 4.14 224.697 21:54 31.08.2019
2717 Haze 30 1013 45 16093 4.34 228.506 21:36 31.08.2019
2718 Haze 29 1013 57 16093 3.6 270 21:18 31.08.2019
2719 Haze 28 1013 51 16093 1.9 200.786 20:42 31.08.2019
2720 Haze 28 1013 51 16093 1.9 200.786 20:23 31.08.2019
2721 Haze 26 1016 39 16093 2.1 100 19:47 31.08.2019
2722 Haze 26 1014 60 8047 2.1 150 19:23 31.08.2019
2723 Smoke 24 1014 61 14484 1.9 200.786 18:58 31.08.2019
2724 Smoke 23 1014 69 12874 1.9 200.786 18:39 31.08.2019
2725 Smoke 23 1014 69 12874 1.6 180.824 18:19 31.08.2019
2726 Smoke 22 1014 69 12874 1.6 180.824 17:55 31.08.2019
2727 Smoke 22 1013 73 12874 1.6 180.824 17:37 31.08.2019
2728 Smoke 21 1014 78 12874 2.6 180 17:18 31.08.2019
2729 Smoke 20 1013 78 11265 1.6 180.824 16:55 31.08.2019
2730 Smoke 20 1014 88 11265 1.6 180.824 16:37 31.08.2019
2731 Smoke 19 1014 88 11265 1.6 180.824 16:18 31.08.2019
2732 Mist 19 1013 77 16093 1.6 180.824 15:42 31.08.2019
2733 Mist 19 1013 83 16093 0.57 199.897 15:19 31.08.2019
2734 -273 0 0 0 0 0 14:55 31.08.2019
2735 Clear 19 1012 77 16093 0.57 199.897 14:37 31.08.2019
2736 Clear 19 1012 77 16093 0.57 199.897 14:19 31.08.2019
2737 Clouds 19 1013 83 14484 0.57 199.897 14:19 31.08.2019
2738 Clear 19 1012 77 16093 0.57 199.897 13:40 31.08.2019
2739 Clear 19 1012 77 16093 0.58 185.72 13:22 31.08.2019
2740 Clear 19 1012 77 16093 0.58 185.72 12:58 31.08.2019
2741 Clear 19 1012 77 16093 0.58 185.72 12:38 31.08.2019
2742 Clear 19 1012 77 16093 0.53 221.963 12:19 31.08.2019
2743 Clear 19 1012 77 16093 0.53 221.963 12:19 31.08.2019
2744 Clear 20 1013 77 16093 0.53 221.963 11:48 31.08.2019
2745 Clear 20 1013 77 16093 0.53 221.963 11:29 31.08.2019
2746 Clear 20 1013 73 16093 0.53 221.963 10:59 31.08.2019
2747 Clear 20 1013 73 16093 0.53 221.963 10:41 31.08.2019
2748 Clear 20 1014 88 16093 0.53 221.963 10:19 31.08.2019
2749 Clear 21 1014 78 16093 0.53 221.963 09:55 31.08.2019
2750 Clear 21 1014 78 16093 0.38 300.836 09:37 31.08.2019
2751 Clear 21 1014 78 16093 2.08 157.359 09:19 31.08.2019
2752 Clear 21 1014 69 16093 2.08 157.359 08:42 31.08.2019
2753 Clear 21 1014 69 16093 2.08 157.359 08:22 31.08.2019
2754 Clear 22 1013 69 16093 2.08 157.359 07:40 31.08.2019
2755 Clear 22 1013 69 16093 2.08 157.359 07:21 31.08.2019
2756 Clear 23 1013 69 16093 2.08 157.359 06:28 31.08.2019
2757 Clear 23 1013 69 16093 2.08 157.359 06:28 31.08.2019
2758 Clear 23 1013 69 16093 2.46 221.3 05:58 31.08.2019
2759 Clear 24 1012 57 16093 1.5 0 05:31 31.08.2019
2760 Clear 24 1012 57 16093 3.1 270 04:32 31.08.2019
2761 Clear 26 1012 51 16093 2.6 270 03:44 31.08.2019
2762 Clear 29 1012 45 16093 3.6 260 02:36 31.08.2019
2763 Clear 29 1014 26 16093 3.91 223.86 01:53 31.08.2019
2764 Clear 30 1012 48 16093 2.1 270 01:33 31.08.2019
2765 Clear 30 1012 48 16093 2.1 270 00:50 31.08.2019
2766 Clear 31 1012 43 16093 2.1 260 00:30 31.08.2019
2767 Smoke 31 1012 43 16093 2.1 260 23:57 30.08.2019
2768 Smoke 31 1013 48 16093 3.6 217.551 23:38 30.08.2019
2769 Smoke 31 1014 54 16093 4.6 250 23:18 30.08.2019
2770 Smoke 31 1013 48 16093 3.6 217.551 22:42 30.08.2019
2771 Smoke 30 1013 48 16093 3.6 217.551 22:22 30.08.2019
2772 Clear 30 1014 46 16093 3.6 217.551 21:58 30.08.2019
2773 Clear 30 1014 46 16093 3.74 222.591 21:38 30.08.2019
2774 Clear 30 1014 57 16093 3.6 250 21:19 30.08.2019
2775 Clear 29 1014 45 16093 1.5 0 20:59 30.08.2019
2776 Clear 29 1014 45 16093 1.5 0 20:40 30.08.2019
2777 Clear 29 1014 54 16093 3.1 260 20:20 30.08.2019
2778 Clear 28 1016 42 16093 2.36 183.103 19:57 30.08.2019
2779 Clear 28 1016 42 16093 2.36 183.103 19:57 30.08.2019
2780 Clear 28 1014 54 16093 2.36 183.103 19:39 30.08.2019
2781 Clear 27 1014 54 16093 2.36 183.103 19:19 30.08.2019
2782 Haze 26 1014 61 16093 2.36 183.103 18:54 30.08.2019
2783 Haze 25 1014 61 16093 1.11 142.684 18:36 30.08.2019
2784 Haze 25 1014 61 16093 1.11 142.684 18:18 30.08.2019
2785 Haze 24 1014 61 16093 1.11 142.684 17:55 30.08.2019
2786 Haze 24 1014 64 16093 1.11 142.684 17:37 30.08.2019
2787 Clear 23 1015 73 16093 1.11 142.684 17:18 30.08.2019
2788 Clear 21 1014 73 16093 1.11 142.684 16:43 30.08.2019
2789 Clear 21 1014 73 16093 1.11 142.684 16:22 30.08.2019
2790 Clear 20 1014 73 16093 1.11 142.684 15:44 30.08.2019
2791 Clear 19 1014 73 16093 1.2 94.891 15:24 30.08.2019
2792 Clear 19 1014 93 16093 1.5 50 14:57 30.08.2019
2793 Clear 19 1014 93 16093 1.5 50 14:38 30.08.2019
2794 Clear 19 1014 93 16093 1.5 50 14:20 30.08.2019
2795 Clear 20 1014 73 16093 1.2 94.891 13:43 30.08.2019
2796 Clear 20 1014 73 16093 1.18 130.017 13:23 30.08.2019
2797 Clear 20 1014 73 16093 1.18 130.017 12:56 30.08.2019
2798 Clear 20 1014 73 16093 1.18 130.017 12:38 30.08.2019
2799 Clear 20 1014 73 16093 1.74 142.275 12:20 30.08.2019
2800 Clear 20 1014 73 16093 1.74 142.275 11:41 30.08.2019
2801 Clear 21 1014 73 16093 1.74 142.275 11:23 30.08.2019
2802 Clear 21 1014 73 16093 1.74 142.275 10:40 30.08.2019
2803 Clear 21 1014 73 16093 1.74 142.275 10:22 30.08.2019
2804 Clear 21 1013 73 16093 1.74 142.275 09:58 30.08.2019
2805 Clear 21 1013 73 16093 1.74 142.275 09:58 30.08.2019
2806 Clear 22 1013 73 16093 1.74 142.275 09:40 30.08.2019
2807 Clear 22 1014 73 16093 1.5 220 09:19 30.08.2019
2808 Clear 22 1014 64 16093 1.68 153.039 08:54 30.08.2019
2809 Clear 22 1014 64 16093 1.68 153.039 08:36 30.08.2019
2810 Clear 22 1014 69 16093 1.5 0 08:18 30.08.2019
2811 Clear 23 1013 64 16093 1.68 153.039 07:39 30.08.2019
2812 Clear 23 1013 64 16093 1.68 153.039 07:21 30.08.2019
2813 Clear 23 1013 64 16093 1.68 153.039 06:45 30.08.2019
2814 Clear 24 1013 64 16093 3.14 257.693 06:26 30.08.2019
2815 Clear 24 1013 60 16093 2.1 260 05:43 30.08.2019
2816 Clear 26 1012 48 16093 1.5 0 03:59 30.08.2019
2817 Clear 26 1012 48 16093 1.5 0 03:38 30.08.2019
2818 Haze 28 1013 51 16093 2.6 0 02:56 30.08.2019
2819 Haze 29 1013 51 16093 2.6 0 02:29 30.08.2019
2820 Haze 29 1013 54 16093 1.5 260 01:29 30.08.2019
2821 Clear 29 1014 51 16093 2.1 0 00:38 30.08.2019
2822 Clear 30 1013 40 16093 4.1 210 00:18 30.08.2019
2823 Clear 30 1014 57 16093 6.2 250 00:18 30.08.2019
2824 Clear 30 1014 51 16093 3.1 270 23:41 29.08.2019
2825 Clear 30 1014 51 16093 3.1 270 23:21 29.08.2019
2826 Clear 29 1015 51 16093 2.1 0 22:44 29.08.2019
2827 Clear 29 1015 51 16093 2.1 0 22:25 29.08.2019
2828 Clear 29 1016 35 16093 2.1 110 21:57 29.08.2019
2829 Clear 28 1015 54 16093 1.5 0 21:38 29.08.2019
2830 Clear 28 1016 69 16093 4.6 210 21:20 29.08.2019
2831 Clear 28 1017 40 16093 2.6 120 20:54 29.08.2019
2832 Clear 28 1016 58 16093 1.5 0 20:36 29.08.2019
2833 Haze 27 1016 58 16093 1.5 0 20:18 29.08.2019
2834 Haze 26 1016 61 12874 2.79 203.622 19:46 29.08.2019
2835 Haze 26 1016 61 12874 2.79 203.622 19:25 29.08.2019
2836 Haze 24 1016 73 11265 1.5 260 18:45 29.08.2019
2837 Haze 24 1016 73 11265 1.5 260 18:21 29.08.2019
2838 Haze 23 1015 73 9656 1.33 220.808 17:58 29.08.2019
2839 Haze 22 1015 73 9656 1.33 220.808 17:39 29.08.2019
2840 Haze 22 1015 73 9656 1.33 220.808 17:20 29.08.2019
2841 Haze 21 1015 78 12874 1.33 220.808 16:59 29.08.2019
2842 Haze 21 1015 83 4828 1.33 220.808 16:41 29.08.2019
2843 Mist 20 1015 88 12874 1.5 290 16:22 29.08.2019
2844 Clear 19 1015 88 16093 1.5 240 15:40 29.08.2019
2845 Clear 19 1015 88 16093 1.5 240 15:21 29.08.2019
2846 Clouds 19 1014 94 0 1.5 230 14:58 29.08.2019
2847 Clouds 19 1014 94 0 1.5 230 14:39 29.08.2019
2848 Clouds 19 1014 94 0 1.5 230 14:20 29.08.2019
2849 Clouds 19 1014 83 16093 2.6 250 13:56 29.08.2019
2850 Clear 19 1014 88 16093 1.05 200.537 13:37 29.08.2019
2851 Clear 19 1014 88 16093 1.03 215.88 13:18 29.08.2019
2852 Clear 19 1014 88 16093 1.03 215.88 12:56 29.08.2019
2853 Clear 19 1014 88 16093 1.03 215.88 12:37 29.08.2019
2854 Clear 19 1014 88 16093 1.3 176.95 12:19 29.08.2019
2855 Clear 20 1014 77 16093 1.5 240 11:42 29.08.2019
2856 Clear 20 1014 77 16093 1.5 240 11:21 29.08.2019
2857 Clear 20 1014 77 16093 2.1 260 10:57 29.08.2019
2858 Clear 20 1014 77 16093 2.1 260 10:38 29.08.2019
2859 Clear 20 1014 77 16093 2.1 260 10:20 29.08.2019
2860 Clear 20 1014 77 16093 2.6 240 09:41 29.08.2019
2861 Clear 20 1014 77 16093 2.6 240 09:41 29.08.2019
2862 Clouds 20 1014 77 16093 2.1 240 09:19 29.08.2019
2863 Clouds 20 1014 77 16093 2.1 240 08:56 29.08.2019
2864 Clouds 20 1014 77 16093 2.1 240 08:31 29.08.2019
2865 Clouds 21 1014 77 16093 2.6 240 07:59 29.08.2019
2866 Clouds 21 1014 83 16093 3.6 240 07:41 29.08.2019
2867 Clouds 21 1014 83 16093 3.6 240 07:23 29.08.2019
2868 Clouds 21 1014 73 16093 4.1 250 06:41 29.08.2019
2869 Clouds 22 1013 73 16093 4.1 260 05:54 29.08.2019
2870 Clouds 22 1013 73 16093 4.1 260 05:34 29.08.2019
2871 Clear 22 1014 61 16093 3.1 100 04:50 29.08.2019
2872 Clouds 22 1013 78 16093 4.1 270 04:28 29.08.2019
2873 Haze 26 1013 57 14484 1.5 0 02:27 29.08.2019
2874 Haze 27 1014 61 16093 4.6 230 01:41 29.08.2019
2875 Haze 27 1014 65 16093 7.2 280 00:56 29.08.2019
2876 Haze 27 1014 54 14484 1.5 0 00:37 29.08.2019
2877 Haze 28 1015 57 16093 5.1 250 00:18 29.08.2019
2878 Haze 28 1015 54 12874 3.75 210.678 23:41 28.08.2019
2879 Haze 28 1015 54 12874 3.75 210.678 23:22 28.08.2019
2880 Clear 28 1016 42 16093 3.6 140 22:58 28.08.2019
2881 Clear 28 1015 57 16093 4.6 250 22:38 28.08.2019
2882 Clear 27 1015 57 16093 4.6 250 22:18 28.08.2019
2883 Haze 27 1017 48 16093 2.6 100 21:57 28.08.2019
2884 Haze 27 1015 51 12874 3.43 212.271 21:38 28.08.2019
2885 Haze 27 1015 61 16093 2.1 0 21:20 28.08.2019
2886 Haze 26 1015 57 11265 2.94 194.282 20:41 28.08.2019
2887 Haze 25 1015 57 11265 2.94 194.282 20:22 28.08.2019
2888 Haze 24 1015 57 11265 2.94 194.282 19:55 28.08.2019
2889 Haze 24 1014 61 9656 2.94 194.282 19:37 28.08.2019
2890 Haze 24 1014 61 9656 2.94 194.282 19:18 28.08.2019
2891 Haze 23 1015 78 8047 1.5 140 18:42 28.08.2019
2892 Haze 22 1014 73 9656 1.45 200.81 18:21 28.08.2019
2893 Haze 21 1014 73 9656 1.45 200.81 17:55 28.08.2019
2894 Haze 21 1014 78 9656 1.45 200.81 17:37 28.08.2019
2895 Haze 21 1014 78 9656 1.45 200.81 17:37 28.08.2019
2896 Haze 21 1014 77 16093 1.5 180 17:19 28.08.2019
2897 Mist 20 1013 77 16093 2.1 170 16:42 28.08.2019
2898 Mist 20 1013 77 16093 2.1 170 16:18 28.08.2019
2899 Mist 20 1013 93 9656 1.5 160 15:57 28.08.2019
2900 Mist 20 1012 78 11265 1.45 200.81 15:36 28.08.2019
2901 Mist 19 1012 83 14484 1.03 184.736 15:18 28.08.2019
2902 Mist 19 1012 77 16093 1.03 184.736 14:55 28.08.2019
2903 Mist 19 1012 93 14484 1.03 184.736 14:37 28.08.2019
2904 Mist 19 1012 83 16093 1.03 184.736 14:18 28.08.2019
2905 Clouds 20 1012 78 11265 1.03 184.736 13:56 28.08.2019
2906 Clouds 20 1012 93 14484 3.1 140 13:36 28.08.2019
2907 Clouds 20 1012 73 14484 1.5 140 13:18 28.08.2019
2908 Clouds 20 1012 77 16093 0.78 181.544 12:40 28.08.2019
2909 Clouds 20 1012 83 16093 2.1 120 12:21 28.08.2019
2910 Clouds 20 1012 78 16093 1.5 150 11:41 28.08.2019
2911 Clouds 20 1012 78 16093 1.5 150 11:22 28.08.2019
2912 Clouds 20 1012 83 16093 1.31 178.991 10:59 28.08.2019
2913 Clouds 20 1012 83 16093 1.31 178.991 10:41 28.08.2019
2914 Clouds 20 1012 83 16093 1.31 178.991 10:20 28.08.2019
2915 Haze 20 1012 83 9656 1.31 178.991 09:56 28.08.2019
2916 Haze 20 1012 83 9656 1.31 163.465 09:37 28.08.2019
2917 Clouds 21 1012 83 16093 1.5 250 09:18 28.08.2019
2918 Clear 21 1012 78 12874 1.5 270 08:38 28.08.2019
2919 Clouds 21 1012 83 16093 1.5 290 08:20 28.08.2019
2920 Clouds 21 1012 73 16093 2.6 160 07:39 28.08.2019
2921 Clouds 21 1012 73 16093 2.6 160 07:20 28.08.2019
2922 Clouds 21 1012 88 16093 2.1 260 06:51 28.08.2019
2923 Clear 21 1011 78 14484 1.5 0 06:31 28.08.2019
2924 Clouds 22 1011 78 16093 2.1 290 05:29 28.08.2019
2925 Clear 28 1009 58 14484 2.6 270 02:46 28.08.2019
2926 Clear 28 1009 51 14484 2.6 270 01:32 28.08.2019
2927 Clear 29 1009 51 14484 2.6 270 00:55 28.08.2019
2928 Clear 29 1009 51 16093 1.5 270 00:35 28.08.2019
2929 Haze 30 1010 51 14484 3.79 211.824 23:58 27.08.2019
2930 Haze 30 1010 51 14484 3.79 211.824 23:38 27.08.2019
2931 Haze 30 1010 57 4828 4.1 260 23:20 27.08.2019
2932 Clear 30 1010 54 14484 1.5 0 22:42 27.08.2019
2933 Clear 30 1010 54 14484 1.5 0 22:23 27.08.2019
2934 Clear 29 1011 38 16093 3.75 208.728 21:57 27.08.2019
2935 Clear 29 1011 38 16093 3.75 208.728 21:39 27.08.2019
2936 Clear 29 1011 38 16093 2.46 189.363 21:20 27.08.2019
2937 Clear 28 1011 54 16093 1.5 0 20:59 27.08.2019
2938 Clear 28 1011 54 16093 1.5 0 20:40 27.08.2019
2939 Clear 28 1011 54 16093 1.5 0 20:20 27.08.2019
2940 Haze 27 1011 57 12874 2.46 189.363 19:56 27.08.2019
2941 Haze 27 1011 57 12874 2.46 189.363 19:38 27.08.2019
2942 Haze 26 1011 57 12874 2.46 189.363 19:20 27.08.2019
2943 Haze 25 1011 65 9656 2.46 189.363 18:42 27.08.2019
2944 Haze 24 1011 65 9656 1.16 168.254 18:19 27.08.2019
2945 Haze 23 1011 65 9656 1.16 168.254 17:56 27.08.2019
2946 Clear 23 1011 69 11265 1.16 168.254 17:38 27.08.2019
2947 Mist 22 1011 69 11265 1.16 168.254 17:19 27.08.2019
2948 Haze 21 1011 78 16093 1.16 168.254 16:47 27.08.2019
2949 Haze 21 1011 83 9656 1.16 168.254 16:28 27.08.2019
2950 Clear 20 1010 83 12874 1.16 168.254 15:57 27.08.2019
2951 Clear 20 1010 83 12874 1.16 168.254 15:39 27.08.2019
2952 Clear 20 1010 83 16093 1.5 230 15:20 27.08.2019
2953 Clear 20 1009 77 12874 1.26 194.621 14:54 27.08.2019
2954 Clear 20 1009 77 12874 1.26 194.621 14:36 27.08.2019
2955 Clear 20 1010 77 16093 1.26 194.621 14:18 27.08.2019
2956 Clear 20 1010 83 16093 1.26 194.621 13:41 27.08.2019
2957 Clear 20 1010 83 16093 0.92 185.778 13:20 27.08.2019
2958 Clear 20 1010 77 12874 0.92 185.778 12:42 27.08.2019
2959 Clear 20 1010 77 16093 1.09 206.07 12:21 27.08.2019
2960 Clear 20 1010 73 14484 1.09 206.07 11:57 27.08.2019
2961 Clear 21 1010 73 14484 1.09 206.07 11:37 27.08.2019
2962 Clear 21 1011 73 16093 1.09 206.07 11:19 27.08.2019
2963 Clear 21 1011 73 14484 1.09 206.07 10:41 27.08.2019
2964 Clear 21 1011 73 16093 2.1 250 10:20 27.08.2019
2965 Clear 21 1011 64 16093 1.09 206.07 09:56 27.08.2019
2966 Clear 21 1011 64 16093 1.16 206.543 09:37 27.08.2019
2967 Clear 21 1011 68 16093 2.6 250 09:19 27.08.2019
2968 Clear 22 1011 69 16093 1.45 184.708 08:45 27.08.2019
2969 Clear 22 1011 69 16093 1.45 184.708 08:24 27.08.2019
2970 Clear 22 1011 64 16093 1.45 184.708 07:55 27.08.2019
2971 Clear 22 1011 64 16093 1.45 184.708 07:37 27.08.2019
2972 Clear 22 1011 68 16093 2.6 240 07:18 27.08.2019
2973 Clear 22 1010 60 16093 1.45 184.708 06:45 27.08.2019
2974 Clear 23 1011 68 16093 3.1 250 06:19 27.08.2019
2975 Clear 24 1009 60 16093 2.1 260 05:28 27.08.2019
2976 Clear 27 1009 54 16093 3.1 270 03:44 27.08.2019
2977 Clear 27 1009 54 16093 3.1 270 03:21 27.08.2019
2978 Clear 30 1011 31 16093 3.1 110 01:48 27.08.2019
2979 Clear 30 1009 45 16093 2.6 260 01:26 27.08.2019
2980 Clear 30 1011 29 16093 3.6 130 00:49 27.08.2019
2981 Clear 30 1010 45 16093 2.1 0 00:28 27.08.2019
2982 Clear 31 1010 45 16093 3.6 270 23:44 26.08.2019
2983 Clear 31 1010 45 16093 3.6 270 23:26 26.08.2019
2984 Clear 31 1011 45 16093 3.41 201.368 22:59 26.08.2019
2985 Clear 32 1011 45 16093 3.41 201.368 22:37 26.08.2019
2986 Clear 31 1011 45 16093 3.41 201.368 22:19 26.08.2019
2987 Clear 31 1012 31 14484 2.1 0 21:40 26.08.2019
2988 Clear 31 1012 31 14484 2.1 0 21:22 26.08.2019
2989 Clouds 30 1012 57 16093 5.1 250 20:59 26.08.2019
2990 Clear 30 1012 35 16093 1.5 0 20:41 26.08.2019
2991 Clear 30 1012 35 16093 1.5 0 20:22 26.08.2019
2992 Clouds 29 1013 58 16093 3.6 240 19:59 26.08.2019
2993 Clear 29 1012 48 12874 2.82 176.313 19:41 26.08.2019
2994 Clear 28 1012 48 12874 2.82 176.313 19:19 26.08.2019
2995 Clear 28 1012 48 12874 2.82 176.313 19:19 26.08.2019
2996 Clouds 27 1013 48 16093 2.82 176.313 18:56 26.08.2019
2997 Clear 26 1012 65 11265 1.5 260 18:37 26.08.2019
2998 Clear 25 1012 65 11265 1.5 260 18:18 26.08.2019
2999 Clear 24 1012 73 11265 0.88 169.021 17:43 26.08.2019
3000 Clear 23 1012 73 11265 0.88 169.021 17:19 26.08.2019
3001 Clear 23 1012 73 11265 0.88 169.021 17:19 26.08.2019
3002 Clear 22 1014 36 16093 0.88 169.021 16:57 26.08.2019
3003 Clear 21 1012 83 14484 0.88 169.021 16:39 26.08.2019
3004 Clear 21 1012 83 14484 0.88 169.021 16:18 26.08.2019
3005 Clear 21 1012 83 14484 0.88 169.021 16:18 26.08.2019
3006 Clear 20 1011 83 12874 0.88 169.021 15:54 26.08.2019
3007 Clear 20 1011 83 12874 0.88 169.021 15:36 26.08.2019
3008 Clear 20 1011 83 12874 0.8 350.467 15:18 26.08.2019
3009 Clear 20 1011 77 12874 0.8 350.467 14:42 26.08.2019
3010 Clear 20 1011 77 12874 0.8 350.467 14:22 26.08.2019
3011 Clear 20 1011 77 14484 0.8 350.467 13:44 26.08.2019
3012 Clear 20 1011 77 14484 0.35 268.195 13:23 26.08.2019
3013 Clouds 20 1011 83 16093 2.6 270 12:57 26.08.2019
3014 Clear 21 1011 77 14484 0.35 268.195 12:39 26.08.2019
3015 Clear 21 1011 77 14484 0.86 68.534 12:20 26.08.2019
3016 Clear 21 1012 77 14484 0.86 68.534 11:39 26.08.2019
3017 Clear 21 1012 77 14484 0.86 68.534 11:21 26.08.2019
3018 Clear 21 1013 83 12874 0.86 68.534 10:58 26.08.2019
3019 Clear 21 1013 83 12874 0.86 68.534 10:40 26.08.2019
3020 Clear 21 1013 83 12874 0.86 68.534 10:19 26.08.2019
3021 Clear 21 1013 78 12874 0.45 107.461 09:43 26.08.2019
3022 Clear 21 1013 78 12874 1.27 191.195 09:24 26.08.2019
3023 Clouds 22 1013 73 16093 2.1 0 08:59 26.08.2019
3024 Clear 22 1013 69 16093 1.27 191.195 08:40 26.08.2019
3025 Clear 22 1013 69 16093 1.27 191.195 08:21 26.08.2019
3026 Smoke 22 1014 83 14484 1.5 170 07:45 26.08.2019
3027 Smoke 22 1013 69 14484 1.27 191.195 07:25 26.08.2019
3028 Smoke 22 1014 73 16093 2.1 230 06:58 26.08.2019
3029 Smoke 23 1013 73 16093 1.5 240 06:39 26.08.2019
3030 Smoke 23 1013 73 16093 2.1 220 06:19 26.08.2019
3031 Smoke 24 1013 60 16093 2.07 211.557 05:41 26.08.2019
3032 Smoke 26 1012 47 16093 1.5 250 04:22 26.08.2019
3033 Clear 30 1013 54 16093 5.7 240 02:40 26.08.2019
3034 Clear 31 1013 42 16093 1.5 0 01:23 26.08.2019
3035 Clear 31 1013 45 16093 3.6 260 00:45 26.08.2019
3036 Clear 32 1013 45 16093 3.6 260 00:27 26.08.2019
3037 Clear 32 1014 45 16093 3.26 227.286 23:46 25.08.2019
3038 Clear 32 1014 45 16093 3.26 227.286 23:21 25.08.2019
3039 Clouds 32 1015 61 16093 5.7 250 22:59 25.08.2019
3040 Clear 31 1014 48 16093 3.1 0 22:41 25.08.2019
3041 Clear 31 1014 48 16093 3.1 0 22:21 25.08.2019
3042 Clouds 30 1015 61 16093 5.1 260 21:59 25.08.2019
3043 Clear 30 1014 48 16093 3.21 231.09 21:41 25.08.2019
3044 Clear 30 1014 48 16093 3.21 231.09 21:41 25.08.2019
3045 Clear 30 1014 48 16093 2.62 210.641 21:19 25.08.2019
3046 Clouds 29 1015 61 16093 4.1 270 20:59 25.08.2019
3047 Clear 29 1015 58 14484 2.62 210.641 20:39 25.08.2019
3048 Clear 28 1015 58 14484 2.62 210.641 20:19 25.08.2019
3049 -273 0 0 0 0 0 19:55 25.08.2019
3050 Clear 27 1015 54 12874 2.62 210.641 19:37 25.08.2019
3051 Haze 26 1015 54 12874 2.62 210.641 19:18 25.08.2019
3052 Haze 25 1017 36 16093 2.62 210.641 18:55 25.08.2019
3053 Haze 25 1015 65 12874 2.62 210.641 18:37 25.08.2019
3054 Haze 24 1015 65 12874 1.47 213.766 18:18 25.08.2019
3055 Haze 22 1015 73 11265 1.47 213.766 17:40 25.08.2019
3056 Haze 22 1015 73 11265 1.47 213.766 17:22 25.08.2019
3057 Mist 20 1015 88 9656 1.47 213.766 16:45 25.08.2019
3058 Mist 19 1015 88 9656 1.47 213.766 16:24 25.08.2019
3059 Clear 19 1014 82 11265 1.47 213.766 15:59 25.08.2019
3060 Clear 19 1014 82 11265 1.47 213.766 15:40 25.08.2019
3061 Clear 18 1014 82 11265 1.48 237.214 15:21 25.08.2019
3062 Clear 18 1015 82 16093 1.48 237.214 14:41 25.08.2019
3063 Clear 18 1015 82 16093 1.48 237.214 14:23 25.08.2019
3064 Mist 19 1015 88 11265 1.48 237.214 13:47 25.08.2019
3065 Mist 19 1015 88 11265 1.29 245.427 13:22 25.08.2019
3066 Clouds 19 1015 88 16093 1.5 230 12:59 25.08.2019
3067 Clear 19 1015 82 16093 1.29 245.427 12:40 25.08.2019
3068 Clear 19 1015 82 16093 0.94 220.951 12:22 25.08.2019
3069 Clear 19 1015 83 12874 0.94 220.951 11:57 25.08.2019
3070 Clear 19 1015 83 12874 0.94 220.951 11:37 25.08.2019
3071 Clear 19 1015 83 12874 0.94 220.951 11:19 25.08.2019
3072 Clear 20 1015 83 12874 0.94 220.951 10:55 25.08.2019
3073 Clear 20 1015 83 12874 0.94 220.951 10:37 25.08.2019
3074 Clear 20 1015 83 12874 0.94 220.951 10:18 25.08.2019
3075 Clouds 20 1015 94 16093 1.5 230 09:42 25.08.2019
3076 Clear 20 1015 83 12874 2.1 270 09:23 25.08.2019
3077 Clouds 20 1015 77 16093 1.5 280 08:47 25.08.2019
3078 Clouds 20 1015 77 16093 1.5 290 08:28 25.08.2019
3079 Clear 21 1015 78 12874 2.04 201.284 07:49 25.08.2019
3080 Clear 21 1015 78 12874 2.04 201.284 07:30 25.08.2019
3081 Clouds 21 1014 83 16093 3.6 240 06:38 25.08.2019
3082 Clear 23 1013 73 14484 2.41 216.817 05:27 25.08.2019
3083 Clear 27 1012 54 16093 2.41 216.817 03:45 25.08.2019
3084 Clear 29 1012 51 16093 1.5 260 02:42 25.08.2019
3085 Clear 30 1015 26 16093 3.1 120 01:54 25.08.2019
3086 Clouds 30 1013 61 16093 6.2 260 00:54 25.08.2019
3087 Clear 31 1013 51 16093 1.5 0 00:23 25.08.2019
3088 Clear 30 1013 51 14484 3.86 232.783 23:58 24.08.2019
3089 Clear 31 1013 51 14484 3.86 232.783 23:39 24.08.2019
3090 Clear 30 1013 51 14484 3.86 232.783 23:21 24.08.2019
3091 Clear 30 1013 48 14484 1.5 0 22:54 24.08.2019
3092 Clear 31 1013 48 14484 1.5 0 22:36 24.08.2019
3093 Clear 30 1013 48 14484 1.5 0 22:18 24.08.2019
3094 Clear 30 1013 48 14484 3.86 232.783 21:41 24.08.2019
3095 Clear 29 1013 48 14484 1.67 212.871 21:23 24.08.2019
3096 Clear 28 1015 35 16093 1.67 212.871 20:58 24.08.2019
3097 Clear 28 1015 35 16093 1.67 212.871 20:58 24.08.2019
3098 Clear 29 1013 48 11265 1.67 212.871 20:39 24.08.2019
3099 Clear 28 1013 48 11265 1.67 212.871 20:20 24.08.2019
3100 Haze 27 1015 37 16093 1.67 212.871 19:58 24.08.2019
3101 Haze 27 1014 54 2012 1.67 212.871 19:39 24.08.2019
3102 Haze 26 1013 57 9656 1.67 212.871 19:21 24.08.2019
3103 Haze 25 1013 65 11265 1.67 212.871 18:46 24.08.2019
3104 Haze 24 1013 65 11265 1.49 215.058 18:25 24.08.2019
3105 Haze 22 1013 78 9656 1.49 215.058 17:57 24.08.2019
3106 Haze 22 1013 78 9656 1.49 215.058 17:39 24.08.2019
3107 Haze 21 1013 78 9656 1.49 215.058 17:21 24.08.2019
3108 Clear 19 1013 88 11265 1.49 215.058 16:40 24.08.2019
3109 Clear 19 1013 88 11265 1.49 215.058 16:19 24.08.2019
3110 Clear 18 1013 88 12874 1.49 215.058 15:55 24.08.2019
3111 Clear 18 1013 88 12874 1.49 215.058 15:37 24.08.2019
3112 Clear 17 1013 88 12874 1.11 232.965 15:18 24.08.2019
3113 Clear 18 1012 88 12874 1.11 232.965 14:41 24.08.2019
3114 Clear 18 1012 88 12874 1.11 232.965 14:19 24.08.2019
3115 Clear 18 1012 82 14484 1.11 232.965 13:55 24.08.2019
3116 Clear 18 1012 82 14484 1.11 232.965 13:36 24.08.2019
3117 Clear 18 1012 82 14484 1.02 257.318 13:18 24.08.2019
3118 Clear 18 1013 77 16093 1.02 257.318 12:41 24.08.2019
3119 Clear 18 1013 77 16093 0.56 212.729 12:23 24.08.2019
3120 Clear 18 1013 82 16093 1.5 130 11:54 24.08.2019
3121 Clear 18 1013 82 16093 1.5 130 11:36 24.08.2019
3122 Clear 19 1013 82 16093 1.5 130 11:18 24.08.2019
3123 Clear 19 1013 77 12874 0.56 212.729 10:40 24.08.2019
3124 Clear 19 1013 77 12874 0.56 212.729 10:21 24.08.2019
3125 Clear 19 1013 77 12874 0.56 212.729 09:43 24.08.2019
3126 Clear 20 1013 77 12874 1.03 182.62 09:19 24.08.2019
3127 Clear 20 1012 77 12874 1.03 182.62 08:44 24.08.2019
3128 Clear 20 1012 77 12874 1.03 182.62 08:26 24.08.2019
3129 Clear 20 1011 73 14484 1.03 182.62 07:54 24.08.2019
3130 Clear 20 1011 73 14484 1.03 182.62 07:54 24.08.2019
3131 Clear 20 1011 73 14484 1.03 182.62 07:33 24.08.2019
3132 Clouds 21 1011 73 16093 2.6 220 06:58 24.08.2019
3133 Clear 21 1011 73 14484 2.06 230.849 06:23 24.08.2019
3134 Clear 21 1009 69 14484 1.5 270 05:40 24.08.2019
3135 Clear 24 1009 51 14484 1.5 0 03:51 24.08.2019
3136 Clear 25 1009 51 14484 1.5 0 03:32 24.08.2019
3137 Clear 26 1009 51 14484 2.6 0 02:24 24.08.2019
3138 Clear 26 1009 51 14484 2.75 211.915 01:30 24.08.2019
3139 Clear 26 1010 54 16093 4.1 270 00:49 24.08.2019
3140 Clear 26 1011 51 14484 3.6 270 00:24 24.08.2019
3141 Clouds 26 1012 51 16093 7.2 260 23:49 23.08.2019
3142 Clear 26 1011 48 14484 4.26 183.445 23:24 23.08.2019
3143 Clouds 26 1012 51 16093 7.2 260 22:59 23.08.2019
3144 Clear 26 1011 51 12874 4.26 183.445 22:41 23.08.2019
3145 Clear 26 1011 51 12874 4.26 183.445 22:20 23.08.2019
3146 Clear 25 1012 51 12874 1.5 0 21:38 23.08.2019
3147 Clear 24 1012 51 12874 1.5 0 21:20 23.08.2019
3148 Clouds 24 1012 50 16093 4.1 140 20:55 23.08.2019
3149 Clouds 24 1012 50 16093 4.1 140 20:37 23.08.2019
3150 Clouds 23 1012 57 12874 3.82 144.827 20:18 23.08.2019
3151 Clouds 22 1012 64 11265 3.82 144.827 19:42 23.08.2019
3152 Clouds 22 1012 64 11265 3.82 144.827 19:18 23.08.2019
3153 Haze 21 1012 68 11265 2.6 100 18:44 23.08.2019
3154 Haze 21 1012 68 11265 2.6 100 18:44 23.08.2019
3155 Haze 20 1012 68 11265 2.6 100 18:26 23.08.2019
3156 Haze 20 1012 73 16093 4.6 90 17:54 23.08.2019
3157 Haze 19 1012 68 11265 3.37 124.592 17:36 23.08.2019
3158 Clouds 19 1012 68 11265 3.37 124.592 17:18 23.08.2019
3159 Clouds 19 1011 72 12874 1.5 0 16:44 23.08.2019
3160 Clouds 19 1011 72 12874 1.5 0 16:25 23.08.2019
3161 Clouds 19 1011 82 12874 3.37 124.592 15:55 23.08.2019
3162 Clouds 19 1011 82 12874 3.37 124.592 15:36 23.08.2019
3163 Clouds 19 1011 82 12874 2.23 140.211 15:18 23.08.2019
3164 Clouds 19 1010 82 12874 2.23 140.211 14:41 23.08.2019
3165 Clouds 19 1010 82 12874 2.23 140.211 14:21 23.08.2019
3166 Clouds 19 1010 82 11265 2.23 140.211 13:57 23.08.2019
3167 Clouds 18 1010 82 11265 2.23 140.211 13:39 23.08.2019
3168 Clouds 19 1010 82 11265 2.56 133.719 13:20 23.08.2019
3169 Clouds 18 1010 82 11265 1.5 0 12:57 23.08.2019
3170 Clouds 18 1010 82 11265 1.5 0 12:38 23.08.2019
3171 Clouds 18 1010 82 11265 1.5 0 12:20 23.08.2019
3172 Clouds 18 1010 82 12874 2.01 162.078 11:55 23.08.2019
3173 Clouds 18 1010 82 12874 2.01 162.078 11:55 23.08.2019
3174 Clouds 18 1010 82 12874 1.5 120 11:36 23.08.2019
3175 Clouds 19 1010 82 12874 1.5 120 11:18 23.08.2019
3176 Clouds 18 1009 77 12874 2.1 0 10:42 23.08.2019
3177 Clouds 18 1009 77 12874 2.1 0 10:21 23.08.2019
3178 Clouds 18 1009 82 16093 2.6 140 09:57 23.08.2019
3179 Clouds 18 1009 82 16093 2.6 140 09:38 23.08.2019
3180 Clouds 18 1009 88 16093 2.6 170 09:18 23.08.2019
3181 Clouds 18 1009 72 16093 1.5 170 08:41 23.08.2019
3182 Clear 19 1009 72 16093 2.6 120 08:19 23.08.2019
3183 Haze 19 1009 73 12874 1.45 174.148 07:43 23.08.2019
3184 Haze 19 1009 73 12874 1.45 174.148 07:24 23.08.2019
3185 Haze 19 1009 73 12874 1.45 174.148 07:24 23.08.2019
3186 Haze 19 1009 73 16093 3.1 140 06:57 23.08.2019
3187 Haze 19 1009 73 16093 3.1 140 06:38 23.08.2019
3188 Haze 20 1009 73 16093 3.1 140 06:20 23.08.2019
3189 Haze 20 1009 64 16093 4.6 200 05:34 23.08.2019
3190 Haze 21 1008 73 16093 2.6 220 04:52 23.08.2019
3191 Haze 23 1008 64 16093 3.6 240 03:21 23.08.2019
3192 Haze 25 1007 57 12874 1.5 0 02:23 23.08.2019
3193 Haze 26 1007 57 12874 1.5 250 01:40 23.08.2019
3194 Haze 26 1007 57 12874 2.1 250 00:45 23.08.2019
3195 Haze 27 1007 57 12874 2.1 250 00:21 23.08.2019
3196 Haze 27 1008 57 14484 3.1 280 23:50 22.08.2019
3197 Haze 27 1008 57 14484 3.1 280 23:32 22.08.2019
3198 Haze 27 1009 64 16093 4.6 250 22:58 22.08.2019
3199 Haze 27 1008 54 14484 3.35 194.572 22:58 22.08.2019
3200 Haze 27 1008 54 14484 3.35 194.572 22:40 22.08.2019
3201 Haze 26 1008 54 14484 3.35 194.572 22:21 22.08.2019
3202 Haze 26 1009 64 16093 5.1 100 21:57 22.08.2019
3203 Haze 26 1009 60 16093 1.5 0 21:39 22.08.2019
3204 Haze 26 1009 60 16093 1.5 0 21:19 22.08.2019
3205 Haze 26 1009 61 16093 4.6 260 20:57 22.08.2019
3206 Haze 25 1009 57 12874 3.27 190.324 20:38 22.08.2019
3207 Haze 25 1009 57 12874 3.27 190.324 20:18 22.08.2019
3208 Haze 25 1009 57 12874 3.27 190.324 20:18 22.08.2019
3209 Haze 24 1009 57 16093 3.1 110 19:56 22.08.2019
3210 Haze 23 1009 64 11265 1.5 0 19:37 22.08.2019
3211 Haze 23 1009 64 11265 1.5 0 19:19 22.08.2019
3212 Haze 22 1009 73 16093 4.6 100 18:56 22.08.2019
3213 Haze 22 1009 73 14484 3.1 130 18:37 22.08.2019
3214 Haze 22 1009 73 14484 3.1 130 18:18 22.08.2019
3215 Haze 20 1009 73 11265 2.6 80 17:42 22.08.2019
3216 Haze 20 1009 77 8047 2.6 80 17:23 22.08.2019
3217 Haze 19 1008 77 6437 1.34 106.157 16:58 22.08.2019
3218 Haze 19 1008 82 4828 1.5 100 16:40 22.08.2019
3219 Haze 19 1008 82 4828 1.5 100 16:21 22.08.2019
3220 Haze 19 1008 82 4828 1.5 100 16:21 22.08.2019
3221 Mist 19 1008 88 4828 4.1 90 15:59 22.08.2019
3222 Mist 19 1008 88 4828 4.1 90 15:59 22.08.2019
3223 Mist 19 1008 88 6437 1.34 106.157 15:39 22.08.2019
3224 Mist 19 1008 88 6437 1.34 106.157 15:39 22.08.2019
3225 Mist 18 1008 88 6437 0.52 225.932 15:21 22.08.2019
3226 Mist 18 1008 88 6437 0.52 225.932 15:20 22.08.2019
3227 Haze 18 1008 77 14484 2.6 130 14:56 22.08.2019
3228 Haze 18 1008 82 9656 0.52 225.932 14:38 22.08.2019
3229 Haze 18 1008 82 9656 0.52 225.932 14:18 22.08.2019
3230 Haze 18 1008 82 9656 0.52 225.932 14:18 22.08.2019
3231 Haze 18 1008 93 4828 2.6 160 13:56 22.08.2019
3232 Haze 19 1008 82 8047 1.5 150 13:37 22.08.2019
3233 Clouds 19 1008 82 16093 2.1 150 13:18 22.08.2019
3234 Clouds 19 1007 88 16093 1.5 130 12:40 22.08.2019
3235 Clouds 19 1007 88 16093 1.5 130 12:21 22.08.2019
3236 Mist 19 1007 88 12874 1.43 163.823 11:55 22.08.2019
3237 Mist 19 1007 83 9656 3.1 160 11:36 22.08.2019
3238 Clear 19 1007 73 14484 1.43 163.823 11:18 22.08.2019
3239 Clear 20 1007 73 16093 1.5 0 10:57 22.08.2019
3240 Clear 20 1007 68 14484 1.43 163.823 10:36 22.08.2019
3241 Clear 20 1007 68 14484 1.43 163.823 10:18 22.08.2019
3242 Clear 20 1008 68 14484 1.24 160.865 09:54 22.08.2019
3243 Clear 20 1008 68 14484 1.24 160.865 09:36 22.08.2019
3244 Clear 20 1008 68 14484 1.24 160.865 09:36 22.08.2019
3245 Clear 21 1008 68 14484 0.95 126.389 09:18 22.08.2019
3246 Clear 21 1008 68 16093 0.95 126.389 08:40 22.08.2019
3247 Clear 21 1008 68 16093 0.95 126.389 08:21 22.08.2019
3248 Clear 22 1008 64 16093 0.95 126.389 07:43 22.08.2019
3249 Clear 22 1008 64 16093 0.95 126.389 07:24 22.08.2019
3250 Clear 22 1008 68 16093 2.6 220 06:59 22.08.2019
3251 Clear 22 1008 60 16093 0.95 126.389 06:41 22.08.2019
3252 Clear 23 1008 60 16093 1.75 217.553 06:19 22.08.2019
3253 Clear 24 1010 28 16093 2.1 80 04:58 22.08.2019
3254 Clear 28 1007 45 16093 2.1 280 03:20 22.08.2019
3255 Clear 30 1007 42 16093 2.1 0 02:36 22.08.2019
3256 Clear 30 1008 45 16093 1.5 0 01:30 22.08.2019
3257 Clear 30 1009 45 16093 2.6 260 00:50 22.08.2019
3258 Clear 30 1009 45 16093 2.6 260 00:30 22.08.2019
3259 Clear 30 1009 48 16093 1.5 0 23:59 21.08.2019
3260 Clear 31 1009 48 16093 1.5 0 23:40 21.08.2019
3261 Clear 30 1009 48 16093 1.5 0 23:21 21.08.2019
3262 Clear 30 1010 51 16093 6.2 250 22:57 21.08.2019
3263 Clear 30 1010 45 14484 3.38 224.628 22:39 21.08.2019
3264 Clear 30 1010 45 14484 3.38 224.628 22:20 21.08.2019
3265 Clear 30 1010 45 14484 3.38 224.628 22:20 21.08.2019
3266 Clear 30 1011 61 16093 5.1 280 21:55 21.08.2019
3267 Clear 30 1011 38 16093 3.36 224.771 21:37 21.08.2019
3268 Clear 30 1011 38 16093 3.36 224.771 21:37 21.08.2019
3269 Clear 29 1011 38 16093 2.71 204.493 21:19 21.08.2019
3270 Clear 29 1011 38 16093 2.71 204.493 20:55 21.08.2019
3271 Clear 29 1011 38 16093 2.71 204.493 20:37 21.08.2019
3272 Clear 28 1011 38 16093 2.71 204.493 20:19 21.08.2019
3273 Clear 27 1011 54 11265 2.71 204.493 19:42 21.08.2019
3274 Clear 27 1011 54 11265 2.71 204.493 19:23 21.08.2019
3275 Clear 25 1011 64 12874 2.71 204.493 18:56 21.08.2019
3276 Clear 25 1011 64 12874 2.71 204.493 18:56 21.08.2019
3277 Clear 24 1011 64 12874 2.71 204.493 18:38 21.08.2019
3278 Clear 24 1011 64 12874 1.13 222.855 18:20 21.08.2019
3279 Clear 22 1011 73 11265 1.13 222.855 17:44 21.08.2019
3280 Clear 21 1011 73 11265 1.13 222.855 17:22 21.08.2019
3281 Clear 20 1011 88 12874 1.13 222.855 16:57 21.08.2019
3282 Clear 19 1011 88 12874 1.13 222.855 16:39 21.08.2019
3283 Clear 18 1011 88 12874 1.13 222.855 16:20 21.08.2019
3284 Clear 17 1011 82 16093 1.13 222.855 15:56 21.08.2019
3285 Clear 17 1011 93 14484 1.13 222.855 15:38 21.08.2019
3286 Clear 17 1011 93 14484 0.83 176.315 15:19 21.08.2019
3287 Clear 17 1011 88 14484 0.83 176.315 14:56 21.08.2019
3288 Clear 17 1011 88 14484 0.83 176.315 14:37 21.08.2019
3289 Clear 17 1011 88 14484 0.83 176.315 14:19 21.08.2019
3290 Clear 17 1011 88 14484 0.65 164.853 13:43 21.08.2019
3291 Clear 18 1011 88 14484 0.65 164.853 13:21 21.08.2019
3292 Clouds 18 1011 77 16093 0.65 164.853 12:58 21.08.2019
3293 Clear 18 1011 82 14484 0.65 164.853 12:40 21.08.2019
3294 Clear 18 1011 82 14484 0.9 166.625 12:20 21.08.2019
3295 Mist 18 1011 88 9656 0.9 166.625 11:54 21.08.2019
3296 Clear 18 1011 82 14484 0.9 166.625 11:36 21.08.2019
3297 Clear 19 1011 82 14484 0.9 166.625 11:18 21.08.2019
3298 Clear 19 1011 82 14484 0.9 166.625 11:18 21.08.2019
3299 Clouds 19 1011 73 16093 3.1 150 10:55 21.08.2019
3300 Clear 19 1012 88 12874 0.9 166.625 10:37 21.08.2019
3301 Clear 19 1012 88 12874 0.9 166.625 10:19 21.08.2019
3302 Clear 19 1012 88 12874 1.03 160.151 09:41 21.08.2019
3303 Clear 19 1012 88 12874 1.03 186.629 09:23 21.08.2019
3304 Clouds 20 1012 73 16093 1.5 180 08:57 21.08.2019
3305 Clear 20 1012 73 16093 1.03 186.629 08:38 21.08.2019
3306 Clear 20 1012 73 16093 1.03 186.629 08:19 21.08.2019
3307 Clear 20 1012 73 16093 1.03 186.629 07:40 21.08.2019
3308 Clear 21 1012 73 16093 1.03 186.629 07:20 21.08.2019
3309 Clear 21 1011 68 16093 1.03 186.629 06:47 21.08.2019
3310 Clear 21 1011 68 16093 2 208.982 06:21 21.08.2019
3311 Clear 22 1011 60 16093 2 208.982 05:38 21.08.2019
3312 Clear 23 1011 60 16093 2 208.982 05:18 21.08.2019
3313 Clear 27 1011 50 16093 2.1 0 03:23 21.08.2019
3314 Clear 28 1012 51 14484 3.1 290 01:42 21.08.2019
3315 Clear 28 1012 51 14484 2.1 260 00:44 21.08.2019
3316 Clear 29 1012 51 14484 2.1 260 00:24 21.08.2019
3317 Clear 29 1013 60 16093 7.7 260 23:57 20.08.2019
3318 Clear 29 1013 54 14484 3.98 228.986 23:38 20.08.2019
3319 Clear 29 1013 54 14484 3.98 228.986 23:18 20.08.2019
3320 Clear 29 1013 54 14484 3.98 228.986 23:18 20.08.2019
3321 Clouds 28 1013 69 16093 9.8 270 22:55 20.08.2019
3322 Clear 28 1013 51 12874 3.98 228.986 22:36 20.08.2019
3323 Clear 28 1013 51 12874 3.98 228.986 22:18 20.08.2019
3324 Clear 28 1014 45 12874 4.19 228.08 21:56 20.08.2019
3325 Clear 28 1014 45 12874 4.19 228.08 21:37 20.08.2019
3326 Clear 27 1014 45 12874 2.66 217.012 21:18 20.08.2019
3327 Clear 27 1014 54 16093 2.66 217.012 20:42 20.08.2019
3328 Haze 27 1014 54 16093 2.66 217.012 20:24 20.08.2019
3329 Haze 26 1015 61 16093 4.1 250 19:56 20.08.2019
3330 Haze 26 1014 54 9656 2.66 217.012 19:38 20.08.2019
3331 Haze 25 1014 54 9656 2.66 217.012 19:20 20.08.2019
3332 Clear 24 1014 64 16093 1.5 0 18:55 20.08.2019
3333 Clear 23 1014 73 16093 2.66 217.012 18:37 20.08.2019
3334 Clear 22 1014 73 16093 0.71 209.226 18:18 20.08.2019
3335 Clear 21 1014 73 11265 0.71 209.226 17:39 20.08.2019
3336 Clear 20 1014 73 11265 0.71 209.226 17:21 20.08.2019
3337 Clear 19 1014 82 16093 0.71 209.226 16:58 20.08.2019
3338 Clear 19 1014 82 16093 0.71 209.226 16:40 20.08.2019
3339 Clear 18 1014 82 16093 0.71 209.226 16:22 20.08.2019
3340 Clear 17 1014 82 14484 0.71 209.226 15:41 20.08.2019
3341 Clear 16 1014 82 14484 0.54 106.003 15:18 20.08.2019
3342 Clear 17 1014 82 14484 0.54 106.003 14:56 20.08.2019
3343 Clear 17 1014 82 14484 0.54 106.003 14:38 20.08.2019
3344 Clear 17 1014 82 16093 0.54 106.003 14:19 20.08.2019
3345 Clear 17 1013 77 14484 0.54 106.003 13:55 20.08.2019
3346 Clear 17 1013 77 14484 0.54 106.003 13:37 20.08.2019
3347 Clear 17 1013 77 16093 0.92 104.294 13:18 20.08.2019
3348 Clear 17 1013 82 16093 0.92 104.294 12:48 20.08.2019
3349 Clear 17 1013 82 16093 0.79 150.175 12:24 20.08.2019
3350 Clear 17 1013 82 14484 0.79 150.175 11:56 20.08.2019
3351 Clear 17 1013 82 14484 0.79 150.175 11:38 20.08.2019
3352 Clear 17 1013 77 16093 0.79 150.175 11:18 20.08.2019
3353 Clear 18 1013 82 16093 0.79 150.175 10:56 20.08.2019
3354 Clear 18 1013 82 16093 0.79 150.175 10:37 20.08.2019
3355 Clear 18 1013 82 16093 0.79 150.175 10:18 20.08.2019
3356 Clear 18 1013 82 14484 0.79 150.175 09:41 20.08.2019
3357 Clear 18 1013 82 14484 1.29 213.284 09:22 20.08.2019
3358 Smoke 19 1013 77 16093 1.29 213.284 08:43 20.08.2019
3359 Smoke 19 1013 77 16093 1.29 213.284 08:43 20.08.2019
3360 Smoke 19 1013 77 16093 1.29 213.284 08:24 20.08.2019
3361 Smoke 19 1013 77 16093 1.29 213.284 08:24 20.08.2019
3362 Clear 19 1013 77 16093 1.29 213.284 07:58 20.08.2019
3363 Clear 19 1013 77 16093 1.29 213.284 07:40 20.08.2019
3364 Clear 19 1013 82 16093 3.1 240 07:22 20.08.2019
3365 Clear 20 1012 77 16093 1.29 213.284 06:55 20.08.2019
3366 Clear 20 1013 82 16093 3.1 250 06:22 20.08.2019
3367 Clear 20 1012 73 14484 2.1 0 05:48 20.08.2019
3368 Clear 21 1013 50 16093 2.1 120 04:56 20.08.2019
3369 Clear 24 1012 64 14484 2.6 260 03:28 20.08.2019
3370 Clear 26 1013 61 14484 2.6 260 02:34 20.08.2019
3371 Clear 26 1013 57 14484 4.15 227.522 01:24 20.08.2019
3372 Clear 26 1013 54 12874 4.15 227.522 00:50 20.08.2019
3373 Clear 27 1013 54 12874 4.15 227.522 00:31 20.08.2019
3374 Haze 26 1013 37 16093 2.6 230 23:56 19.08.2019
3375 Haze 27 1014 57 9656 1.5 0 23:37 19.08.2019
3376 Haze 27 1014 60 16093 4.6 250 23:18 19.08.2019
3377 Haze 26 1014 54 9656 4 224.26 22:41 19.08.2019
3378 Haze 26 1014 54 9656 4 224.26 22:21 19.08.2019
3379 Haze 26 1014 54 8047 4 224.26 21:58 19.08.2019
3380 Haze 25 1014 54 8047 3.72 220.141 21:39 19.08.2019
3381 Haze 25 1014 54 8047 2.57 191.41 21:21 19.08.2019
3382 Haze 24 1016 50 16093 2.1 170 20:59 19.08.2019
3383 Haze 24 1015 61 8047 2.57 191.41 20:39 19.08.2019
3384 Haze 24 1015 61 8047 2.57 191.41 20:39 19.08.2019
3385 Haze 23 1015 60 12874 2.57 191.41 20:20 19.08.2019
3386 Haze 23 1017 60 12874 2.1 130 19:58 19.08.2019
3387 Haze 22 1015 64 8047 2.57 191.41 19:39 19.08.2019
3388 Haze 22 1015 68 8047 2.57 191.41 19:19 19.08.2019
3389 Haze 21 1015 73 11265 2.6 190 18:45 19.08.2019
3390 Haze 20 1015 73 8047 1.52 198.113 18:27 19.08.2019
3391 Haze 19 1015 73 8047 1.52 198.113 17:59 19.08.2019
3392 Haze 19 1015 77 8047 1.52 198.113 17:41 19.08.2019
3393 Mist 18 1015 77 11265 1.52 198.113 17:20 19.08.2019
3394 Mist 18 1014 77 16093 1.52 198.113 16:58 19.08.2019
3395 Mist 18 1015 77 11265 1.52 198.113 16:37 19.08.2019
3396 Haze 18 1015 77 11265 1.52 198.113 16:19 19.08.2019
3397 Haze 18 1015 82 11265 1.52 198.113 15:55 19.08.2019
3398 Haze 18 1014 77 9656 1.52 198.113 15:36 19.08.2019
3399 Haze 18 1014 77 9656 1.42 200.669 15:18 19.08.2019
3400 Mist 18 1014 82 12874 1.42 200.669 14:40 19.08.2019
3401 Mist 18 1014 82 12874 1.42 200.669 14:21 19.08.2019
3402 Clouds 17 1014 88 11265 2.1 130 13:57 19.08.2019
3403 Clouds 17 1014 88 11265 2.1 130 13:38 19.08.2019
3404 Clouds 17 1014 88 11265 2.1 130 13:38 19.08.2019
3405 Clouds 17 1014 88 11265 2.1 130 13:19 19.08.2019
3406 Clouds 17 1014 93 16093 2.1 140 12:45 19.08.2019
3407 Clouds 17 1014 72 16093 2.1 250 12:25 19.08.2019
3408 Clouds 17 1013 82 16093 1.19 197.732 11:59 19.08.2019
3409 Clouds 17 1013 88 14484 1.19 197.732 11:39 19.08.2019
3410 Clouds 17 1013 88 14484 1.19 197.732 11:20 19.08.2019
3411 Clouds 17 1013 93 16093 2.1 180 10:55 19.08.2019
3412 Clouds 17 1013 82 14484 1.19 197.732 10:37 19.08.2019
3413 Clear 18 1013 88 14484 1.19 197.732 10:18 19.08.2019
3414 Clear 18 1013 82 11265 1.19 197.732 09:43 19.08.2019
3415 Clear 18 1013 82 11265 1.82 213.594 09:22 19.08.2019
3416 Clear 18 1013 82 14484 1.82 213.594 08:56 19.08.2019
3417 Clear 18 1013 82 14484 1.82 213.594 08:38 19.08.2019
3418 Clear 18 1013 82 14484 1.82 213.594 08:18 19.08.2019
3419 Clear 19 1013 77 14484 1.82 213.594 07:45 19.08.2019
3420 Clear 19 1013 77 14484 1.82 213.594 07:27 19.08.2019
3421 Clear 19 1012 73 16093 1.82 213.594 06:47 19.08.2019
3422 Clear 20 1012 73 16093 2.84 233.049 06:26 19.08.2019
3423 Clear 20 1012 73 16093 2.84 233.049 06:26 19.08.2019
3424 Clear 21 1013 53 16093 2.6 120 04:56 19.08.2019
3425 Clear 21 1011 68 14484 2.6 260 04:26 19.08.2019
3426 Clear 24 1011 64 16093 2.6 270 03:22 19.08.2019
3427 Clear 24 1012 64 16093 2.6 270 02:23 19.08.2019
3428 Clear 25 1012 57 16093 2.6 0 01:31 19.08.2019
3429 Clear 25 1012 57 16093 3.6 260 00:43 19.08.2019
3430 Clear 25 1012 57 16093 3.6 260 00:23 19.08.2019
3431 Clear 25 1013 54 16093 1.5 0 23:42 18.08.2019
3432 Clear 25 1013 54 16093 1.5 0 23:21 18.08.2019
3433 Clear 25 1014 47 16093 3.1 120 22:56 18.08.2019
3434 Clear 25 1014 47 16093 3.1 120 22:56 18.08.2019
3435 Clear 25 1013 54 16093 3.76 215.212 22:38 18.08.2019
3436 Clear 25 1013 54 16093 3.76 215.212 22:20 18.08.2019
3437 Clouds 25 1014 64 16093 4.1 250 21:55 18.08.2019
3438 Clouds 23 1014 53 16093 3.76 215.212 21:37 18.08.2019
3439 Clouds 23 1014 56 16093 1.5 0 21:19 18.08.2019
3440 Clouds 22 1014 64 14484 1.5 0 20:44 18.08.2019
3441 Clouds 22 1014 64 14484 1.5 0 20:25 18.08.2019
3442 Clouds 21 1014 64 16093 2.56 197.103 19:56 18.08.2019
3443 Clouds 21 1014 64 16093 2.56 197.103 19:56 18.08.2019
3444 Clouds 21 1014 68 14484 1.5 0 19:38 18.08.2019
3445 Clouds 21 1014 68 14484 1.5 0 19:19 18.08.2019
3446 Clouds 20 1014 60 16093 2.56 197.103 18:54 18.08.2019
3447 Clouds 20 1014 68 16093 2.1 150 18:36 18.08.2019
3448 Clouds 19 1014 68 16093 2.1 150 18:18 18.08.2019
3449 Clouds 19 1013 72 16093 2.1 160 17:42 18.08.2019
3450 Clouds 19 1013 72 16093 2.1 160 17:19 18.08.2019
3451 Clouds 19 1013 72 16093 1.5 110 16:59 18.08.2019
3452 Clouds 19 1013 68 16093 2.1 130 16:40 18.08.2019
3453 Clouds 19 1013 68 16093 2.1 130 16:20 18.08.2019
3454 Clouds 18 1012 68 16093 2.1 170 15:58 18.08.2019
3455 Clouds 18 1012 68 16093 2.1 170 15:38 18.08.2019
3456 Clouds 18 1012 68 16093 1.22 227.484 15:20 18.08.2019
3457 Clouds 18 1012 68 16093 1.22 227.484 15:20 18.08.2019
3458 Clouds 18 1012 68 16093 1.22 227.484 15:20 18.08.2019
3459 Clouds 18 1012 68 16093 1.22 227.484 14:56 18.08.2019
3460 Clouds 18 1012 68 16093 1.22 227.484 14:37 18.08.2019
3461 Clouds 18 1012 68 16093 1.22 227.484 14:18 18.08.2019
3462 Clouds 18 1012 68 14484 1.22 227.484 13:43 18.08.2019
3463 Mist 19 1012 68 14484 1.22 227.484 13:24 18.08.2019
3464 Mist 19 1012 68 16093 1.5 110 12:59 18.08.2019
3465 Clouds 19 1012 68 12874 1.22 227.484 12:40 18.08.2019
3466 Clouds 19 1012 68 12874 1.33 212.239 12:21 18.08.2019
3467 Clouds 18 1013 93 16093 1.5 300 11:54 18.08.2019
3468 Clouds 18 1012 72 11265 1.33 212.239 11:36 18.08.2019
3469 Clouds 18 1012 72 11265 1.33 212.239 11:18 18.08.2019
3470 Clouds 18 1012 88 16093 2.6 170 10:41 18.08.2019
3471 Clouds 19 1012 77 12874 1.33 212.239 10:19 18.08.2019
3472 Clouds 19 1012 88 16093 1.5 130 09:48 18.08.2019
3473 Clouds 19 1012 77 12874 1.09 210.196 09:21 18.08.2019
3474 Clear 18 1013 88 16093 1.09 210.196 08:54 18.08.2019
3475 Clouds 19 1012 82 16093 1.09 210.196 08:36 18.08.2019
3476 Clouds 19 1012 82 16093 1.09 210.196 08:18 18.08.2019
3477 Clear 19 1013 82 16093 3.1 260 07:43 18.08.2019
3478 Clouds 19 1012 72 16093 2.1 250 07:24 18.08.2019
3479 Clouds 21 1011 68 16093 3.6 310 05:47 18.08.2019
3480 Clouds 22 1011 88 16093 3.1 240 04:52 18.08.2019
3481 Clear 24 1010 64 16093 1.5 0 03:36 18.08.2019
3482 Clear 26 1011 60 16093 3.63 223.949 02:46 18.08.2019
3483 Clear 26 1011 60 16093 3.63 223.949 02:23 18.08.2019
3484 Clear 26 1011 57 16093 1.5 0 01:31 18.08.2019
3485 Clear 25 1012 54 16093 3.47 222.619 00:59 18.08.2019
3486 Clear 25 1012 54 16093 3.47 222.619 00:38 18.08.2019
3487 Clear 25 1012 54 16093 3.73 210.722 00:18 18.08.2019
3488 Clouds 25 1012 60 16093 2.6 280 23:56 17.08.2019
3489 Clouds 25 1012 60 16093 2.6 280 23:37 17.08.2019
3490 Clear 25 1012 53 16093 3.73 210.722 23:18 17.08.2019
3491 Clear 25 1012 47 16093 4.1 270 22:42 17.08.2019
3492 Clear 24 1012 47 16093 4.1 270 22:23 17.08.2019
3493 Clouds 23 1013 60 16093 5.1 240 21:59 17.08.2019
3494 Clear 23 1013 53 16093 3.1 0 21:40 17.08.2019
3495 Clear 23 1013 53 16093 3.1 0 21:40 17.08.2019
3496 Clear 23 1013 53 16093 3.1 0 21:22 17.08.2019
3497 Clouds 22 1013 56 16093 3.6 230 20:41 17.08.2019
3498 Clouds 21 1014 60 16093 1.5 0 20:21 17.08.2019
3499 Clouds 21 1014 60 16093 1.5 0 20:21 17.08.2019
3500 Clouds 21 1013 56 16093 2.6 140 19:59 17.08.2019
3501 Clouds 21 1013 56 14484 2.77 180.867 19:40 17.08.2019
3502 Clouds 21 1014 60 16093 3.1 170 19:21 17.08.2019
3503 Clouds 21 1013 64 14484 2.77 180.867 18:54 17.08.2019
3504 Clouds 20 1013 64 14484 2.77 180.867 18:36 17.08.2019
3505 Clouds 19 1013 64 14484 1.81 176.009 18:18 17.08.2019
3506 Clouds 18 1013 68 14484 1.81 176.009 17:41 17.08.2019
3507 Clouds 18 1013 68 14484 1.81 176.009 17:21 17.08.2019
3508 Clouds 18 1013 68 14484 1.81 176.009 17:21 17.08.2019
3509 Clouds 18 1013 72 16093 2.1 0 16:55 17.08.2019
3510 Clouds 18 1013 72 16093 2.1 0 16:36 17.08.2019
3511 Clouds 18 1013 68 16093 3.1 160 16:18 17.08.2019
3512 Clouds 18 1013 77 12874 1.5 90 15:42 17.08.2019
3513 Clouds 18 1013 72 16093 0.79 178.122 15:21 17.08.2019
3514 Haze 18 1012 72 16093 2.1 170 14:57 17.08.2019
3515 Haze 18 1012 72 16093 2.1 170 14:38 17.08.2019
3516 Haze 18 1012 72 16093 2.1 170 14:19 17.08.2019
3517 Haze 18 1013 68 14484 0.79 178.122 13:43 17.08.2019
3518 Haze 18 1013 68 14484 1.07 215.925 13:19 17.08.2019
3519 Mist 18 1013 72 14484 1.07 215.925 12:43 17.08.2019
3520 Mist 18 1013 72 12874 1.11 195.761 12:20 17.08.2019
3521 Clouds 18 1013 72 11265 1.11 195.761 11:58 17.08.2019
3522 Clouds 18 1013 72 11265 1.11 195.761 11:38 17.08.2019
3523 Clouds 18 1013 77 11265 1.11 195.761 11:20 17.08.2019
3524 Clouds 18 1013 68 16093 3.1 130 10:41 17.08.2019
3525 Clouds 18 1013 72 16093 2.1 100 10:21 17.08.2019
3526 Haze 18 1013 63 16093 1.11 195.761 09:57 17.08.2019
3527 Haze 18 1013 88 14484 3.6 140 09:38 17.08.2019
3528 Haze 18 1014 88 14484 1.5 170 09:20 17.08.2019
3529 Clouds 18 1013 77 11265 0.93 180.921 08:50 17.08.2019
3530 Clouds 18 1013 77 11265 0.93 180.921 08:21 17.08.2019
3531 Clouds 18 1013 82 12874 0.93 180.921 07:42 17.08.2019
3532 Clouds 18 1013 82 12874 0.93 180.921 07:20 17.08.2019
3533 Clouds 19 1013 77 12874 1.5 0 06:25 17.08.2019
3534 Clear 20 1011 68 14484 2.6 270 04:48 17.08.2019
3535 Clear 21 1011 68 14484 2.6 270 04:21 17.08.2019
3536 Clear 25 1011 60 16093 2.6 260 02:43 17.08.2019
3537 Clear 26 1012 54 14484 2.98 219.584 01:40 17.08.2019
3538 Clear 26 1012 54 14484 3.24 217.471 01:20 17.08.2019
3539 Clear 27 1012 54 14484 1.5 250 00:47 17.08.2019
3540 Clear 27 1012 54 14484 1.5 250 00:24 17.08.2019
3541 Haze 27 1013 57 9656 1.5 0 23:46 16.08.2019
3542 Haze 27 1013 57 9656 1.5 0 23:25 16.08.2019
3543 Haze 26 1013 54 9656 1.5 0 22:44 16.08.2019
3544 Haze 26 1013 54 9656 1.5 0 22:20 16.08.2019
3545 Haze 26 1014 64 12874 5.1 230 21:59 16.08.2019
3546 Haze 26 1014 51 9656 2.6 0 21:39 16.08.2019
3547 Haze 26 1014 51 9656 2.6 0 21:19 16.08.2019
3548 Haze 25 1014 57 8047 2.26 184.068 20:43 16.08.2019
3549 Haze 25 1014 57 8047 2.26 184.068 20:22 16.08.2019
3550 Haze 23 1014 64 6437 2.26 184.068 19:59 16.08.2019
3551 Haze 23 1014 64 6437 2.26 184.068 19:39 16.08.2019
3552 Haze 22 1014 64 6437 2.26 184.068 19:20 16.08.2019
3553 Haze 21 1015 64 14484 1.5 40 18:42 16.08.2019
3554 Haze 21 1015 64 14484 1.5 40 18:42 16.08.2019
3555 Haze 20 1015 68 11265 0.91 145.822 18:23 16.08.2019
3556 Haze 19 1015 77 4828 0.91 145.822 17:49 16.08.2019
3557 Haze 18 1014 82 4828 1.5 100 17:31 16.08.2019
3558 Haze 18 1015 77 6437 2.6 80 16:59 16.08.2019
3559 Haze 18 1015 88 8047 0.91 145.822 16:41 16.08.2019
3560 Mist 17 1014 77 6437 2.1 0 16:21 16.08.2019
3561 Mist 17 1014 77 8047 2.1 180 15:57 16.08.2019
3562 Mist 17 1014 88 6437 2.6 150 15:38 16.08.2019
3563 Mist 17 1014 88 6437 2.6 150 15:20 16.08.2019
3564 Mist 17 1014 77 16093 2.6 0 14:57 16.08.2019
3565 Mist 17 1013 88 6437 0.97 182.771 14:38 16.08.2019
3566 Mist 17 1013 88 6437 0.97 182.771 14:18 16.08.2019
3567 Mist 17 1013 88 11265 2.6 110 13:41 16.08.2019
3568 Mist 17 1013 88 6437 0.86 148.454 13:22 16.08.2019
3569 Mist 17 1013 88 6437 0.86 148.454 13:22 16.08.2019
3570 Mist 17 1013 82 8047 0.86 148.454 12:56 16.08.2019
3571 Mist 17 1013 93 6437 0.86 148.454 12:37 16.08.2019
3572 Mist 17 1013 93 6437 1.12 168.188 12:19 16.08.2019
3573 Mist 17 1013 88 8047 1.5 150 11:42 16.08.2019
3574 Mist 17 1013 88 8047 1.5 150 11:41 16.08.2019
3575 Mist 17 1013 88 6437 1.12 168.188 11:23 16.08.2019
3576 Mist 18 1013 88 8047 1.12 168.188 10:43 16.08.2019
3577 Mist 17 1013 88 8047 1.12 168.188 10:25 16.08.2019
3578 Haze 18 1013 100 11265 1.5 200 09:56 16.08.2019
3579 Haze 18 1013 100 11265 1.5 200 09:37 16.08.2019
3580 Haze 18 1013 100 11265 1.5 200 09:37 16.08.2019
3581 Haze 18 1013 100 11265 1.5 200 09:18 16.08.2019
3582 Mist 18 1013 88 11265 1.63 177.124 08:41 16.08.2019
3583 Mist 18 1013 88 11265 1.63 177.124 08:21 16.08.2019
3584 Clouds 18 1013 100 12874 2.1 170 07:54 16.08.2019
3585 Clear 18 1013 82 11265 1.63 177.124 07:33 16.08.2019
3586 Clear 19 1012 82 12874 2.1 260 06:57 16.08.2019
3587 Clear 20 1012 82 12874 2.1 260 06:31 16.08.2019
3588 Clear 22 1012 73 12874 1.5 0 05:42 16.08.2019
3589 Clouds 23 1012 88 16093 3.1 230 04:31 16.08.2019
3590 Clear 28 1012 54 14484 2.1 250 02:46 16.08.2019
3591 Clear 29 1012 47 14484 3.88 222.235 01:42 16.08.2019
3592 Clear 29 1012 47 14484 3.95 225.4 01:19 16.08.2019
3593 Clear 29 1013 47 16093 2.6 270 00:41 16.08.2019
3594 Clear 30 1013 47 16093 2.6 270 00:21 16.08.2019
3595 Clear 29 1013 47 16093 1.5 0 23:45 15.08.2019
3596 Clear 29 1013 47 16093 1.5 0 23:22 15.08.2019
3597 Haze 29 1014 60 16093 5.1 240 22:58 15.08.2019
3598 Haze 29 1014 57 16093 4.1 270 22:39 15.08.2019
3599 Haze 29 1014 57 16093 4.1 270 22:21 15.08.2019
3600 Haze 29 1014 64 14484 5.7 270 21:56 15.08.2019
3601 Haze 28 1014 48 9656 2.1 260 21:38 15.08.2019
3602 Haze 28 1014 48 9656 2.1 260 21:18 15.08.2019
3603 Haze 26 1015 54 6437 2.73 210.924 20:43 15.08.2019
3604 Haze 26 1015 54 6437 2.73 210.924 20:22 15.08.2019
3605 Haze 24 1015 68 11265 4.6 260 19:58 15.08.2019
3606 Haze 24 1015 64 6437 2.73 210.924 19:39 15.08.2019
3607 Haze 23 1015 64 6437 2.73 210.924 19:21 15.08.2019
3608 Haze 23 1015 64 6437 2.73 210.924 19:21 15.08.2019
3609 Haze 20 1015 77 4828 2.73 210.924 18:47 15.08.2019
3610 Haze 20 1015 77 4828 1.64 216.068 18:23 15.08.2019
3611 Mist 18 1015 88 6437 1.5 240 17:58 15.08.2019
3612 Mist 18 1015 88 4023 1.64 216.068 17:38 15.08.2019
3613 Mist 18 1015 88 4023 1.64 216.068 17:19 15.08.2019
3614 Mist 17 1015 77 4023 1.64 216.068 16:57 15.08.2019
3615 Mist 17 1015 93 3219 1.64 216.068 16:38 15.08.2019
3616 Mist 17 1015 93 3219 1.64 216.068 16:20 15.08.2019
3617 Haze 17 1015 82 4023 1.64 216.068 15:39 15.08.2019
3618 Mist 16 1014 88 4828 0.92 191.677 15:20 15.08.2019
3619 Rain 16 1015 93 4023 2.1 240 14:57 15.08.2019
3620 Rain 17 1015 93 4023 2.1 240 14:38 15.08.2019
3621 Rain 17 1015 82 6437 0.92 191.677 14:19 15.08.2019
3622 Mist 17 1014 88 4828 0.92 191.677 13:56 15.08.2019
3623 Mist 17 1014 88 6437 0.92 191.677 13:38 15.08.2019
3624 Mist 17 1014 88 6437 0.61 197.873 13:19 15.08.2019
3625 Mist 17 1014 88 4828 0.61 197.873 12:40 15.08.2019
3626 Mist 17 1015 93 11265 1.5 130 12:21 15.08.2019
3627 Mist 17 1015 93 402 2.6 270 11:59 15.08.2019
3628 Mist 17 1015 88 8047 1.24 219.159 11:39 15.08.2019
3629 Mist 17 1015 88 8047 1.24 219.159 11:20 15.08.2019
3630 Mist 17 1015 93 402 2.1 260 10:59 15.08.2019
3631 Mist 17 1015 88 9656 1.5 270 10:37 15.08.2019
3632 Mist 18 1015 88 9656 1.5 270 10:19 15.08.2019
3633 Mist 18 1015 88 11265 1.24 219.159 09:44 15.08.2019
3634 Mist 18 1015 88 11265 1.39 170.375 09:23 15.08.2019
3635 Haze 18 1015 88 11265 1.5 290 08:55 15.08.2019
3636 Haze 18 1015 88 11265 1.5 290 08:36 15.08.2019
3637 Haze 19 1015 88 8047 1.39 170.375 08:18 15.08.2019
3638 Mist 19 1015 88 8047 1.39 170.375 07:41 15.08.2019
3639 Mist 19 1014 88 8047 2.1 270 07:21 15.08.2019
3640 Haze 20 1014 82 9656 2.6 260 06:53 15.08.2019
3641 Haze 22 1014 82 9656 1.5 260 06:32 15.08.2019
3642 Clouds 23 1014 82 16093 2.6 290 05:39 15.08.2019
3643 Clouds 24 1014 82 16093 2.6 290 05:21 15.08.2019
3644 Clouds 24 1014 82 16093 4.6 250 04:30 15.08.2019
3645 Clear 29 1013 51 16093 2.1 260 03:30 15.08.2019
3646 Clear 30 1013 48 16093 3.1 270 02:35 15.08.2019
3647 Clear 31 1013 51 16093 1.5 250 01:49 15.08.2019
3648 Clear 32 1013 51 16093 1.5 250 01:27 15.08.2019
3649 Fog 31 1014 51 14484 2.1 280 00:39 15.08.2019
3650 Fog 31 1014 51 14484 2.1 280 00:20 15.08.2019
3651 Fog 31 1014 68 16093 7.2 270 23:57 14.08.2019
3652 Fog 30 1014 51 14484 3.63 228.151 23:37 14.08.2019
3653 Fog 30 1014 51 14484 3.63 228.151 23:19 14.08.2019
3654 Haze 30 1015 68 14484 5.7 260 22:56 14.08.2019
3655 Haze 30 1015 51 12874 3.63 228.151 22:38 14.08.2019
3656 Haze 30 1015 51 12874 3.63 228.151 22:19 14.08.2019
3657 Haze 29 1015 73 16093 6.2 270 21:55 14.08.2019
3658 Haze 29 1015 54 11265 3.61 229.635 21:36 14.08.2019
3659 Haze 29 1015 54 11265 2.8 219.295 21:18 14.08.2019
3660 Haze 27 1015 54 8047 1.5 0 20:41 14.08.2019
3661 Haze 27 1015 54 8047 1.5 0 20:21 14.08.2019
3662 Haze 26 1017 25 16093 2.8 219.295 19:56 14.08.2019
3663 Haze 23 1015 64 6437 2.8 219.295 19:37 14.08.2019
3664 Haze 21 1016 88 6437 3.1 270 19:19 14.08.2019
3665 Haze 20 1015 60 8047 1.5 270 18:56 14.08.2019
3666 Haze 20 1015 77 4828 2.8 219.295 18:38 14.08.2019
3667 Haze 20 1015 77 4828 1.78 232.043 18:19 14.08.2019
3668 Haze 19 1015 77 4828 1.78 232.043 17:56 14.08.2019
3669 Haze 19 1015 77 4828 1.78 232.043 17:36 14.08.2019
3670 Mist 18 1015 88 3219 1.78 232.043 17:18 14.08.2019
3671 Mist 17 1015 88 2012 1.78 232.043 16:42 14.08.2019
3672 Mist 18 1015 82 3219 1.78 232.043 16:20 14.08.2019
3673 Mist 17 1015 93 1609 1.78 232.043 15:55 14.08.2019
3674 Mist 17 1015 88 4828 1.5 280 15:36 14.08.2019
3675 Mist 17 1015 93 4023 1.05 255.832 15:18 14.08.2019
3676 Mist 18 1015 100 1609 1.5 250 14:40 14.08.2019
3677 Mist 18 1014 88 4828 1.05 255.832 14:19 14.08.2019
3678 Mist 18 1015 93 8047 1.05 255.832 13:56 14.08.2019
3679 Mist 18 1015 93 8047 1.05 255.832 13:56 14.08.2019
3680 Mist 18 1015 88 4828 1.05 255.832 13:38 14.08.2019
3681 Mist 18 1015 93 4023 1.18 243.021 13:20 14.08.2019
3682 Mist 19 1015 88 4023 1.18 243.021 12:56 14.08.2019
3683 Mist 19 1015 88 3219 1.5 330 12:37 14.08.2019
3684 Mist 19 1015 88 4828 0.54 238.062 12:19 14.08.2019
3685 Mist 19 1015 40 16093 0.54 238.062 11:45 14.08.2019
3686 Mist 19 1015 88 4828 0.54 238.062 11:23 14.08.2019
3687 Mist 19 1015 82 16093 1.5 250 10:58 14.08.2019
3688 Mist 19 1015 88 2012 0.54 238.062 10:38 14.08.2019
3689 Mist 19 1015 88 2012 0.54 238.062 10:38 14.08.2019
3690 Mist 19 1015 88 2012 0.54 238.062 10:38 14.08.2019
3691 Mist 19 1015 88 6437 1.5 290 10:20 14.08.2019
3692 Mist 20 1016 38 16093 0.54 238.062 09:44 14.08.2019
3693 Mist 20 1015 88 8047 1.03 192.45 09:21 14.08.2019
3694 Mist 20 1015 88 8047 1.23 192.524 09:21 14.08.2019
3695 Haze 20 1015 100 1609 1.5 280 08:47 14.08.2019
3696 Haze 20 1015 100 1609 1.5 280 08:29 14.08.2019
3697 Haze 21 1015 77 16093 1.03 192.45 07:57 14.08.2019
3698 Haze 21 1015 100 805 2.1 270 07:39 14.08.2019
3699 Haze 21 1014 82 9656 1.03 192.45 07:20 14.08.2019
3700 Clear 22 1014 77 11265 1.03 192.45 06:43 14.08.2019
3701 Clear 24 1015 39 16093 4.1 270 05:47 14.08.2019
3702 Clear 24 1013 64 14484 1.5 260 04:45 14.08.2019
3703 Clear 27 1013 57 14484 4.1 270 02:52 14.08.2019
3704 Clear 27 1013 57 14484 4.1 270 02:25 14.08.2019
3705 Clear 28 1013 51 14484 2.6 270 01:34 14.08.2019
3706 Haze 28 1014 60 1609 4.1 280 00:51 14.08.2019
3707 Haze 28 1014 54 9656 3.44 222.546 23:47 13.08.2019
3708 Haze 28 1014 54 9656 3.44 222.546 23:23 13.08.2019
3709 Haze 28 1015 77 12874 4.6 260 22:57 13.08.2019
3710 Haze 28 1015 54 9656 3.44 222.546 22:39 13.08.2019
3711 Haze 28 1015 54 9656 3.44 222.546 22:39 13.08.2019
3712 Haze 28 1015 54 9656 3.44 222.546 22:20 13.08.2019
3713 Haze 27 1015 73 9656 8.2 270 21:57 13.08.2019
3714 Haze 26 1015 54 8047 2.1 270 21:37 13.08.2019
3715 Haze 27 1015 54 8047 2.1 270 21:18 13.08.2019
3716 Haze 26 1015 54 6437 2.7 202.23 20:45 13.08.2019
3717 Haze 26 1015 54 6437 2.7 202.23 20:20 13.08.2019
3718 Haze 25 1016 77 8047 4.1 270 19:59 13.08.2019
3719 Haze 23 1015 61 4828 2.7 202.23 19:40 13.08.2019
3720 Haze 24 1015 61 4828 2.7 202.23 19:21 13.08.2019
3721 Haze 21 1015 68 8047 2.7 202.23 18:42 13.08.2019
3722 Haze 22 1015 68 8047 1.24 215.877 18:23 13.08.2019
3723 Haze 20 1017 56 16093 1.24 215.877 17:58 13.08.2019
3724 Haze 19 1015 73 4828 1.24 215.877 17:40 13.08.2019
3725 Haze 19 1015 93 4023 1.24 215.877 17:21 13.08.2019
3726 Haze 18 1015 88 4828 1.24 215.877 16:56 13.08.2019
3727 Haze 18 1015 93 805 1.24 215.877 16:38 13.08.2019
3728 Haze 18 1015 93 805 1.24 215.877 16:19 13.08.2019
3729 Haze 18 1014 82 6437 1.24 215.877 15:40 13.08.2019
3730 Haze 17 1014 82 6437 0.84 236.555 15:21 13.08.2019
3731 Haze 17 1014 82 9656 2.1 250 14:59 13.08.2019
3732 Haze 17 1014 93 6437 1.5 70 14:40 13.08.2019
3733 Haze 18 1014 82 6437 0.84 236.555 14:19 13.08.2019
3734 Haze 18 1014 93 4023 0.84 236.555 13:55 13.08.2019
3735 Haze 18 1014 82 6437 0.84 236.555 13:37 13.08.2019
3736 Haze 18 1014 82 6437 0.3 190.893 13:18 13.08.2019
3737 Haze 18 1014 82 6437 0.3 190.893 12:41 13.08.2019
3738 Haze 18 1014 82 6437 1.28 177.988 12:22 13.08.2019
3739 Haze 18 1014 100 3219 2.1 270 11:59 13.08.2019
3740 Haze 18 1014 93 12874 1.28 177.988 11:40 13.08.2019
3741 Haze 18 1014 93 12874 1.28 177.988 11:21 13.08.2019
3742 Haze 18 1014 93 12874 1.28 177.988 11:21 13.08.2019
3743 Haze 18 1014 82 14484 2.1 180 10:57 13.08.2019
3744 Haze 18 1015 82 8047 1.28 177.988 10:37 13.08.2019
3745 Haze 18 1015 82 8047 1.28 177.988 10:19 13.08.2019
3746 Haze 18 1015 88 9656 1.28 177.988 09:44 13.08.2019
3747 Haze 18 1015 88 9656 1.21 184.646 09:24 13.08.2019
3748 Haze 18 1015 88 9656 1.21 184.646 08:57 13.08.2019
3749 Haze 18 1015 88 9656 1.21 184.646 08:39 13.08.2019
3750 Haze 19 1015 88 9656 1.21 184.646 08:19 13.08.2019
3751 Haze 19 1014 82 9656 1.21 184.646 07:40 13.08.2019
3752 Haze 19 1014 82 9656 1.21 184.646 07:20 13.08.2019
3753 Clouds 19 1014 77 12874 1.21 184.646 06:43 13.08.2019
3754 Clouds 21 1014 77 16093 3.1 230 05:47 13.08.2019
3755 Clear 22 1013 69 12874 1.5 270 04:24 13.08.2019
3756 Clear 26 1013 57 12874 3.1 290 02:22 13.08.2019
3757 Clear 26 1013 57 14484 1.5 0 01:29 13.08.2019
3758 Clear 26 1014 57 12874 3.1 0 00:49 13.08.2019
3759 Clear 27 1014 57 12874 3.1 0 00:22 13.08.2019
3760 Clear 27 1014 57 12874 3.87 217.323 23:43 12.08.2019
3761 Clear 27 1014 57 12874 3.87 217.323 23:21 12.08.2019
3762 Clear 27 1015 51 11265 3.87 217.323 22:54 12.08.2019
3763 Haze 26 1015 51 11265 3.87 217.323 22:36 12.08.2019
3764 Haze 27 1015 51 11265 3.87 217.323 22:18 12.08.2019
3765 Haze 27 1015 54 9656 3.87 217.323 21:54 12.08.2019
3766 Haze 27 1015 54 9656 3.87 217.323 21:36 12.08.2019
3767 Haze 26 1015 54 9656 2.78 180.845 21:18 12.08.2019
3768 Haze 25 1016 64 12874 1.5 150 20:41 12.08.2019
3769 Haze 25 1016 64 12874 1.5 150 20:21 12.08.2019
3770 Haze 24 1017 53 16093 2.1 110 19:58 12.08.2019
3771 Haze 23 1016 68 11265 2.78 180.845 19:39 12.08.2019
3772 Haze 22 1016 69 8047 1.5 0 19:21 12.08.2019
3773 Haze 21 1016 68 14484 1.5 0 18:59 12.08.2019
3774 Haze 20 1016 82 11265 1.5 40 18:39 12.08.2019
3775 Haze 20 1016 77 6437 1.37 143.868 18:21 12.08.2019
3776 Haze 19 1016 88 6437 1.37 143.868 17:56 12.08.2019
3777 Haze 19 1016 88 6437 1.37 143.868 17:38 12.08.2019
3778 Haze 19 1016 82 6437 1.37 143.868 17:20 12.08.2019
3779 Haze 18 1015 82 4828 1.5 0 16:55 12.08.2019
3780 -273 0 0 0 0 0 16:36 12.08.2019
3781 Haze 18 1015 82 4828 1.5 0 16:18 12.08.2019
3782 -273 0 0 0 0 0 15:42 12.08.2019
3783 Mist 18 1015 82 4828 2.1 180 15:42 12.08.2019
3784 Mist 17 1015 82 4828 2.1 180 15:23 12.08.2019
3785 Haze 17 1015 93 4828 2.1 150 14:59 12.08.2019
3786 -273 0 0 0 0 0 14:41 12.08.2019
3787 Haze 17 1015 82 8047 1.38 165.17 14:23 12.08.2019
3788 Mist 17 1015 82 8047 2.1 80 13:58 12.08.2019
3789 Mist 17 1015 82 8047 2.1 80 13:58 12.08.2019
3790 Mist 17 1014 88 9656 1.38 165.17 13:40 12.08.2019
3791 Mist 17 1015 82 14484 1.5 0 13:21 12.08.2019
3792 Mist 17 1014 93 16093 1.5 160 12:43 12.08.2019
3793 Mist 17 1014 93 16093 1.5 160 12:43 12.08.2019
3794 Mist 17 1014 93 16093 1.5 160 12:21 12.08.2019
3795 Mist 17 1014 93 4828 1.28 177.713 11:47 12.08.2019
3796 Mist 17 1014 93 4828 1.28 177.713 11:29 12.08.2019
3797 Haze 17 1014 93 16093 1.28 177.713 10:59 12.08.2019
3798 Haze 18 1014 93 6437 2.1 130 10:40 12.08.2019
3799 Haze 18 1014 82 9656 1.28 177.713 10:22 12.08.2019
3800 Haze 18 1014 82 9656 1.28 177.713 10:22 12.08.2019
3801 Haze 18 1014 82 4426 1.5 190 09:56 12.08.2019
3802 Clear 18 1014 82 11265 1.28 177.713 09:37 12.08.2019
3803 Clear 18 1014 82 11265 1.72 165.826 09:18 12.08.2019
3804 Clear 18 1014 82 12874 1.72 165.826 08:42 12.08.2019
3805 Clear 18 1014 82 12874 1.72 165.826 08:24 12.08.2019
3806 Clouds 19 1015 93 16093 3.1 250 07:57 12.08.2019
3807 Clouds 19 1015 93 16093 3.1 250 07:39 12.08.2019
3808 Clear 19 1014 82 14484 1.72 165.826 07:19 12.08.2019
3809 Clouds 19 1014 82 16093 3.1 240 06:42 12.08.2019
3810 Clouds 22 1014 73 16093 3.1 280 04:40 12.08.2019
3811 Clouds 25 1014 77 16093 5.7 250 02:43 12.08.2019
3812 Clear 25 1013 57 14484 1.5 0 01:49 12.08.2019
3813 Clear 26 1013 57 14484 1.5 0 01:20 12.08.2019
3814 Clouds 26 1014 73 16093 7.2 240 00:56 12.08.2019
3815 Clear 26 1014 61 14484 1.5 260 00:38 12.08.2019
3816 Clear 26 1014 61 14484 1.5 260 00:18 12.08.2019
3817 Clear 27 1014 57 14484 2.6 260 23:41 11.08.2019
3818 Clear 27 1014 57 14484 2.6 260 23:20 11.08.2019
3819 Clear 27 1015 39 16093 4.1 70 22:58 11.08.2019
3820 Clear 27 1014 54 12874 3.92 216.431 22:39 11.08.2019
3821 Clear 26 1014 54 12874 3.92 216.431 22:19 11.08.2019
3822 Clear 26 1015 51 12874 1.5 0 21:58 11.08.2019
3823 Clear 26 1015 51 12874 1.5 0 21:39 11.08.2019
3824 Clear 26 1015 51 12874 1.5 0 21:20 11.08.2019
3825 Clear 25 1017 50 16093 2.6 80 20:56 11.08.2019
3826 Clear 25 1015 57 12874 3.13 179.139 20:38 11.08.2019
3827 Clear 25 1015 57 12874 3.13 179.139 20:19 11.08.2019
3828 Clouds 24 1016 64 16093 3.6 170 19:42 11.08.2019
3829 Clear 23 1015 64 11265 3.13 179.139 19:18 11.08.2019
3830 Clear 23 1015 64 11265 3.13 179.139 19:18 11.08.2019
3831 Haze 21 1016 77 9656 1.5 0 18:41 11.08.2019
3832 Haze 21 1016 77 9656 1.5 0 18:21 11.08.2019
3833 Haze 20 1016 93 16093 3.1 100 17:58 11.08.2019
3834 Haze 20 1015 82 9656 1.88 145.166 17:39 11.08.2019
3835 Haze 19 1015 82 9656 1.88 145.166 17:20 11.08.2019
3836 Haze 19 1016 93 16093 2.6 110 16:56 11.08.2019
3837 Haze 18 1015 88 9656 1.88 145.166 16:38 11.08.2019
3838 Haze 18 1015 88 9656 1.88 145.166 16:18 11.08.2019
3839 Clouds 18 1015 88 12874 1.5 0 15:43 11.08.2019
3840 Clouds 17 1014 82 14484 1.9 121.445 15:24 11.08.2019
3841 Clouds 17 1015 93 16093 3.1 110 14:59 11.08.2019
3842 Clouds 17 1014 82 16093 2.1 90 14:39 11.08.2019
3843 Clouds 17 1014 88 11265 1.9 121.445 14:20 11.08.2019
3844 Clouds 17 1014 82 16093 2.1 160 13:44 11.08.2019
3845 Clear 17 1014 88 12874 2.24 127.662 13:25 11.08.2019
3846 Clear 17 1014 88 12874 2.24 127.662 13:25 11.08.2019
3847 Clouds 18 1014 93 16093 2.24 127.662 12:56 11.08.2019
3848 Clear 18 1014 88 12874 2.24 127.662 12:37 11.08.2019
3849 Clear 18 1014 88 12874 1.13 111.426 12:18 11.08.2019
3850 Clear 18 1014 88 12874 1.13 111.426 11:39 11.08.2019
3851 Clear 18 1014 88 12874 1.13 111.426 11:21 11.08.2019
3852 Clouds 18 1014 93 16093 1.13 111.426 10:55 11.08.2019
3853 Clouds 18 1014 93 16093 1.13 111.426 10:37 11.08.2019
3854 Clouds 18 1014 93 16093 1.13 111.426 10:18 11.08.2019
3855 Clouds 18 1014 93 16093 2.6 0 09:42 11.08.2019
3856 Clear 19 1014 82 14484 1.31 191.823 09:23 11.08.2019
3857 Clouds 19 1014 93 16093 1.27 165.461 08:49 11.08.2019
3858 Clear 19 1014 77 14484 1.27 165.461 08:30 11.08.2019
3859 Clouds 19 1014 93 16093 4.1 250 07:59 11.08.2019
3860 Clear 20 1014 73 14484 1.5 280 07:31 11.08.2019
3861 Clear 20 1013 73 14484 1.5 270 06:46 11.08.2019
3862 Clear 20 1013 73 14484 1.5 270 06:28 11.08.2019
3863 Clear 22 1012 64 14484 4.04 232.149 04:44 11.08.2019
3864 Clear 25 1013 54 12874 3.1 260 02:50 11.08.2019
3865 Clouds 25 1013 73 16093 5.7 260 01:57 11.08.2019
3866 Clear 26 1013 64 16093 4.6 260 01:31 11.08.2019
3867 Clear 26 1013 57 12874 4.08 215.727 00:56 11.08.2019
3868 Clear 26 1013 57 12874 4.08 215.727 00:35 11.08.2019
3869 Clouds 26 1014 68 16093 6.2 260 23:55 10.08.2019
3870 Clear 26 1013 57 12874 1.5 250 23:34 10.08.2019
3871 Clouds 26 1014 68 16093 6.2 240 22:57 10.08.2019
3872 Clear 26 1013 54 12874 1.5 240 22:38 10.08.2019
3873 Clear 26 1013 54 12874 1.5 240 22:19 10.08.2019
3874 Clear 25 1013 54 11265 3.99 225.844 21:40 10.08.2019
3875 Clear 25 1013 54 11265 3 196.836 21:21 10.08.2019
3876 Haze 25 1014 68 16093 5.1 240 20:59 10.08.2019
3877 Haze 25 1014 68 16093 5.1 240 20:59 10.08.2019
3878 Haze 25 1014 54 11265 3 196.836 20:40 10.08.2019
3879 Haze 24 1014 54 11265 3 196.836 20:20 10.08.2019
3880 Haze 24 1015 44 16093 3 196.836 19:56 10.08.2019
3881 Haze 24 1014 64 9656 3 196.836 19:37 10.08.2019
3882 Haze 23 1014 64 9656 3 196.836 19:18 10.08.2019
3883 Haze 22 1014 64 9656 1.5 260 18:39 10.08.2019
3884 Haze 21 1014 64 9656 0.99 176.348 18:20 10.08.2019
3885 Haze 20 1014 68 9656 0.99 176.348 17:41 10.08.2019
3886 Haze 19 1014 68 9656 0.99 176.348 17:23 10.08.2019
3887 Clear 18 1014 82 11265 2.1 190 16:45 10.08.2019
3888 Clear 17 1013 77 11265 0.99 176.348 16:26 10.08.2019
3889 Clouds 17 1013 82 16093 0.99 176.348 15:53 10.08.2019
3890 Clouds 16 1013 88 16093 0.79 134.743 15:24 10.08.2019
3891 Clear 16 1012 77 12874 0.79 134.743 14:45 10.08.2019
3892 Clear 16 1012 77 12874 0.79 134.743 14:21 10.08.2019
3893 Clear 16 1012 77 12874 0.79 134.743 13:42 10.08.2019
3894 Clear 16 1012 77 12874 0.79 134.743 13:42 10.08.2019
3895 Clear 16 1012 77 12874 0.92 138.073 13:21 10.08.2019
3896 Clouds 16 1012 87 16093 0.92 138.073 12:58 10.08.2019
3897 Clouds 17 1013 82 16093 0.92 138.073 12:39 10.08.2019
3898 Clouds 17 1013 82 16093 0.81 133.008 12:21 10.08.2019
3899 Clear 17 1013 77 12874 0.81 133.008 11:42 10.08.2019
3900 Clear 17 1013 77 12874 0.81 133.008 11:23 10.08.2019
3901 Clear 17 1013 72 16093 0.81 133.008 10:59 10.08.2019
3902 Clear 18 1013 72 16093 0.81 133.008 10:38 10.08.2019
3903 Clear 18 1013 72 16093 0.81 133.008 10:19 10.08.2019
3904 Clear 18 1013 72 14484 0.81 133.008 09:43 10.08.2019
3905 Clear 18 1013 72 14484 1.36 168.822 09:24 10.08.2019
3906 Clear 18 1013 72 14484 1.44 168.246 08:56 10.08.2019
3907 Clear 18 1013 72 14484 1.44 168.246 08:38 10.08.2019
3908 Clear 19 1013 72 14484 1.44 168.246 08:18 10.08.2019
3909 Clear 19 1013 72 14484 1.44 168.246 07:46 10.08.2019
3910 Clear 19 1013 72 14484 1.44 168.246 07:25 10.08.2019
3911 Clear 20 1012 68 14484 1.5 0 06:47 10.08.2019
3912 Clear 20 1012 68 14484 1.5 0 06:18 10.08.2019
3913 Clear 21 1012 60 11265 1.5 260 05:21 10.08.2019
3914 Clear 24 1013 32 16093 3.6 130 03:55 10.08.2019
3915 Clouds 25 1012 73 16093 8.7 270 02:51 10.08.2019
3916 Clear 26 1012 51 11265 3.51 222.635 01:57 10.08.2019
3917 Clear 26 1012 51 11265 3.56 227.744 01:37 10.08.2019
3918 Clear 27 1012 51 11265 3.56 227.744 01:19 10.08.2019
3919 Haze 27 1012 48 9656 3.56 227.744 00:43 10.08.2019
3920 Haze 28 1012 48 9656 3.5 222.16 00:20 10.08.2019
3921 Haze 27 1013 54 9656 2.1 250 23:41 09.08.2019
3922 Haze 27 1013 54 9656 2.1 250 23:22 09.08.2019
3923 Haze 27 1013 68 14484 5.1 270 22:56 09.08.2019
3924 Haze 27 1013 57 16093 3.6 270 22:37 09.08.2019
3925 Haze 27 1013 48 9656 1.5 0 22:19 09.08.2019
3926 Haze 26 1013 48 9656 3.5 222.16 21:41 09.08.2019
3927 Haze 26 1013 48 9656 2.77 167.565 21:22 09.08.2019
3928 Haze 25 1014 73 11265 4.1 250 20:58 09.08.2019
3929 Haze 25 1014 64 16093 2.44 176.481 20:39 09.08.2019
3930 Haze 24 1014 61 8047 1.5 0 20:20 09.08.2019
3931 Haze 24 1015 44 16093 2.6 110 19:56 09.08.2019
3932 Haze 23 1014 69 6437 2.44 176.481 19:37 09.08.2019
3933 Haze 22 1014 69 6437 2.44 176.481 19:18 09.08.2019
3934 Haze 21 1014 88 6437 2.6 130 18:39 09.08.2019
3935 Haze 20 1014 73 6437 1.5 0 18:21 09.08.2019
3936 Haze 19 1013 73 6437 1.97 144.141 17:46 09.08.2019
3937 Haze 19 1014 93 6437 1.5 110 17:26 09.08.2019
3938 Haze 18 1015 60 16093 1.97 144.141 16:59 09.08.2019
3939 Haze 18 1013 82 4828 1.97 144.141 16:40 09.08.2019
3940 Haze 18 1013 82 4828 1.97 144.141 16:21 09.08.2019
3941 Haze 17 1013 88 8047 1.97 144.141 15:56 09.08.2019
3942 Haze 17 1013 88 9656 1.5 140 15:37 09.08.2019
3943 Haze 17 1012 88 9656 0.18 65.002 15:19 09.08.2019
3944 Haze 17 1012 72 11265 0.18 65.002 14:44 09.08.2019
3945 Haze 17 1012 72 11265 0.18 65.002 14:23 09.08.2019
3946 Clouds 17 1012 87 16093 1.5 110 13:59 09.08.2019
3947 Clouds 17 1012 82 12874 1.5 160 13:40 09.08.2019
3948 Clear 17 1012 77 12874 0.81 80.167 13:20 09.08.2019
3949 Haze 17 1012 77 3219 0.81 80.167 12:46 09.08.2019
3950 Clouds 17 1012 88 11265 1.68 163.961 12:24 09.08.2019
3951 Clouds 17 1012 82 16093 1.68 163.961 11:58 09.08.2019
3952 Clear 17 1012 77 12874 1.68 163.961 11:37 09.08.2019
3953 Clear 17 1012 77 12874 1.68 163.961 11:18 09.08.2019
3954 Clear 18 1013 72 16093 1.68 163.961 10:40 09.08.2019
3955 Clear 18 1013 72 16093 1.68 163.961 10:21 09.08.2019
3956 Clouds 18 1013 82 16093 1.68 163.961 09:46 09.08.2019
3957 Clouds 18 1013 82 16093 1.5 160 09:20 09.08.2019
3958 Clouds 19 1013 93 16093 2.1 100 08:58 09.08.2019
3959 Clear 19 1013 68 12874 1.79 140.975 08:40 09.08.2019
3960 Clear 19 1013 68 12874 1.79 140.975 08:20 09.08.2019
3961 Clear 19 1013 77 12874 1.79 140.975 07:53 09.08.2019
3962 Clear 19 1013 77 12874 1.79 140.975 07:24 09.08.2019
3963 Clouds 19 1013 93 16093 2.1 260 06:56 09.08.2019
3964 Clear 19 1012 72 12874 1.79 140.975 06:36 09.08.2019
3965 Haze 21 1012 88 16093 2.6 230 05:58 09.08.2019
3966 Haze 22 1011 73 9656 3.05 226.168 04:37 09.08.2019
3967 Haze 27 1012 60 11265 3.6 270 02:23 09.08.2019
3968 Haze 28 1012 45 16093 3.6 320 00:58 09.08.2019
3969 Haze 27 1013 64 11265 1.5 260 00:40 09.08.2019
3970 Haze 27 1013 64 11265 1.5 260 00:22 09.08.2019
3971 Haze 26 1014 77 16093 5.1 260 23:55 08.08.2019
3972 Haze 27 1014 77 16093 5.1 260 23:36 08.08.2019
3973 Haze 27 1013 64 11265 1.5 0 23:18 08.08.2019
3974 Haze 27 1014 82 9656 4.6 260 22:37 08.08.2019
3975 Haze 26 1014 61 8047 2.6 0 22:19 08.08.2019
3976 Haze 26 1014 82 11265 4.6 280 21:59 08.08.2019
3977 Haze 26 1014 82 11265 4.6 280 21:59 08.08.2019
3978 Haze 26 1015 68 8047 3.1 240 21:41 08.08.2019
3979 Haze 25 1015 68 8047 3.1 240 21:22 08.08.2019
3980 Haze 24 1015 73 6437 5.1 260 20:57 08.08.2019
3981 Haze 24 1015 73 6437 5.1 260 20:39 08.08.2019
3982 Haze 24 1015 73 6437 5.1 260 20:19 08.08.2019
3983 Haze 23 1014 69 4828 2.6 206.871 19:47 08.08.2019
3984 Haze 23 1014 69 4828 2.6 206.871 19:28 08.08.2019
3985 Haze 21 1014 73 4828 2.6 206.871 18:54 08.08.2019
3986 Haze 20 1014 73 4828 2.6 206.871 18:36 08.08.2019
3987 Haze 20 1014 73 4828 1.59 216.197 18:18 08.08.2019
3988 Haze 19 1014 77 4828 1.59 216.197 17:41 08.08.2019
3989 Haze 19 1014 82 4023 1.5 270 17:23 08.08.2019
3990 Haze 19 1014 82 4023 1.5 270 17:23 08.08.2019
3991 -273 0 0 0 0 0 16:56 08.08.2019
3992 Haze 18 1014 93 4828 2.6 0 16:37 08.08.2019
3993 Haze 18 1014 77 9656 1.59 216.197 16:19 08.08.2019
3994 Haze 18 1014 88 3219 1.59 216.197 15:56 08.08.2019
3995 Haze 17 1013 82 6437 1.59 216.197 15:37 08.08.2019
3996 Haze 17 1013 82 6437 0.33 200.939 15:19 08.08.2019
3997 Haze 17 1013 82 6437 0.33 200.939 14:37 08.08.2019
3998 Haze 17 1013 82 6437 0.33 200.939 14:18 08.08.2019
3999 Haze 17 1013 82 6437 0.33 200.939 14:18 08.08.2019
4000 Haze 17 1013 82 8047 0.33 200.939 13:42 08.08.2019
4001 Haze 17 1013 82 8047 0.28 145.751 13:23 08.08.2019
4002 Haze 17 1013 82 14484 2.1 0 12:57 08.08.2019
4003 Haze 18 1014 82 11265 0.28 145.751 12:38 08.08.2019
4004 Haze 18 1014 100 9656 1.63 176.24 12:18 08.08.2019
4005 Mist 18 1013 82 11265 1.63 176.24 11:42 08.08.2019
4006 Mist 18 1014 82 11265 1.63 176.24 11:24 08.08.2019
4007 Mist 18 1014 93 9656 1.63 176.24 10:41 08.08.2019
4008 Mist 18 1014 93 9656 1.63 176.24 10:22 08.08.2019
4009 Mist 18 1014 93 9656 1.5 360 09:58 08.08.2019
4010 Clouds 18 1014 82 12874 1.5 270 09:39 08.08.2019
4011 Clouds 18 1014 82 12874 1.5 270 09:20 08.08.2019
4012 Clear 18 1014 82 12874 2.05 214.822 08:42 08.08.2019
4013 Clear 18 1014 82 12874 2.05 214.822 08:21 08.08.2019
4014 Clear 18 1014 82 12874 2.05 214.822 08:21 08.08.2019
4015 -273 0 0 0 0 0 07:56 08.08.2019
4016 Haze 18 1014 77 12874 2.05 214.822 07:56 08.08.2019
4017 Haze 18 1014 77 12874 2.05 214.822 07:37 08.08.2019
4018 Haze 18 1014 77 12874 2.05 214.822 07:37 08.08.2019
4019 Haze 19 1014 77 12874 2.05 214.822 07:18 08.08.2019
4020 Haze 19 1013 77 12874 1.5 0 06:41 08.08.2019
4021 Haze 20 1013 93 16093 2.6 220 05:57 08.08.2019
4022 Haze 20 1013 77 12874 3.6 280 05:39 08.08.2019
4023 Haze 22 1012 73 9656 2.1 260 04:18 08.08.2019
4024 Clear 24 1012 69 11265 2.6 0 03:41 08.08.2019
4025 Haze 26 1012 61 9656 4.34 233.828 01:47 08.08.2019
4026 Haze 27 1012 61 9656 3.51 218.92 01:20 08.08.2019
4027 Haze 27 1013 57 9656 3.51 215.923 00:25 08.08.2019
4028 Haze 27 1014 57 9656 3.51 215.923 23:39 07.08.2019
4029 Haze 27 1014 57 9656 3.51 215.923 23:18 07.08.2019
4030 Haze 27 1014 54 9656 3.51 215.923 22:41 07.08.2019
4031 Haze 27 1014 54 9656 3.51 215.923 22:41 07.08.2019
4032 Haze 26 1014 54 9656 3.51 215.923 22:21 07.08.2019
4033 Haze 26 1015 73 11265 4.1 250 21:58 07.08.2019
4034 Haze 26 1014 57 8047 1.5 0 21:40 07.08.2019
4035 Haze 25 1014 57 8047 1.5 0 21:21 07.08.2019
4036 Haze 24 1015 73 11265 3.6 250 20:59 07.08.2019
4037 Haze 24 1014 57 8047 2.79 207.42 20:41 07.08.2019
4038 Haze 24 1014 57 8047 2.79 207.42 20:22 07.08.2019
4039 Haze 23 1016 57 16093 2.6 100 19:56 07.08.2019
4040 Haze 22 1014 69 6437 2.79 207.42 19:37 07.08.2019
4041 Haze 22 1014 69 6437 2.79 207.42 19:18 07.08.2019
4042 Haze 21 1014 69 6437 2.79 207.42 18:40 07.08.2019
4043 Haze 21 1014 69 12874 2.27 190.997 18:20 07.08.2019
4044 Haze 21 1015 88 9656 2.1 240 17:56 07.08.2019
4045 Haze 20 1014 73 6437 2.27 190.997 17:38 07.08.2019
4046 Haze 20 1014 73 6437 2.27 190.997 17:19 07.08.2019
4047 Haze 20 1014 82 9656 2.27 190.997 16:56 07.08.2019
4048 Haze 20 1014 77 6437 2.27 190.997 16:38 07.08.2019
4049 Haze 19 1014 77 6437 2.27 190.997 16:19 07.08.2019
4050 Haze 19 1014 88 8047 2.27 190.997 15:55 07.08.2019
4051 Haze 19 1014 88 8047 2.27 190.997 15:37 07.08.2019
4052 Haze 18 1014 88 8047 0.86 250 15:18 07.08.2019
4053 Mist 19 1013 88 8047 0.86 250 14:44 07.08.2019
4054 Mist 18 1013 88 8047 0.86 250 14:24 07.08.2019
4055 Haze 18 1013 88 9656 0.86 250 13:41 07.08.2019
4056 Haze 19 1013 88 16093 0.63 150.311 13:19 07.08.2019
4057 Haze 19 1013 88 9656 0.63 150.311 12:58 07.08.2019
4058 Haze 19 1013 88 9656 0.63 150.311 12:58 07.08.2019
4059 Haze 19 1013 93 14484 1.5 160 12:58 07.08.2019
4060 Haze 19 1013 93 16093 0.63 150.311 12:39 07.08.2019
4061 Haze 19 1013 93 16093 1.64 202.378 12:20 07.08.2019
4062 Haze 19 1013 93 14484 1.64 202.378 11:59 07.08.2019
4063 Haze 19 1014 77 16093 1.64 202.378 11:40 07.08.2019
4064 Haze 19 1014 77 16093 1.64 202.378 11:19 07.08.2019
4065 Clouds 19 1014 82 16093 1.64 202.378 10:55 07.08.2019
4066 Clouds 19 1014 82 16093 2.1 250 10:37 07.08.2019
4067 Clear 19 1014 77 11265 1.64 202.378 10:18 07.08.2019
4068 Clouds 19 1014 88 16093 1.64 202.378 09:44 07.08.2019
4069 Clear 19 1014 77 12874 3.13 178.093 09:21 07.08.2019
4070 Clouds 20 1014 93 16093 2.6 240 08:55 07.08.2019
4071 Clouds 20 1014 88 16093 2.03 178.928 08:37 07.08.2019
4072 Clouds 20 1014 88 16093 2.03 178.928 08:19 07.08.2019
4073 Clear 20 1014 68 12874 2.03 178.928 07:39 07.08.2019
4074 Clear 20 1014 68 12874 2.03 178.928 07:20 07.08.2019
4075 Clear 21 1013 64 14484 3.66 197.707 06:29 07.08.2019
4076 Clear 22 1012 64 12874 3.66 197.707 05:49 07.08.2019
4077 Clear 23 1011 68 16093 5.7 280 04:51 07.08.2019
4078 Clear 27 1011 60 11265 4.04 226.575 03:21 07.08.2019
4079 Clear 28 1011 51 12874 4.1 270 02:46 07.08.2019
4080 Clouds 29 1011 77 16093 7.7 250 01:58 07.08.2019
4081 Clear 29 1011 60 16093 4.6 280 01:38 07.08.2019
4082 Clear 31 1011 51 11265 2.1 0 00:43 07.08.2019
4083 Clear 31 1011 51 11265 2.1 0 00:22 07.08.2019
4084 Clear 31 1012 51 11265 3.6 270 23:41 06.08.2019
4085 Clear 30 1012 51 11265 3.6 270 23:21 06.08.2019
4086 Haze 31 1012 73 16093 7.7 260 22:56 06.08.2019
4087 Clear 31 1012 51 11265 2.1 0 22:37 06.08.2019
4088 Clear 31 1012 51 11265 2.1 0 22:18 06.08.2019
4089 Clear 31 1012 45 12874 1.5 0 21:43 06.08.2019
4090 Clear 29 1012 45 12874 1.5 0 21:25 06.08.2019
4091 Clouds 29 1013 69 14484 5.1 250 20:58 06.08.2019
4092 Haze 28 1013 54 11265 2.56 208.475 20:40 06.08.2019
4093 Haze 27 1013 54 11265 2.56 208.475 20:21 06.08.2019
4094 Haze 25 1014 61 9656 2.56 208.475 19:43 06.08.2019
4095 Haze 24 1014 61 9656 2.56 208.475 19:25 06.08.2019
4096 Haze 22 1014 77 12874 2.56 208.475 18:54 06.08.2019
4097 Haze 22 1014 77 12874 2.56 208.475 18:36 06.08.2019
4098 Haze 21 1014 73 6437 1.32 241.292 18:18 06.08.2019
4099 Haze 21 1015 73 9656 1.32 241.292 17:54 06.08.2019
4100 Haze 20 1014 77 8047 1.32 241.292 17:36 06.08.2019
4101 Haze 20 1014 77 8047 1.32 241.292 17:18 06.08.2019
4102 Haze 20 1014 77 8047 1.32 241.292 17:18 06.08.2019
4103 Haze 19 1014 88 16093 1.32 241.292 16:41 06.08.2019
4104 Haze 19 1014 77 6437 1.32 241.292 16:21 06.08.2019
4105 Mist 18 1013 88 14484 1.32 241.292 15:57 06.08.2019
4106 Clear 18 1013 82 11265 1.32 241.292 15:38 06.08.2019
4107 Clear 18 1013 82 11265 1.63 164.958 15:20 06.08.2019
4108 Haze 18 1012 88 9656 1.63 164.958 14:44 06.08.2019
4109 Haze 18 1012 88 9656 1.63 164.958 14:26 06.08.2019
4110 Clouds 18 1012 82 16093 1.63 164.958 13:58 06.08.2019
4111 Haze 18 1012 77 16093 2.6 210 13:40 06.08.2019
4112 Clouds 18 1012 77 16093 2.6 210 13:21 06.08.2019
4113 Clouds 18 1012 93 16093 1.5 310 12:58 06.08.2019
4114 Clouds 18 1012 93 16093 0.89 160.895 12:39 06.08.2019
4115 Clouds 19 1012 93 16093 1.31 171.994 12:21 06.08.2019
4116 Clouds 19 1013 88 16093 1.31 171.994 11:43 06.08.2019
4117 Clouds 19 1013 88 16093 1.31 171.994 11:19 06.08.2019
4118 Clouds 19 1013 93 16093 1.31 171.994 10:56 06.08.2019
4119 Clear 19 1014 88 16093 1.5 250 10:37 06.08.2019
4120 Clear 19 1014 88 16093 1.5 250 10:19 06.08.2019
4121 Clouds 20 1014 93 16093 1.31 171.994 09:40 06.08.2019
4122 Clouds 20 1014 93 16093 2.13 155.073 09:20 06.08.2019
4123 Clouds 20 1014 82 16093 2.6 240 08:48 06.08.2019
4124 Clouds 20 1013 88 16093 2.25 154.381 08:26 06.08.2019
4125 Clear 21 1013 73 12874 1.5 260 07:47 06.08.2019
4126 Clear 21 1013 73 12874 1.5 260 07:23 06.08.2019
4127 Clear 22 1012 68 12874 2.25 154.381 06:43 06.08.2019
4128 Clear 23 1012 64 12874 2.66 227.864 05:55 06.08.2019
4129 Clear 25 1011 57 12874 2.1 280 04:36 06.08.2019
4130 Clear 29 1012 39 16093 5.1 210 01:59 06.08.2019
4131 Clear 29 1012 57 12874 2.1 250 01:24 06.08.2019
4132 Clear 31 1013 51 14484 3.1 260 00:39 06.08.2019
4133 Clear 31 1013 54 12874 2.1 0 23:51 05.08.2019
4134 Clear 32 1013 54 12874 2.1 0 23:19 05.08.2019
4135 Clear 32 1013 54 12874 2.1 0 23:19 05.08.2019
4136 Clear 31 1013 54 11265 2.1 0 22:42 05.08.2019
4137 Clear 31 1013 54 11265 2.1 0 22:23 05.08.2019
4138 Haze 30 1014 77 12874 6.2 270 21:58 05.08.2019
4139 Haze 30 1014 54 11265 4 226.428 21:39 05.08.2019
4140 Haze 29 1014 54 11265 2 191.417 21:19 05.08.2019
4141 Haze 28 1014 77 11265 6.2 260 20:56 05.08.2019
4142 Haze 28 1014 51 9656 1.5 280 20:37 05.08.2019
4143 Haze 28 1014 51 9656 1.5 280 20:18 05.08.2019
4144 Haze 26 1014 69 8047 1.99 218.17 19:43 05.08.2019
4145 Haze 26 1014 69 8047 1.99 218.17 19:24 05.08.2019
4146 Haze 24 1016 34 16093 1.99 218.17 18:58 05.08.2019
4147 Haze 23 1014 77 9656 2.1 260 18:40 05.08.2019
4148 Haze 22 1014 78 6437 0.98 213.25 18:19 05.08.2019
4149 Haze 20 1014 82 6437 1.5 260 17:45 05.08.2019
4150 Haze 21 1014 82 6437 1.5 260 17:45 05.08.2019
4151 Mist 20 1014 93 8047 1.5 210 17:26 05.08.2019
4152 Mist 19 1014 88 4023 0.98 213.25 16:46 05.08.2019
4153 Mist 19 1014 88 6437 1.5 260 16:26 05.08.2019
4154 Mist 18 1014 93 4023 2.1 220 15:56 05.08.2019
4155 Mist 18 1014 88 9656 0.98 213.25 15:38 05.08.2019
4156 Mist 18 1014 88 9656 1.59 253.891 15:19 05.08.2019
4157 Mist 18 1014 100 12874 1.5 240 14:39 05.08.2019
4158 Mist 18 1014 100 12874 1.5 240 14:19 05.08.2019
4159 Mist 18 1013 88 9656 1.5 180 13:44 05.08.2019
4160 Mist 18 1013 88 9656 1.69 247.404 13:23 05.08.2019
4161 Clouds 18 1014 88 16093 1.69 247.404 12:49 05.08.2019
4162 Clear 18 1014 88 11265 0.84 211.352 12:20 05.08.2019
4163 Clear 18 1014 82 12874 0.84 211.352 11:54 05.08.2019
4164 Clear 18 1014 82 12874 0.84 211.352 11:36 05.08.2019
4165 Clear 18 1014 82 12874 0.84 211.352 11:18 05.08.2019
4166 Clear 19 1014 88 12874 0.84 211.352 10:43 05.08.2019
4167 Clear 19 1014 88 12874 0.84 211.352 10:22 05.08.2019
4168 Haze 19 1014 93 16093 1.5 210 09:44 05.08.2019
4169 Haze 19 1014 93 16093 1.5 210 09:26 05.08.2019
4170 Clouds 20 1014 88 16093 2.6 240 08:59 05.08.2019
4171 Clear 20 1014 82 11265 1.43 194.056 08:41 05.08.2019
4172 Clear 20 1014 82 11265 1.43 194.056 08:20 05.08.2019
4173 Clouds 20 1014 93 16093 1.5 220 07:45 05.08.2019
4174 Clouds 20 1014 88 16093 1.5 230 07:26 05.08.2019
4175 Clouds 21 1014 77 16093 2.1 240 06:39 05.08.2019
4176 Clouds 24 1013 82 16093 2.1 280 05:52 05.08.2019
4177 Clear 24 1012 73 11265 2.1 270 05:20 05.08.2019
4178 Mist 23 1013 93 3219 4.6 270 04:28 05.08.2019
4179 Clear 26 1012 65 12874 1.5 0 03:38 05.08.2019
4180 Clear 29 1012 54 14484 2.6 260 02:37 05.08.2019
4181 Clear 29 1012 48 14484 3.45 225.199 01:36 05.08.2019
4182 Clouds 30 1012 65 16093 6.2 290 00:54 05.08.2019
4183 Clear 30 1012 48 14484 2.1 0 00:36 05.08.2019
4184 Clear 30 1012 48 14484 2.1 0 00:18 05.08.2019
4185 Clear 30 1013 48 12874 1.5 270 23:41 04.08.2019
4186 Clear 30 1013 48 12874 1.5 270 23:20 04.08.2019
4187 Clear 30 1014 51 11265 3.31 220.477 22:56 04.08.2019
4188 Clear 29 1014 51 11265 3.31 220.477 22:37 04.08.2019
4189 Haze 29 1014 51 11265 3.31 220.477 22:19 04.08.2019
4190 Haze 29 1014 51 9656 3.31 220.477 21:44 04.08.2019
4191 Haze 28 1014 51 9656 2.63 205.786 21:22 04.08.2019
4192 Haze 27 1014 54 11265 2.37 201.168 20:56 04.08.2019
4193 Haze 27 1014 54 11265 2.37 201.168 20:37 04.08.2019
4194 Haze 27 1014 54 11265 2.37 201.168 20:18 04.08.2019
4195 Haze 26 1014 64 12874 2.1 250 19:43 04.08.2019
4196 Haze 26 1014 64 12874 2.1 250 19:24 04.08.2019
4197 Haze 24 1014 69 11265 2.37 201.168 18:42 04.08.2019
4198 Haze 23 1014 69 11265 0.78 152.879 18:21 04.08.2019
4199 Haze 22 1014 77 9656 0.78 152.879 17:58 04.08.2019
4200 Haze 21 1014 73 11265 0.78 152.879 17:40 04.08.2019
4201 Haze 21 1014 73 11265 0.78 152.879 17:20 04.08.2019
4202 Haze 19 1014 77 9656 0.78 152.879 16:43 04.08.2019
4203 Haze 19 1014 82 16093 0.78 152.879 16:24 04.08.2019
4204 Mist 19 1013 82 12874 0.78 152.879 15:45 04.08.2019
4205 Mist 19 1013 82 12874 0.78 152.879 15:45 04.08.2019
4206 Mist 18 1013 82 12874 1.35 211.969 15:23 04.08.2019
4207 Mist 18 1013 93 9656 1.35 211.969 14:57 04.08.2019
4208 Mist 18 1013 82 11265 1.35 211.969 14:39 04.08.2019
4209 Mist 18 1013 82 16093 1.35 211.969 14:20 04.08.2019
4210 Clear 18 1013 88 12874 1.35 211.969 13:43 04.08.2019
4211 Clear 18 1013 88 12874 0.86 189.298 13:23 04.08.2019
4212 Clear 19 1013 82 12874 0.86 189.298 12:46 04.08.2019
4213 Clear 19 1013 82 12874 1.36 164.797 12:27 04.08.2019
4214 Clouds 19 1013 93 16093 1.36 164.797 11:57 04.08.2019
4215 Clouds 19 1013 82 11265 2.6 200 11:37 04.08.2019
4216 Clouds 19 1013 88 16093 2.1 180 11:19 04.08.2019
4217 Clouds 19 1013 88 16093 2.1 180 11:19 04.08.2019
4218 Clear 19 1013 73 14484 1.36 164.797 10:41 04.08.2019
4219 Clear 20 1013 73 14484 1.36 164.797 10:21 04.08.2019
4220 Clear 20 1013 73 14484 1.36 164.797 09:45 04.08.2019
4221 Clear 20 1013 73 14484 1.36 164.797 09:45 04.08.2019
4222 Clear 20 1013 73 14484 1.73 188.49 09:23 04.08.2019
4223 Clear 20 1013 73 14484 1.63 174.398 08:53 04.08.2019
4224 Clear 20 1013 73 14484 1.63 174.398 08:32 04.08.2019
4225 Clear 21 1013 77 14484 1.63 174.398 07:53 04.08.2019
4226 Clear 21 1013 77 14484 1.63 174.398 07:22 04.08.2019
4227 Clear 22 1012 73 14484 1.63 174.398 06:28 04.08.2019
4228 Clear 25 1011 57 12874 2.6 270 04:43 04.08.2019
4229 Clear 28 1011 51 12874 2.6 0 02:47 04.08.2019
4230 Clear 29 1012 54 12874 3.66 210.228 01:51 04.08.2019
4231 Clear 29 1012 54 12874 3.66 215.833 01:27 04.08.2019
4232 Clear 29 1012 54 12874 2.1 0 00:41 04.08.2019
4233 Clear 30 1012 54 12874 2.1 0 00:22 04.08.2019
4234 Clear 30 1012 51 11265 1.5 250 23:42 03.08.2019
4235 Clear 30 1012 51 11265 1.5 250 23:19 03.08.2019
4236 Haze 30 1014 27 16093 3.1 100 22:55 03.08.2019
4237 Haze 29 1013 51 9656 3.72 221.493 22:37 03.08.2019
4238 Haze 29 1013 51 9656 3.72 221.493 22:18 03.08.2019
4239 Haze 29 1013 54 11265 2.1 0 21:39 03.08.2019
4240 Haze 29 1013 54 11265 2.1 0 21:20 03.08.2019
4241 Haze 28 1013 51 11265 2.77 204.622 20:43 03.08.2019
4242 Haze 28 1013 51 11265 2.77 204.622 20:24 03.08.2019
4243 Haze 27 1013 57 9656 1.5 0 19:43 03.08.2019
4244 Haze 27 1013 57 9656 1.5 0 19:43 03.08.2019
4245 Haze 26 1013 57 9656 1.5 0 19:25 03.08.2019
4246 Haze 24 1014 78 16093 3.1 270 18:57 03.08.2019
4247 Haze 23 1013 69 9656 0.92 167.01 18:39 03.08.2019
4248 Haze 23 1013 69 9656 0.92 167.01 18:20 03.08.2019
4249 Haze 21 1014 82 12874 0.92 167.01 17:42 03.08.2019
4250 Haze 20 1014 82 12874 0.92 167.01 17:18 03.08.2019
4251 Haze 19 1014 88 16093 0.92 167.01 16:38 03.08.2019
4252 Haze 19 1014 88 16093 0.92 167.01 16:19 03.08.2019
4253 Haze 19 1014 88 16093 0.92 167.01 15:45 03.08.2019
4254 Haze 18 1013 88 11265 1.02 180.28 15:25 03.08.2019
4255 Mist 18 1013 82 11265 1.5 180 14:46 03.08.2019
4256 Mist 18 1013 82 12874 1.02 180.28 14:23 03.08.2019
4257 Mist 18 1013 100 12874 1.02 180.28 13:57 03.08.2019
4258 Clear 18 1013 77 12874 1.02 180.28 13:36 03.08.2019
4259 Clear 19 1013 77 12874 0.57 142.011 13:18 03.08.2019
4260 Clear 19 1013 77 12874 0.57 142.011 12:41 03.08.2019
4261 Clear 19 1013 77 12874 1.44 157.947 12:23 03.08.2019
4262 Clear 19 1013 73 12874 1.44 157.947 11:52 03.08.2019
4263 Clear 19 1013 73 12874 1.44 157.947 11:34 03.08.2019
4264 Clear 20 1013 73 12874 1.44 157.947 10:46 03.08.2019
4265 Clear 20 1013 73 12874 1.44 157.947 10:24 03.08.2019
4266 Clear 20 1013 73 12874 1.44 157.947 10:24 03.08.2019
4267 Clear 20 1013 73 12874 1.44 157.947 09:45 03.08.2019
4268 Clear 20 1013 73 12874 1.51 184.861 09:24 03.08.2019
4269 Clear 21 1013 73 12874 1.61 178.322 08:56 03.08.2019
4270 Clear 21 1013 73 12874 1.61 178.322 08:24 03.08.2019
4271 Clear 21 1013 68 14484 1.5 0 07:38 03.08.2019
4272 Clear 22 1013 68 16093 1.61 178.322 06:47 03.08.2019
4273 Clouds 23 1013 82 16093 3.1 270 05:59 03.08.2019
4274 Clear 28 1012 54 12874 1.5 0 02:50 03.08.2019
4275 Clear 30 1013 51 14484 3.1 270 01:56 03.08.2019
4276 Clear 30 1014 65 16093 7.7 280 00:58 03.08.2019
4277 Clear 30 1013 48 14484 3.34 229.975 00:31 03.08.2019
4278 Clear 30 1014 48 14484 2.6 270 23:42 02.08.2019
4279 Clear 30 1014 48 14484 2.6 270 23:20 02.08.2019
4280 Clouds 30 1015 69 16093 5.1 260 22:58 02.08.2019
4281 Clear 29 1014 48 14484 1.5 0 22:40 02.08.2019
4282 Clear 30 1014 48 14484 1.5 0 22:21 02.08.2019
4283 Haze 29 1015 73 16093 4.6 270 21:56 02.08.2019
4284 Clear 29 1014 54 12874 1.5 250 21:37 02.08.2019
4285 Clear 29 1014 54 12874 1.5 250 21:18 02.08.2019
4286 Clear 28 1014 51 12874 2.5 200.591 20:42 02.08.2019
4287 Clear 27 1014 51 12874 2.5 200.591 20:22 02.08.2019
4288 Haze 26 1015 61 11265 2.5 200.591 19:50 02.08.2019
4289 Haze 26 1015 61 11265 2.5 200.591 19:50 02.08.2019
4290 Haze 25 1015 61 11265 2.5 200.591 19:30 02.08.2019
4291 Haze 23 1015 69 6437 1.5 170 18:50 02.08.2019
4292 Haze 22 1015 69 6437 1.5 170 18:32 02.08.2019
4293 Haze 22 1017 43 16093 0.6 199.788 17:56 02.08.2019
4294 Haze 21 1015 73 11265 0.6 199.788 17:38 02.08.2019
4295 Haze 20 1015 73 11265 0.6 199.788 17:19 02.08.2019
4296 Mist 19 1014 82 11265 0.6 199.788 16:39 02.08.2019
4297 Mist 19 1014 82 11265 0.6 199.788 16:20 02.08.2019
4298 Mist 18 1014 77 12874 0.6 199.788 15:56 02.08.2019
4299 Mist 18 1014 77 12874 0.6 199.788 15:36 02.08.2019
4300 Clear 17 1014 77 12874 0.67 188.493 15:18 02.08.2019
4301 Clear 17 1014 77 14484 0.67 188.493 14:41 02.08.2019
4302 Clear 17 1014 77 14484 0.67 188.493 14:18 02.08.2019
4303 Clear 18 1014 77 14484 0.67 188.493 13:45 02.08.2019
4304 Clear 18 1014 77 14484 0.86 129.139 13:20 02.08.2019
4305 Clear 18 1014 77 14484 0.86 129.139 12:43 02.08.2019
4306 Clear 18 1014 77 14484 1 160.55 12:20 02.08.2019
4307 Clear 18 1014 77 14484 1 160.55 11:41 02.08.2019
4308 Clear 18 1014 77 14484 1 160.55 11:41 02.08.2019
4309 Clear 19 1014 77 14484 1 160.55 11:22 02.08.2019
4310 Clear 19 1014 73 14484 1 160.55 10:48 02.08.2019
4311 Clear 19 1014 73 14484 1 160.55 10:24 02.08.2019
4312 Clear 19 1014 82 16093 3.1 150 09:58 02.08.2019
4313 Clear 20 1014 73 14484 1 160.55 09:40 02.08.2019
4314 Clear 20 1014 73 14484 1.27 183.077 09:22 02.08.2019
4315 Clear 20 1014 68 14484 0.97 114.041 08:41 02.08.2019
4316 Clear 20 1014 68 14484 0.97 114.041 08:20 02.08.2019
4317 Clear 21 1014 64 16093 1.5 240 07:45 02.08.2019
4318 Clear 21 1014 77 16093 1.5 230 07:26 02.08.2019
4319 Clear 22 1013 64 14484 1.5 270 06:41 02.08.2019
4320 Clear 22 1013 64 12874 3.02 268.218 05:47 02.08.2019
4321 Clear 26 1013 54 12874 1.5 250 03:54 02.08.2019
4322 Clear 27 1013 54 12874 1.5 250 03:24 02.08.2019
4323 Clear 28 1014 57 11265 1.5 0 01:44 02.08.2019
4324 Clear 29 1014 54 12874 2.6 0 00:34 02.08.2019
4325 Clear 29 1015 54 12874 2.1 0 23:46 01.08.2019
4326 Clear 29 1015 54 12874 2.1 0 23:27 01.08.2019
4327 Clear 29 1015 54 12874 2.1 0 23:27 01.08.2019
4328 Haze 29 1015 51 12874 1.5 260 22:46 01.08.2019
4329 Haze 28 1015 51 12874 1.5 260 22:26 01.08.2019
4330 Haze 28 1016 68 16093 5.1 270 21:59 01.08.2019
4331 Haze 27 1016 54 11265 3.91 222.51 21:41 01.08.2019
4332 Haze 27 1016 54 11265 2.48 200.115 21:23 01.08.2019
4333 Haze 26 1016 54 11265 2.32 216.153 20:47 01.08.2019
4334 Haze 26 1016 54 11265 2.32 216.153 20:23 01.08.2019
4335 Haze 25 1017 77 11265 4.1 270 19:59 01.08.2019
4336 Haze 24 1016 61 9656 2.32 216.153 19:38 01.08.2019
4337 Haze 24 1016 61 9656 2.32 216.153 19:19 01.08.2019
4338 Haze 22 1016 69 9656 2.32 216.153 18:43 01.08.2019
4339 Haze 22 1016 69 9656 1.41 199.966 18:24 01.08.2019
4340 Haze 21 1017 77 14484 1.41 199.966 17:51 01.08.2019
4341 Haze 21 1017 77 14484 1.41 199.966 17:32 01.08.2019
4342 Mist 19 1016 93 11265 1.5 190 16:45 01.08.2019
4343 Mist 19 1016 82 12874 1.41 199.966 16:24 01.08.2019
4344 Mist 18 1016 93 11265 2.1 240 15:59 01.08.2019
4345 Mist 18 1016 93 16093 1.5 70 15:41 01.08.2019
4346 Clear 17 1015 82 12874 0.86 219.539 15:19 01.08.2019
4347 Clouds 17 1015 93 14484 2.1 190 14:42 01.08.2019
4348 Clear 17 1015 82 12874 0.86 219.539 14:19 01.08.2019
4349 Clear 17 1015 82 12874 0.86 219.539 13:58 01.08.2019
4350 Clear 17 1015 82 12874 0.86 219.539 13:39 01.08.2019
4351 Clear 18 1015 82 12874 1.18 219.961 13:20 01.08.2019
4352 Clear 18 1015 82 12874 1.18 219.961 12:46 01.08.2019
4353 Clear 18 1015 82 12874 1.6 219.408 12:27 01.08.2019
4354 Clear 18 1015 82 14484 1.6 219.408 11:44 01.08.2019
4355 Clear 18 1015 82 14484 1.6 219.408 11:25 01.08.2019
4356 Clear 18 1015 77 14484 1.6 219.408 10:57 01.08.2019
4357 Clear 18 1015 77 14484 1.6 219.408 10:39 01.08.2019
4358 Clear 19 1015 77 14484 1.6 219.408 10:21 01.08.2019
4359 Smoke 19 1015 77 14484 1.6 219.408 09:45 01.08.2019
4360 Smoke 19 1015 77 14484 1.46 221.227 09:23 01.08.2019
4361 Clear 19 1015 72 14484 1.53 215.225 08:48 01.08.2019
4362 Clear 19 1015 72 14484 1.53 215.225 08:21 01.08.2019
4363 Haze 20 1015 68 14484 1.53 215.225 07:53 01.08.2019
4364 Haze 20 1015 68 14484 1.53 215.225 07:29 01.08.2019
4365 Haze 20 1015 68 14484 1.5 0 06:50 01.08.2019
4366 Haze 21 1015 68 14484 1.5 0 06:31 01.08.2019
4367 Haze 21 1014 64 12874 1.5 250 05:32 01.08.2019
4368 Haze 26 1014 61 11265 2.6 0 02:36 01.08.2019
4369 Haze 27 1014 61 11265 3.92 222.155 01:33 01.08.2019
4370 Haze 27 1014 57 9656 4.12 218.934 00:27 01.08.2019
4371 Haze 27 1015 73 16093 6.2 260 23:59 31.07.2019
4372 Clear 27 1015 61 11265 5.7 250 23:40 31.07.2019
4373 Haze 27 1015 61 11265 5.7 250 23:19 31.07.2019
4374 Haze 27 1015 57 8047 4.12 218.934 22:45 31.07.2019
4375 Haze 27 1015 57 8047 4.12 218.934 22:25 31.07.2019
4376 Haze 27 1016 64 8047 3.6 250 21:45 31.07.2019
4377 Haze 26 1016 64 8047 3.6 250 21:23 31.07.2019
4378 Haze 26 1016 65 16093 3.6 290 20:51 31.07.2019
4379 Haze 25 1015 65 6437 1.5 0 20:25 31.07.2019
4380 Haze 24 1016 78 9656 5.1 280 19:58 31.07.2019
4381 Haze 23 1015 65 6437 2.88 207.063 19:39 31.07.2019
4382 Haze 23 1015 64 9656 2.1 150 19:20 31.07.2019
4383 Haze 21 1016 73 6437 2.88 207.063 18:41 31.07.2019
4384 Haze 21 1016 73 6437 1.74 197.26 18:22 31.07.2019
4385 Haze 20 1015 77 4828 1.74 197.26 17:55 31.07.2019
4386 Haze 20 1015 77 4828 1.74 197.26 17:37 31.07.2019
4387 Haze 20 1015 77 4828 1.74 197.26 17:18 31.07.2019
4388 Haze 20 1015 77 11265 1.5 180 16:41 31.07.2019
4389 Haze 20 1014 77 6437 1.74 197.26 16:19 31.07.2019
4390 Haze 19 1015 93 12874 2.1 170 15:44 31.07.2019
4391 Haze 19 1014 77 11265 1.86 210.372 15:24 31.07.2019
4392 Haze 19 1014 88 11265 1.86 210.372 14:42 31.07.2019
4393 Haze 19 1014 88 11265 1.86 210.372 14:21 31.07.2019
4394 Haze 19 1014 93 16093 1.86 210.372 13:57 31.07.2019
4395 Haze 19 1013 82 11265 1.86 210.372 13:38 31.07.2019
4396 Haze 19 1013 82 11265 1.01 234.165 13:19 31.07.2019
4397 Haze 19 1013 93 16093 2.1 250 12:44 31.07.2019
4398 Haze 19 1013 82 11265 1.24 210.243 12:26 31.07.2019
4399 Haze 19 1013 82 14484 1.5 250 11:55 31.07.2019
4400 Haze 19 1013 77 16093 1.5 290 11:36 31.07.2019
4401 Haze 19 1013 93 16093 3.1 250 11:18 31.07.2019
4402 Clouds 19 1014 93 16093 2.6 250 10:41 31.07.2019
4403 Clear 19 1013 77 11265 1.5 270 10:20 31.07.2019
4404 Clouds 19 1014 88 16093 1.5 210 09:43 31.07.2019
4405 Clouds 20 1014 88 16093 1.5 210 09:24 31.07.2019
4406 Clouds 20 1014 88 16093 1.5 210 09:24 31.07.2019
4407 Clear 20 1013 77 12874 0.31 266.81 08:45 31.07.2019
4408 Clear 20 1013 77 12874 0.31 266.81 08:26 31.07.2019
4409 Clear 20 1013 77 12874 0.31 266.81 07:57 31.07.2019
4410 Clear 20 1013 77 12874 0.31 266.81 07:34 31.07.2019
4411 Clear 20 1013 77 12874 0.31 266.81 06:31 31.07.2019
4412 Haze 22 1012 69 9656 3.1 270 04:49 31.07.2019
4413 Clear 27 1012 61 11265 1.5 0 01:21 31.07.2019
4414 Clouds 27 1013 69 16093 6.7 250 23:58 30.07.2019
4415 Clear 27 1013 54 12874 4.1 203.524 23:39 30.07.2019
4416 Clear 27 1013 54 12874 4.1 203.524 23:18 30.07.2019
4417 Clear 27 1013 54 11265 2.1 0 22:45 30.07.2019
4418 Clear 27 1013 54 11265 2.1 0 22:25 30.07.2019
4419 Haze 27 1013 60 2012 4.1 260 21:39 30.07.2019
4420 Clear 27 1013 54 12874 2.6 260 21:20 30.07.2019
4421 Haze 26 1013 54 9656 3.52 192.887 20:59 30.07.2019
4422 Haze 26 1013 54 9656 3.52 192.887 20:41 30.07.2019
4423 Haze 26 1013 54 9656 3.52 192.887 20:23 30.07.2019
4424 Haze 25 1015 53 12874 2.6 160 19:56 30.07.2019
4425 Haze 24 1013 61 9656 3.52 192.887 19:36 30.07.2019
4426 Haze 23 1015 60 16093 2.1 0 18:55 30.07.2019
4427 Haze 23 1014 73 11265 3.52 192.887 18:37 30.07.2019
4428 Haze 22 1013 64 9656 1.17 151.074 18:18 30.07.2019
4429 Haze 21 1013 88 9656 1.5 0 17:41 30.07.2019
4430 Haze 21 1013 73 9656 1.17 151.074 17:19 30.07.2019
4431 Haze 20 1014 82 11265 1.17 151.074 16:50 30.07.2019
4432 Haze 20 1013 77 8047 1.17 151.074 16:20 30.07.2019
4433 Haze 20 1013 93 4828 2.6 160 15:56 30.07.2019
4434 Haze 20 1013 93 4828 2.6 160 15:37 30.07.2019
4435 Haze 19 1013 93 14484 1.5 120 15:18 30.07.2019
4436 Haze 19 1012 77 8047 1.63 132.864 14:41 30.07.2019
4437 Haze 19 1012 77 8047 1.63 132.864 14:19 30.07.2019
4438 Clouds 19 1012 77 11265 1.63 132.864 13:46 30.07.2019
4439 Clouds 19 1012 73 16093 2.01 133.53 13:28 30.07.2019
4440 Clouds 19 1012 88 16093 2.01 133.53 12:58 30.07.2019
4441 Clouds 19 1012 88 16093 2.01 133.53 12:39 30.07.2019
4442 Clouds 19 1012 77 11265 1.5 0 12:21 30.07.2019
4443 Clear 19 1012 82 12874 1.83 137.838 11:40 30.07.2019
4444 Clear 19 1012 82 12874 1.83 137.838 11:20 30.07.2019
4445 Clear 19 1012 77 12874 0.7 150.154 10:46 30.07.2019
4446 Clear 19 1012 77 12874 0.7 150.154 10:27 30.07.2019
4447 Clear 19 1012 77 12874 0.7 150.154 09:50 30.07.2019
4448 Clear 19 1012 77 12874 0.7 150.154 09:31 30.07.2019
4449 Clear 19 1012 77 12874 1.34 138.523 08:53 30.07.2019
4450 Clear 20 1012 77 12874 1.34 138.523 08:31 30.07.2019
4451 Clear 20 1012 77 12874 1.5 270 07:47 30.07.2019
4452 Clear 20 1012 77 12874 1.5 270 07:29 30.07.2019
4453 Clouds 20 1012 82 14484 1.5 290 06:48 30.07.2019
4454 Clouds 21 1012 82 14484 1.5 290 06:21 30.07.2019
4455 Haze 22 1011 82 12874 2.6 270 05:33 30.07.2019
4456 Clear 26 1010 61 11265 1.5 260 03:28 30.07.2019
4457 Clear 27 1011 54 11265 1.5 240 01:20 30.07.2019
4458 Haze 28 1012 54 9656 3.55 205.035 00:21 30.07.2019
4459 Haze 28 1013 61 8047 3.55 205.035 23:46 29.07.2019
4460 Haze 28 1013 61 8047 3.55 205.035 23:26 29.07.2019
4461 Haze 27 1013 57 8047 3.55 205.035 22:57 29.07.2019
4462 Haze 27 1013 57 8047 3.55 205.035 22:39 29.07.2019
4463 Haze 27 1013 57 8047 3.55 205.035 22:20 29.07.2019
4464 Haze 26 1013 64 16093 5.7 280 21:57 29.07.2019
4465 Haze 26 1014 64 16093 5.7 260 21:38 29.07.2019
4466 Haze 26 1014 64 16093 5.7 260 21:20 29.07.2019
4467 Haze 26 1014 64 16093 5.7 260 21:20 29.07.2019
4468 Haze 25 1014 73 9656 3.6 260 20:48 29.07.2019
4469 Haze 25 1014 78 8047 3.6 200 20:25 29.07.2019
4470 Haze 23 1015 57 11265 3.1 140 19:57 29.07.2019
4471 Haze 23 1014 65 8047 2.84 192.003 19:37 29.07.2019
4472 Haze 22 1014 69 8047 2.84 192.003 19:19 29.07.2019
4473 Haze 21 1014 73 9656 2.84 192.003 18:43 29.07.2019
4474 Haze 21 1014 73 6437 1.24 213.486 18:22 29.07.2019
4475 Haze 20 1014 88 6437 1.24 213.486 17:53 29.07.2019
4476 Haze 20 1014 77 6437 1.24 213.486 17:35 29.07.2019
4477 Haze 20 1014 88 4828 1.24 213.486 16:59 29.07.2019
4478 Haze 20 1013 77 4828 1.24 213.486 16:40 29.07.2019
4479 Haze 19 1013 77 4828 1.24 213.486 16:22 29.07.2019
4480 Haze 19 1013 82 8047 1.24 213.486 15:52 29.07.2019
4481 Haze 19 1013 82 8047 1.24 213.486 15:52 29.07.2019
4482 Haze 19 1013 82 8047 1.24 213.486 15:52 29.07.2019
4483 Haze 19 1013 82 8047 1.24 213.486 15:33 29.07.2019
4484 Haze 19 1013 93 4828 2.1 80 14:56 29.07.2019
4485 -273 0 0 0 0 0 14:56 29.07.2019
4486 Haze 19 1013 93 8047 2.6 140 14:37 29.07.2019
4487 Haze 19 1013 82 9656 1.06 160.059 14:19 29.07.2019
4488 Haze 19 1013 82 6437 1.06 160.059 13:42 29.07.2019
4489 Haze 19 1013 82 6437 1.29 138.013 13:23 29.07.2019
4490 Haze 19 1013 88 6437 1.29 138.013 12:42 29.07.2019
4491 Haze 19 1013 88 6437 0.37 160.137 12:24 29.07.2019
4492 Haze 19 1013 82 11265 0.37 160.137 11:44 29.07.2019
4493 Haze 19 1013 82 11265 0.37 160.137 11:22 29.07.2019
4494 -273 0 0 0 0 0 10:57 29.07.2019
4495 Haze 19 1013 93 6437 2.6 320 10:56 29.07.2019
4496 Haze 19 1014 82 14484 0.37 160.137 10:38 29.07.2019
4497 Haze 19 1014 77 9656 1.5 290 10:19 29.07.2019
4498 Haze 19 1014 82 16093 1.5 260 09:38 29.07.2019
4499 Haze 19 1014 77 9656 1.12 193.404 09:19 29.07.2019
4500 Haze 19 1014 77 6437 0.67 172.158 08:36 29.07.2019
4501 Mist 20 1014 73 11265 0.67 172.158 08:18 29.07.2019
4502 Clear 20 1013 77 11265 0.67 172.158 07:41 29.07.2019
4503 Clear 20 1013 77 11265 0.67 172.158 07:20 29.07.2019
4504 Clouds 22 1014 100 12874 1.5 230 05:47 29.07.2019
4505 Clear 22 1013 54 16093 3.6 210 04:53 29.07.2019
4506 Clouds 27 1013 77 16093 5.1 270 02:27 29.07.2019
4507 Clear 27 1013 57 11265 3.83 214.072 01:45 29.07.2019
4508 Clear 28 1013 57 11265 3.94 209.131 01:23 29.07.2019
4509 Clear 28 1014 57 12874 3.94 209.131 00:43 29.07.2019
4510 Clear 28 1014 57 12874 3.53 217.814 00:20 29.07.2019
4511 Clear 28 1014 57 12874 2.6 0 23:41 28.07.2019
4512 Clear 29 1014 57 12874 2.6 0 23:19 28.07.2019
4513 Clear 28 1014 54 12874 3.53 217.814 22:41 28.07.2019
4514 Clear 28 1014 54 12874 3.53 217.814 22:22 28.07.2019
4515 Fog 27 1014 54 12874 3.53 217.814 21:49 28.07.2019
4516 Fog 28 1014 54 12874 3.19 199.595 21:19 28.07.2019
4517 Fog 28 1014 54 12874 2.1 0 20:48 28.07.2019
4518 Fog 27 1014 54 12874 2.1 0 20:29 28.07.2019
4519 Clear 26 1016 35 16093 2.6 110 19:56 28.07.2019
4520 Clear 26 1014 51 12874 3.1 192.487 19:38 28.07.2019
4521 Clear 26 1014 51 12874 3.1 192.487 19:20 28.07.2019
4522 Clear 23 1014 57 12874 3.1 192.487 18:44 28.07.2019
4523 Clear 24 1014 57 12874 1.37 170.462 18:25 28.07.2019
4524 Clear 22 1015 64 12874 1.37 170.462 17:43 28.07.2019
4525 Clear 22 1015 64 12874 1.37 170.462 17:22 28.07.2019
4526 Clouds 21 1015 77 16093 2.1 230 16:59 28.07.2019
4527 Clear 21 1015 77 14484 1.37 170.462 16:40 28.07.2019
4528 Clear 20 1015 77 14484 1.37 170.462 16:22 28.07.2019
4529 Clear 19 1014 82 11265 1.37 170.462 15:44 28.07.2019
4530 Clear 19 1014 82 11265 0.54 155.733 15:24 28.07.2019
4531 Clear 19 1014 77 11265 0.54 155.733 14:39 28.07.2019
4532 Clear 19 1014 77 11265 0.54 155.733 14:20 28.07.2019
4533 Clear 19 1014 77 12874 0.54 155.733 13:56 28.07.2019
4534 -273 0 0 0 0 0 13:56 28.07.2019
4535 Clear 19 1014 77 12874 0.54 155.733 13:37 28.07.2019
4536 Clear 19 1014 77 12874 0.4 120.816 13:19 28.07.2019
4537 Clear 20 1014 73 12874 0.4 120.816 12:42 28.07.2019
4538 Clear 20 1014 73 12874 1.35 155.792 12:23 28.07.2019
4539 Clear 20 1014 73 12874 1.5 280 11:49 28.07.2019
4540 Clear 20 1014 73 12874 1.5 280 11:27 28.07.2019
4541 Clear 21 1014 68 14484 1.35 155.792 10:43 28.07.2019
4542 Clear 21 1014 68 14484 1.35 155.792 10:23 28.07.2019
4543 Clear 21 1014 88 16093 2.6 300 09:59 28.07.2019
4544 Clear 21 1014 64 14484 1.35 155.792 09:39 28.07.2019
4545 Clear 21 1014 64 14484 2.28 181.305 09:20 28.07.2019
4546 Clear 22 1014 60 14484 2.03 171.794 08:41 28.07.2019
4547 Clear 22 1014 60 14484 2.03 171.794 08:21 28.07.2019
4548 Clear 22 1014 60 16093 2.03 171.794 07:40 28.07.2019
4549 Clear 22 1014 82 16093 3.1 250 06:59 28.07.2019
4550 Clear 22 1013 56 16093 2.1 260 06:32 28.07.2019
4551 Clear 26 1013 50 14484 2.24 197.142 05:19 28.07.2019
4552 Clear 30 1013 42 16093 3.1 280 02:37 28.07.2019
4553 Clear 31 1013 37 16093 3.84 217.061 01:32 28.07.2019
4554 Clear 32 1015 24 16093 3.1 110 00:52 28.07.2019
4555 Clear 33 1014 38 14484 2.6 0 00:25 28.07.2019
4556 Clear 33 1014 35 14484 4.12 223.682 23:52 27.07.2019
4557 Clear 32 1014 35 14484 4.12 223.682 23:27 27.07.2019
4558 Clear 32 1014 35 14484 4.12 223.682 22:44 27.07.2019
4559 Clear 31 1014 35 14484 4.12 223.682 22:26 27.07.2019
4560 Clear 31 1015 43 14484 4.12 223.682 21:47 27.07.2019
4561 Clear 31 1015 43 14484 2.54 213.047 21:24 27.07.2019
4562 Clear 30 1015 45 12874 2.62 206.692 20:57 27.07.2019
4563 Clear 30 1015 45 12874 2.62 206.692 20:39 27.07.2019
4564 Clear 30 1015 45 12874 2.62 206.692 20:19 27.07.2019
4565 Clear 27 1015 48 12874 2.62 206.692 19:40 27.07.2019
4566 Clear 28 1015 48 12874 2.62 206.692 19:21 27.07.2019
4567 Haze 26 1016 51 12874 2.62 206.692 18:47 27.07.2019
4568 Haze 26 1016 51 12874 1.89 182.612 18:29 27.07.2019
4569 Haze 24 1015 64 11265 1.89 182.612 17:51 27.07.2019
4570 Clear 24 1015 64 11265 1.89 182.612 17:32 27.07.2019
4571 Clear 22 1015 77 14484 1.89 182.612 16:56 27.07.2019
4572 Clear 21 1015 77 14484 1.89 182.612 16:37 27.07.2019
4573 Clouds 21 1015 82 14484 1.5 230 16:18 27.07.2019
4574 Clear 20 1015 73 12874 1.89 182.612 15:43 27.07.2019
4575 Clear 19 1015 73 12874 0.77 148.192 15:19 27.07.2019
4576 Clear 19 1015 73 12874 0.77 148.192 14:45 27.07.2019
4577 Clear 20 1015 73 12874 0.77 148.192 14:26 27.07.2019
4578 Clear 20 1015 73 12874 0.77 148.192 13:50 27.07.2019
4579 Clear 20 1015 73 12874 1.06 127.932 13:24 27.07.2019
4580 Clear 20 1015 68 14484 1.06 127.932 12:54 27.07.2019
4581 Clear 20 1015 68 14484 1.06 127.932 12:36 27.07.2019
4582 Clear 20 1015 68 14484 0.35 191.947 12:18 27.07.2019
4583 Clear 21 1015 68 12874 0.35 191.947 11:39 27.07.2019
4584 Clear 21 1015 68 12874 0.35 191.947 11:20 27.07.2019
4585 Clear 21 1015 73 12874 0.35 191.947 10:41 27.07.2019
4586 Clear 21 1015 73 12874 0.35 191.947 10:22 27.07.2019
4587 Clear 21 1015 68 12874 1.5 290 09:41 27.07.2019
4588 Clear 22 1015 68 12874 1.5 290 09:23 27.07.2019
4589 Clear 22 1015 68 12874 2.32 160.143 08:49 27.07.2019
4590 Clear 22 1015 68 12874 2.32 160.143 08:49 27.07.2019
4591 Clear 22 1015 68 12874 2.32 160.143 08:30 27.07.2019
4592 Clear 22 1015 60 14484 2.32 160.143 07:56 27.07.2019
4593 Clear 23 1015 60 14484 2.32 160.143 07:33 27.07.2019
4594 Clear 23 1014 56 14484 2.32 160.143 06:57 27.07.2019
4595 Clear 23 1014 56 14484 2.32 160.143 06:57 27.07.2019
4596 Clear 24 1014 56 14484 2.32 160.143 06:32 27.07.2019
4597 Clear 25 1014 53 12874 1.86 241.749 05:54 27.07.2019
4598 Clear 25 1014 53 12874 1.86 241.749 05:32 27.07.2019
4599 Clear 26 1014 44 14484 1.5 0 04:35 27.07.2019
4600 Clear 28 1014 37 16093 1.5 0 03:29 27.07.2019
4601 Clear 31 1014 37 16093 1.5 250 02:41 27.07.2019
4602 Clear 32 1015 24 16093 3.6 110 01:52 27.07.2019
4603 Clear 31 1014 42 16093 5.7 270 01:28 27.07.2019
4604 Clear 31 1014 27 16093 4.6 270 00:33 27.07.2019
4605 Clouds 32 1015 54 16093 6.7 270 23:58 26.07.2019
4606 Clear 32 1015 42 12874 2.6 260 23:38 26.07.2019
4607 Clear 31 1015 42 12874 2.6 260 23:20 26.07.2019
4608 Clear 32 1015 40 12874 2.6 0 22:42 26.07.2019
4609 Clear 32 1015 40 12874 2.6 0 22:23 26.07.2019
4610 Clear 31 1016 43 12874 4.28 220.88 21:49 26.07.2019
4611 Clear 31 1016 43 12874 2.81 208.607 21:20 26.07.2019
4612 Clear 30 1016 33 14484 1.5 250 20:48 26.07.2019
4613 Clear 30 1016 33 14484 1.5 250 20:30 26.07.2019
4614 Clear 29 1016 45 11265 2.59 212.247 19:45 26.07.2019
4615 Clear 28 1016 45 11265 2.59 212.247 19:26 26.07.2019
4616 Clouds 27 1016 61 14484 1.5 0 18:59 26.07.2019
4617 Clear 27 1016 54 11265 2.59 212.247 18:41 26.07.2019
4618 Clear 26 1016 54 11265 0.77 139.479 18:20 26.07.2019
4619 Haze 24 1016 64 9656 0.77 139.479 17:48 26.07.2019
4620 Haze 24 1016 64 9656 0.77 139.479 17:20 26.07.2019
4621 Haze 23 1016 94 12874 0.77 139.479 16:59 26.07.2019
4622 Haze 22 1016 73 9656 1.5 270 16:41 26.07.2019
4623 Haze 22 1016 73 9656 1.5 270 16:21 26.07.2019
4624 Haze 21 1016 83 11265 2.1 250 15:59 26.07.2019
4625 Haze 20 1015 77 9656 0.77 139.479 15:40 26.07.2019
4626 Haze 20 1015 77 9656 1.29 189.104 15:20 26.07.2019
4627 Clear 21 1014 68 11265 1.29 189.104 14:44 26.07.2019
4628 Clear 21 1014 68 11265 1.29 189.104 14:25 26.07.2019
4629 Clear 21 1014 68 11265 1.29 189.104 13:47 26.07.2019
4630 Clear 21 1014 68 11265 0.56 235.831 13:28 26.07.2019
4631 Clear 21 1014 68 11265 0.56 235.831 12:50 26.07.2019
4632 Clear 21 1014 68 11265 1.4 192.952 12:24 26.07.2019
4633 Clouds 21 1014 77 16093 1.4 192.952 11:58 26.07.2019
4634 Clear 21 1014 68 11265 1.4 192.952 11:37 26.07.2019
4635 Clear 21 1014 68 11265 1.4 192.952 11:18 26.07.2019
4636 Clear 21 1015 68 12874 1.5 280 10:46 26.07.2019
4637 Clear 22 1015 68 12874 1.5 280 10:28 26.07.2019
4638 Clear 22 1014 64 12874 1.4 192.952 09:50 26.07.2019
4639 Clear 22 1014 64 12874 1.4 192.952 09:31 26.07.2019
4640 Clear 23 1014 60 12874 1.8 227.048 08:42 26.07.2019
4641 Clear 23 1014 60 12874 1.8 227.048 08:21 26.07.2019
4642 Clear 23 1013 57 12874 1.8 227.048 07:52 26.07.2019
4643 Clear 23 1013 57 12874 1.8 227.048 07:26 26.07.2019
4644 Clear 24 1013 57 14484 1.8 227.048 06:41 26.07.2019
4645 Clear 26 1012 39 16093 2.1 280 04:50 26.07.2019
4646 Clear 28 1012 39 16093 2.1 280 04:21 26.07.2019
4647 Clear 31 1012 35 16093 3.1 260 02:25 26.07.2019
4648 Clear 30 1012 33 16093 2.7 234.455 01:35 26.07.2019
4649 Clear 30 1013 38 14484 1.5 0 00:39 26.07.2019
4650 Clouds 30 1014 45 12874 2.1 300 23:55 25.07.2019
4651 Clouds 30 1014 45 12874 2.1 300 23:23 25.07.2019
4652 Clouds 30 1014 65 16093 8.2 270 22:55 25.07.2019
4653 Clear 30 1014 51 12874 2.1 290 22:36 25.07.2019
4654 Clear 30 1014 51 12874 2.1 290 22:18 25.07.2019
4655 Clear 29 1014 42 14484 2.25 178.6 21:42 25.07.2019
4656 Rain 29 1014 42 14484 2.36 172.296 21:21 25.07.2019
4657 Rain 29 1014 54 11265 2.12 165.379 20:47 25.07.2019
4658 Rain 28 1014 54 11265 2.12 165.379 20:22 25.07.2019
4659 Rain 27 1014 57 11265 2.12 165.379 19:44 25.07.2019
4660 Rain 27 1014 57 11265 2.12 165.379 19:44 25.07.2019
4661 Rain 26 1014 57 11265 2.12 165.379 19:25 25.07.2019
4662 Rain 26 1014 78 16093 3.1 240 18:57 25.07.2019
4663 Rain 25 1014 54 12874 2.12 165.379 18:38 25.07.2019
4664 Rain 24 1014 54 12874 1.08 120.664 18:20 25.07.2019
4665 Rain 24 1013 61 12874 1.08 120.664 17:43 25.07.2019
4666 Rain 24 1013 61 12874 1.08 120.664 17:24 25.07.2019
4667 Rain 24 1014 61 16093 1.08 120.664 16:44 25.07.2019
4668 Rain 23 1014 69 12874 1.08 120.664 16:26 25.07.2019
4669 Rain 23 1014 73 12874 1.08 120.664 15:56 25.07.2019
4670 Rain 22 1014 73 12874 1.05 190.036 15:21 25.07.2019
4671 Rain 22 1014 78 16093 1.5 320 14:59 25.07.2019
4672 Clear 22 1013 64 12874 1.05 190.036 14:40 25.07.2019
4673 Clear 22 1014 69 16093 1.5 240 14:21 25.07.2019
4674 Mist 22 1013 64 16093 1.05 190.036 13:42 25.07.2019
4675 Mist 22 1013 64 16093 0.59 153.785 13:23 25.07.2019
4676 Haze 22 1013 64 16093 0.59 153.785 12:39 25.07.2019
4677 Haze 22 1013 64 16093 0.43 205.675 12:21 25.07.2019
4678 Haze 23 1013 83 3219 2.6 230 11:41 25.07.2019
4679 Haze 23 1013 57 16093 0.43 205.675 11:23 25.07.2019
4680 Haze 23 1013 61 16093 0.43 205.675 10:45 25.07.2019
4681 Haze 23 1013 61 16093 0.43 205.675 10:26 25.07.2019
4682 Haze 23 1013 83 3017 2.1 210 09:57 25.07.2019
4683 Haze 23 1014 64 16093 0.43 205.675 09:39 25.07.2019
4684 Haze 23 1014 57 16093 3.3 179.826 08:54 25.07.2019
4685 Haze 23 1014 57 16093 3.3 179.826 08:36 25.07.2019
4686 Haze 23 1014 83 3017 2.6 200 07:49 25.07.2019
4687 Haze 23 1014 83 3017 2.6 200 07:26 25.07.2019
4688 Clear 23 1014 64 16093 3.3 179.826 06:40 25.07.2019
4689 Clear 25 1014 57 16093 1.67 180 05:37 25.07.2019
4690 Clear 25 1015 30 16093 5.1 110 04:55 25.07.2019
4691 Clear 27 1022 28 1200 3.1 320 04:19 25.07.2019
4692 Clear 33 1012 38 16093 1.5 0 01:31 25.07.2019
4693 Clear 33 1012 31 16093 3.1 0 00:42 25.07.2019
4694 Clear 35 1012 31 16093 3.1 0 00:19 25.07.2019
4695 Haze 34 1013 31 8047 2.1 0 23:44 24.07.2019
4696 Haze 35 1013 31 8047 2.1 0 23:25 24.07.2019
4697 Clear 35 1013 32 16093 4.03 214.719 22:47 24.07.2019
4698 Clear 35 1013 32 16093 4.03 214.719 22:23 24.07.2019
4699 Clouds 34 1014 47 16093 5.1 260 21:56 24.07.2019
4700 Clear 34 1013 36 16093 4.03 214.719 21:38 24.07.2019
4701 Clear 32 1013 36 16093 3.38 220.199 21:20 24.07.2019
4702 Clear 32 1013 36 16093 3.38 220.199 21:20 24.07.2019
4703 Clear 32 1014 36 16093 2.64 202.825 20:48 24.07.2019
4704 Clear 32 1014 36 16093 2.64 202.825 20:29 24.07.2019
4705 Clear 31 1014 45 16093 2.64 202.825 19:59 24.07.2019
4706 Clear 30 1014 45 16093 2.64 202.825 19:41 24.07.2019
4707 Clear 30 1014 45 16093 2.64 202.825 19:20 24.07.2019
4708 Clear 28 1014 51 16093 2.64 202.825 18:44 24.07.2019
4709 Clear 28 1014 51 16093 1.1 192.846 18:24 24.07.2019
4710 Clear 26 1014 61 14484 1.1 192.846 17:49 24.07.2019
4711 Clear 25 1014 61 14484 1.1 192.846 17:25 24.07.2019
4712 Haze 24 1015 83 12874 4.1 260 16:59 24.07.2019
4713 Haze 24 1015 83 12874 4.1 260 16:59 24.07.2019
4714 Haze 23 1014 78 14484 1.1 192.846 16:39 24.07.2019
4715 Haze 23 1014 78 14484 1.1 192.846 16:21 24.07.2019
4716 Smoke 21 1013 73 16093 1.1 192.846 15:38 24.07.2019
4717 Smoke 21 1013 73 16093 0.3 206.996 15:20 24.07.2019
4718 Clear 21 1013 73 16093 0.3 206.996 14:47 24.07.2019
4719 Clear 21 1013 73 16093 0.3 206.996 14:22 24.07.2019
4720 Clouds 21 1014 83 12874 0.3 206.996 13:58 24.07.2019
4721 Clear 21 1013 73 16093 0.3 206.996 13:36 24.07.2019
4722 Clear 21 1013 73 16093 0.51 180.895 13:18 24.07.2019
4723 Clear 21 1014 73 16093 0.51 180.895 12:45 24.07.2019
4724 Clear 21 1014 73 16093 1.28 182.862 12:22 24.07.2019
4725 Clear 22 1014 73 16093 1.28 182.862 11:37 24.07.2019
4726 Clear 22 1014 73 16093 1.28 182.862 11:19 24.07.2019
4727 Clear 22 1014 73 16093 1.28 182.862 10:43 24.07.2019
4728 Clear 22 1014 73 16093 1.28 182.862 10:24 24.07.2019
4729 Clear 22 1015 73 16093 1.28 182.862 09:44 24.07.2019
4730 Clear 22 1015 73 16093 1.28 182.862 09:44 24.07.2019
4731 Clear 23 1015 73 16093 2.93 149.08 09:24 24.07.2019
4732 Clear 23 1014 73 16093 2.93 149.08 08:55 24.07.2019
4733 Clear 23 1014 73 16093 2.43 154.174 08:30 24.07.2019
4734 Clear 23 1014 64 16093 2.1 280 07:51 24.07.2019
4735 Clear 23 1014 64 16093 2.1 280 07:23 24.07.2019
4736 Clear 24 1014 60 16093 1.5 0 06:29 24.07.2019
4737 Clear 26 1014 57 16093 1.23 271.263 05:33 24.07.2019
4738 Clouds 33 1013 60 16093 7.2 260 01:59 24.07.2019
4739 Clear 32 1013 33 16093 3.6 260 01:29 24.07.2019
4740 Clouds 33 1013 53 16093 7.2 270 00:57 24.07.2019
4741 Clear 34 1013 33 16093 2.6 0 00:22 24.07.2019
4742 Clear 34 1013 40 16093 2.1 0 23:42 23.07.2019
4743 Clear 34 1013 40 16093 2.1 0 23:23 23.07.2019
4744 Clear 33 1014 42 16093 2.1 280 22:40 23.07.2019
4745 Clear 33 1014 42 16093 2.1 280 22:20 23.07.2019
4746 Clouds 32 1017 37 16093 3.6 240 21:59 23.07.2019
4747 Clouds 32 1015 45 16093 4.72 231.621 21:41 23.07.2019
4748 Clouds 30 1015 45 16093 3.45 226.808 21:22 23.07.2019
4749 Rain 29 1016 69 14484 2.1 280 20:47 23.07.2019
4750 Rain 28 1016 69 14484 2.1 280 20:25 23.07.2019
4751 Clear 28 1016 57 14484 2.1 260 19:43 23.07.2019
4752 Clear 28 1016 57 14484 2.1 260 19:22 23.07.2019
4753 Clouds 27 1016 78 16093 4.6 280 18:52 23.07.2019
4754 Clear 24 1015 69 14484 2.55 228.774 18:24 23.07.2019
4755 Clear 24 1018 57 16093 2.55 228.774 17:56 23.07.2019
4756 Clear 23 1015 78 12874 2.55 228.774 17:38 23.07.2019
4757 Clear 23 1015 78 12874 2.55 228.774 17:19 23.07.2019
4758 Mist 22 1015 73 14484 2.55 228.774 16:41 23.07.2019
4759 Mist 22 1015 73 14484 2.55 228.774 16:21 23.07.2019
4760 Mist 21 1015 93 16093 2.6 210 15:46 23.07.2019
4761 Mist 21 1014 73 16093 1.01 307.83 15:24 23.07.2019
4762 Clear 21 1014 73 16093 1.01 307.83 14:40 23.07.2019
4763 Clear 21 1014 73 16093 1.01 307.83 14:22 23.07.2019
4764 Clouds 21 1014 82 14484 4.1 310 13:59 23.07.2019
4765 Clear 21 1014 73 16093 1.01 307.83 13:40 23.07.2019
4766 Clear 21 1014 73 16093 0.92 322.545 13:21 23.07.2019
4767 Clear 21 1015 77 16093 0.92 322.545 12:48 23.07.2019
4768 Clear 21 1015 77 16093 2.59 188.312 12:26 23.07.2019
4769 Clear 21 1015 77 16093 1.5 280 11:51 23.07.2019
4770 Clear 21 1015 77 16093 1.5 280 11:32 23.07.2019
4771 Clouds 21 1015 93 12874 2.1 260 10:59 23.07.2019
4772 Clear 21 1015 73 16093 2.59 188.312 10:41 23.07.2019
4773 Clear 21 1015 73 16093 2.59 188.312 10:21 23.07.2019
4774 Clear 21 1015 77 16093 2.59 188.312 09:41 23.07.2019
4775 Clear 21 1015 77 16093 1.44 253.327 09:19 23.07.2019
4776 Clear 22 1014 73 16093 1.53 217.852 08:43 23.07.2019
4777 Clear 22 1014 73 16093 1.53 217.852 08:19 23.07.2019
4778 Clear 22 1014 69 16093 1.53 217.852 07:55 23.07.2019
4779 Clear 22 1014 69 16093 1.53 217.852 07:36 23.07.2019
4780 Clear 22 1014 69 16093 2.1 280 06:48 23.07.2019
4781 Clear 23 1014 69 16093 2.1 280 06:29 23.07.2019
4782 Clear 27 1014 57 16093 4.23 221.666 03:27 23.07.2019
4783 Clear 28 1014 48 16093 4.1 270 01:33 23.07.2019
4784 Clear 29 1014 51 16093 3.89 212.347 00:31 23.07.2019
4785 Clear 29 1015 31 16093 4.04 227.106 23:56 22.07.2019
4786 Clear 30 1014 51 16093 1.5 0 23:36 22.07.2019
4787 Clear 30 1014 51 16093 1.5 0 23:18 22.07.2019
4788 Clear 28 1015 45 14484 1.5 0 22:42 22.07.2019
4789 Clear 28 1015 45 14484 1.5 0 22:21 22.07.2019
4790 Haze 26 1015 51 12874 4.04 227.106 21:43 22.07.2019
4791 Haze 26 1015 51 12874 2.94 197.837 21:23 22.07.2019
4792 Haze 25 1015 64 9656 2.16 220.912 20:50 22.07.2019
4793 Haze 24 1015 64 9656 2.16 220.912 20:32 22.07.2019
4794 Haze 22 1015 73 9656 2.16 220.912 19:58 22.07.2019
4795 Haze 22 1015 73 9656 2.16 220.912 19:38 22.07.2019
4796 Haze 22 1015 73 9656 2.16 220.912 19:19 22.07.2019
4797 Haze 20 1015 73 6437 2.16 220.912 18:46 22.07.2019
4798 Haze 21 1015 73 6437 1.92 226.837 18:27 22.07.2019
4799 Mist 20 1015 88 11265 2.6 230 17:57 22.07.2019
4800 Mist 20 1014 82 11265 1.92 226.837 17:38 22.07.2019
4801 Mist 19 1014 82 11265 1.92 226.837 17:19 22.07.2019
4802 Haze 19 1014 88 9656 2.1 230 16:40 22.07.2019
4803 Haze 18 1014 88 8047 1.92 226.837 16:21 22.07.2019
4804 Mist 18 1014 88 12874 1.92 226.837 15:44 22.07.2019
4805 Mist 17 1014 88 12874 0.52 75.696 15:20 22.07.2019
4806 Smoke 17 1014 88 14484 0.52 75.696 14:44 22.07.2019
4807 Smoke 17 1014 88 14484 0.52 75.696 14:25 22.07.2019
4808 Smoke 17 1013 77 16093 0.52 75.696 13:52 22.07.2019
4809 Smoke 17 1014 88 12874 0.52 75.696 13:32 22.07.2019
4810 Smoke 17 1014 93 16093 1.5 340 12:56 22.07.2019
4811 Smoke 17 1014 88 12874 0.52 75.696 12:36 22.07.2019
4812 Clouds 18 1014 82 16093 0.57 290.944 11:57 22.07.2019
4813 Clouds 18 1014 88 14484 2.1 280 11:39 22.07.2019
4814 Clouds 18 1014 88 14484 2.1 280 11:20 22.07.2019
4815 Clouds 18 1014 88 12874 0.57 290.944 10:38 22.07.2019
4816 Clouds 18 1014 82 12874 1.5 270 10:20 22.07.2019
4817 Clear 18 1014 82 12874 0.57 290.944 09:40 22.07.2019
4818 Clear 19 1014 82 12874 2.26 181.803 09:21 22.07.2019
4819 Clear 19 1014 82 16093 2.26 181.803 08:43 22.07.2019
4820 Clear 19 1014 82 16093 2.26 181.803 08:23 22.07.2019
4821 Clear 19 1013 82 16093 2.26 181.803 07:54 22.07.2019
4822 Clear 19 1013 82 16093 2.26 181.803 07:31 22.07.2019
4823 Clouds 20 1013 88 16093 2.6 210 06:33 22.07.2019
4824 Clear 25 1012 60 16093 1.5 0 03:50 22.07.2019
4825 Clear 27 1012 57 16093 2.6 280 01:51 22.07.2019
4826 Clear 28 1013 60 16093 3.6 270 00:50 22.07.2019
4827 Clear 28 1013 60 16093 3.6 270 00:24 22.07.2019
4828 Clear 28 1014 31 16093 3.1 120 23:54 21.07.2019
4829 Clear 28 1013 54 16093 1.5 250 23:27 21.07.2019
4830 Clear 28 1013 54 16093 4.1 270 22:41 21.07.2019
4831 Clear 27 1013 54 16093 4.1 270 22:22 21.07.2019
4832 Clear 27 1015 39 16093 3.6 120 21:57 21.07.2019
4833 Clear 27 1013 57 16093 2.1 0 21:37 21.07.2019
4834 Clear 26 1013 57 16093 2.1 0 21:19 21.07.2019
4835 Clear 26 1014 54 16093 3.07 227.06 20:44 21.07.2019
4836 Clear 25 1014 54 16093 3.07 227.06 20:25 21.07.2019
4837 Clear 25 1014 54 16093 3.07 227.06 20:25 21.07.2019
4838 Clouds 24 1014 68 16093 3.6 280 19:55 21.07.2019
4839 Clear 24 1014 57 16093 3.07 227.06 19:36 21.07.2019
4840 Clear 24 1014 57 16093 3.07 227.06 19:18 21.07.2019
4841 Haze 22 1014 64 16093 3.07 227.06 18:44 21.07.2019
4842 Haze 22 1014 64 16093 0.61 209.311 18:25 21.07.2019
4843 Haze 20 1014 88 16093 2.6 200 17:42 21.07.2019
4844 Haze 20 1014 88 16093 2.6 200 17:20 21.07.2019
4845 Clouds 18 1013 82 16093 0.61 209.311 16:45 21.07.2019
4846 Clouds 18 1014 77 16093 1.5 230 16:25 21.07.2019
4847 Clouds 17 1013 82 16093 0.61 209.311 15:57 21.07.2019
4848 Clouds 17 1013 82 16093 0.61 209.311 15:36 21.07.2019
4849 Clouds 16 1013 82 16093 1.4 238.889 15:18 21.07.2019
4850 Clouds 16 1013 82 16093 1.4 238.889 14:41 21.07.2019
4851 Clouds 16 1013 82 16093 1.4 238.889 14:22 21.07.2019
4852 Clouds 17 1013 82 16093 1.4 238.889 13:45 21.07.2019
4853 Clear 17 1013 77 16093 1.19 246.238 13:27 21.07.2019
4854 Clear 17 1013 82 16093 1.5 270 12:43 21.07.2019
4855 Clear 17 1013 82 16093 1.5 270 12:24 21.07.2019
4856 Clear 17 1013 82 16093 1.13 184.531 11:47 21.07.2019
4857 Clear 17 1013 82 16093 1.13 184.531 11:29 21.07.2019
4858 Clear 17 1013 82 16093 1.13 184.531 11:29 21.07.2019
4859 Clouds 17 1014 88 16093 2.1 180 10:57 21.07.2019
4860 Clouds 17 1014 88 16093 2.1 180 10:39 21.07.2019
4861 Clouds 18 1014 88 16093 2.1 180 10:20 21.07.2019
4862 Clear 18 1013 77 16093 1.13 184.531 09:38 21.07.2019
4863 Clear 18 1013 77 16093 1.13 184.531 09:38 21.07.2019
4864 Clear 18 1013 77 16093 1.12 189.167 09:19 21.07.2019
4865 Clear 18 1013 77 16093 0.78 200.04 08:41 21.07.2019
4866 Clear 18 1013 77 16093 0.78 200.04 08:23 21.07.2019
4867 Clear 19 1013 77 16093 1.5 260 07:35 21.07.2019
4868 Clear 19 1012 77 16093 3.1 260 06:45 21.07.2019
4869 Clear 20 1012 68 16093 2.6 0 05:28 21.07.2019
4870 Clear 24 1012 60 16093 4.89 234.705 02:27 21.07.2019
4871 Clouds 25 1013 68 16093 7.7 270 00:58 21.07.2019
4872 Clear 25 1013 57 16093 5.08 231.416 00:39 21.07.2019
4873 Clear 25 1013 57 16093 4.14 227.944 00:18 21.07.2019
4874 Haze 25 1014 56 1609 4.1 250 23:40 20.07.2019
4875 Haze 25 1014 56 1609 4.1 250 23:21 20.07.2019
4876 Clear 25 1014 57 16093 2.6 0 22:44 20.07.2019
4877 Haze 25 1014 57 16093 2.6 0 22:22 20.07.2019
4878 Haze 25 1014 56 9656 4.1 270 21:46 20.07.2019
4879 Clear 24 1014 54 16093 3.1 203.046 21:28 20.07.2019
4880 Clear 24 1015 53 16093 3.36 215.966 20:57 20.07.2019
4881 Clear 23 1014 50 14484 3.36 215.966 20:38 20.07.2019
4882 Haze 23 1014 50 14484 3.36 215.966 20:18 20.07.2019
4883 Haze 23 1014 50 14484 3.36 215.966 20:18 20.07.2019
4884 Clouds 22 1015 73 16093 4.1 230 19:45 20.07.2019
4885 Clouds 22 1014 60 12874 3.36 215.966 19:20 20.07.2019
4886 Clouds 21 1015 72 16093 3.36 215.966 18:42 20.07.2019
4887 Clouds 20 1015 64 12874 1.37 215.591 18:20 20.07.2019
4888 Clouds 20 1015 64 16093 1.5 0 17:53 20.07.2019
4889 Clouds 19 1014 64 12874 1.37 215.591 17:23 20.07.2019
4890 Clouds 19 1015 72 16093 1.37 215.591 16:44 20.07.2019
4891 Clouds 19 1014 64 16093 1.37 215.591 16:26 20.07.2019
4892 Clouds 18 1014 77 16093 1.37 215.591 15:58 20.07.2019
4893 Clouds 18 1014 72 14484 1.37 215.591 15:38 20.07.2019
4894 Clouds 18 1014 72 14484 0.91 182.391 15:20 20.07.2019
4895 Clouds 18 1014 77 14484 0.91 182.391 14:47 20.07.2019
4896 Clouds 18 1014 77 14484 0.91 182.391 14:27 20.07.2019
4897 Clouds 18 1014 77 14484 0.91 182.391 13:39 20.07.2019
4898 Clouds 18 1014 77 14484 1.27 196.163 13:20 20.07.2019
4899 Clouds 18 1014 82 16093 1.27 196.163 12:57 20.07.2019
4900 Clouds 18 1014 77 16093 1.63 207.177 12:26 20.07.2019
4901 Clouds 18 1014 77 16093 1.63 207.177 12:26 20.07.2019
4902 Clouds 18 1014 82 16093 2.6 270 11:57 20.07.2019
4903 Clouds 18 1014 88 16093 3.1 180 11:37 20.07.2019
4904 Clouds 18 1014 77 16093 1.63 207.177 11:19 20.07.2019
4905 Clouds 18 1014 72 16093 2.1 270 10:37 20.07.2019
4906 Clouds 18 1014 77 16093 1.63 207.177 10:18 20.07.2019
4907 Clouds 18 1014 72 16093 1.63 207.177 09:45 20.07.2019
4908 Clouds 18 1014 77 16093 1.5 0 09:22 20.07.2019
4909 Clouds 18 1014 93 16093 2.6 200 08:47 20.07.2019
4910 Clouds 18 1014 77 16093 1.5 270 08:20 20.07.2019
4911 Clouds 18 1014 77 16093 4.1 250 07:26 20.07.2019
4912 Clear 19 1013 72 16093 2.1 260 06:43 20.07.2019
4913 Clear 19 1013 72 16093 2.1 260 06:43 20.07.2019
4914 Clear 20 1012 64 16093 2.1 260 05:21 20.07.2019
4915 Clear 22 1012 60 16093 2.1 260 04:30 20.07.2019
4916 Clear 24 1013 57 16093 1.5 250 01:22 20.07.2019
4917 Clear 24 1013 47 16093 3.6 180 00:49 20.07.2019
4918 Clear 25 1013 47 16093 3.6 180 00:26 20.07.2019
4919 Clear 25 1013 50 16093 3.1 260 23:56 19.07.2019
4920 Clear 25 1013 50 16093 3.1 260 23:37 19.07.2019
4921 Clear 25 1013 50 16093 3.1 260 23:18 19.07.2019
4922 Clear 25 1014 53 16093 5.7 240 22:40 19.07.2019
4923 Clear 25 1014 53 16093 5.7 240 22:20 19.07.2019
4924 Clear 24 1014 42 16093 4.11 218.847 21:43 19.07.2019
4925 Clear 24 1014 42 16093 3.09 199.238 21:24 19.07.2019
4926 Clear 23 1014 53 16093 3.09 199.238 20:43 19.07.2019
4927 Clear 23 1014 53 16093 3.09 199.238 20:25 19.07.2019
4928 Clear 22 1015 53 16093 2.1 0 19:39 19.07.2019
4929 Clear 21 1015 53 16093 2.1 0 19:19 19.07.2019
4930 Clouds 21 1014 72 12874 2.6 0 18:41 19.07.2019
4931 Mist 19 1014 64 14484 1.76 226.357 18:19 19.07.2019
4932 Haze 19 1014 68 16093 1.5 0 17:46 19.07.2019
4933 Haze 18 1014 68 16093 1.5 0 17:25 19.07.2019
4934 Mist 18 1014 72 11265 1.76 226.357 16:48 19.07.2019
4935 Mist 18 1014 72 11265 1.76 226.357 16:25 19.07.2019
4936 Mist 17 1014 68 16093 1.76 226.357 15:49 19.07.2019
4937 Clouds 17 1014 72 12874 1.76 226.357 15:30 19.07.2019
4938 Clouds 17 1014 72 16093 2.1 130 14:56 19.07.2019
4939 Clouds 17 1014 87 16093 2.1 80 14:38 19.07.2019
4940 Clouds 17 1013 72 12874 1.67 219.061 14:20 19.07.2019
4941 Clouds 17 1014 87 16093 2.1 200 13:43 19.07.2019
4942 Clouds 17 1014 87 16093 2.1 200 13:43 19.07.2019
4943 Clouds 17 1013 77 16093 1.53 245.013 13:24 19.07.2019
4944 Clouds 17 1013 77 16093 1.53 245.013 12:54 19.07.2019
4945 Clouds 17 1013 77 16093 1.02 192.614 12:30 19.07.2019
4946 Clouds 17 1014 82 16093 2.1 250 11:58 19.07.2019
4947 Clear 17 1013 77 16093 1.02 192.614 11:39 19.07.2019
4948 Clear 17 1013 77 16093 1.02 192.614 11:18 19.07.2019
4949 Clear 17 1014 77 16093 1.02 192.614 10:40 19.07.2019
4950 Clear 17 1014 77 16093 1.02 192.614 10:21 19.07.2019
4951 Clear 17 1014 77 16093 1.02 192.614 10:21 19.07.2019
4952 Clouds 17 1014 93 16093 1.5 220 09:44 19.07.2019
4953 Clear 17 1014 77 16093 1.64 216.828 09:22 19.07.2019
4954 Clear 17 1014 77 16093 1.64 216.828 08:59 19.07.2019
4955 Clear 17 1014 77 16093 1.53 226.984 08:40 19.07.2019
4956 Clouds 18 1014 77 16093 1.53 226.984 07:48 19.07.2019
4957 Clouds 18 1014 77 16093 1.53 226.984 07:26 19.07.2019
4958 Clouds 20 1013 82 16093 5.1 260 05:55 19.07.2019
4959 Clear 25 1013 64 16093 3.1 0 02:23 19.07.2019
4960 Clouds 25 1014 73 16093 6.7 270 00:59 19.07.2019
4961 Clear 25 1014 64 16093 5.1 240 00:31 19.07.2019
4962 Clear 26 1014 57 16093 4.49 224.359 23:43 18.07.2019
4963 Clear 26 1014 57 16093 4.49 224.359 23:24 18.07.2019
4964 Clear 26 1016 42 16093 5.7 120 22:59 18.07.2019
4965 Clear 26 1014 54 14484 2.6 0 22:39 18.07.2019
4966 Clear 26 1014 54 14484 2.6 0 22:18 18.07.2019
4967 Clear 26 1015 54 11265 4.49 224.359 21:43 18.07.2019
4968 Clear 25 1015 54 11265 2.83 202.682 21:24 18.07.2019
4969 Clear 25 1015 54 11265 2.83 202.682 21:24 18.07.2019
4970 Clear 24 1015 54 12874 2.97 208.086 20:49 18.07.2019
4971 Clear 24 1015 54 12874 2.97 208.086 20:29 18.07.2019
4972 Clear 24 1015 54 12874 2.97 208.086 20:29 18.07.2019
4973 Clouds 23 1016 64 16093 2.6 280 19:53 18.07.2019
4974 Clouds 23 1016 64 11265 1.5 0 19:32 18.07.2019
4975 Clear 22 1017 64 16093 2.97 208.086 18:58 18.07.2019
4976 Clouds 21 1015 68 11265 1.5 0 18:38 18.07.2019
4977 Clouds 21 1015 68 11265 1.5 0 18:19 18.07.2019
4978 Haze 20 1015 73 9656 1.05 226.078 17:42 18.07.2019
4979 Haze 20 1015 73 9656 1.05 226.078 17:42 18.07.2019
4980 Haze 20 1015 73 9656 1.05 226.078 17:24 18.07.2019
4981 Haze 20 1015 77 12874 1.05 226.078 16:55 18.07.2019
4982 Haze 19 1015 77 12874 1.5 130 16:30 18.07.2019
4983 Haze 19 1015 82 11265 1.5 60 15:59 18.07.2019
4984 Haze 19 1015 77 12874 1.05 226.078 15:39 18.07.2019
4985 Haze 18 1015 77 12874 1.25 186.042 15:21 18.07.2019
4986 Haze 18 1015 72 14484 2.1 140 14:43 18.07.2019
4987 Haze 19 1015 72 14484 2.1 140 14:25 18.07.2019
4988 Haze 18 1015 82 16093 2.1 150 13:48 18.07.2019
4989 Haze 18 1015 82 16093 2.1 150 13:23 18.07.2019
4990 Clouds 18 1015 82 14484 1.5 140 12:50 18.07.2019
4991 Clouds 18 1015 82 14484 1.5 140 12:21 18.07.2019
4992 Clouds 18 1015 88 11265 2.1 150 11:57 18.07.2019
4993 Clouds 18 1015 88 11265 2.1 150 11:39 18.07.2019
4994 Clouds 18 1015 88 11265 2.1 150 11:20 18.07.2019
4995 Clouds 18 1015 88 14484 3.1 140 10:41 18.07.2019
4996 Clouds 19 1015 88 16093 3.6 120 09:50 18.07.2019
4997 Clouds 19 1015 88 16093 3.6 120 09:26 18.07.2019
4998 Clouds 19 1015 93 16093 1.69 218.972 08:51 18.07.2019
4999 Clouds 19 1015 77 16093 1.69 218.972 08:23 18.07.2019
5000 Clouds 19 1015 82 16093 1.5 200 07:56 18.07.2019
5001 Clouds 19 1015 82 16093 1.5 200 07:35 18.07.2019
5002 Clouds 19 1014 73 16093 2.1 290 06:46 18.07.2019
5003 Clouds 20 1014 77 14484 2.1 270 06:19 18.07.2019
5004 Clear 23 1013 57 16093 2.69 235.802 03:34 18.07.2019
5005 Clear 25 1014 57 16093 3.27 214.07 01:53 18.07.2019
5006 Clear 25 1014 57 16093 3.27 214.07 01:33 18.07.2019
5007 Clear 26 1015 45 16093 3.82 209.628 23:57 17.07.2019
5008 Clear 26 1014 61 16093 3.82 209.628 23:21 17.07.2019
5009 Clouds 26 1015 64 16093 5.1 90 22:59 17.07.2019
5010 Clear 25 1014 54 16093 1.5 250 22:41 17.07.2019
5011 Clear 26 1014 54 16093 1.5 250 22:22 17.07.2019
5012 Clear 25 1016 47 16093 2.1 140 21:56 17.07.2019
5013 Clear 25 1014 54 16093 3.82 209.628 21:37 17.07.2019
5014 Clear 25 1014 54 16093 3.43 188.175 21:19 17.07.2019
5015 Clear 25 1016 50 16093 2.6 100 20:55 17.07.2019
5016 Clear 25 1014 54 14484 1.5 0 20:36 17.07.2019
5017 Clear 24 1014 54 14484 1.5 0 20:18 17.07.2019
5018 Clouds 24 1015 68 12874 3.6 190 20:18 17.07.2019
5019 Haze 23 1014 57 14484 3.43 204.698 19:40 17.07.2019
5020 Haze 23 1014 57 14484 3.43 204.698 19:40 17.07.2019
5021 Haze 23 1014 57 14484 3.43 204.698 19:19 17.07.2019
5022 Clouds 22 1014 73 12874 1.5 0 18:44 17.07.2019
5023 Haze 21 1014 77 12874 2.6 0 18:21 17.07.2019
5024 Clear 21 1014 64 14484 1.87 157.055 18:21 17.07.2019
5025 Haze 21 1015 77 16093 1.87 157.055 17:57 17.07.2019
5026 Haze 20 1013 68 14484 1.87 157.055 17:39 17.07.2019
5027 Haze 20 1013 68 14484 1.87 157.055 17:20 17.07.2019
5028 Mist 19 1013 73 12874 1.87 157.055 16:40 17.07.2019
5029 Mist 19 1013 77 16093 2.6 140 16:20 17.07.2019
5030 Mist 19 1013 88 12874 3.6 80 15:51 17.07.2019
5031 Mist 19 1012 72 16093 1.5 120 15:31 17.07.2019
5032 Mist 18 1012 77 16093 2.28 140.211 14:57 17.07.2019
5033 Mist 18 1012 77 16093 2.28 140.211 14:38 17.07.2019
5034 Mist 18 1012 77 16093 2.28 140.211 14:20 17.07.2019
5035 Mist 18 1011 77 16093 3.6 110 13:49 17.07.2019
5036 Mist 18 1011 77 16093 3.6 110 13:31 17.07.2019
5037 Mist 19 1011 88 16093 2.6 120 12:55 17.07.2019
5038 Mist 19 1011 77 14484 2.29 138.358 12:36 17.07.2019
5039 Mist 18 1011 77 16093 2.6 120 12:18 17.07.2019
5040 Mist 19 1011 88 9656 3.6 140 11:40 17.07.2019
5041 Clouds 19 1011 88 16093 3.1 140 11:19 17.07.2019
5042 Clouds 19 1011 93 14484 2.1 130 10:45 17.07.2019
5043 Clouds 19 1011 82 16093 3.1 110 10:21 17.07.2019
5044 Haze 19 1011 77 9656 2.08 143.813 09:45 17.07.2019
5045 Haze 19 1011 77 9656 1.34 137.05 09:27 17.07.2019
5046 Clear 19 1011 77 14484 1.68 150.094 08:45 17.07.2019
5047 Clear 19 1011 77 14484 1.68 150.094 08:24 17.07.2019
5048 Clouds 19 1011 82 16093 2.6 190 07:58 17.07.2019
5049 Mist 19 1011 77 14484 1.68 150.094 07:38 17.07.2019
5050 Mist 20 1011 88 16093 1.68 150.094 07:19 17.07.2019
5051 Mist 20 1011 73 14484 1.5 0 06:45 17.07.2019
5052 Haze 21 1010 77 9656 3.1 190 06:22 17.07.2019
5053 Haze 22 1010 77 9656 3.1 190 05:38 17.07.2019
5054 Clear 23 1011 51 16093 3.1 120 04:58 17.07.2019
5055 Clear 25 1011 48 16093 3.6 130 03:55 17.07.2019
5056 Clear 27 1010 57 14484 1.5 0 02:43 17.07.2019
5057 Clear 28 1010 54 11265 1.5 0 01:42 17.07.2019
5058 Clear 28 1010 54 11265 1.5 0 01:22 17.07.2019
5059 Clear 28 1010 51 12874 2.94 211.114 00:42 17.07.2019
5060 Haze 29 1011 35 16093 5.1 180 00:22 17.07.2019
5061 Haze 29 1011 61 2816 3.6 250 23:46 16.07.2019
5062 Haze 29 1011 54 12874 3.56 227.892 23:24 16.07.2019
5063 Haze 28 1011 54 11265 2.1 260 22:57 16.07.2019
5064 Haze 29 1011 54 11265 2.1 260 22:39 16.07.2019
5065 Haze 28 1012 57 12874 3.6 260 22:18 16.07.2019
5066 Mist 28 1011 54 11265 1.5 0 21:41 16.07.2019
5067 Mist 27 1011 54 11265 1.5 0 21:20 16.07.2019
5068 Haze 27 1011 57 9656 3.02 216.608 20:41 16.07.2019
5069 Haze 26 1011 57 9656 3.02 216.608 20:23 16.07.2019
5070 Haze 26 1012 77 6437 4.1 270 19:55 16.07.2019
5071 Haze 26 1011 61 8047 3.02 216.608 19:37 16.07.2019
5072 Haze 25 1012 77 9656 1.5 270 19:19 16.07.2019
5073 Haze 24 1011 88 1609 2.6 0 18:44 16.07.2019
5074 Haze 23 1011 88 1609 2.6 0 18:21 16.07.2019
5075 Haze 22 1013 50 16093 2.08 226.169 17:55 16.07.2019
5076 Haze 21 1011 77 6437 2.08 226.169 17:36 16.07.2019
5077 Haze 19 1012 38 16093 2.08 226.169 16:56 16.07.2019
5078 Haze 19 1010 88 4828 2.08 226.169 16:38 16.07.2019
5079 Haze 19 1010 100 2012 2.08 226.169 16:18 16.07.2019
5080 Haze 18 1010 93 4828 2.08 226.169 15:39 16.07.2019
5081 Haze 17 1010 93 4828 0.55 258.074 15:21 16.07.2019
5082 Mist 18 1010 100 2816 1.5 250 14:57 16.07.2019
5083 Mist 18 1009 88 11265 0.55 258.074 14:38 16.07.2019
5084 Mist 18 1009 100 1609 0.55 258.074 14:20 16.07.2019
5085 Mist 18 1009 100 2012 0.55 258.074 13:44 16.07.2019
5086 Mist 18 1009 93 3219 0.92 239.712 13:20 16.07.2019
5087 Mist 18 1009 93 6437 1.5 150 12:44 16.07.2019
5088 Mist 18 1009 93 6437 1.5 150 12:20 16.07.2019
5089 Haze 18 1010 100 2012 0.84 180.136 11:58 16.07.2019
5090 Haze 18 1010 82 12874 0.84 180.136 11:40 16.07.2019
5091 Haze 18 1010 82 12874 0.84 180.136 11:21 16.07.2019
5092 Haze 19 1011 100 805 1.5 220 10:45 16.07.2019
5093 Haze 19 1011 100 805 1.5 220 10:22 16.07.2019
5094 Clear 19 1011 77 14484 0.84 180.136 09:58 16.07.2019
5095 Clear 19 1011 77 14484 0.84 180.136 09:40 16.07.2019
5096 Clear 19 1011 77 14484 0.63 72.29 09:19 16.07.2019
5097 Clear 20 1011 77 14484 0.28 177.572 08:42 16.07.2019
5098 Clear 20 1011 82 12874 0.28 177.572 08:20 16.07.2019
5099 Clear 20 1011 77 16093 0.28 177.572 07:42 16.07.2019
5100 Clear 20 1011 77 16093 0.28 177.572 07:24 16.07.2019
5101 Clear 20 1010 73 14484 0.28 177.572 06:48 16.07.2019
5102 Clear 22 1010 73 14484 1.18 166.33 06:27 16.07.2019
5103 Clear 23 1010 73 14484 1.5 260 05:37 16.07.2019
5104 Clear 24 1011 77 11265 2.1 290 05:18 16.07.2019
5105 Clear 25 1010 69 16093 2.6 280 04:19 16.07.2019
5106 Clear 28 1011 68 16093 4.6 270 03:21 16.07.2019
5107 Clear 29 1011 61 16093 1.5 0 02:31 16.07.2019
5108 Clear 30 1011 57 16093 3.3 207.039 01:49 16.07.2019
5109 Haze 29 1012 57 14484 3.3 207.039 00:49 16.07.2019
5110 Haze 30 1012 64 16093 5.1 250 00:22 16.07.2019
5111 Haze 29 1012 54 12874 3.63 217.67 23:53 15.07.2019
5112 Haze 29 1012 54 12874 3.63 217.67 23:34 15.07.2019
5113 Haze 28 1013 83 14484 4.1 230 22:55 15.07.2019
5114 Haze 28 1012 54 9656 3.63 217.67 22:37 15.07.2019
5115 Haze 28 1013 64 9656 4.1 250 22:18 15.07.2019
5116 Haze 28 1013 54 8047 1.5 0 21:42 15.07.2019
5117 Haze 28 1013 69 8047 5.1 260 21:20 15.07.2019
5118 Haze 27 1013 57 8047 3.35 214.681 20:57 15.07.2019
5119 Haze 27 1013 57 8047 3.35 214.681 20:39 15.07.2019
5120 Haze 26 1014 83 8047 3.6 220 20:21 15.07.2019
5121 Haze 25 1013 69 6437 3.35 214.681 19:44 15.07.2019
5122 Haze 24 1014 64 6437 1.5 70 19:22 15.07.2019
5123 Haze 22 1015 53 16093 2.1 130 18:57 15.07.2019
5124 Haze 22 1015 53 16093 2.1 130 18:57 15.07.2019
5125 Haze 21 1014 77 4828 3.35 214.681 18:38 15.07.2019
5126 Haze 21 1014 77 4828 1.4 174.624 18:19 15.07.2019
5127 Haze 20 1014 77 4828 1.4 174.624 17:55 15.07.2019
5128 Haze 20 1014 82 4023 1.4 174.624 17:37 15.07.2019
5129 Haze 19 1014 82 4023 1.4 174.624 17:18 15.07.2019
5130 Mist 18 1014 88 3219 1.4 174.624 16:39 15.07.2019
5131 Mist 18 1014 88 4023 2.1 200 16:20 15.07.2019
5132 Mist 18 1014 82 4023 2.1 240 15:57 15.07.2019
5133 Mist 18 1013 93 2414 1.4 174.624 15:37 15.07.2019
5134 Mist 18 1013 93 2414 1.1 222.742 15:19 15.07.2019
5135 Mist 18 1013 88 2816 1.1 222.742 14:45 15.07.2019
5136 Mist 18 1013 88 2816 1.1 222.742 14:25 15.07.2019
5137 Mist 18 1013 88 4023 1.1 222.742 13:55 15.07.2019
5138 Haze 18 1013 88 8047 1.1 222.742 13:36 15.07.2019
5139 Mist 18 1013 88 8047 1.5 250 13:18 15.07.2019
5140 Mist 18 1014 100 3219 1.5 230 12:41 15.07.2019
5141 Haze 18 1014 100 3219 1.5 230 12:21 15.07.2019
5142 Haze 18 1014 100 8047 1.5 240 11:43 15.07.2019
5143 Haze 18 1014 100 8047 1.5 240 11:25 15.07.2019
5144 Haze 18 1014 88 16093 1.5 230 10:48 15.07.2019
5145 Haze 18 1014 82 9656 1.11 200.111 10:29 15.07.2019
5146 Haze 18 1014 82 9656 1.11 200.111 09:55 15.07.2019
5147 Haze 19 1015 88 11265 2.1 0 09:36 15.07.2019
5148 Clouds 19 1015 82 11265 2.22 158.755 09:18 15.07.2019
5149 Clouds 19 1015 93 14484 2.22 158.755 08:41 15.07.2019
5150 Clouds 19 1015 82 12874 2.22 158.755 08:41 15.07.2019
5151 Clouds 19 1015 82 12874 2.22 158.755 08:23 15.07.2019
5152 Clouds 19 1015 82 12874 2.22 158.755 08:23 15.07.2019
5153 Mist 19 1015 82 12874 2.22 158.755 07:41 15.07.2019
5154 Mist 19 1015 82 16093 2.1 230 07:20 15.07.2019
5155 Mist 19 1014 82 14484 1.5 270 06:39 15.07.2019
5156 Clouds 21 1014 82 16093 2.75 210.468 05:49 15.07.2019
5157 Clouds 22 1014 77 16093 2.75 210.468 05:29 15.07.2019
5158 Clear 22 1013 53 16093 3.6 210 04:43 15.07.2019
5159 Clear 24 1014 37 16093 3.6 120 03:48 15.07.2019
5160 Clear 27 1013 64 16093 2.1 250 02:47 15.07.2019
5161 Fog 28 1015 29 16093 4.1 110 01:45 15.07.2019
5162 Fog 28 1014 61 12874 4.66 220.285 01:26 15.07.2019
5163 Haze 28 1014 73 14484 6.7 270 00:51 15.07.2019
5164 Haze 28 1014 57 9656 4.24 224.771 00:22 15.07.2019
5165 Haze 29 1014 54 9656 2.6 0 23:55 14.07.2019
5166 Haze 29 1014 54 9656 2.6 0 23:37 14.07.2019
5167 Haze 29 1015 64 8047 4.1 290 23:18 14.07.2019
5168 Haze 28 1016 33 16093 3.6 130 22:55 14.07.2019
5169 Haze 28 1014 54 9656 2.6 270 22:37 14.07.2019
5170 Haze 28 1015 57 9656 4.24 224.771 22:18 14.07.2019
5171 Haze 28 1015 57 9656 4.24 224.771 21:42 14.07.2019
5172 Haze 27 1016 37 16093 2.1 120 21:19 14.07.2019
5173 Haze 27 1016 37 16093 2.1 120 20:57 14.07.2019
5174 Haze 27 1016 37 16093 2.1 120 20:57 14.07.2019
5175 Haze 27 1014 57 11265 2.91 207.632 20:37 14.07.2019
5176 Haze 26 1015 64 8047 3.6 250 20:19 14.07.2019
5177 Haze 25 1014 61 9656 2.91 207.632 19:45 14.07.2019
5178 Haze 24 1014 61 9656 2.91 207.632 19:26 14.07.2019
5179 Haze 23 1014 73 8047 2.91 207.632 18:58 14.07.2019
5180 Haze 22 1014 73 8047 2.91 207.632 18:39 14.07.2019
5181 Haze 22 1016 64 9656 1.31 206.054 18:21 14.07.2019
5182 Haze 21 1016 64 9656 1.31 206.054 17:49 14.07.2019
5183 Haze 20 1015 82 6437 1.31 206.054 17:21 14.07.2019
5184 Haze 19 1014 77 6437 1.31 206.054 16:47 14.07.2019
5185 Haze 19 1015 88 4828 1.31 206.054 16:24 14.07.2019
5186 Haze 18 1015 82 9656 1.31 206.054 15:56 14.07.2019
5187 Haze 18 1014 82 9656 1.31 206.054 15:34 14.07.2019
5188 Haze 18 1014 88 8047 1.53 179.028 14:51 14.07.2019
5189 Haze 18 1014 88 9656 1.53 179.028 14:22 14.07.2019
5190 Haze 18 1014 82 9656 1.53 179.028 13:58 14.07.2019
5191 Haze 18 1014 88 9656 0.84 182.119 13:38 14.07.2019
5192 Haze 18 1014 88 8047 0.84 182.119 13:20 14.07.2019
5193 Haze 18 1014 88 8047 0.84 182.119 12:43 14.07.2019
5194 Mist 18 1014 82 9656 1.04 206.516 12:22 14.07.2019
5195 Mist 18 1014 93 16093 1.5 180 11:56 14.07.2019
5196 Mist 18 1014 88 8047 1.04 206.516 11:37 14.07.2019
5197 Mist 18 1014 88 8047 1.04 206.516 11:19 14.07.2019
5198 Haze 19 1014 82 8047 1.04 206.516 10:42 14.07.2019
5199 Haze 18 1014 82 9656 2.1 90 10:19 14.07.2019
5200 Haze 19 1014 82 8047 1.04 206.516 09:44 14.07.2019
5201 Haze 19 1014 82 8047 0.71 158.544 09:24 14.07.2019
5202 Haze 19 1013 88 9656 1.01 229 08:44 14.07.2019
5203 Haze 19 1013 88 16093 3.1 200 07:58 14.07.2019
5204 Haze 19 1013 88 16093 3.1 200 07:39 14.07.2019
5205 Haze 19 1013 88 16093 3.1 200 06:57 14.07.2019
5206 Haze 21 1011 77 9656 1.5 260 05:45 14.07.2019
5207 Mist 25 1010 61 12874 2.14 199.137 03:48 14.07.2019
5208 Mist 27 1010 61 12874 3.63 213.418 03:30 14.07.2019
5209 Fog 27 1019 19 1200 6.7 170 02:41 14.07.2019
5210 Fog 27 1019 19 1200 6.7 170 02:22 14.07.2019
5211 Haze 28 1011 54 14484 2.1 260 01:34 14.07.2019
5212 Haze 28 1012 35 16093 3.6 120 00:57 14.07.2019
5213 Haze 28 1011 51 12874 1.5 0 00:39 14.07.2019
5214 Haze 29 1013 35 16093 4.1 120 00:19 14.07.2019
5215 Haze 29 1011 54 9656 3.1 270 23:45 13.07.2019
5216 Haze 29 1011 54 9656 3.1 270 23:25 13.07.2019
5217 Haze 28 1013 38 16093 3.94 211.792 22:55 13.07.2019
5218 Haze 28 1011 51 11265 3.94 211.792 22:37 13.07.2019
5219 Haze 27 1012 57 12874 1.5 0 22:18 13.07.2019
5220 Haze 26 1012 69 8047 3.6 260 21:42 13.07.2019
5221 Haze 26 1012 69 8047 3.6 260 21:19 13.07.2019
5222 Haze 25 1012 54 8047 2.89 194.507 20:42 13.07.2019
5223 Haze 24 1013 69 9656 2.1 0 20:24 13.07.2019
5224 Haze 23 1013 47 16093 2.6 120 19:45 13.07.2019
5225 Haze 22 1011 61 12874 2.89 194.507 19:26 13.07.2019
5226 Haze 21 1011 69 11265 2.89 194.507 18:44 13.07.2019
5227 Mist 21 1013 53 16093 1.35 184.457 18:21 13.07.2019
5228 Mist 20 1011 73 12874 1.35 184.457 17:38 13.07.2019
5229 Mist 20 1011 88 9656 1.35 184.457 17:20 13.07.2019
5230 Mist 19 1013 60 16093 1.35 184.457 16:56 13.07.2019
5231 Mist 18 1011 82 11265 1.35 184.457 16:37 13.07.2019
5232 Mist 18 1011 82 11265 1.35 184.457 16:19 13.07.2019
5233 Haze 18 1011 93 12874 1.35 184.457 15:42 13.07.2019
5234 Haze 18 1010 82 12874 1.35 128.308 15:20 13.07.2019
5235 Mist 18 1010 88 16093 1.35 128.308 14:42 13.07.2019
5236 Mist 18 1010 88 16093 1.35 128.308 14:22 13.07.2019
5237 Clear 18 1009 82 16093 1.35 128.308 13:46 13.07.2019
5238 Clear 18 1009 82 16093 0.88 129.018 13:24 13.07.2019
5239 Clouds 18 1009 82 11265 0.88 129.018 12:56 13.07.2019
5240 Clear 18 1009 82 16093 0.88 129.018 12:36 13.07.2019
5241 Clouds 18 1010 93 12874 1.5 150 12:18 13.07.2019
5242 Clouds 18 1010 93 16093 2.1 190 11:40 13.07.2019
5243 Clouds 19 1010 93 16093 2.1 190 11:19 13.07.2019
5244 Clouds 19 1010 93 16093 2.1 190 10:43 13.07.2019
5245 Clear 19 1010 82 16093 1.15 193.073 10:23 13.07.2019
5246 Clear 19 1010 82 16093 1.15 193.073 09:53 13.07.2019
5247 Clear 19 1010 82 16093 1.15 193.073 09:31 13.07.2019
5248 Clear 20 1010 77 16093 1.41 170.424 08:58 13.07.2019
5249 Clear 20 1010 77 16093 1.41 170.424 08:32 13.07.2019
5250 Clear 20 1009 77 16093 1.41 170.424 07:56 13.07.2019
5251 Clear 20 1009 77 16093 1.41 170.424 07:29 13.07.2019
5252 Clear 21 1009 77 16093 1.41 170.424 06:37 13.07.2019
5253 Clear 22 1009 68 16093 2.39 192.417 05:51 13.07.2019
5254 Clear 24 1008 60 16093 2.39 192.417 04:42 13.07.2019
5255 Clear 24 1008 60 16093 2.39 192.417 04:22 13.07.2019
5256 Clear 25 1008 60 16093 2.39 192.417 03:55 13.07.2019
5257 Clear 26 1008 60 16093 2.39 192.417 03:37 13.07.2019
5258 Clear 28 1009 57 12874 1.5 0 01:55 13.07.2019
5259 Clear 29 1009 57 12874 1.5 0 01:36 13.07.2019
5260 Clear 29 1010 64 12874 5.7 250 01:18 13.07.2019
5261 Clear 28 1010 57 11265 3.81 219.21 00:50 13.07.2019
5262 Haze 29 1010 54 9656 3.1 270 00:18 13.07.2019
5263 Haze 28 1010 54 9656 3.1 270 23:44 12.07.2019
5264 Haze 29 1010 54 9656 3.1 270 23:25 12.07.2019
5265 Haze 28 1011 54 9656 3.97 214.598 22:46 12.07.2019
5266 Haze 28 1011 54 9656 3.97 214.598 22:24 12.07.2019
5267 Haze 28 1011 48 11265 3.97 214.598 21:43 12.07.2019
5268 Haze 27 1012 61 11265 3.6 260 21:22 12.07.2019
5269 Haze 28 1013 35 16093 2.1 0 20:56 12.07.2019
5270 Haze 27 1011 54 11265 2.66 198.238 20:37 12.07.2019
5271 Haze 26 1013 39 16093 1.5 240 20:19 12.07.2019
5272 Haze 24 1012 64 9656 2.66 198.238 19:41 12.07.2019
5273 Haze 25 1012 64 9656 2.66 198.238 19:23 12.07.2019
5274 Haze 22 1012 69 8047 2.66 198.238 18:44 12.07.2019
5275 Haze 23 1013 73 8047 0.97 188.314 18:21 12.07.2019
5276 Haze 21 1013 77 8047 2.1 160 17:51 12.07.2019
5277 Haze 20 1013 77 8047 2.1 160 17:28 12.07.2019
5278 Haze 19 1012 88 9656 0.97 188.314 16:51 12.07.2019
5279 Haze 18 1012 88 9656 0.97 188.314 16:23 12.07.2019
5280 Mist 18 1012 93 11265 0.97 188.314 15:54 12.07.2019
5281 Mist 18 1012 88 9656 0.97 188.314 15:36 12.07.2019
5282 Mist 18 1012 88 9656 1.26 143.422 15:18 12.07.2019
5283 Haze 17 1012 88 12874 1.26 143.422 14:43 12.07.2019
5284 Haze 17 1012 88 12874 1.26 143.422 14:20 12.07.2019
5285 Haze 17 1012 88 14484 1.26 143.422 13:43 12.07.2019
5286 Haze 18 1012 88 16093 0.35 112.857 13:20 12.07.2019
5287 Clouds 17 1012 88 16093 0.35 112.857 12:41 12.07.2019
5288 Clouds 18 1012 88 16093 0.86 154.266 12:21 12.07.2019
5289 Clouds 18 1012 88 11265 2.1 180 11:45 12.07.2019
5290 Clear 18 1012 88 14484 0.86 154.266 11:24 12.07.2019
5291 Clear 18 1012 88 16093 0.86 154.266 10:55 12.07.2019
5292 Clear 18 1012 88 16093 0.86 154.266 10:37 12.07.2019
5293 Clear 18 1013 82 16093 0.86 154.266 10:19 12.07.2019
5294 Clear 19 1013 88 16093 0.86 154.266 09:51 12.07.2019
5295 Clear 19 1013 88 16093 2.27 158.109 09:24 12.07.2019
5296 Clear 19 1013 82 16093 2.43 158.759 08:45 12.07.2019
5297 Clear 19 1013 82 16093 2.43 158.759 08:22 12.07.2019
5298 Clear 19 1013 82 16093 2.43 158.759 07:47 12.07.2019
5299 Clear 20 1013 82 16093 2.43 158.759 07:29 12.07.2019
5300 Clear 21 1013 82 16093 2.43 158.759 06:29 12.07.2019
5301 Clear 22 1012 73 12874 2.1 270 05:51 12.07.2019
5302 Clouds 24 1013 88 16093 3.1 240 04:25 12.07.2019
5303 Clouds 27 1014 83 11265 4.1 230 01:52 12.07.2019
5304 Clouds 27 1014 83 12874 4.6 230 01:32 12.07.2019
5305 Clear 28 1014 57 14484 3.1 280 00:36 12.07.2019
5306 Clear 28 1015 68 16093 5.7 260 00:18 12.07.2019
5307 Clear 28 1015 54 16093 2.1 0 23:41 11.07.2019
5308 Clear 28 1015 64 16093 6.2 250 23:21 11.07.2019
5309 Clear 28 1015 51 16093 1.5 0 22:45 11.07.2019
5310 Clear 28 1015 51 16093 1.5 0 22:24 11.07.2019
5311 Clear 28 1015 48 16093 1.5 0 21:44 11.07.2019
5312 Clear 28 1015 48 16093 1.5 0 21:21 11.07.2019
5313 Clear 27 1016 51 14484 2.65 190.992 20:59 11.07.2019
5314 Clear 27 1016 51 14484 2.65 190.992 20:41 11.07.2019
5315 Clear 26 1016 60 16093 3.1 250 20:22 11.07.2019
5316 Clear 26 1016 60 16093 3.1 250 20:22 11.07.2019
5317 Clear 25 1016 64 11265 1.5 270 19:55 11.07.2019
5318 Clear 24 1016 64 11265 1.5 270 19:37 11.07.2019
5319 Haze 24 1016 60 14484 2.65 190.992 19:19 11.07.2019
5320 Haze 22 1016 69 9656 2.65 190.992 18:41 11.07.2019
5321 Haze 21 1017 73 12874 1.17 130.845 18:23 11.07.2019
5322 Haze 20 1017 88 11265 1.5 200 17:48 11.07.2019
5323 Haze 20 1016 73 8047 1.17 130.845 17:29 11.07.2019
5324 Haze 19 1018 64 16093 1.17 130.845 16:53 11.07.2019
5325 Haze 18 1016 82 14484 1.5 300 16:25 11.07.2019
5326 Mist 17 1016 82 14484 1.17 130.845 15:58 11.07.2019
5327 Mist 17 1016 82 14484 1.17 130.845 15:39 11.07.2019
5328 Mist 16 1016 82 14484 1.25 187.376 15:20 11.07.2019
5329 Mist 16 1016 93 11265 1.25 187.376 14:44 11.07.2019
5330 Mist 17 1016 82 16093 1.25 187.376 14:24 11.07.2019
5331 Clouds 17 1015 82 16093 2.1 250 13:52 11.07.2019
5332 Clouds 17 1015 82 16093 2.1 250 13:33 11.07.2019
5333 Mist 17 1016 100 9656 0.79 184.77 12:58 11.07.2019
5334 Clear 17 1015 88 14484 0.79 184.77 12:38 11.07.2019
5335 Clear 17 1015 82 16093 3.1 260 12:19 11.07.2019
5336 Clear 17 1015 82 16093 1.15 173.55 11:43 11.07.2019
5337 Clear 17 1016 82 16093 2.1 250 11:24 11.07.2019
5338 Clear 18 1016 82 16093 1.15 173.55 10:51 11.07.2019
5339 Clear 18 1016 82 16093 1.5 220 10:19 11.07.2019
5340 Clear 18 1016 77 16093 1.15 173.55 09:50 11.07.2019
5341 Clear 18 1016 77 16093 1.15 173.55 09:31 11.07.2019
5342 Clear 19 1016 77 16093 2.6 250 08:57 11.07.2019
5343 Clear 19 1016 77 16093 2.6 250 08:37 11.07.2019
5344 Clear 19 1016 77 16093 2.6 250 08:19 11.07.2019
5345 Clear 19 1016 82 16093 1.29 207.496 07:42 11.07.2019
5346 Clear 20 1016 82 14484 1.29 207.496 06:49 11.07.2019
5347 Haze 21 1016 82 16093 2.1 240 06:18 11.07.2019
5348 Haze 21 1016 73 12874 1.5 280 05:31 11.07.2019
5349 Clear 21 1017 47 16093 2.56 205.675 04:56 11.07.2019
5350 Clear 25 1016 73 16093 4.6 270 03:19 11.07.2019
5351 Clear 26 1016 64 16093 4.6 250 02:18 11.07.2019
5352 Clear 26 1017 57 16093 2.1 250 00:33 11.07.2019
5353 Clear 27 1017 57 16093 4.11 216.945 23:50 10.07.2019
5354 Clear 27 1017 57 16093 4.11 216.945 23:24 10.07.2019
5355 Haze 26 1018 60 8047 4.6 260 22:57 10.07.2019
5356 Clear 26 1018 64 14484 4.1 250 22:25 10.07.2019
5357 Haze 26 1017 54 12874 4.11 216.945 21:57 10.07.2019
5358 Haze 26 1017 54 12874 4.11 216.945 21:38 10.07.2019
5359 Haze 25 1018 64 14484 4.6 250 21:20 10.07.2019
5360 Haze 24 1017 54 11265 2.1 0 20:46 10.07.2019
5361 Haze 24 1017 54 11265 2.1 0 20:26 10.07.2019
5362 Haze 24 1018 64 9656 3.04 211.608 19:58 10.07.2019
5363 Haze 23 1018 64 9656 3.04 211.608 19:40 10.07.2019
5364 Haze 23 1018 68 11265 1.5 240 19:20 10.07.2019
5365 Haze 21 1018 68 8047 3.04 211.608 18:46 10.07.2019
5366 Haze 21 1018 68 8047 1.63 191.909 18:24 10.07.2019
5367 Haze 20 1019 64 16093 1.63 191.909 17:49 10.07.2019
5368 Haze 19 1018 82 6437 1.63 191.909 17:30 10.07.2019
5369 Haze 18 1018 82 16093 1.63 191.909 16:48 10.07.2019
5370 Haze 18 1017 82 6437 1.63 191.909 16:21 10.07.2019
5371 Haze 18 1017 82 6437 1.63 191.909 16:21 10.07.2019
5372 Mist 17 1017 88 6437 1.63 191.909 15:47 10.07.2019
5373 Mist 17 1017 88 6437 1.63 191.909 15:47 10.07.2019
5374 Mist 16 1017 88 6437 1.18 216.686 15:26 10.07.2019
5375 Mist 16 1017 88 6437 1.18 216.686 15:26 10.07.2019
5376 Mist 16 1017 77 16093 2.1 260 14:59 10.07.2019
5377 Mist 16 1017 88 8047 1.18 216.686 14:37 10.07.2019
5378 Clouds 16 1017 88 16093 1.18 216.686 14:19 10.07.2019
5379 Clouds 16 1017 82 16093 1.5 260 13:38 10.07.2019
5380 Clouds 16 1017 82 16093 1.5 260 13:18 10.07.2019
5381 Clouds 16 1017 88 11265 1.12 204.351 12:41 10.07.2019
5382 Clouds 16 1017 88 11265 1.71 200.878 12:22 10.07.2019
5383 Clear 17 1017 82 12874 1.71 200.878 11:51 10.07.2019
5384 Clear 17 1017 82 12874 1.71 200.878 11:22 10.07.2019
5385 Clear 17 1017 82 12874 1.71 200.878 10:58 10.07.2019
5386 Clear 17 1017 82 12874 1.71 200.878 10:58 10.07.2019
5387 Clear 17 1017 82 12874 1.71 200.878 10:36 10.07.2019
5388 Clear 17 1017 77 16093 3.6 260 10:18 10.07.2019
5389 Clear 17 1017 82 14484 1.71 200.878 09:41 10.07.2019
5390 Clear 17 1017 82 14484 1.72 196.028 09:20 10.07.2019
5391 Clear 18 1017 88 11265 1.7 198.988 08:49 10.07.2019
5392 Clear 18 1017 88 11265 1.7 198.988 08:27 10.07.2019
5393 Clouds 18 1017 93 16093 2.1 220 07:53 10.07.2019
5394 Clouds 18 1017 93 16093 2.1 220 07:24 10.07.2019
5395 Clear 19 1016 77 16093 1.5 260 06:41 10.07.2019
5396 Clear 20 1016 68 14484 2.1 0 05:42 10.07.2019
5397 Clear 22 1016 64 16093 3.6 290 04:34 10.07.2019
5398 Clear 25 1015 57 16093 2.6 270 02:40 10.07.2019
5399 Clear 25 1016 53 16093 2.1 0 00:44 10.07.2019
5400 Clear 25 1015 37 16093 2.1 220 23:58 09.07.2019
5401 Clear 25 1016 57 16093 2.6 270 23:39 09.07.2019
5402 Clear 25 1016 37 16093 4.37 228.934 23:20 09.07.2019
5403 Clear 26 1016 54 14484 4.37 228.934 22:40 09.07.2019
5404 Clear 25 1016 54 14484 4.37 228.934 22:22 09.07.2019
5405 Haze 25 1017 57 14484 4.37 228.934 21:54 09.07.2019
5406 Haze 25 1017 57 14484 4.37 228.934 21:54 09.07.2019
5407 Haze 24 1017 57 14484 4.37 228.934 21:36 09.07.2019
5408 Haze 23 1019 53 11265 2.92 216.756 21:18 09.07.2019
5409 Haze 23 1022 46 1200 2.92 216.756 20:42 09.07.2019
5410 Haze 23 1022 46 1200 2.92 216.756 20:24 09.07.2019
5411 Clouds 22 1017 56 12874 2.92 216.756 19:39 09.07.2019
5412 Clouds 21 1017 56 16093 2.1 330 19:20 09.07.2019
5413 Haze 20 1017 64 12874 2.1 80 18:44 09.07.2019
5414 Haze 20 1017 64 12874 2.1 80 18:23 09.07.2019
5415 Haze 19 1017 64 12874 2.1 0 17:55 09.07.2019
5416 Haze 19 1017 64 12874 2.1 0 17:37 09.07.2019
5417 Clouds 18 1017 72 16093 1.5 150 17:18 09.07.2019
5418 Haze 18 1017 77 9656 0.79 250.327 16:46 09.07.2019
5419 Haze 18 1017 77 9656 0.79 250.327 16:24 09.07.2019
5420 Clouds 18 1016 82 14484 2.6 170 15:49 09.07.2019
5421 Clouds 18 1016 82 14484 2.6 170 15:29 09.07.2019
5422 Clouds 18 1016 72 16093 1.5 150 14:55 09.07.2019
5423 Clouds 17 1016 72 16093 1.5 150 14:37 09.07.2019
5424 Clouds 18 1016 72 16093 1.63 207.227 14:18 09.07.2019
5425 Clouds 18 1016 72 16093 1.63 207.227 13:43 09.07.2019
5426 Clouds 18 1016 72 16093 1.18 190.959 13:22 09.07.2019
5427 Clouds 17 1016 77 16093 1.18 190.959 12:40 09.07.2019
5428 Clouds 17 1016 77 16093 1.18 190.959 12:40 09.07.2019
5429 Clouds 17 1016 72 16093 1.5 290 12:22 09.07.2019
5430 Clouds 17 1016 72 16093 1.28 226.266 11:57 09.07.2019
5431 Clouds 17 1016 72 16093 1.28 226.266 11:38 09.07.2019
5432 Clouds 17 1016 72 16093 2.1 290 11:20 09.07.2019
5433 Clouds 17 1016 82 16093 1.5 180 10:49 09.07.2019
5434 Clouds 17 1016 77 16093 1.5 120 10:30 09.07.2019
5435 Clouds 17 1017 77 16093 1.5 260 09:41 09.07.2019
5436 Clouds 17 1017 77 16093 1.5 260 09:22 09.07.2019
5437 Clouds 17 1017 77 16093 4.1 260 08:45 09.07.2019
5438 Clouds 17 1017 77 16093 2.58 218.878 08:23 09.07.2019
5439 Clear 22 1013 60 16093 1.5 0 03:58 05.07.2019
5440 Clear 22 1013 60 16093 1.5 0 03:38 05.07.2019
5441 Clear 23 1013 64 16093 4.1 270 03:19 05.07.2019
5442 Clear 23 1013 60 16093 1.5 0 02:44 05.07.2019
5443 Clear 24 1013 60 16093 2.1 0 01:39 05.07.2019
5444 Clear 24 1013 60 16093 5.7 240 01:19 05.07.2019
5445 Clear 24 1013 60 16093 2.1 270 00:46 05.07.2019
5446 Clear 24 1013 57 16093 2.1 0 23:56 04.07.2019
5447 Clouds 24 1014 64 14484 6.2 270 23:21 04.07.2019
5448 Clouds 24 1014 64 14484 6.2 270 22:57 04.07.2019
5449 Clouds 24 1014 60 16093 4.07 220.87 22:39 04.07.2019
5450 Clouds 23 1014 57 16093 1.5 0 22:18 04.07.2019
5451 Clouds 23 1014 53 16093 4.1 220 21:40 04.07.2019
5452 Clouds 23 1014 53 16093 4.1 220 21:22 04.07.2019
5453 Clouds 22 1014 60 16093 2.1 190 20:55 04.07.2019
5454 Clouds 22 1014 64 16093 3.1 250 20:37 04.07.2019
5455 Clouds 22 1014 64 16093 3.1 250 20:18 04.07.2019
5456 Clouds 21 1014 60 14484 3.82 209.985 19:41 04.07.2019
5457 Clouds 20 1014 60 14484 3.82 209.985 19:20 04.07.2019
5458 Haze 20 1014 64 14484 3.82 209.985 18:44 04.07.2019
5459 Haze 19 1014 68 16093 1.77 161.841 18:26 04.07.2019
5460 Haze 19 1013 68 16093 1.77 161.841 17:48 04.07.2019
5461 Clouds 19 1014 68 16093 1.77 161.841 17:19 04.07.2019
5462 Clouds 19 1013 68 16093 1.77 161.841 16:36 04.07.2019
5463 Clouds 18 1013 68 16093 1.77 161.841 15:42 04.07.2019
5464 Clouds 18 1013 68 16093 2.1 160 15:24 04.07.2019
5465 Clouds 18 1013 82 16093 1.5 220 14:58 04.07.2019
5466 Clouds 18 1013 72 16093 1.63 132.866 14:38 04.07.2019
5467 Clouds 18 1013 68 16093 2.1 120 14:19 04.07.2019
5468 Clouds 18 1013 77 16093 1.63 132.866 13:56 04.07.2019
5469 Clouds 18 1013 82 16093 2.1 230 13:38 04.07.2019
5470 Clouds 18 1013 82 16093 2.1 230 13:18 04.07.2019
5471 Clouds 18 1012 77 16093 2.6 170 12:38 04.07.2019
5472 Clouds 18 1012 68 16093 2.26 141.388 12:19 04.07.2019
5473 Clouds 18 1012 72 16093 2.26 141.388 11:42 04.07.2019
5474 Clouds 18 1012 72 16093 2.26 141.388 11:20 04.07.2019
5475 Clouds 18 1013 77 16093 2.6 150 10:45 04.07.2019
5476 Clouds 18 1012 77 16093 2.26 141.388 10:27 04.07.2019
5477 Clouds 18 1013 77 16093 3.1 150 09:56 04.07.2019
5478 Clouds 18 1013 77 16093 2.26 141.388 09:38 04.07.2019
5479 Clouds 18 1013 88 16093 2 139.227 09:18 04.07.2019
5480 Clouds 18 1012 77 16093 2 139.227 08:42 04.07.2019
5481 Clear 18 1013 68 16093 1.5 230 08:18 04.07.2019
5482 Clouds 18 1013 77 16093 2 139.227 07:38 04.07.2019
5483 Clear 18 1013 72 16093 2.1 230 07:18 04.07.2019
5484 Clear 19 1012 72 16093 2.1 280 06:30 04.07.2019
5485 Clear 20 1011 68 14484 2.1 270 05:41 04.07.2019
5486 Clouds 22 1011 68 16093 4.1 240 04:18 04.07.2019
5487 Clear 24 1011 60 16093 3.6 280 01:52 04.07.2019
5488 Clear 24 1011 60 16093 3.6 280 01:26 04.07.2019
5489 Clear 24 1012 57 16093 2.6 270 00:41 04.07.2019
5490 Clear 24 1012 57 16093 5 214.049 23:52 03.07.2019
5491 Clear 24 1012 56 16093 4.1 240 23:21 03.07.2019
5492 Clear 25 1012 57 16093 1.5 0 22:57 03.07.2019
5493 Clear 24 1012 57 16093 1.5 0 22:38 03.07.2019
5494 Clear 24 1012 54 16093 4.59 207.867 22:20 03.07.2019
5495 Clear 24 1012 54 16093 4.59 207.867 21:55 03.07.2019
5496 Clear 24 1012 54 16093 4.59 207.867 21:36 03.07.2019
5497 Clear 23 1014 50 16093 2.1 90 20:55 03.07.2019
5498 Clear 23 1013 56 16093 3.06 165.527 20:36 03.07.2019
5499 Clear 23 1013 56 16093 3.06 165.527 20:18 03.07.2019
5500 Clouds 22 1013 64 12874 1.5 0 19:44 03.07.2019
5501 Clouds 22 1013 64 12874 1.5 0 19:44 03.07.2019
5502 Haze 22 1013 60 12874 3.06 165.527 19:25 03.07.2019
5503 Clouds 21 1013 60 11265 1.5 230 18:45 03.07.2019
5504 Haze 20 1014 68 16093 2.1 110 18:22 03.07.2019
5505 Haze 19 1013 68 14484 2.1 0 17:49 03.07.2019
5506 Haze 19 1013 68 14484 2.1 0 17:19 03.07.2019
5507 Mist 19 1013 72 16093 2.1 190 16:58 03.07.2019
5508 Mist 18 1013 72 16093 1.5 140 16:39 03.07.2019
5509 Mist 18 1013 68 16093 2.6 100 16:18 03.07.2019
5510 Mist 18 1012 72 16093 3.43 107.351 15:46 03.07.2019
5511 Mist 17 1012 72 16093 3.43 107.351 15:27 03.07.2019
5512 Mist 17 1012 72 16093 1.5 0 14:49 03.07.2019
5513 Mist 17 1012 72 16093 1.5 0 14:22 03.07.2019
5514 Mist 17 1012 77 14484 2.1 100 13:50 03.07.2019
5515 Mist 17 1012 77 14484 2.1 100 13:31 03.07.2019
5516 Clouds 18 1011 77 14484 1.5 0 12:54 03.07.2019
5517 Clouds 17 1011 72 16093 3.1 120 12:20 03.07.2019
5518 Clouds 17 1011 82 16093 1.5 110 11:57 03.07.2019
5519 Clouds 17 1012 72 16093 2.1 150 11:39 03.07.2019
5520 Clouds 17 1012 72 16093 2.1 150 11:19 03.07.2019
5521 Clouds 18 1012 88 16093 1.9 138.241 10:40 03.07.2019
5522 Clouds 18 1012 88 16093 1.9 138.241 10:21 03.07.2019
5523 Clear 18 1012 77 16093 1.9 138.241 09:42 03.07.2019
5524 Clear 18 1012 77 16093 1.75 158.826 09:21 03.07.2019
5525 Clear 18 1012 82 16093 1.75 158.826 08:53 03.07.2019
5526 Clear 18 1012 82 16093 1.75 158.826 08:32 03.07.2019
5527 Clear 19 1012 68 16093 1.41 175.03 07:53 03.07.2019
5528 Clear 19 1012 68 16093 1.41 175.03 07:35 03.07.2019
5529 Clear 20 1011 64 16093 1.41 175.03 06:48 03.07.2019
5530 Clear 21 1011 68 14484 1.5 0 05:44 03.07.2019
5531 Clear 22 1013 41 16093 4.1 100 05:19 03.07.2019
5532 Clear 24 1011 60 16093 2.34 195.481 03:36 03.07.2019
5533 Clear 25 1011 57 16093 3.1 280 02:38 03.07.2019
5534 Clear 26 1012 50 16093 3.51 224.377 01:23 03.07.2019
5535 Clouds 26 1012 64 16093 6.7 250 00:57 03.07.2019
5536 Clear 26 1012 50 16093 1.5 0 00:36 03.07.2019
5537 Clear 26 1013 57 16093 3.47 212.343 23:48 02.07.2019
5538 Clear 26 1013 57 16093 3.47 212.343 23:21 02.07.2019
5539 Clear 26 1013 57 16093 3.47 212.343 22:59 02.07.2019
5540 Clouds 26 1013 50 16093 3.47 212.343 22:41 02.07.2019
5541 Clouds 26 1013 50 16093 3.47 212.343 22:22 02.07.2019
5542 Clear 26 1014 53 16093 4.1 280 21:57 02.07.2019
5543 Haze 25 1014 57 2012 3.6 280 21:38 02.07.2019
5544 Clear 25 1013 51 16093 3.51 189.634 21:18 02.07.2019
5545 Clear 24 1014 57 16093 3.27 191.76 20:41 02.07.2019
5546 Clear 24 1014 57 16093 3.27 191.76 20:23 02.07.2019
5547 Clear 24 1014 57 16093 2.6 0 19:57 02.07.2019
5548 Clear 23 1014 60 14484 3.27 191.76 19:38 02.07.2019
5549 Clear 23 1014 60 14484 3.27 191.76 19:20 02.07.2019
5550 Clear 22 1014 68 11265 3.27 191.76 18:45 02.07.2019
5551 Clear 21 1014 68 11265 1.72 140.211 18:18 02.07.2019
5552 Clouds 20 1014 68 16093 2.6 140 17:40 02.07.2019
5553 Clouds 19 1014 82 16093 1.72 140.211 17:20 02.07.2019
5554 Clouds 19 1014 82 12874 1.5 260 16:47 02.07.2019
5555 Clouds 18 1014 82 12874 3.6 100 16:29 02.07.2019
5556 Clouds 18 1014 82 11265 1.5 0 15:44 02.07.2019
5557 Clouds 17 1014 77 12874 2.1 90 15:25 02.07.2019
5558 Clouds 17 1014 77 16093 2.6 100 14:51 02.07.2019
5559 Clear 16 1013 72 16093 1.5 130 14:33 02.07.2019
5560 Clouds 17 1013 77 14484 2.1 160 13:47 02.07.2019
5561 Clouds 17 1013 100 16093 0.87 97.963 13:23 02.07.2019
5562 Clear 17 1013 77 16093 0.87 97.963 12:59 02.07.2019
5563 Clear 17 1013 82 16093 0.87 97.963 12:41 02.07.2019
5564 Clear 17 1013 82 16093 1.68 151.819 12:18 02.07.2019
5565 Clear 17 1013 68 16093 1.68 151.819 11:42 02.07.2019
5566 Clear 17 1013 77 16093 1.68 151.819 11:21 02.07.2019
5567 Clear 18 1013 72 16093 1.68 151.819 10:46 02.07.2019
5568 Clear 18 1013 72 16093 1.68 151.819 10:25 02.07.2019
5569 Clear 18 1013 72 16093 1.68 151.819 09:46 02.07.2019
5570 Clear 18 1013 82 16093 2.1 200 09:22 02.07.2019
5571 Clear 19 1013 73 16093 2.26 150.066 08:43 02.07.2019
5572 Clear 19 1013 73 16093 2.26 150.066 08:23 02.07.2019
5573 Clear 19 1013 68 16093 2.26 150.066 07:54 02.07.2019
5574 Clear 20 1013 68 16093 2.26 150.066 07:21 02.07.2019
5575 Clear 20 1013 68 16093 2.26 150.066 06:53 02.07.2019
5576 Clear 20 1013 68 16093 2.26 150.066 06:35 02.07.2019
5577 Clear 23 1013 53 16093 2.49 206.277 04:58 02.07.2019
5578 Clear 27 1013 44 16093 3.1 270 02:28 02.07.2019
5579 Clear 27 1013 47 16093 3.85 221.5 00:23 02.07.2019
5580 Clear 27 1014 51 16093 2.1 250 23:24 01.07.2019
5581 Clear 28 1014 51 16093 2.1 0 22:48 01.07.2019
5582 Clear 27 1015 57 16093 5.1 250 22:28 01.07.2019
5583 Clear 27 1014 51 16093 3.1 270 21:49 01.07.2019
5584 Clear 27 1014 51 16093 3.1 270 21:28 01.07.2019
5585 Clear 26 1016 37 16093 3.1 150 20:57 01.07.2019
5586 Clear 26 1014 45 16093 2.45 202.404 20:39 01.07.2019
5587 Clear 26 1014 45 16093 2.45 202.404 20:19 01.07.2019
5588 Clear 25 1015 47 16093 2.45 202.404 19:42 01.07.2019
5589 Clear 25 1015 47 16093 2.45 202.404 19:24 01.07.2019
5590 Clear 24 1015 47 16093 2.45 202.404 18:55 01.07.2019
5591 Clear 23 1015 64 16093 2.45 202.404 18:37 01.07.2019
5592 Clear 22 1017 40 16093 1.08 190.882 18:18 01.07.2019
5593 Clear 21 1015 73 14484 1.08 190.882 17:42 01.07.2019
5594 Clear 20 1015 73 14484 1.08 190.882 17:22 01.07.2019
5595 -273 0 0 0 0 0 16:47 01.07.2019
5596 Clear 18 1015 82 12874 1.08 190.882 16:26 01.07.2019
5597 Clear 17 1015 77 12874 1.08 190.882 15:55 01.07.2019
5598 Clear 17 1015 77 12874 1.08 190.882 15:36 01.07.2019
5599 Clear 16 1015 77 12874 0.85 154.218 15:18 01.07.2019
5600 Clear 16 1014 77 16093 0.85 154.218 14:42 01.07.2019
5601 Clear 16 1014 77 16093 0.85 154.218 14:19 01.07.2019
5602 Clear 16 1014 77 16093 0.85 154.218 13:42 01.07.2019
5603 Clear 16 1014 77 16093 0.5 150.611 13:22 01.07.2019
5604 Clear 17 1014 77 16093 0.5 150.611 12:49 01.07.2019
5605 Clear 17 1014 77 16093 0.5 150.611 12:30 01.07.2019
5606 Clear 17 1014 82 16093 0.86 184.725 11:59 01.07.2019
5607 Clear 17 1014 82 16093 0.86 184.725 11:39 01.07.2019
5608 Clear 17 1014 82 16093 0.86 184.725 11:19 01.07.2019
5609 Clear 17 1015 77 16093 0.86 184.725 10:47 01.07.2019
5610 Clear 18 1015 77 16093 0.86 184.725 10:23 01.07.2019
5611 Clear 18 1015 77 16093 0.86 184.725 09:45 01.07.2019
5612 Clear 18 1015 77 16093 0.86 184.725 09:27 01.07.2019
5613 Clear 18 1015 72 16093 2.16 163.145 08:59 01.07.2019
5614 Clear 18 1015 72 16093 2.43 155.975 08:37 01.07.2019
5615 Clear 19 1015 68 16093 2.43 155.975 07:40 01.07.2019
5616 Clear 19 1015 68 16093 2.43 155.975 07:20 01.07.2019
5617 Clear 22 1014 53 16093 1.5 260 05:43 01.07.2019
5618 Clear 27 1014 42 16093 2.6 250 01:29 01.07.2019
5619 Clear 27 1015 47 16093 1.5 0 00:47 01.07.2019
5620 Clear 28 1015 47 16093 1.5 0 00:24 01.07.2019
5621 Clear 28 1015 47 16093 3.1 260 23:52 30.06.2019
5622 Haze 28 1015 47 16093 3.1 260 23:21 30.06.2019
5623 Clear 28 1015 48 16093 2.1 0 22:44 30.06.2019
5624 Clear 29 1015 48 16093 2.1 0 22:20 30.06.2019
5625 Clear 29 1015 48 16093 2.1 0 22:20 30.06.2019
5626 Clear 29 1015 48 16093 2.1 0 22:20 30.06.2019
5627 Clear 28 1016 48 16093 1.5 0 21:42 30.06.2019
5628 Clear 27 1016 48 16093 1.5 0 21:20 30.06.2019
5629 Clear 27 1018 28 16093 2.6 120 20:56 30.06.2019
5630 Clear 28 1016 39 16093 1.5 0 20:38 30.06.2019
5631 Clear 27 1016 39 16093 1.5 0 20:19 30.06.2019
5632 Clear 27 1016 44 16093 0.88 201.028 19:44 30.06.2019
5633 Clear 26 1016 44 16093 0.88 201.028 19:25 30.06.2019
5634 Clear 24 1016 57 16093 0.88 201.028 18:39 30.06.2019
5635 Clear 23 1016 57 16093 1.43 163.021 18:20 30.06.2019
5636 Clear 21 1016 73 16093 1.43 163.021 17:39 30.06.2019
5637 Clear 21 1016 73 16093 1.43 163.021 17:18 30.06.2019
5638 Clear 21 1016 73 16093 1.43 163.021 17:18 30.06.2019
5639 Mist 20 1016 68 16093 1.43 163.021 16:49 30.06.2019
5640 Mist 19 1016 93 9656 1.5 0 16:31 30.06.2019
5641 Clouds 17 1015 88 11265 1.43 163.021 15:38 30.06.2019
5642 Clear 16 1015 88 12874 2.66 229.877 15:19 30.06.2019
5643 Clouds 16 1015 82 16093 2.66 229.877 14:56 30.06.2019
5644 Clouds 17 1015 82 16093 2.66 229.877 14:38 30.06.2019
5645 Mist 17 1015 82 16093 2.66 229.877 13:57 30.06.2019
5646 Mist 17 1014 82 16093 2.49 229.681 13:38 30.06.2019
5647 Mist 18 1014 82 16093 2.49 229.681 13:18 30.06.2019
5648 Haze 18 1014 77 16093 2.49 229.681 12:44 30.06.2019
5649 Haze 18 1014 77 16093 0.04 303.311 12:21 30.06.2019
5650 Mist 18 1015 72 16093 0.04 303.311 11:47 30.06.2019
5651 Mist 18 1015 72 16093 0.04 303.311 11:22 30.06.2019
5652 Clear 18 1015 72 16093 0.04 303.311 10:56 30.06.2019
5653 Clear 19 1015 72 16093 0.04 303.311 10:37 30.06.2019
5654 Clear 19 1015 72 16093 0.04 303.311 10:18 30.06.2019
5655 Clear 19 1015 68 16093 0.04 303.311 09:43 30.06.2019
5656 Clear 19 1015 68 16093 1.07 9.664 09:22 30.06.2019
5657 Clear 19 1015 68 16093 2.02 193.514 08:47 30.06.2019
5658 Clear 19 1015 68 16093 2.02 193.514 08:27 30.06.2019
5659 Clear 20 1016 60 16093 1.5 280 07:54 30.06.2019
5660 Clear 20 1016 60 16093 1.5 280 07:27 30.06.2019
5661 Clear 20 1016 73 16093 1.5 0 06:40 30.06.2019
5662 Clouds 22 1017 38 16093 3.6 110 04:56 30.06.2019
5663 Clear 25 1015 50 16093 1.5 260 02:50 30.06.2019
5664 Clear 26 1015 44 16093 2.1 0 01:27 30.06.2019
5665 Clear 28 1015 37 16093 2.1 0 00:29 30.06.2019
5666 Clear 28 1016 39 16093 2.6 0 23:55 29.06.2019
5667 Clear 28 1016 39 16093 2.6 0 23:24 29.06.2019
5668 Clear 27 1016 42 16093 2.1 260 22:57 29.06.2019
5669 Clear 27 1016 42 16093 2.1 260 22:37 29.06.2019
5670 Clear 28 1016 42 16093 2.1 260 22:18 29.06.2019
5671 Clear 27 1016 39 16093 1.5 0 21:41 29.06.2019
5672 Clear 27 1016 39 16093 1.5 0 21:22 29.06.2019
5673 Clear 26 1016 42 16093 2.95 201.7 20:41 29.06.2019
5674 Clear 26 1016 42 16093 2.95 201.7 20:22 29.06.2019
5675 Clear 25 1016 57 16093 2.95 201.7 19:48 29.06.2019
5676 Clear 24 1016 57 16093 2.95 201.7 19:23 29.06.2019
5677 Haze 23 1016 68 14484 2.95 201.7 18:51 29.06.2019
5678 Haze 22 1016 68 14484 0.81 186.176 18:26 29.06.2019
5679 Haze 20 1015 77 12874 0.81 186.176 17:42 29.06.2019
5680 Haze 19 1015 77 12874 0.81 186.176 17:23 29.06.2019
5681 Haze 18 1016 88 16093 3.1 240 16:58 29.06.2019
5682 Haze 18 1015 77 12874 0.81 186.176 16:36 29.06.2019
5683 Mist 16 1014 82 12874 0.81 186.176 15:53 29.06.2019
5684 Mist 15 1014 82 12874 0.81 186.176 15:30 29.06.2019
5685 Clear 15 1014 87 14484 1.33 231.118 14:44 29.06.2019
5686 Clear 15 1014 87 14484 1.33 231.118 14:26 29.06.2019
5687 Clear 15 1014 82 14484 1.33 231.118 13:47 29.06.2019
5688 Clear 15 1014 82 14484 1.09 234.78 13:27 29.06.2019
5689 Clear 15 1014 82 16093 1.09 234.78 12:57 29.06.2019
5690 Clear 16 1014 82 16093 1.09 234.78 12:37 29.06.2019
5691 Clouds 16 1014 88 16093 1.5 310 12:18 29.06.2019
5692 Clear 16 1015 82 16093 1.29 141.382 11:40 29.06.2019
5693 Clear 16 1015 82 16093 1.29 141.382 11:21 29.06.2019
5694 Clouds 16 1015 88 14484 1.29 141.382 10:41 29.06.2019
5695 Clouds 16 1015 88 14484 1.29 141.382 10:20 29.06.2019
5696 Clouds 17 1015 82 16093 1.29 141.382 09:48 29.06.2019
5697 Clouds 17 1016 82 16093 1.39 176.578 08:54 29.06.2019
5698 Clear 17 1015 88 16093 1.82 191.501 08:28 29.06.2019
5699 Clear 18 1015 82 16093 2.1 270 07:45 29.06.2019
5700 Clouds 19 1016 93 16093 2.1 240 06:48 29.06.2019
5701 Clouds 19 1016 93 16093 2.1 240 06:25 29.06.2019
5702 Clear 24 1014 60 16093 2.6 270 03:25 29.06.2019
5703 Clear 24 1015 57 16093 2.6 260 01:41 29.06.2019
5704 Clear 25 1016 57 16093 3.1 0 00:32 29.06.2019
5705 Clear 25 1016 53 16093 2.1 0 23:39 28.06.2019
5706 Clear 25 1016 53 16093 2.1 0 23:20 28.06.2019
5707 Clear 26 1016 51 14484 4.29 213.05 22:47 28.06.2019
5708 Clouds 25 1016 64 14484 5.7 240 21:59 28.06.2019
5709 Haze 25 1016 54 12874 4.29 213.05 21:37 28.06.2019
5710 Haze 25 1016 54 12874 2.51 183.959 21:18 28.06.2019
5711 Haze 24 1016 64 9656 2.47 189.55 20:40 28.06.2019
5712 Haze 23 1016 64 9656 2.47 189.55 20:19 28.06.2019
5713 Haze 22 1016 64 9656 2.47 189.55 19:38 28.06.2019
5714 Haze 22 1016 64 9656 2.47 189.55 19:20 28.06.2019
5715 Haze 20 1017 72 9656 2.47 189.55 18:41 28.06.2019
5716 Haze 19 1017 72 9656 1.97 128.532 18:21 28.06.2019
5717 Haze 18 1016 77 12874 3.1 0 17:44 28.06.2019
5718 Haze 18 1016 72 9656 1.97 128.532 17:25 28.06.2019
5719 Mist 18 1016 77 11265 1.97 128.532 16:46 28.06.2019
5720 Mist 17 1016 77 11265 1.97 128.532 16:19 28.06.2019
5721 Haze 17 1016 82 9656 2.1 130 15:44 28.06.2019
5722 Mist 17 1015 77 12874 1.82 127.43 15:18 28.06.2019
5723 Mist 17 1015 72 12874 1.5 130 14:40 28.06.2019
5724 Mist 17 1015 72 12874 1.5 130 14:21 28.06.2019
5725 Clouds 17 1015 77 16093 1.5 80 13:47 28.06.2019
5726 Clouds 17 1015 72 11265 1.42 122.893 13:28 28.06.2019
5727 Clouds 16 1015 87 12874 2.6 150 12:52 28.06.2019
5728 Clouds 16 1015 77 16093 1.42 122.893 12:33 28.06.2019
5729 Clouds 16 1015 87 14484 1.78 162.696 11:44 28.06.2019
5730 Clouds 16 1015 77 11265 1.78 162.696 11:19 28.06.2019
5731 Clouds 16 1015 77 11265 1.78 162.696 11:19 28.06.2019
5732 Clouds 16 1015 77 12874 1.78 162.696 10:42 28.06.2019
5733 Clouds 16 1015 82 12874 1.78 162.696 10:19 28.06.2019
5734 Clouds 16 1015 82 12874 1.78 162.696 09:46 28.06.2019
5735 Clouds 16 1015 82 14484 1.78 162.696 09:28 28.06.2019
5736 Clouds 17 1015 82 16093 1.86 166.315 08:43 28.06.2019
5737 Clouds 17 1015 82 16093 1.86 166.315 08:24 28.06.2019
5738 Clouds 18 1015 77 16093 1.5 230 07:43 28.06.2019
5739 Clouds 18 1015 82 16093 2.6 240 06:54 28.06.2019
5740 Clouds 21 1015 77 16093 6.2 260 04:35 28.06.2019
5741 Haze 24 1016 60 14484 3.6 270 00:48 28.06.2019
5742 Haze 24 1016 60 14484 3.6 270 00:22 28.06.2019
5743 Clear 24 1016 60 16093 3.6 260 23:47 27.06.2019
5744 Clear 24 1016 60 16093 3.6 260 23:25 27.06.2019
5745 Haze 24 1016 57 12874 4.22 218.14 22:44 27.06.2019
5746 Haze 24 1016 57 12874 4.22 218.14 22:25 27.06.2019
5747 Haze 24 1017 64 16093 4.1 250 21:59 27.06.2019
5748 Haze 23 1016 60 9656 3.6 190 21:41 27.06.2019
5749 Haze 23 1016 60 8047 2.76 205.431 21:21 27.06.2019
5750 Haze 22 1017 60 11265 2.63 197.69 20:49 27.06.2019
5751 Haze 22 1017 60 11265 2.63 197.69 20:31 27.06.2019
5752 Haze 21 1016 56 16093 3.6 200 19:57 27.06.2019
5753 Haze 21 1016 68 8047 2.63 197.69 19:39 27.06.2019
5754 Haze 20 1016 68 8047 2.63 197.69 19:21 27.06.2019
5755 Haze 20 1016 64 16093 2.63 197.69 18:41 27.06.2019
5756 Haze 18 1016 72 8047 1.01 117.478 18:19 27.06.2019
5757 Haze 18 1016 77 8047 1.01 117.478 17:39 27.06.2019
5758 Haze 17 1016 77 8047 1.01 117.478 17:21 27.06.2019
5759 Haze 18 1016 77 9656 1.01 117.478 16:39 27.06.2019
5760 Haze 17 1016 77 9656 1.01 117.478 16:19 27.06.2019
5761 Mist 17 1015 77 12874 1.01 117.478 15:50 27.06.2019
5762 Mist 17 1015 77 12874 1.01 117.478 15:30 27.06.2019
5763 Mist 16 1015 93 16093 2.1 100 14:52 27.06.2019
5764 Mist 16 1015 77 12874 1.28 186.886 14:31 27.06.2019
5765 Mist 16 1015 82 16093 1.28 186.886 13:57 27.06.2019
5766 Clouds 16 1015 77 16093 0.91 202.284 13:38 27.06.2019
5767 Clouds 16 1015 77 16093 0.91 202.284 13:20 27.06.2019
5768 Clouds 16 1015 87 16093 0.91 202.284 12:43 27.06.2019
5769 Clouds 16 1015 87 16093 1.62 168.051 12:23 27.06.2019
5770 Clouds 16 1015 87 16093 1.62 168.051 11:45 27.06.2019
5771 Clouds 16 1015 82 16093 1.62 168.051 11:22 27.06.2019
5772 Clouds 16 1015 77 16093 1.62 168.051 10:57 27.06.2019
5773 Clear 16 1015 82 16093 1.62 168.051 10:36 27.06.2019
5774 Clear 16 1015 82 16093 1.62 168.051 10:18 27.06.2019
5775 Clouds 16 1015 77 16093 1.5 290 09:38 27.06.2019
5776 Clear 16 1015 82 16093 1.89 208.385 09:20 27.06.2019
5777 Clouds 17 1016 77 16093 1.5 290 08:46 27.06.2019
5778 Clouds 17 1016 77 16093 1.5 290 08:26 27.06.2019
5779 Clouds 17 1015 82 16093 2.1 300 07:44 27.06.2019
5780 Clouds 17 1015 77 16093 3.1 270 06:57 27.06.2019
5781 Clear 17 1015 77 16093 2.1 260 06:30 27.06.2019
5782 Clear 20 1014 60 16093 3.1 270 03:51 27.06.2019
5783 Clouds 22 1014 77 16093 6.7 270 02:42 27.06.2019
5784 Clouds 22 1015 64 16093 4.58 225.726 01:29 27.06.2019
5785 Clouds 22 1015 64 16093 4.6 220 00:50 27.06.2019
5786 Clouds 22 1015 64 16093 4.6 220 00:26 27.06.2019
5787 Haze 22 1015 68 16093 6.2 250 23:50 26.06.2019
5788 Haze 22 1015 60 16093 4.5 220.703 23:23 26.06.2019
5789 Haze 22 1015 60 16093 4.5 220.703 23:23 26.06.2019
5790 Haze 22 1016 68 16093 1.5 250 22:58 26.06.2019
5791 Haze 22 1015 60 16093 4.5 220.703 22:40 26.06.2019
5792 Haze 21 1015 60 16093 4.5 220.703 22:19 26.06.2019
5793 Haze 20 1015 64 16093 4.5 220.703 21:42 26.06.2019
5794 Haze 20 1015 64 16093 3.03 215.059 21:21 26.06.2019
5795 Haze 19 1016 77 12874 4.1 260 20:57 26.06.2019
5796 Haze 19 1015 68 16093 2.6 270 20:38 26.06.2019
5797 Haze 19 1015 68 16093 2.6 270 20:20 26.06.2019
5798 Haze 19 1015 72 16093 3.16 212.704 19:43 26.06.2019
5799 Haze 19 1015 72 16093 3.16 212.704 19:25 26.06.2019
5800 Mist 18 1015 77 16093 1.5 280 18:46 26.06.2019
5801 Mist 18 1015 77 16093 1.5 280 18:23 26.06.2019
5802 Haze 17 1015 77 16093 2.6 220 17:58 26.06.2019
5803 Haze 17 1015 87 8047 3.1 170 17:38 26.06.2019
5804 Haze 17 1015 87 8047 3.1 170 17:19 26.06.2019
5805 Haze 17 1015 77 9656 2.44 221.741 16:46 26.06.2019
5806 Mist 17 1014 77 14484 2.44 221.741 16:23 26.06.2019
5807 Mist 17 1014 82 16093 2.1 240 15:42 26.06.2019
5808 Mist 17 1014 82 16093 2.1 240 15:23 26.06.2019
5809 Clouds 17 1013 77 16093 2.74 229.417 14:38 26.06.2019
5810 Clouds 17 1013 77 16093 2.74 229.417 14:19 26.06.2019
5811 Clouds 17 1013 77 16093 2.74 229.417 13:44 26.06.2019
5812 Clouds 17 1013 77 16093 2.02 225.301 13:20 26.06.2019
5813 Clouds 17 1013 77 16093 2.02 225.301 12:42 26.06.2019
5814 Clouds 17 1013 77 16093 2.02 225.301 12:42 26.06.2019
5815 -273 0 0 0 0 0 12:42 26.06.2019
5816 Clouds 17 1013 77 16093 1.12 233.724 12:23 26.06.2019
5817 Clouds 17 1013 82 16093 3.6 300 11:49 26.06.2019
5818 Clouds 17 1013 77 16093 1.12 233.724 11:23 26.06.2019
5819 Clouds 17 1013 77 16093 1.5 270 10:47 26.06.2019
5820 Clouds 17 1013 77 16093 1.5 270 10:28 26.06.2019
5821 Clouds 17 1014 77 16093 1.5 0 09:51 26.06.2019
5822 Clouds 17 1014 77 16093 1.5 0 09:26 26.06.2019
5823 Clouds 17 1014 77 16093 2.12 211.498 08:49 26.06.2019
5824 Clouds 17 1014 77 16093 2.24 232.208 08:21 26.06.2019
5825 Clouds 17 1014 77 16093 2.1 190 07:55 26.06.2019
5826 Clouds 17 1014 77 16093 2.1 190 07:35 26.06.2019
5827 Clouds 17 1013 77 16093 2.6 270 06:32 26.06.2019
5828 Clouds 20 1012 64 16093 4.1 190 01:36 26.06.2019
5829 Clouds 20 1014 72 16093 4.1 270 00:27 26.06.2019
5830 Clouds 20 1014 77 16093 5.1 260 23:49 25.06.2019
5831 Clouds 20 1014 77 16093 5.7 250 23:31 25.06.2019
5832 Haze 20 1014 64 12874 4.1 140 22:59 25.06.2019
5833 Haze 20 1013 64 9656 4.1 160 22:41 25.06.2019
5834 Clouds 20 1013 64 16093 3.87 211.64 22:22 25.06.2019
5835 Haze 19 1013 68 14484 3.87 211.64 21:46 25.06.2019
5836 Haze 19 1013 68 14484 2.25 201.131 21:24 25.06.2019
5837 Haze 19 1014 82 0 3.03 205.263 20:48 25.06.2019
5838 Haze 19 1014 82 0 3.03 205.263 20:48 25.06.2019
5839 Haze 19 1014 82 0 3.03 205.263 20:48 25.06.2019
5840 Haze 19 1013 72 16093 3.03 205.263 20:24 25.06.2019
5841 Haze 18 1014 68 9656 2.6 170 19:56 25.06.2019
5842 Haze 18 1013 72 16093 3.03 205.263 19:37 25.06.2019
5843 Haze 18 1013 72 16093 3.03 205.263 19:19 25.06.2019
5844 Haze 18 1012 72 9656 2.1 0 18:41 25.06.2019
5845 Haze 18 1013 82 16093 3.1 200 18:23 25.06.2019
5846 -273 0 0 0 0 0 17:44 25.06.2019
5847 Haze 17 1012 72 16093 1.64 202.773 17:23 25.06.2019
5848 Haze 17 1012 72 16093 1.64 202.773 17:23 25.06.2019
5849 Haze 17 1012 72 16093 1.64 202.773 17:23 25.06.2019
5850 Haze 17 1012 82 16093 1.64 202.773 16:44 25.06.2019
5851 Haze 17 1012 82 16093 1.64 202.773 16:25 25.06.2019
5852 Mist 17 1011 77 16093 1.64 202.773 15:54 25.06.2019
5853 Mist 17 1011 77 16093 1.64 202.773 15:36 25.06.2019
5854 Mist 17 1011 77 16093 0.93 188.078 15:18 25.06.2019
5855 Mist 17 1011 77 16093 0.93 188.078 14:42 25.06.2019
5856 Mist 16 1011 77 16093 0.93 188.078 14:23 25.06.2019
5857 Mist 16 1011 82 16093 2.1 200 13:42 25.06.2019
5858 Mist 16 1011 77 12874 0.95 197.802 13:21 25.06.2019
5859 Clouds 16 1011 84 11265 2.1 200 12:42 25.06.2019
5860 Clouds 17 1011 85 11265 2.1 200 12:24 25.06.2019
5861 Clouds 17 1012 77 14484 1.29 198.477 11:44 25.06.2019
5862 Clouds 17 1012 77 14484 1.29 198.477 11:23 25.06.2019
5863 Clouds 17 1012 85 16093 2.6 190 10:55 25.06.2019
5864 Clouds 17 1012 77 14484 1.29 198.477 10:36 25.06.2019
5865 Clouds 17 1012 77 14484 1.29 198.477 10:18 25.06.2019
5866 Clouds 17 1012 77 12874 1.29 198.477 09:39 25.06.2019
5867 Clouds 17 1012 77 12874 1.87 162.368 09:21 25.06.2019
5868 Clouds 17 1012 82 16093 2.1 200 08:51 25.06.2019
5869 Clouds 17 1012 82 16093 2.1 200 08:31 25.06.2019
5870 Clouds 17 1012 87 16093 2.1 170 07:44 25.06.2019
5871 Clouds 17 1012 77 16093 1.96 200.008 07:24 25.06.2019
5872 Clouds 17 1012 77 16093 1.96 200.008 06:44 25.06.2019
5873 Clouds 18 1012 77 16093 3.23 230.763 05:48 25.06.2019
5874 Clear 22 1012 64 16093 2.1 260 02:43 25.06.2019
5875 Clouds 23 1013 72 16093 4.6 260 00:39 25.06.2019
5876 Clear 23 1012 64 16093 4.36 218.787 00:19 25.06.2019
5877 Clouds 23 1013 60 16093 4.1 210 23:51 24.06.2019
5878 Clouds 23 1013 68 16093 4.1 250 23:32 24.06.2019
5879 Haze 22 1013 72 16093 4.1 250 22:48 24.06.2019
5880 Haze 21 1013 73 12874 4.36 218.787 22:21 24.06.2019
5881 Mist 21 1014 64 11265 2.1 0 21:57 24.06.2019
5882 Mist 20 1013 68 11265 2.6 230 21:37 24.06.2019
5883 Mist 20 1014 82 12874 1.5 270 21:18 24.06.2019
5884 Haze 20 1014 72 12874 3.1 210 20:43 24.06.2019
5885 Haze 19 1014 82 12874 3.72 208.362 20:23 24.06.2019
5886 Haze 18 1014 77 14484 2.6 270 19:49 24.06.2019
5887 Haze 18 1014 77 14484 2.6 270 19:30 24.06.2019
5888 Haze 17 1015 77 9656 1.5 120 18:58 24.06.2019
5889 Haze 17 1014 82 6437 2.1 150 18:38 24.06.2019
5890 Haze 17 1014 82 12874 1.61 196.185 18:20 24.06.2019
5891 Haze 17 1014 82 9656 1.61 196.185 17:37 24.06.2019
5892 Haze 17 1014 82 9656 1.61 196.185 17:37 24.06.2019
5893 Haze 17 1014 82 9656 1.61 196.185 17:18 24.06.2019
5894 Haze 17 1014 82 9656 1.61 196.185 16:44 24.06.2019
5895 Haze 17 1014 82 9656 2.6 260 16:19 24.06.2019
5896 Haze 17 1013 82 9656 1.61 196.185 15:44 24.06.2019
5897 Haze 16 1013 82 9656 0.78 197.319 15:25 24.06.2019
5898 Drizzle 16 1013 88 6437 2.6 180 14:37 24.06.2019
5899 Drizzle 16 1013 82 11265 0.78 197.319 14:19 24.06.2019
5900 Drizzle 16 1013 82 12874 1.29 186.404 13:33 24.06.2019
5901 Drizzle 16 1013 100 6437 1.29 186.404 12:58 24.06.2019
5902 Mist 16 1013 93 16093 1.5 200 12:39 24.06.2019
5903 Mist 16 1013 88 12874 1.91 193.38 12:20 24.06.2019
5904 Mist 16 1014 93 4828 2.1 160 11:44 24.06.2019
5905 Mist 16 1014 88 8047 1.91 193.38 11:26 24.06.2019
5906 Mist 16 1014 93 11265 3.1 130 10:52 24.06.2019
5907 Mist 17 1014 93 4828 1.5 0 10:33 24.06.2019
5908 Mist 17 1014 88 9656 1.91 193.38 09:56 24.06.2019
5909 Mist 17 1014 88 9656 1.91 193.38 09:38 24.06.2019
5910 Mist 17 1014 88 9656 1.91 189.019 09:18 24.06.2019
5911 Mist 17 1014 93 12874 1.5 190 08:36 24.06.2019
5912 Clouds 17 1014 88 16093 1.91 187.587 07:58 24.06.2019
5913 Clouds 17 1014 82 14484 1.5 0 07:40 24.06.2019
5914 Clouds 17 1014 82 14484 1.5 0 07:21 24.06.2019
5915 Clouds 18 1014 82 12874 1.5 0 06:23 24.06.2019
5916 Clouds 19 1013 77 16093 1.5 270 05:32 24.06.2019
5917 Clouds 19 1013 77 16093 1.5 250 04:35 24.06.2019
5918 Clear 21 1013 64 16093 4.1 280 03:44 24.06.2019
5919 Clear 23 1013 68 16093 3.1 260 02:36 24.06.2019
5920 Clouds 24 1013 77 16093 8.7 260 01:55 24.06.2019
5921 Clouds 24 1014 60 16093 7.2 250 01:31 24.06.2019
5922 Clouds 24 1015 64 16093 7.2 260 00:46 24.06.2019
5923 Clear 25 1014 60 16093 4.69 227.007 00:20 24.06.2019
5924 Clear 25 1015 60 16093 2.1 0 23:48 23.06.2019
5925 Clear 24 1015 60 16093 2.1 0 23:28 23.06.2019
5926 Clear 24 1016 44 16093 2.6 140 22:57 23.06.2019
5927 Haze 24 1016 64 2012 4.6 230 22:39 23.06.2019
5928 Haze 24 1016 64 2012 4.6 230 22:19 23.06.2019
5929 Clear 23 1015 57 16093 2.1 250 21:41 23.06.2019
5930 Clear 23 1015 57 16093 2.1 250 21:41 23.06.2019
5931 Clear 23 1015 57 16093 2.1 250 21:22 23.06.2019
5932 Clear 23 1015 57 16093 2.1 250 21:22 23.06.2019
5933 Clouds 22 1016 60 14484 3.1 220 20:49 23.06.2019
5934 Clouds 22 1016 60 14484 3.1 220 20:29 23.06.2019
5935 Clear 21 1017 68 16093 2.6 120 19:54 23.06.2019
5936 Clouds 20 1016 64 16093 3.45 215.761 19:36 23.06.2019
5937 Clouds 20 1016 64 16093 3.45 215.761 19:18 23.06.2019
5938 Clouds 19 1016 82 16093 2.6 120 18:41 23.06.2019
5939 Clouds 18 1016 77 16093 2.1 270 18:19 23.06.2019
5940 Mist 17 1016 72 16093 1.67 225 17:41 23.06.2019
5941 Mist 17 1016 72 16093 1.67 225 17:21 23.06.2019
5942 Clouds 17 1016 87 16093 1.67 225 16:44 23.06.2019
5943 Clouds 17 1016 77 16093 1.67 225 16:44 23.06.2019
5944 Clouds 17 1016 77 16093 1.67 225 16:24 23.06.2019
5945 Clouds 17 1015 77 16093 1.67 225 15:43 23.06.2019
5946 Clouds 15 1015 93 14484 1.5 150 15:24 23.06.2019
5947 Clouds 15 1015 77 12874 1.55 237.098 14:59 23.06.2019
5948 Clouds 15 1015 77 16093 1.55 237.098 14:38 23.06.2019
5949 Clouds 15 1015 77 16093 1.55 237.098 14:20 23.06.2019
5950 Clouds 15 1015 88 16093 1.5 340 13:42 23.06.2019
5951 Clouds 15 1015 88 16093 1.5 340 13:21 23.06.2019
5952 Clouds 15 1015 87 16093 1.38 228.65 12:56 23.06.2019
5953 Clouds 15 1015 82 16093 1.5 260 12:37 23.06.2019
5954 Clouds 15 1015 82 16093 1.5 260 12:18 23.06.2019
5955 Clouds 15 1015 82 16093 2.1 290 11:45 23.06.2019
5956 Clear 15 1015 82 16093 1.38 176.59 11:25 23.06.2019
5957 Clouds 16 1015 93 16093 1.38 176.59 10:48 23.06.2019
5958 Clouds 16 1015 93 16093 1.38 176.59 10:21 23.06.2019
5959 Clouds 16 1015 77 16093 1.38 176.59 09:57 23.06.2019
5960 Clouds 16 1015 77 16093 1.74 212.124 09:22 23.06.2019
5961 Clouds 16 1015 77 16093 1.74 212.124 08:47 23.06.2019
5962 Clouds 17 1015 77 16093 1.46 220.393 08:27 23.06.2019
5963 Clouds 17 1015 82 16093 4.1 270 07:56 23.06.2019
5964 Clouds 17 1015 77 16093 1.46 220.393 07:38 23.06.2019
5965 Clear 17 1015 77 16093 2.6 270 07:18 23.06.2019
5966 Clear 18 1014 72 16093 2.1 270 06:43 23.06.2019
5967 Clear 19 1014 64 16093 2.1 0 05:42 23.06.2019
5968 Clear 23 1013 56 16093 3.1 270 02:32 23.06.2019
5969 Clear 23 1013 56 16093 2.1 0 01:39 23.06.2019
5970 Clear 23 1014 60 16093 5.96 232.243 00:58 23.06.2019
5971 Clear 23 1014 60 16093 5.3 227.148 00:27 23.06.2019
5972 Clouds 23 1014 56 16093 5.3 227.148 23:44 22.06.2019
5973 Clouds 23 1014 56 16093 5.3 227.148 23:25 22.06.2019
5974 Clouds 22 1015 56 16093 3.6 250 22:47 22.06.2019
5975 Clouds 22 1015 56 16093 1.5 0 22:26 22.06.2019
5976 Clouds 21 1015 64 16093 2.1 260 21:56 22.06.2019
5977 Clouds 21 1015 64 16093 5.3 227.148 21:36 22.06.2019
5978 Clouds 21 1015 64 16093 4.13 225.549 21:18 22.06.2019
5979 Clouds 20 1015 64 16093 4.24 228.375 20:43 22.06.2019
5980 Clouds 20 1015 72 16093 3.6 240 20:24 22.06.2019
5981 Clouds 20 1015 64 16093 4.24 228.375 19:41 22.06.2019
5982 Clouds 19 1015 68 16093 3.1 0 19:20 22.06.2019
5983 Clouds 19 1015 72 16093 4.24 228.375 18:43 22.06.2019
5984 Clouds 18 1015 72 16093 1.87 244.863 18:23 22.06.2019
5985 Clouds 18 1015 72 16093 1.87 244.863 17:46 22.06.2019
5986 Clouds 17 1014 72 16093 1.87 244.863 17:25 22.06.2019
5987 Rain 17 1014 72 16093 1.5 320 16:44 22.06.2019
5988 Rain 17 1014 77 16093 1.87 244.863 16:24 22.06.2019
5989 Clouds 17 1014 77 16093 1.87 244.863 15:46 22.06.2019
5990 Clouds 17 1014 77 16093 1.5 220 15:27 22.06.2019
5991 Clouds 17 1013 77 16093 2.46 244.517 14:52 22.06.2019
5992 Clouds 17 1014 68 16093 2.1 300 14:32 22.06.2019
5993 Clouds 17 1013 88 16093 2.1 260 13:58 22.06.2019
5994 Clouds 17 1013 88 16093 1.5 240 13:39 22.06.2019
5995 Clouds 17 1013 88 16093 1.5 240 13:19 22.06.2019
5996 Clouds 17 1013 77 16093 1.81 232.908 12:45 22.06.2019
5997 Clouds 17 1013 72 16093 2.6 280 12:26 22.06.2019
5998 Clouds 17 1013 82 16093 2.1 260 11:45 22.06.2019
5999 Clouds 17 1013 82 16093 1.5 260 11:27 22.06.2019
6000 Clouds 17 1013 77 16093 2.1 210 10:47 22.06.2019
6001 Clouds 17 1013 77 16093 2.1 210 10:19 22.06.2019
6002 Clouds 17 1013 77 16093 2.1 280 09:37 22.06.2019
6003 Clouds 17 1013 77 16093 2.1 280 08:50 22.06.2019
6004 Clouds 17 1013 72 16093 1.5 250 08:31 22.06.2019
6005 Clouds 17 1013 82 16093 3.1 240 07:53 22.06.2019
6006 Clouds 18 1014 88 16093 2.1 250 07:29 22.06.2019
6007 Clouds 18 1013 72 16093 2.1 200 06:46 22.06.2019
6008 Clouds 19 1012 68 16093 3.57 236.689 04:38 22.06.2019
6009 Clouds 20 1012 64 16093 3.19 231.472 02:27 22.06.2019
6010 Clouds 20 1013 64 16093 5.1 270 00:57 22.06.2019
6011 Clouds 20 1013 64 16093 1.5 0 00:35 22.06.2019
6012 Clouds 20 1013 60 16093 4.07 216.174 23:51 21.06.2019
6013 Clouds 20 1013 60 16093 4.07 216.174 23:25 21.06.2019
6014 Clouds 20 1014 68 12874 5.1 250 22:58 21.06.2019
6015 Clouds 20 1014 68 16093 2.1 260 22:40 21.06.2019
6016 Clouds 20 1014 68 16093 2.1 260 22:20 21.06.2019
6017 Clouds 19 1014 77 16093 3.6 180 21:40 21.06.2019
6018 Clouds 19 1014 60 16093 2.6 0 21:21 21.06.2019
6019 Clouds 19 1014 68 16093 1.5 250 20:49 21.06.2019
6020 Clouds 19 1013 68 16093 2.1 260 20:27 21.06.2019
6021 Rain 19 1014 68 16093 3.6 280 19:54 21.06.2019
6022 Rain 19 1014 68 16093 2.1 250 19:23 21.06.2019
6023 Rain 18 1014 87 11265 1.5 150 18:43 21.06.2019
6024 Rain 18 1014 87 11265 1.5 150 18:43 21.06.2019
6025 Rain 18 1014 68 16093 1.36 189.518 18:25 21.06.2019
6026 Rain 17 1014 77 16093 1.5 190 17:45 21.06.2019
6027 Rain 17 1013 77 16093 1.36 189.518 17:27 21.06.2019
6028 Rain 16 1013 82 16093 1.36 189.518 16:38 21.06.2019
6029 Rain 16 1013 82 16093 1.36 189.518 16:19 21.06.2019
6030 Rain 16 1013 82 16093 1.36 189.518 15:39 21.06.2019
6031 Rain 16 1013 88 16093 1.76 178.043 15:19 21.06.2019
6032 Rain 16 1013 87 4828 1.76 178.043 14:45 21.06.2019
6033 Rain 16 1013 88 16093 1.76 178.043 14:25 21.06.2019
6034 Rain 16 1013 93 9656 2.6 200 13:44 21.06.2019
6035 Rain 16 1013 93 9656 2.6 200 13:25 21.06.2019
6036 Rain 16 1013 100 8047 1.57 196.19 12:54 21.06.2019
6037 Rain 16 1012 82 8047 2.07 203.577 12:24 21.06.2019
6038 Rain 16 1012 82 14484 2.07 203.577 11:59 21.06.2019
6039 Rain 16 1012 82 16093 4.1 240 11:40 21.06.2019
6040 Rain 16 1013 100 9656 2.07 203.577 11:22 21.06.2019
6041 Rain 17 1012 82 16093 1.5 220 10:48 21.06.2019
6042 Rain 17 1013 93 16093 1.5 190 10:21 21.06.2019
6043 Rain 17 1013 93 16093 1.5 190 10:21 21.06.2019
6044 Rain 17 1013 88 16093 3.6 200 09:55 21.06.2019
6045 Clouds 17 1013 77 16093 2.07 203.577 09:37 21.06.2019
6046 Clouds 17 1013 77 16093 1.72 210.557 09:18 21.06.2019
6047 Clouds 17 1013 77 16093 1.89 209.063 08:41 21.06.2019
6048 Clouds 17 1013 77 16093 1.89 209.063 08:21 21.06.2019
6049 Clouds 18 1013 72 16093 1.89 209.063 07:46 21.06.2019
6050 Clouds 18 1013 72 16093 1.89 209.063 07:23 21.06.2019
6051 Clouds 18 1013 72 16093 1.5 0 06:42 21.06.2019
6052 Clouds 18 1013 72 16093 1.5 0 06:18 21.06.2019
6053 Clouds 18 1013 77 16093 4.6 290 04:57 21.06.2019
6054 Clouds 20 1013 77 16093 4.1 230 03:53 21.06.2019
6055 Clouds 20 1012 60 16093 3.94 215.462 03:32 21.06.2019
6056 Clouds 21 1013 60 16093 3.94 215.462 02:44 21.06.2019
6057 Clouds 21 1013 60 16093 1.5 0 01:38 21.06.2019
6058 Clouds 21 1014 68 16093 3.1 210 00:52 21.06.2019
6059 Haze 21 1014 60 16093 4.59 215.204 00:18 21.06.2019
6060 Haze 21 1015 64 16093 3.1 270 23:42 20.06.2019
6061 Haze 21 1015 64 16093 3.1 270 23:42 20.06.2019
6062 Haze 21 1015 64 16093 3.1 270 23:21 20.06.2019
6063 Haze 21 1015 68 12874 4.1 270 22:46 20.06.2019
6064 Haze 20 1015 64 16093 4.59 215.204 22:26 20.06.2019
6065 Haze 20 1015 72 16093 3.6 250 21:57 20.06.2019
6066 Haze 20 1015 68 16093 2.1 0 21:39 20.06.2019
6067 Haze 19 1015 64 14484 2.18 180.263 21:19 20.06.2019
6068 Haze 19 1015 64 12874 2.58 185.861 20:46 20.06.2019
6069 Haze 19 1015 72 16093 2.6 230 20:26 20.06.2019
6070 Haze 19 1015 68 14484 2.58 185.861 19:55 20.06.2019
6071 Haze 19 1015 68 14484 2.58 185.861 19:37 20.06.2019
6072 Haze 18 1015 68 14484 2.58 185.861 19:18 20.06.2019
6073 Haze 18 1015 72 14484 2.58 185.861 18:42 20.06.2019
6074 Haze 18 1015 72 14484 0.88 152.62 18:23 20.06.2019
6075 Haze 18 1016 82 0 2.1 50 17:53 20.06.2019
6076 Mist 18 1014 72 12874 0.88 152.62 17:35 20.06.2019
6077 Mist 18 1016 82 9656 0.88 152.62 16:56 20.06.2019
6078 Haze 17 1014 72 11265 0.88 152.62 16:37 20.06.2019
6079 Haze 17 1014 72 11265 0.88 152.62 16:18 20.06.2019
6080 Haze 17 1014 72 11265 0.88 152.62 16:18 20.06.2019
6081 Haze 17 1014 72 12874 0.88 152.62 15:41 20.06.2019
6082 Haze 17 1014 72 12874 0.91 200.225 15:22 20.06.2019
6083 Clouds 17 1014 72 12874 0.91 200.225 14:47 20.06.2019
6084 Clouds 17 1014 72 12874 0.91 200.225 14:23 20.06.2019
6085 Clouds 17 1014 72 12874 0.91 200.225 13:42 20.06.2019
6086 Clouds 17 1014 72 12874 0.91 200.225 13:42 20.06.2019
6087 Clouds 17 1014 72 12874 1.62 237.578 13:21 20.06.2019
6088 Clouds 17 1014 77 16093 1.5 310 12:50 20.06.2019
6089 Clouds 17 1014 77 16093 1.62 233.293 12:25 20.06.2019
6090 Clouds 17 1015 77 16093 1.62 233.293 11:58 20.06.2019
6091 Clouds 17 1015 77 16093 1.62 233.293 11:39 20.06.2019
6092 Clouds 17 1015 77 16093 1.62 233.293 11:20 20.06.2019
6093 Clouds 17 1015 77 16093 1.62 233.293 10:42 20.06.2019
6094 Clouds 17 1015 77 16093 1.62 233.293 10:23 20.06.2019
6095 Clouds 17 1015 77 16093 1.62 233.293 09:41 20.06.2019
6096 Clouds 17 1015 77 16093 1.78 229.029 09:23 20.06.2019
6097 Clouds 17 1015 77 16093 2.6 260 08:47 20.06.2019
6098 Clouds 17 1015 77 16093 2.6 260 08:28 20.06.2019
6099 Clouds 17 1015 77 16093 3.1 190 07:55 20.06.2019
6100 Clouds 17 1015 77 16093 1.94 238.707 07:31 20.06.2019
6101 Clouds 18 1015 77 16093 2.6 170 06:46 20.06.2019
6102 Clouds 18 1015 77 16093 4.1 250 06:18 20.06.2019
6103 Clear 21 1013 64 16093 3.6 270 03:39 20.06.2019
6104 Haze 24 1015 60 8047 4.6 240 00:59 20.06.2019
6105 Haze 24 1015 60 8047 4.6 240 00:33 20.06.2019
6106 Clear 24 1014 53 16093 2.1 250 23:43 19.06.2019
6107 Clear 24 1014 53 16093 2.1 250 23:25 19.06.2019
6108 Clear 24 1014 47 14484 4.17 227.685 22:48 19.06.2019
6109 Haze 24 1014 47 14484 4.17 227.685 22:24 19.06.2019
6110 Haze 23 1015 68 16093 5.1 270 21:57 19.06.2019
6111 Haze 23 1015 53 14484 1.5 0 21:37 19.06.2019
6112 Haze 22 1015 53 14484 1.5 0 21:18 19.06.2019
6113 Haze 21 1016 64 9656 2.1 160 20:40 19.06.2019
6114 Haze 21 1016 56 12874 2.86 208.963 20:21 19.06.2019
6115 Haze 20 1016 64 12874 2.86 208.963 19:45 19.06.2019
6116 Haze 20 1016 64 12874 2.86 208.963 19:26 19.06.2019
6117 Haze 19 1016 82 6437 2.86 208.963 18:56 19.06.2019
6118 Haze 18 1016 82 6437 1.51 225.67 18:24 19.06.2019
6119 Haze 18 1015 72 9656 1.51 225.67 17:44 19.06.2019
6120 Haze 18 1015 72 9656 1.51 225.67 17:25 19.06.2019
6121 Haze 18 1015 72 11265 1.51 225.67 16:56 19.06.2019
6122 Haze 18 1015 82 11265 1.5 210 16:36 19.06.2019
6123 Haze 18 1015 77 12874 1.51 225.67 16:18 19.06.2019
6124 Mist 17 1015 77 14484 1.51 225.67 15:42 19.06.2019
6125 Mist 17 1015 77 14484 1.14 229.475 15:22 19.06.2019
6126 Mist 17 1015 77 14484 1.14 229.475 15:22 19.06.2019
6127 Mist 17 1014 77 14484 1.14 229.475 14:43 19.06.2019
6128 Mist 17 1014 77 14484 1.14 229.475 14:43 19.06.2019
6129 Mist 17 1014 77 14484 1.14 229.475 14:24 19.06.2019
6130 Clouds 17 1015 77 16093 1.5 280 13:47 19.06.2019
6131 Clouds 17 1015 77 16093 1.5 280 13:28 19.06.2019
6132 Clouds 17 1014 77 14484 1.5 250 12:59 19.06.2019
6133 Clouds 17 1015 77 16093 1.61 238.731 12:40 19.06.2019
6134 Clouds 17 1015 77 16093 1.66 222.875 12:18 19.06.2019
6135 Clouds 17 1015 77 16093 1.5 260 11:42 19.06.2019
6136 Clouds 17 1015 77 16093 1.5 260 11:21 19.06.2019
6137 Clouds 17 1015 77 16093 1.66 222.875 10:49 19.06.2019
6138 Clouds 17 1015 77 16093 1.66 222.875 10:28 19.06.2019
6139 Clouds 17 1015 77 16093 1.66 222.875 10:28 19.06.2019
6140 Clouds 17 1016 77 16093 1.66 222.875 09:56 19.06.2019
6141 Clouds 17 1016 77 16093 3.6 290 09:38 19.06.2019
6142 Clouds 17 1016 82 16093 1.99 233.458 09:18 19.06.2019
6143 Clouds 17 1016 82 16093 2.1 270 08:43 19.06.2019
6144 Clouds 17 1016 82 16093 2.1 270 08:25 19.06.2019
6145 Clouds 17 1016 88 16093 2.6 250 07:44 19.06.2019
6146 Clouds 17 1016 82 16093 1.5 180 07:23 19.06.2019
6147 Clouds 17 1015 72 16093 2.1 280 06:42 19.06.2019
6148 Clouds 18 1015 72 16093 2.1 280 06:20 19.06.2019
6149 Clouds 18 1015 77 16093 3.6 270 05:41 19.06.2019
6150 Clouds 20 1014 72 16093 4.1 240 03:58 19.06.2019
6151 Clouds 21 1013 68 16093 2.6 0 03:18 19.06.2019
6152 Clouds 22 1014 60 16093 2.1 0 01:48 19.06.2019
6153 Clouds 22 1015 64 16093 5.7 250 00:57 19.06.2019
6154 Clouds 22 1015 64 16093 5.7 250 00:39 19.06.2019
6155 Clouds 22 1014 60 16093 2.6 260 00:20 19.06.2019
6156 Clouds 22 1015 60 16093 3.1 280 23:46 18.06.2019
6157 Clouds 22 1015 60 16093 4.37 221.529 23:26 18.06.2019
6158 Clear 21 1015 64 16093 2.6 120 22:45 18.06.2019
6159 Clouds 21 1015 64 14484 1.5 0 22:24 18.06.2019
6160 Haze 20 1016 72 16093 4.37 221.529 21:56 18.06.2019
6161 Haze 20 1015 64 12874 1.5 0 21:38 18.06.2019
6162 Haze 20 1015 64 12874 1.5 0 21:19 18.06.2019
6163 Clouds 19 1015 68 14484 3.72 208.046 20:43 18.06.2019
6164 Haze 19 1015 68 14484 3.72 208.046 20:25 18.06.2019
6165 Haze 18 1015 77 14484 1.5 0 19:41 18.06.2019
6166 Haze 18 1015 77 14484 1.5 0 19:23 18.06.2019
6167 Haze 18 1016 82 11265 2.6 120 18:59 18.06.2019
6168 Haze 17 1014 72 16093 1.97 207.409 18:37 18.06.2019
6169 Haze 17 1014 77 11265 1.97 207.409 18:18 18.06.2019
6170 Haze 17 1014 77 8047 1.97 207.409 17:38 18.06.2019
6171 Haze 17 1014 77 8047 1.97 207.409 17:19 18.06.2019
6172 Haze 17 1015 87 9656 1.97 207.409 16:43 18.06.2019
6173 Haze 17 1014 77 8047 1.97 207.409 16:24 18.06.2019
6174 Haze 16 1013 82 11265 1.97 207.409 15:43 18.06.2019
6175 Haze 16 1013 82 11265 1.63 208.565 15:25 18.06.2019
6176 Clouds 16 1013 77 12874 2.1 140 14:59 18.06.2019
6177 Clouds 16 1013 77 14484 2.1 130 14:41 18.06.2019
6178 Clouds 16 1013 77 16093 1.5 150 14:21 18.06.2019
6179 Clouds 16 1013 82 16093 1.5 240 13:53 18.06.2019
6180 Clouds 16 1013 77 16093 2.6 200 13:32 18.06.2019
6181 Clouds 17 1013 88 16093 3.1 210 12:56 18.06.2019
6182 Clouds 17 1013 77 16093 2.6 260 12:36 18.06.2019
6183 Clouds 17 1012 77 16093 1.5 260 12:18 18.06.2019
6184 Clouds 17 1013 77 16093 1.5 250 11:42 18.06.2019
6185 Clouds 17 1013 77 16093 1.5 250 11:21 18.06.2019
6186 Clouds 17 1013 77 16093 1.47 202.17 10:57 18.06.2019
6187 Clouds 17 1013 77 16093 1.47 202.17 10:37 18.06.2019
6188 Clouds 17 1013 77 16093 1.47 202.17 10:18 18.06.2019
6189 Clouds 17 1013 82 16093 2.6 180 09:39 18.06.2019
6190 Clouds 17 1013 82 16093 2.6 180 09:18 18.06.2019
6191 Clouds 17 1013 77 16093 2.19 198.078 08:43 18.06.2019
6192 Clouds 17 1013 77 16093 1.75 206.667 08:21 18.06.2019
6193 Clouds 17 1013 77 16093 2.1 190 07:40 18.06.2019
6194 Clouds 17 1013 82 16093 1.5 250 07:19 18.06.2019
6195 Clouds 18 1013 72 16093 2.6 240 05:39 18.06.2019
6196 Clouds 18 1012 72 16093 3.6 200 05:19 18.06.2019
6197 Clouds 21 1012 64 16093 4.1 260 02:52 18.06.2019
6198 Clouds 21 1012 56 16093 3.6 190 01:55 18.06.2019
6199 Clouds 21 1012 60 16093 3.98 223.779 01:24 18.06.2019
6200 Clouds 21 1012 56 16093 3.1 0 00:55 18.06.2019
6201 Clouds 21 1012 60 16093 1.5 0 00:27 18.06.2019
6202 Clouds 21 1013 68 16093 2.6 230 23:41 17.06.2019
6203 Clouds 21 1013 68 14484 3.6 260 23:20 17.06.2019
6204 Clouds 20 1013 64 16093 4.1 230 22:56 17.06.2019
6205 Clouds 20 1013 68 16093 4.12 213.678 22:37 17.06.2019
6206 Clouds 20 1013 68 16093 4.12 213.678 22:18 17.06.2019
6207 Clouds 19 1013 64 16093 4.12 213.678 21:42 17.06.2019
6208 Clouds 19 1013 64 16093 3.38 206.777 21:21 17.06.2019
6209 Clouds 19 1013 77 16093 2.1 190 20:37 17.06.2019
6210 Haze 19 1013 72 16093 3.88 213.485 20:19 17.06.2019
6211 Haze 19 1013 72 16093 3.88 213.485 19:43 17.06.2019
6212 Haze 18 1013 72 16093 3.88 213.485 19:24 17.06.2019
6213 Haze 18 1013 77 14484 3.1 250 18:58 17.06.2019
6214 Mist 18 1013 82 16093 1.5 0 18:38 17.06.2019
6215 Mist 17 1012 77 16093 1.53 225.158 18:18 17.06.2019
6216 Mist 17 1012 87 14484 2.1 150 17:47 17.06.2019
6217 Mist 17 1012 87 14484 2.1 150 17:29 17.06.2019
6218 Mist 17 1012 87 14484 2.1 150 17:29 17.06.2019
6219 Mist 17 1012 77 16093 1.53 225.158 16:55 17.06.2019
6220 Clouds 17 1012 77 14484 1.53 225.158 16:37 17.06.2019
6221 Clouds 17 1012 77 16093 1.53 225.158 16:19 17.06.2019
6222 Clouds 16 1012 82 14484 1.53 225.158 15:43 17.06.2019
6223 Clouds 16 1011 82 16093 1.89 213.254 15:20 17.06.2019
6224 Clouds 16 1011 82 16093 1.89 213.254 15:20 17.06.2019
6225 Clouds 16 1011 82 16093 1.89 213.254 14:55 17.06.2019
6226 Clouds 16 1011 82 16093 1.89 213.254 14:34 17.06.2019
6227 Clouds 16 1011 82 16093 1.89 213.254 14:34 17.06.2019
6228 Clouds 16 1011 82 16093 1.89 213.254 13:58 17.06.2019
6229 Clouds 16 1011 77 16093 2.1 270 13:40 17.06.2019
6230 Clouds 16 1011 77 16093 2.1 270 13:20 17.06.2019
6231 Clouds 16 1011 87 16093 3.1 160 12:39 17.06.2019
6232 Clouds 16 1011 87 16093 3.1 160 12:19 17.06.2019
6233 -273 0 0 0 0 0 11:43 17.06.2019
6234 Clouds 16 1011 77 16093 1.5 0 11:24 17.06.2019
6235 Clouds 17 1012 82 16093 1.5 210 10:47 17.06.2019
6236 Clouds 17 1012 82 16093 1.44 198.838 10:29 17.06.2019
6237 Clouds 17 1012 77 16093 1.44 198.838 09:56 17.06.2019
6238 Clouds 17 1012 82 16093 3.1 200 09:34 17.06.2019
6239 Clouds 17 1012 77 16093 1.44 196.039 08:55 17.06.2019
6240 Clouds 17 1012 77 11265 1.44 196.039 08:36 17.06.2019
6241 Clouds 17 1012 77 11265 1.44 196.039 08:18 17.06.2019
6242 Clouds 17 1012 82 16093 2.6 170 07:39 17.06.2019
6243 Clouds 17 1012 72 16093 2.6 280 07:19 17.06.2019
6244 Clouds 17 1012 68 16093 1.5 260 06:23 17.06.2019
6245 Clouds 18 1011 72 16093 2.85 226.648 05:31 17.06.2019
6246 Clouds 18 1011 68 16093 2.1 0 04:33 17.06.2019
6247 Clouds 20 1011 77 16093 4.6 240 03:33 17.06.2019
6248 Clouds 20 1011 64 16093 2.1 250 02:50 17.06.2019
6249 Clouds 21 1011 68 16093 4.01 223.758 02:32 17.06.2019
6250 Clouds 22 1011 68 16093 6.7 250 01:39 17.06.2019
6251 Haze 22 1011 60 8047 4.6 190 00:59 17.06.2019
6252 Haze 22 1012 72 16093 5.1 240 00:40 17.06.2019
6253 Haze 22 1012 72 16093 5.1 240 00:20 17.06.2019
6254 Haze 22 1012 64 16093 1.5 0 23:40 16.06.2019
6255 Haze 22 1012 64 16093 1.5 0 23:21 16.06.2019
6256 Haze 21 1013 72 16093 4.6 250 22:47 16.06.2019
6257 Haze 21 1013 72 16093 4.6 250 22:21 16.06.2019
6258 Haze 20 1012 68 12874 2.1 0 21:59 16.06.2019
6259 Haze 20 1013 72 9656 4.27 219.307 21:40 16.06.2019
6260 Haze 20 1013 72 9656 4.27 219.307 21:40 16.06.2019
6261 Haze 20 1013 72 9656 3.15 219.185 21:21 16.06.2019
6262 Haze 19 1013 72 9656 3.15 219.185 20:56 16.06.2019
6263 Haze 19 1014 68 8047 2.6 170 20:37 16.06.2019
6264 Haze 19 1014 68 8047 2.6 170 20:18 16.06.2019
6265 Haze 19 1014 68 8047 2.6 170 20:18 16.06.2019
6266 Haze 18 1013 82 11265 2.6 250 19:41 16.06.2019
6267 Haze 18 1013 77 9656 3.57 208.362 19:22 16.06.2019
6268 Haze 18 1012 72 9656 3.57 208.362 18:58 16.06.2019
6269 Haze 17 1012 72 9656 1.17 211.543 18:39 16.06.2019
6270 Haze 17 1012 72 9656 1.17 211.543 18:20 16.06.2019
6271 Haze 17 1013 82 8047 2.6 240 17:47 16.06.2019
6272 Haze 17 1012 77 8047 1.17 211.543 17:22 16.06.2019
6273 Haze 17 1012 77 8047 1.17 211.543 16:57 16.06.2019
6274 Haze 17 1012 77 8047 1.17 211.543 16:57 16.06.2019
6275 Haze 17 1012 77 8047 1.17 211.543 16:57 16.06.2019
6276 Haze 17 1012 77 8047 1.17 211.543 16:39 16.06.2019
6277 Haze 17 1012 77 8047 1.17 211.543 16:20 16.06.2019
6278 Clouds 17 1012 77 12874 1.17 211.543 15:42 16.06.2019
6279 Clouds 16 1012 77 12874 1.17 192.785 15:24 16.06.2019
6280 Clouds 16 1012 77 12874 1.17 192.785 14:44 16.06.2019
6281 Clouds 16 1012 77 12874 1.17 192.785 14:23 16.06.2019
6282 Mist 17 1012 77 12874 1.17 192.785 13:52 16.06.2019
6283 Mist 16 1012 77 12874 1.17 192.785 13:28 16.06.2019
6284 Mist 16 1012 77 12874 1.02 190.837 12:58 16.06.2019
6285 Mist 16 1012 77 12874 1.02 190.837 12:40 16.06.2019
6286 Mist 17 1012 77 12874 1.43 172.607 12:20 16.06.2019
6287 Clouds 17 1012 77 16093 1.43 172.607 11:46 16.06.2019
6288 Clouds 17 1012 77 16093 1.43 172.607 11:46 16.06.2019
6289 Clouds 17 1012 77 16093 1.43 172.607 11:20 16.06.2019
6290 Clouds 17 1013 72 16093 1.43 172.607 10:56 16.06.2019
6291 Clouds 17 1013 72 16093 1.43 172.607 10:38 16.06.2019
6292 Clouds 17 1013 72 16093 1.43 172.607 10:18 16.06.2019
6293 Clouds 17 1013 72 16093 1.5 0 09:39 16.06.2019
6294 Clouds 17 1013 72 16093 2.1 270 09:21 16.06.2019
6295 Clouds 17 1014 77 16093 2.1 270 08:42 16.06.2019
6296 Clear 17 1014 77 16093 1.72 215.902 08:19 16.06.2019
6297 Clear 17 1014 77 16093 1.5 260 07:44 16.06.2019
6298 Clear 17 1014 77 16093 1.5 260 07:20 16.06.2019
6299 Clouds 17 1014 72 16093 2.1 290 06:49 16.06.2019
6300 Clear 18 1013 77 16093 2.83 223.022 05:52 16.06.2019
6301 Clear 18 1013 68 16093 1.5 250 05:18 16.06.2019
6302 Clear 20 1012 64 16093 1.5 250 03:59 16.06.2019
6303 Clouds 21 1012 64 16093 4.1 300 03:33 16.06.2019
6304 Clear 22 1013 53 16093 3.6 140 02:48 16.06.2019
6305 Haze 23 1013 64 16093 4.6 260 01:47 16.06.2019
6306 Haze 23 1013 64 16093 1.5 0 01:28 16.06.2019
6307 Haze 23 1013 60 16093 4.47 230.631 00:43 16.06.2019
6308 Haze 23 1013 60 16093 4.17 217.999 00:23 16.06.2019
6309 Clouds 23 1013 60 16093 4.17 217.999 23:55 15.06.2019
6310 Clouds 22 1013 56 16093 1.5 0 23:37 15.06.2019
6311 Clouds 22 1013 56 16093 1.5 0 23:18 15.06.2019
6312 Haze 21 1014 60 16093 4.17 217.999 22:43 15.06.2019
6313 Haze 21 1014 60 16093 4.17 217.999 22:24 15.06.2019
6314 Haze 20 1014 64 16093 4.17 217.999 21:43 15.06.2019
6315 Haze 20 1014 64 16093 3.95 208.759 21:20 15.06.2019
6316 Clouds 19 1014 64 16093 3.95 208.759 20:45 15.06.2019
6317 Clouds 19 1014 64 16093 3.95 208.759 20:23 15.06.2019
6318 Clouds 19 1016 77 11265 3.95 208.759 19:50 15.06.2019
6319 Clouds 19 1014 68 16093 3.95 208.759 19:26 15.06.2019
6320 Clouds 18 1015 77 14484 1.5 190 18:44 15.06.2019
6321 Clouds 18 1015 77 14484 1.5 190 18:25 15.06.2019
6322 Haze 17 1014 68 16093 1.5 0 17:47 15.06.2019
6323 Haze 17 1014 68 16093 1.5 0 17:29 15.06.2019
6324 Haze 17 1014 72 16093 1.5 0 16:49 15.06.2019
6325 Haze 17 1014 72 16093 1.5 0 16:22 15.06.2019
6326 Haze 17 1014 72 16093 1.5 0 15:58 15.06.2019
6327 Clouds 17 1014 68 16093 1.54 171.644 15:40 15.06.2019
6328 Clouds 17 1014 68 16093 0.98 150.255 15:20 15.06.2019
6329 Clouds 17 1013 72 16093 0.98 150.255 14:38 15.06.2019
6330 Mist 17 1013 72 16093 0.98 150.255 14:18 15.06.2019
6331 Mist 17 1013 72 16093 0.98 150.255 14:18 15.06.2019
6332 Mist 17 1013 87 9656 2.1 150 13:43 15.06.2019
6333 Clouds 17 1013 77 12874 0.98 150.255 13:21 15.06.2019
6334 Clouds 17 1013 77 12874 0.98 150.255 12:58 15.06.2019
6335 Clouds 17 1013 77 16093 0.98 150.255 12:40 15.06.2019
6336 Clouds 17 1013 77 16093 0.94 245.374 12:20 15.06.2019
6337 Clouds 16 1013 82 14484 2.6 140 11:41 15.06.2019
6338 Clouds 16 1013 82 14484 2.6 140 11:23 15.06.2019
6339 Clouds 16 1014 77 16093 2.09 129.981 10:42 15.06.2019
6340 Clouds 16 1014 77 16093 2.09 129.981 10:24 15.06.2019
6341 Clouds 17 1014 77 16093 2.09 129.981 09:48 15.06.2019
6342 Clouds 17 1014 77 16093 1.52 161.17 09:26 15.06.2019
6343 Clouds 17 1014 82 16093 2.6 260 08:54 15.06.2019
6344 Clouds 17 1014 77 16093 1.52 161.17 08:54 15.06.2019
6345 Clouds 17 1014 77 16093 1.52 161.17 08:34 15.06.2019
6346 Clouds 17 1014 77 16093 1.52 161.17 07:54 15.06.2019
6347 Clouds 17 1014 72 16093 1.5 280 07:25 15.06.2019
6348 Clouds 17 1014 72 16093 2.1 280 06:48 15.06.2019
6349 Haze 17 1013 77 16093 1.5 270 06:21 15.06.2019
6350 Haze 18 1013 77 16093 2.12 208.015 05:29 15.06.2019
6351 Haze 18 1013 77 16093 2.12 208.015 04:49 15.06.2019
6352 Haze 18 1013 77 16093 2.12 208.015 04:49 15.06.2019
6353 Haze 20 1014 60 16093 3.1 160 03:50 15.06.2019
6354 Haze 21 1013 60 16093 2.6 0 03:19 15.06.2019
6355 Clear 21 1013 60 16093 3.1 260 02:30 15.06.2019
6356 Clear 22 1013 60 16093 3.1 260 01:53 15.06.2019
6357 Haze 22 1013 60 16093 3.44 225.177 01:19 15.06.2019
6358 Haze 22 1014 60 16093 1.5 0 00:40 15.06.2019
6359 Haze 22 1014 60 16093 4.18 205.677 00:20 15.06.2019
6360 Haze 21 1015 72 14484 4.6 250 23:42 14.06.2019
6361 Haze 21 1015 72 14484 4.6 250 23:18 14.06.2019
6362 Haze 20 1014 60 16093 3.6 200 22:41 14.06.2019
6363 Haze 20 1014 60 16093 3.6 200 22:21 14.06.2019
6364 Haze 19 1015 68 16093 1.5 0 21:48 14.06.2019
6365 Haze 19 1015 68 16093 1.5 0 21:28 14.06.2019
6366 Haze 18 1016 82 16093 3.6 220 20:55 14.06.2019
6367 Haze 18 1015 68 16093 3.75 182.812 20:36 14.06.2019
6368 Haze 18 1015 68 16093 3.75 182.812 20:18 14.06.2019
6369 Haze 18 1015 68 16093 3.75 182.812 19:39 14.06.2019
6370 Haze 18 1015 68 16093 3.75 182.812 19:19 14.06.2019
6371 Haze 18 1015 68 16093 3.75 182.812 18:54 14.06.2019
6372 Haze 18 1015 68 16093 3.75 182.812 18:36 14.06.2019
6373 Haze 17 1015 68 16093 2.08 158.832 18:18 14.06.2019
6374 Haze 17 1015 77 16093 2.08 158.832 17:44 14.06.2019
6375 Haze 17 1015 77 16093 2.08 158.832 17:23 14.06.2019
6376 Clouds 17 1014 77 11265 3.1 140 16:48 14.06.2019
6377 Haze 17 1014 72 16093 1.5 0 16:24 14.06.2019
6378 Haze 17 1014 72 16093 1.5 0 16:24 14.06.2019
6379 Haze 17 1014 72 16093 1.5 0 15:59 14.06.2019
6380 Haze 16 1013 72 14484 2.08 158.832 15:39 14.06.2019
6381 Mist 16 1013 72 14484 1.43 162.313 15:19 14.06.2019
6382 Mist 16 1013 72 14484 1.43 162.313 14:46 14.06.2019
6383 Mist 16 1013 72 14484 1.43 162.313 14:27 14.06.2019
6384 Mist 16 1013 82 16093 2.1 240 13:46 14.06.2019
6385 Mist 16 1013 82 16093 2.1 240 13:28 14.06.2019
6386 Mist 16 1013 72 12874 1.5 0 12:57 14.06.2019
6387 Mist 16 1013 82 11265 1.5 190 12:39 14.06.2019
6388 Mist 16 1013 82 11265 1.5 190 12:20 14.06.2019
6389 Clouds 16 1013 77 12874 1.87 191.262 11:42 14.06.2019
6390 Clouds 16 1013 77 12874 1.87 191.262 11:42 14.06.2019
6391 Clouds 16 1013 77 12874 1.87 191.262 11:42 14.06.2019
6392 Clouds 16 1014 77 14484 1.5 250 11:23 14.06.2019
6393 Clouds 16 1013 72 16093 2.1 160 10:47 14.06.2019
6394 Clouds 16 1014 77 16093 2.1 250 10:21 14.06.2019
6395 Clouds 16 1014 82 12874 1.87 191.262 09:55 14.06.2019
6396 Clouds 16 1014 82 12874 2.1 140 09:34 14.06.2019
6397 Clouds 16 1014 77 16093 1.79 184.737 08:49 14.06.2019
6398 Clouds 16 1014 77 16093 1.79 184.737 08:21 14.06.2019
6399 Clouds 16 1014 77 16093 1.79 184.737 07:55 14.06.2019
6400 Clouds 17 1014 72 16093 1.79 184.737 07:24 14.06.2019
6401 Clouds 17 1014 72 16093 1.79 184.737 06:55 14.06.2019
6402 Clouds 17 1013 77 16093 1.5 0 06:20 14.06.2019
6403 Clouds 18 1013 72 16093 4.1 250 05:47 14.06.2019
6404 Clouds 19 1013 77 14484 2.1 260 04:54 14.06.2019
6405 Clouds 19 1013 68 16093 1.5 0 04:27 14.06.2019
6406 Fog 20 1013 64 16093 2.61 230.001 03:41 14.06.2019
6407 Fog 21 1013 64 16093 3.35 227.938 03:21 14.06.2019
6408 Clear 22 1013 60 16093 2.1 260 02:36 14.06.2019
6409 Clear 23 1014 47 16093 3.35 227.938 01:51 14.06.2019
6410 Clear 23 1014 60 16093 3.35 227.938 00:41 14.06.2019
6411 Clear 23 1014 60 16093 3.42 204.88 00:22 14.06.2019
6412 Haze 23 1014 56 16093 3.1 0 23:50 13.06.2019
6413 Haze 23 1014 64 12874 4.1 180 23:26 13.06.2019
6414 Haze 23 1015 56 14484 2.1 150 22:57 13.06.2019
6415 Haze 22 1015 68 11265 3.42 204.88 22:37 13.06.2019
6416 Haze 22 1015 68 11265 3.42 204.88 22:18 13.06.2019
6417 Haze 21 1015 68 9656 3.42 204.88 21:38 13.06.2019
6418 Haze 21 1015 68 9656 2.7 174.921 21:19 13.06.2019
6419 Haze 20 1015 72 12874 1.5 0 20:45 13.06.2019
6420 Haze 20 1015 72 12874 1.5 0 20:21 13.06.2019
6421 Haze 19 1015 77 9656 2.7 174.921 19:55 13.06.2019
6422 Haze 18 1015 82 9656 2.6 210 19:36 13.06.2019
6423 Haze 18 1015 82 9656 2.6 210 19:18 13.06.2019
6424 Haze 18 1015 77 6437 2.1 0 18:43 13.06.2019
6425 Haze 18 1015 72 6437 1.83 152.733 18:25 13.06.2019
6426 Haze 18 1015 72 6437 1.83 152.733 17:57 13.06.2019
6427 Haze 17 1014 77 6437 1.83 152.733 17:39 13.06.2019
6428 Haze 17 1014 77 6437 1.83 152.733 17:19 13.06.2019
6429 Haze 17 1014 77 8047 1.5 140 16:45 13.06.2019
6430 Haze 17 1014 77 8047 1.5 140 16:21 13.06.2019
6431 Mist 17 1013 82 8047 3.1 140 15:43 13.06.2019
6432 Haze 16 1013 77 12874 1.05 173.811 15:25 13.06.2019
6433 Haze 16 1013 77 12874 1.05 173.811 14:56 13.06.2019
6434 Haze 16 1013 77 12874 1.5 0 14:38 13.06.2019
6435 Haze 16 1013 77 12874 1.5 0 14:20 13.06.2019
6436 Mist 16 1013 82 12874 1.05 173.811 13:40 13.06.2019
6437 Mist 17 1013 82 12874 1.05 173.811 13:21 13.06.2019
6438 Mist 17 1013 82 12874 1.05 173.811 13:21 13.06.2019
6439 Mist 17 1013 82 12874 1.05 173.811 12:42 13.06.2019
6440 Mist 17 1013 82 12874 1.42 180.97 12:22 13.06.2019
6441 Mist 17 1013 82 12874 1.42 180.97 11:57 13.06.2019
6442 Mist 17 1014 82 16093 1.42 180.97 11:38 13.06.2019
6443 Mist 17 1014 82 16093 1.42 180.97 11:19 13.06.2019
6444 Clouds 17 1014 82 11265 2.6 100 10:43 13.06.2019
6445 Clouds 17 1014 77 16093 1.5 260 10:24 13.06.2019
6446 Clouds 17 1014 88 16093 2.1 190 09:44 13.06.2019
6447 Clouds 17 1014 88 12874 4.1 100 09:23 13.06.2019
6448 Clouds 17 1014 93 16093 2.6 170 08:48 13.06.2019
6449 Clouds 17 1014 77 14484 1.72 233.623 08:28 13.06.2019
6450 Clouds 18 1014 77 14484 1.72 233.623 07:56 13.06.2019
6451 Clouds 18 1014 82 16093 4.6 250 07:27 13.06.2019
6452 Clouds 18 1013 88 16093 3.6 260 06:51 13.06.2019
6453 Clouds 19 1013 88 16093 3.6 260 06:24 13.06.2019
6454 Clouds 19 1013 82 14484 2.9 251.49 05:56 13.06.2019
6455 Clouds 20 1013 82 14484 1.5 0 05:37 13.06.2019
6456 Clouds 21 1013 82 14484 1.5 0 04:58 13.06.2019
6457 Clear 27 1013 64 16093 1.5 0 02:42 13.06.2019
6458 Clear 28 1013 64 16093 2.1 250 01:27 13.06.2019
6459 Clear 28 1014 57 16093 3.75 245.696 00:29 13.06.2019
6460 Fog 28 1014 77 14484 5.7 270 23:24 12.06.2019
6461 Fog 28 1014 61 12874 3.74 238.479 22:47 12.06.2019
6462 Fog 27 1014 61 12874 3.74 238.479 22:28 12.06.2019
6463 Fog 27 1014 61 12874 3.74 238.479 21:58 12.06.2019
6464 Fog 27 1015 65 12874 3.74 238.479 21:40 12.06.2019
6465 Fog 26 1015 65 12874 2.61 219.884 21:21 12.06.2019
6466 Haze 26 1015 61 9656 2.61 219.884 20:42 12.06.2019
6467 Haze 25 1015 61 9656 2.61 219.884 20:22 12.06.2019
6468 Haze 25 1015 61 9656 2.61 219.884 19:56 12.06.2019
6469 Fog 25 1015 77 2414 5.1 260 19:37 12.06.2019
6470 Fog 25 1014 61 14484 2.61 219.884 19:18 12.06.2019
6471 Fog 23 1015 77 14484 2.6 220 18:40 12.06.2019
6472 Fog 23 1015 77 14484 2.6 220 18:22 12.06.2019
6473 Haze 21 1015 82 12874 0.71 196.157 17:45 12.06.2019
6474 Haze 21 1015 73 11265 0.71 196.157 17:21 12.06.2019
6475 Haze 19 1015 93 9656 1.5 220 16:43 12.06.2019
6476 Haze 19 1015 93 9656 1.5 220 16:24 12.06.2019
6477 Haze 19 1015 82 8047 0.71 196.157 15:57 12.06.2019
6478 Mist 18 1014 88 9656 0.71 196.157 15:32 12.06.2019
6479 Mist 18 1014 88 12874 1.5 240 14:55 12.06.2019
6480 Mist 18 1014 100 4023 1.5 220 14:31 12.06.2019
6481 Clear 18 1014 82 16093 0.86 216.936 13:56 12.06.2019
6482 Clear 18 1014 82 16093 0.86 216.936 13:37 12.06.2019
6483 Clear 18 1014 82 16093 1.06 184.17 13:18 12.06.2019
6484 Clouds 18 1014 88 12874 2.6 170 12:40 12.06.2019
6485 Clear 18 1014 77 16093 1.65 149.554 12:20 12.06.2019
6486 Clear 19 1015 77 16093 1.65 149.554 11:48 12.06.2019
6487 Clear 19 1015 77 16093 1.65 149.554 11:30 12.06.2019
6488 Clear 19 1015 77 16093 1.65 149.554 10:57 12.06.2019
6489 Clear 19 1015 73 16093 1.65 149.554 10:39 12.06.2019
6490 Clear 19 1015 73 16093 1.65 149.554 10:39 12.06.2019
6491 Clear 19 1015 73 16093 1.65 149.554 10:18 12.06.2019
6492 Clear 19 1015 73 16093 1.65 149.554 09:41 12.06.2019
6493 Clear 20 1015 73 16093 1.63 226.645 09:21 12.06.2019
6494 Clear 20 1015 73 16093 1.5 260 08:29 12.06.2019
6495 Clear 20 1015 73 16093 1.5 260 07:58 12.06.2019
6496 Clear 20 1015 73 16093 2.1 270 07:20 12.06.2019
6497 Clear 21 1014 64 16093 2.1 270 06:39 12.06.2019
6498 Clear 24 1014 60 16093 1.5 250 05:25 12.06.2019
6499 Clear 30 1014 54 16093 2.1 250 02:22 12.06.2019
6500 Clear 32 1016 17 16093 3.1 120 00:47 12.06.2019
6501 Clear 31 1014 45 16093 2.1 260 00:20 12.06.2019
6502 Clear 31 1014 51 16093 2.96 217.749 23:43 11.06.2019
6503 Clear 32 1014 51 16093 2.96 217.749 23:24 11.06.2019
6504 Fog 33 1015 51 16093 1.5 0 22:43 11.06.2019
6505 Fog 32 1015 51 16093 1.5 0 22:18 11.06.2019
6506 Clear 32 1017 12 16093 3.23 222.247 21:56 11.06.2019
6507 Clear 33 1015 48 16093 3.1 280 21:37 11.06.2019
6508 Clear 30 1015 48 16093 3.1 280 21:19 11.06.2019
6509 Clear 31 1015 43 16093 2.19 201.137 20:46 11.06.2019
6510 Haze 30 1015 43 16093 2.19 201.137 20:23 11.06.2019
6511 Haze 30 1015 43 16093 2.19 201.137 19:53 11.06.2019
6512 Haze 29 1015 51 16093 2.19 201.137 19:31 11.06.2019
6513 -273 0 0 0 0 0 18:55 11.06.2019
6514 Clear 25 1016 57 16093 0.4 155.877 18:21 11.06.2019
6515 Haze 23 1016 64 16093 1.5 0 17:42 11.06.2019
6516 Haze 23 1016 64 16093 1.5 0 17:22 11.06.2019
6517 Haze 21 1016 64 16093 1.5 0 16:56 11.06.2019
6518 Haze 21 1016 73 16093 0.4 155.877 16:37 11.06.2019
6519 Haze 20 1016 73 16093 0.4 155.877 16:19 11.06.2019
6520 Clear 18 1016 82 16093 0.4 155.877 15:42 11.06.2019
6521 Clear 18 1016 82 16093 0.4 155.877 15:42 11.06.2019
6522 Clear 18 1016 82 16093 0.67 186.775 15:21 11.06.2019
6523 Clear 18 1016 82 16093 0.67 186.775 14:44 11.06.2019
6524 Clear 18 1016 82 16093 0.67 186.775 14:21 11.06.2019
6525 Mist 18 1016 93 16093 2.1 230 13:51 11.06.2019
6526 Mist 18 1016 82 16093 0.67 186.775 13:24 11.06.2019
6527 Clear 18 1016 82 16093 0.56 121.908 12:55 11.06.2019
6528 Clear 18 1016 82 16093 0.56 121.908 12:55 11.06.2019
6529 Clear 18 1015 82 16093 0.56 121.908 12:37 11.06.2019
6530 Clear 18 1015 82 16093 1.4 165.348 12:18 11.06.2019
6531 Clouds 18 1015 82 16093 1.5 140 11:39 11.06.2019
6532 Clouds 19 1015 82 16093 1.5 140 11:19 11.06.2019
6533 Clear 19 1015 73 16093 1.5 120 10:46 11.06.2019
6534 Clear 19 1015 73 16093 1.5 120 10:46 11.06.2019
6535 Clear 19 1015 73 16093 1.5 120 10:25 11.06.2019
6536 Clouds 19 1015 93 16093 1.5 160 09:49 11.06.2019
6537 Clear 19 1015 73 16093 1.5 100 09:24 11.06.2019
6538 Clear 20 1015 77 16093 1.59 204.609 08:45 11.06.2019
6539 Clear 20 1015 77 16093 1.59 204.609 08:26 11.06.2019
6540 Clear 21 1015 82 16093 1.59 204.609 07:46 11.06.2019
6541 Clear 21 1015 82 16093 1.72 314.271 07:27 11.06.2019
6542 Clear 22 1014 73 16093 2.1 260 06:50 11.06.2019
6543 Fog 25 1014 68 16093 2.91 287.353 04:55 11.06.2019
6544 Clear 27 1013 31 16093 2.91 287.353 03:42 11.06.2019
6545 Fog 32 1014 33 16093 1.5 0 01:41 11.06.2019
6546 Fog 32 1016 8 16093 3.1 120 00:48 11.06.2019
6547 Fog 34 1017 9 16093 3.1 140 23:50 10.06.2019
6548 Fog 33 1015 40 16093 3.56 233.822 23:32 10.06.2019
6549 Clear 33 1015 40 16093 3.84 232.491 22:56 10.06.2019
6550 Clear 33 1015 38 16093 1.5 0 22:38 10.06.2019
6551 Clear 33 1015 38 16093 1.5 0 22:19 10.06.2019
6552 Clear 32 1015 48 16093 3.84 232.491 21:41 10.06.2019
6553 Clear 31 1015 48 16093 2.38 219.047 21:22 10.06.2019
6554 Clear 30 1016 57 16093 2.38 219.047 20:47 10.06.2019
6555 Clear 29 1016 57 16093 2.38 219.047 20:25 10.06.2019
6556 Clear 28 1016 61 16093 1.5 0 19:58 10.06.2019
6557 Clear 27 1016 61 16093 1.5 0 19:39 10.06.2019
6558 Clear 27 1016 61 16093 1.5 0 19:21 10.06.2019
6559 Mist 25 1016 61 16093 1.5 0 18:55 10.06.2019
6560 Mist 24 1016 68 12874 1.5 0 18:37 10.06.2019
6561 Mist 23 1016 68 12874 1.5 0 18:18 10.06.2019
6562 Haze 21 1016 88 8047 4.1 260 17:40 10.06.2019
6563 Haze 20 1016 88 8047 4.1 260 17:22 10.06.2019
6564 Haze 19 1016 93 8047 1.5 250 16:46 10.06.2019
6565 Haze 18 1015 93 1207 2.6 310 16:28 10.06.2019
6566 Haze 18 1015 77 11265 1.5 270 15:56 10.06.2019
6567 Haze 17 1014 77 12874 1.24 272.453 15:37 10.06.2019
6568 Haze 17 1014 77 12874 1.36 273.848 15:18 10.06.2019
6569 Clear 16 1014 82 12874 1.36 273.848 14:40 10.06.2019
6570 Clear 16 1014 82 12874 1.36 273.848 14:21 10.06.2019
6571 Clear 16 1014 82 12874 1.36 273.848 13:45 10.06.2019
6572 Clear 16 1014 82 12874 1.36 273.848 13:23 10.06.2019
6573 Clear 17 1015 82 12874 0.84 219.457 12:48 10.06.2019
6574 Clear 16 1015 82 12874 1.33 186.445 12:29 10.06.2019
6575 Clear 17 1015 82 12874 1.33 186.445 11:49 10.06.2019
6576 Clear 17 1015 82 12874 1.33 186.445 11:30 10.06.2019
6577 Clear 17 1015 82 12874 1.33 186.445 10:58 10.06.2019
6578 Clear 17 1015 77 14484 1.33 186.445 10:38 10.06.2019
6579 Clear 18 1015 77 14484 1.33 186.445 10:18 10.06.2019
6580 Clear 18 1015 82 14484 1.33 186.445 09:48 10.06.2019
6581 Clear 18 1015 82 14484 1.33 186.445 09:29 10.06.2019
6582 Mist 18 1015 88 9656 2.24 203.464 08:48 10.06.2019
6583 Mist 18 1015 88 9656 2.24 203.464 08:26 10.06.2019
6584 Clouds 19 1015 77 16093 3.6 230 07:27 10.06.2019
6585 Clear 24 1013 60 16093 1.5 280 04:42 10.06.2019
6586 Clear 30 1013 51 16093 2.6 260 02:29 10.06.2019
6587 Haze 3